<?xml version="1.0" encoding="UTF-8" standalone="no" ?>
<gpx xmlns="http://www.topografix.com/GPX/1/1" xmlns:xsi="http://www.w3.org/2001/XMLSchema-instance" xsi:schemaLocation="http://www.topografix.com/GPX/1/1 http://www.topografix.com/GPX/1/1/gpx.xsd" version="1.1" creator="VisuGPX - https://www.visugpx.com">
  <metadata>
    <name>De la Cadière au Mont Caume</name>
    <desc><![CDATA[On rejoint le Mont Caume en passant par le Beausset et le Broussan. Réalisé en vélo électrique Var Ouest E-Bike]]></desc>
  </metadata>
  <trk>
    <name><![CDATA[Le Mont Caume E-Bike]]></name>
    <trkseg>
      <trkpt lat="43.19576" lon="5.75775">
        <ele>132.19999694824</ele>
        <time>2016-05-15T07:45:23.000Z</time>
      </trkpt>
      <trkpt lat="43.19572" lon="5.75779">
        <ele>131</ele>
        <time>2016-05-15T07:45:25.000Z</time>
      </trkpt>
      <trkpt lat="43.19557" lon="5.75791">
        <ele>129</ele>
        <time>2016-05-15T07:45:32.000Z</time>
      </trkpt>
      <trkpt lat="43.19552" lon="5.75794">
        <ele>128.39999389648</ele>
        <time>2016-05-15T07:45:34.000Z</time>
      </trkpt>
      <trkpt lat="43.19547" lon="5.75797">
        <ele>127.80000305176</ele>
        <time>2016-05-15T07:45:36.000Z</time>
      </trkpt>
      <trkpt lat="43.19542" lon="5.75803">
        <ele>127.19999694824</ele>
        <time>2016-05-15T07:45:39.000Z</time>
      </trkpt>
      <trkpt lat="43.19539" lon="5.75807">
        <ele>126.80000305176</ele>
        <time>2016-05-15T07:45:41.000Z</time>
      </trkpt>
      <trkpt lat="43.19538" lon="5.75811">
        <ele>126.59999847412</ele>
        <time>2016-05-15T07:45:42.000Z</time>
      </trkpt>
      <trkpt lat="43.19538" lon="5.75822">
        <ele>125.80000305176</ele>
        <time>2016-05-15T07:45:45.000Z</time>
      </trkpt>
      <trkpt lat="43.19538" lon="5.75826">
        <ele>125.59999847412</ele>
        <time>2016-05-15T07:45:46.000Z</time>
      </trkpt>
      <trkpt lat="43.19537" lon="5.75837">
        <ele>124.80000305176</ele>
        <time>2016-05-15T07:45:50.000Z</time>
      </trkpt>
      <trkpt lat="43.19537" lon="5.75837">
        <ele>124.80000305176</ele>
        <time>2016-05-15T07:45:51.000Z</time>
      </trkpt>
      <trkpt lat="43.19535" lon="5.75843">
        <ele>124.19999694824</ele>
        <time>2016-05-15T07:46:16.000Z</time>
      </trkpt>
      <trkpt lat="43.19532" lon="5.75846">
        <ele>123.59999847412</ele>
        <time>2016-05-15T07:46:17.000Z</time>
      </trkpt>
      <trkpt lat="43.19528" lon="5.75851">
        <ele>123</ele>
        <time>2016-05-15T07:46:18.000Z</time>
      </trkpt>
      <trkpt lat="43.1951" lon="5.75874">
        <ele>119.59999847412</ele>
        <time>2016-05-15T07:46:22.000Z</time>
      </trkpt>
      <trkpt lat="43.195" lon="5.75885">
        <ele>117.19999694824</ele>
        <time>2016-05-15T07:46:24.000Z</time>
      </trkpt>
      <trkpt lat="43.19492" lon="5.75896">
        <ele>115.40000152588</ele>
        <time>2016-05-15T07:46:26.000Z</time>
      </trkpt>
      <trkpt lat="43.19483" lon="5.75904">
        <ele>113.80000305176</ele>
        <time>2016-05-15T07:46:28.000Z</time>
      </trkpt>
      <trkpt lat="43.19478" lon="5.75905">
        <ele>112.80000305176</ele>
        <time>2016-05-15T07:46:29.000Z</time>
      </trkpt>
      <trkpt lat="43.19468" lon="5.75903">
        <ele>110.80000305176</ele>
        <time>2016-05-15T07:46:31.000Z</time>
      </trkpt>
      <trkpt lat="43.19463" lon="5.75899">
        <ele>110.19999694824</ele>
        <time>2016-05-15T07:46:32.000Z</time>
      </trkpt>
      <trkpt lat="43.19459" lon="5.75894">
        <ele>109.59999847412</ele>
        <time>2016-05-15T07:46:33.000Z</time>
      </trkpt>
      <trkpt lat="43.19453" lon="5.75884">
        <ele>108.80000305176</ele>
        <time>2016-05-15T07:46:35.000Z</time>
      </trkpt>
      <trkpt lat="43.19451" lon="5.75879">
        <ele>108.80000305176</ele>
        <time>2016-05-15T07:46:36.000Z</time>
      </trkpt>
      <trkpt lat="43.19448" lon="5.75874">
        <ele>108.80000305176</ele>
        <time>2016-05-15T07:46:37.000Z</time>
      </trkpt>
      <trkpt lat="43.19445" lon="5.75869">
        <ele>108.59999847412</ele>
        <time>2016-05-15T07:46:40.000Z</time>
      </trkpt>
      <trkpt lat="43.19445" lon="5.75867">
        <ele>108.59999847412</ele>
        <time>2016-05-15T07:46:42.000Z</time>
      </trkpt>
      <trkpt lat="43.19438" lon="5.75862">
        <ele>107.80000305176</ele>
        <time>2016-05-15T07:46:45.000Z</time>
      </trkpt>
      <trkpt lat="43.19432" lon="5.75853">
        <ele>107.59999847412</ele>
        <time>2016-05-15T07:46:47.000Z</time>
      </trkpt>
      <trkpt lat="43.1943" lon="5.75846">
        <ele>108</ele>
        <time>2016-05-15T07:46:48.000Z</time>
      </trkpt>
      <trkpt lat="43.19428" lon="5.75822">
        <ele>109.40000152588</ele>
        <time>2016-05-15T07:46:51.000Z</time>
      </trkpt>
      <trkpt lat="43.19427" lon="5.75806">
        <ele>110.59999847412</ele>
        <time>2016-05-15T07:46:53.000Z</time>
      </trkpt>
      <trkpt lat="43.19426" lon="5.7577">
        <ele>111</ele>
        <time>2016-05-15T07:46:57.000Z</time>
      </trkpt>
      <trkpt lat="43.19425" lon="5.75761">
        <ele>110.80000305176</ele>
        <time>2016-05-15T07:46:58.000Z</time>
      </trkpt>
      <trkpt lat="43.19419" lon="5.75753">
        <ele>109.80000305176</ele>
        <time>2016-05-15T07:46:59.000Z</time>
      </trkpt>
      <trkpt lat="43.19413" lon="5.75747">
        <ele>108.59999847412</ele>
        <time>2016-05-15T07:47:00.000Z</time>
      </trkpt>
      <trkpt lat="43.194" lon="5.75739">
        <ele>106</ele>
        <time>2016-05-15T07:47:02.000Z</time>
      </trkpt>
      <trkpt lat="43.19393" lon="5.75734">
        <ele>104.59999847412</ele>
        <time>2016-05-15T07:47:03.000Z</time>
      </trkpt>
      <trkpt lat="43.19375" lon="5.75708">
        <ele>101.59999847412</ele>
        <time>2016-05-15T07:47:06.000Z</time>
      </trkpt>
      <trkpt lat="43.1937" lon="5.75698">
        <ele>101</ele>
        <time>2016-05-15T07:47:07.000Z</time>
      </trkpt>
      <trkpt lat="43.19356" lon="5.75668">
        <ele>99.199996948242</ele>
        <time>2016-05-15T07:47:10.000Z</time>
      </trkpt>
      <trkpt lat="43.19351" lon="5.75658">
        <ele>98.599998474121</ele>
        <time>2016-05-15T07:47:11.000Z</time>
      </trkpt>
      <trkpt lat="43.19346" lon="5.75649">
        <ele>97.800003051758</ele>
        <time>2016-05-15T07:47:12.000Z</time>
      </trkpt>
      <trkpt lat="43.19334" lon="5.75632">
        <ele>97.599998474121</ele>
        <time>2016-05-15T07:47:14.000Z</time>
      </trkpt>
      <trkpt lat="43.19316" lon="5.75606">
        <ele>97.800003051758</ele>
        <time>2016-05-15T07:47:17.000Z</time>
      </trkpt>
      <trkpt lat="43.193" lon="5.75583">
        <ele>98.199996948242</ele>
        <time>2016-05-15T07:47:20.000Z</time>
      </trkpt>
      <trkpt lat="43.19288" lon="5.75572">
        <ele>98</ele>
        <time>2016-05-15T07:47:22.000Z</time>
      </trkpt>
      <trkpt lat="43.19281" lon="5.75569">
        <ele>97.599998474121</ele>
        <time>2016-05-15T07:47:23.000Z</time>
      </trkpt>
      <trkpt lat="43.19268" lon="5.75567">
        <ele>96.800003051758</ele>
        <time>2016-05-15T07:47:25.000Z</time>
      </trkpt>
      <trkpt lat="43.19261" lon="5.75569">
        <ele>96.400001525879</ele>
        <time>2016-05-15T07:47:26.000Z</time>
      </trkpt>
      <trkpt lat="43.19255" lon="5.75571">
        <ele>96</ele>
        <time>2016-05-15T07:47:27.000Z</time>
      </trkpt>
      <trkpt lat="43.19244" lon="5.75577">
        <ele>95.199996948242</ele>
        <time>2016-05-15T07:47:29.000Z</time>
      </trkpt>
      <trkpt lat="43.19238" lon="5.75579">
        <ele>94.800003051758</ele>
        <time>2016-05-15T07:47:30.000Z</time>
      </trkpt>
      <trkpt lat="43.19224" lon="5.75586">
        <ele>93.599998474121</ele>
        <time>2016-05-15T07:47:33.000Z</time>
      </trkpt>
      <trkpt lat="43.19213" lon="5.75595">
        <ele>93</ele>
        <time>2016-05-15T07:47:36.000Z</time>
      </trkpt>
      <trkpt lat="43.19211" lon="5.75613">
        <ele>93.400001525879</ele>
        <time>2016-05-15T07:47:39.000Z</time>
      </trkpt>
      <trkpt lat="43.1921" lon="5.75619">
        <ele>93.599998474121</ele>
        <time>2016-05-15T07:47:40.000Z</time>
      </trkpt>
      <trkpt lat="43.19207" lon="5.75636">
        <ele>94</ele>
        <time>2016-05-15T07:47:43.000Z</time>
      </trkpt>
      <trkpt lat="43.19201" lon="5.75653">
        <ele>94</ele>
        <time>2016-05-15T07:47:46.000Z</time>
      </trkpt>
      <trkpt lat="43.19181" lon="5.75687">
        <ele>94</ele>
        <time>2016-05-15T07:47:53.000Z</time>
      </trkpt>
      <trkpt lat="43.1915" lon="5.75726">
        <ele>91.800003051758</ele>
        <time>2016-05-15T07:48:01.000Z</time>
      </trkpt>
      <trkpt lat="43.1912" lon="5.75762">
        <ele>88.800003051758</ele>
        <time>2016-05-15T07:48:07.000Z</time>
      </trkpt>
      <trkpt lat="43.1911" lon="5.75775">
        <ele>88</ele>
        <time>2016-05-15T07:48:09.000Z</time>
      </trkpt>
      <trkpt lat="43.19104" lon="5.7578">
        <ele>87.800003051758</ele>
        <time>2016-05-15T07:48:10.000Z</time>
      </trkpt>
      <trkpt lat="43.19093" lon="5.75789">
        <ele>87</ele>
        <time>2016-05-15T07:48:12.000Z</time>
      </trkpt>
      <trkpt lat="43.1908" lon="5.75797">
        <ele>85.800003051758</ele>
        <time>2016-05-15T07:48:14.000Z</time>
      </trkpt>
      <trkpt lat="43.19066" lon="5.75803">
        <ele>84.199996948242</ele>
        <time>2016-05-15T07:48:16.000Z</time>
      </trkpt>
      <trkpt lat="43.19049" lon="5.75809">
        <ele>82.599998474121</ele>
        <time>2016-05-15T07:48:18.000Z</time>
      </trkpt>
      <trkpt lat="43.19041" lon="5.75812">
        <ele>81.800003051758</ele>
        <time>2016-05-15T07:48:19.000Z</time>
      </trkpt>
      <trkpt lat="43.19025" lon="5.7582">
        <ele>80.199996948242</ele>
        <time>2016-05-15T07:48:21.000Z</time>
      </trkpt>
      <trkpt lat="43.19007" lon="5.75826">
        <ele>79</ele>
        <time>2016-05-15T07:48:23.000Z</time>
      </trkpt>
      <trkpt lat="43.18997" lon="5.75829">
        <ele>78.800003051758</ele>
        <time>2016-05-15T07:48:24.000Z</time>
      </trkpt>
      <trkpt lat="43.18988" lon="5.75833">
        <ele>78.400001525879</ele>
        <time>2016-05-15T07:48:25.000Z</time>
      </trkpt>
      <trkpt lat="43.18968" lon="5.75839">
        <ele>77.800003051758</ele>
        <time>2016-05-15T07:48:27.000Z</time>
      </trkpt>
      <trkpt lat="43.18949" lon="5.75845">
        <ele>77.400001525879</ele>
        <time>2016-05-15T07:48:29.000Z</time>
      </trkpt>
      <trkpt lat="43.18931" lon="5.75853">
        <ele>77.199996948242</ele>
        <time>2016-05-15T07:48:31.000Z</time>
      </trkpt>
      <trkpt lat="43.18924" lon="5.75859">
        <ele>77.400001525879</ele>
        <time>2016-05-15T07:48:32.000Z</time>
      </trkpt>
      <trkpt lat="43.18911" lon="5.75874">
        <ele>78.199996948242</ele>
        <time>2016-05-15T07:48:34.000Z</time>
      </trkpt>
      <trkpt lat="43.18905" lon="5.75882">
        <ele>77.800003051758</ele>
        <time>2016-05-15T07:48:35.000Z</time>
      </trkpt>
      <trkpt lat="43.18899" lon="5.7589">
        <ele>77.599998474121</ele>
        <time>2016-05-15T07:48:36.000Z</time>
      </trkpt>
      <trkpt lat="43.18893" lon="5.75897">
        <ele>77.199996948242</ele>
        <time>2016-05-15T07:48:37.000Z</time>
      </trkpt>
      <trkpt lat="43.18886" lon="5.75903">
        <ele>77</ele>
        <time>2016-05-15T07:48:38.000Z</time>
      </trkpt>
      <trkpt lat="43.18879" lon="5.75903">
        <ele>76.800003051758</ele>
        <time>2016-05-15T07:48:39.000Z</time>
      </trkpt>
      <trkpt lat="43.18859" lon="5.75905">
        <ele>76.599998474121</ele>
        <time>2016-05-15T07:48:42.000Z</time>
      </trkpt>
      <trkpt lat="43.18847" lon="5.75906">
        <ele>76.800003051758</ele>
        <time>2016-05-15T07:48:44.000Z</time>
      </trkpt>
      <trkpt lat="43.18811" lon="5.75908">
        <ele>78.400001525879</ele>
        <time>2016-05-15T07:48:51.000Z</time>
      </trkpt>
      <trkpt lat="43.18796" lon="5.75911">
        <ele>79</ele>
        <time>2016-05-15T07:48:54.000Z</time>
      </trkpt>
      <trkpt lat="43.1877" lon="5.75921">
        <ele>80.800003051758</ele>
        <time>2016-05-15T07:48:59.000Z</time>
      </trkpt>
      <trkpt lat="43.18751" lon="5.7593">
        <ele>82.599998474121</ele>
        <time>2016-05-15T07:49:03.000Z</time>
      </trkpt>
      <trkpt lat="43.18733" lon="5.75936">
        <ele>84.599998474121</ele>
        <time>2016-05-15T07:49:07.000Z</time>
      </trkpt>
      <trkpt lat="43.18719" lon="5.75939">
        <ele>85.800003051758</ele>
        <time>2016-05-15T07:49:10.000Z</time>
      </trkpt>
      <trkpt lat="43.187" lon="5.75944">
        <ele>86.599998474121</ele>
        <time>2016-05-15T07:49:14.000Z</time>
      </trkpt>
      <trkpt lat="43.18695" lon="5.75947">
        <ele>86.800003051758</ele>
        <time>2016-05-15T07:49:15.000Z</time>
      </trkpt>
      <trkpt lat="43.18677" lon="5.75957">
        <ele>87.599998474121</ele>
        <time>2016-05-15T07:49:19.000Z</time>
      </trkpt>
      <trkpt lat="43.18659" lon="5.75967">
        <ele>88.599998474121</ele>
        <time>2016-05-15T07:49:23.000Z</time>
      </trkpt>
      <trkpt lat="43.1865" lon="5.75973">
        <ele>88.599998474121</ele>
        <time>2016-05-15T07:49:25.000Z</time>
      </trkpt>
      <trkpt lat="43.18636" lon="5.75981">
        <ele>89</ele>
        <time>2016-05-15T07:49:28.000Z</time>
      </trkpt>
      <trkpt lat="43.18613" lon="5.76002">
        <ele>89.199996948242</ele>
        <time>2016-05-15T07:49:34.000Z</time>
      </trkpt>
      <trkpt lat="43.18609" lon="5.76006">
        <ele>89</ele>
        <time>2016-05-15T07:49:35.000Z</time>
      </trkpt>
      <trkpt lat="43.18585" lon="5.7604">
        <ele>87.199996948242</ele>
        <time>2016-05-15T07:49:42.000Z</time>
      </trkpt>
      <trkpt lat="43.18562" lon="5.76085">
        <ele>84.599998474121</ele>
        <time>2016-05-15T07:49:49.000Z</time>
      </trkpt>
      <trkpt lat="43.18541" lon="5.76131">
        <ele>81.800003051758</ele>
        <time>2016-05-15T07:49:55.000Z</time>
      </trkpt>
      <trkpt lat="43.18534" lon="5.76138">
        <ele>81.400001525879</ele>
        <time>2016-05-15T07:49:56.000Z</time>
      </trkpt>
      <trkpt lat="43.1851" lon="5.76153">
        <ele>80.800003051758</ele>
        <time>2016-05-15T07:49:59.000Z</time>
      </trkpt>
      <trkpt lat="43.18502" lon="5.76158">
        <ele>81.199996948242</ele>
        <time>2016-05-15T07:50:00.000Z</time>
      </trkpt>
      <trkpt lat="43.18476" lon="5.76174">
        <ele>82</ele>
        <time>2016-05-15T07:50:03.000Z</time>
      </trkpt>
      <trkpt lat="43.18459" lon="5.76183">
        <ele>82.800003051758</ele>
        <time>2016-05-15T07:50:05.000Z</time>
      </trkpt>
      <trkpt lat="43.18451" lon="5.76187">
        <ele>83.199996948242</ele>
        <time>2016-05-15T07:50:06.000Z</time>
      </trkpt>
      <trkpt lat="43.18437" lon="5.76196">
        <ele>84</ele>
        <time>2016-05-15T07:50:08.000Z</time>
      </trkpt>
      <trkpt lat="43.18419" lon="5.76206">
        <ele>85</ele>
        <time>2016-05-15T07:50:11.000Z</time>
      </trkpt>
      <trkpt lat="43.18395" lon="5.76216">
        <ele>85.199996948242</ele>
        <time>2016-05-15T07:50:16.000Z</time>
      </trkpt>
      <trkpt lat="43.18391" lon="5.76216">
        <ele>85.400001525879</ele>
        <time>2016-05-15T07:50:17.000Z</time>
      </trkpt>
      <trkpt lat="43.18386" lon="5.76216">
        <ele>85.599998474121</ele>
        <time>2016-05-15T07:50:18.000Z</time>
      </trkpt>
      <trkpt lat="43.18372" lon="5.76213">
        <ele>86.599998474121</ele>
        <time>2016-05-15T07:50:21.000Z</time>
      </trkpt>
      <trkpt lat="43.18359" lon="5.7621">
        <ele>87.599998474121</ele>
        <time>2016-05-15T07:50:24.000Z</time>
      </trkpt>
      <trkpt lat="43.18346" lon="5.7621">
        <ele>88.199996948242</ele>
        <time>2016-05-15T07:50:27.000Z</time>
      </trkpt>
      <trkpt lat="43.18332" lon="5.76211">
        <ele>89.199996948242</ele>
        <time>2016-05-15T07:50:30.000Z</time>
      </trkpt>
      <trkpt lat="43.18323" lon="5.76212">
        <ele>89.599998474121</ele>
        <time>2016-05-15T07:50:32.000Z</time>
      </trkpt>
      <trkpt lat="43.18319" lon="5.76212">
        <ele>90</ele>
        <time>2016-05-15T07:50:33.000Z</time>
      </trkpt>
      <trkpt lat="43.18308" lon="5.76214">
        <ele>90.599998474121</ele>
        <time>2016-05-15T07:50:36.000Z</time>
      </trkpt>
      <trkpt lat="43.18296" lon="5.76214">
        <ele>91.400001525879</ele>
        <time>2016-05-15T07:50:39.000Z</time>
      </trkpt>
      <trkpt lat="43.18286" lon="5.76215">
        <ele>92</ele>
        <time>2016-05-15T07:50:41.000Z</time>
      </trkpt>
      <trkpt lat="43.18262" lon="5.76219">
        <ele>93.199996948242</ele>
        <time>2016-05-15T07:50:46.000Z</time>
      </trkpt>
      <trkpt lat="43.18247" lon="5.7622">
        <ele>93.800003051758</ele>
        <time>2016-05-15T07:50:49.000Z</time>
      </trkpt>
      <trkpt lat="43.18228" lon="5.76219">
        <ele>94.800003051758</ele>
        <time>2016-05-15T07:50:53.000Z</time>
      </trkpt>
      <trkpt lat="43.18194" lon="5.76216">
        <ele>96.800003051758</ele>
        <time>2016-05-15T07:51:00.000Z</time>
      </trkpt>
      <trkpt lat="43.1819" lon="5.76215">
        <ele>97.199996948242</ele>
        <time>2016-05-15T07:51:01.000Z</time>
      </trkpt>
      <trkpt lat="43.18181" lon="5.76214">
        <ele>97.800003051758</ele>
        <time>2016-05-15T07:51:03.000Z</time>
      </trkpt>
      <trkpt lat="43.18167" lon="5.76214">
        <ele>98</ele>
        <time>2016-05-15T07:51:06.000Z</time>
      </trkpt>
      <trkpt lat="43.18149" lon="5.76217">
        <ele>99</ele>
        <time>2016-05-15T07:51:10.000Z</time>
      </trkpt>
      <trkpt lat="43.18144" lon="5.76217">
        <ele>99.199996948242</ele>
        <time>2016-05-15T07:51:11.000Z</time>
      </trkpt>
      <trkpt lat="43.18121" lon="5.76225">
        <ele>100</ele>
        <time>2016-05-15T07:51:16.000Z</time>
      </trkpt>
      <trkpt lat="43.18116" lon="5.76229">
        <ele>100</ele>
        <time>2016-05-15T07:51:17.000Z</time>
      </trkpt>
      <trkpt lat="43.18112" lon="5.76233">
        <ele>100</ele>
        <time>2016-05-15T07:51:18.000Z</time>
      </trkpt>
      <trkpt lat="43.18108" lon="5.76252">
        <ele>99.800003051758</ele>
        <time>2016-05-15T07:51:21.000Z</time>
      </trkpt>
      <trkpt lat="43.18108" lon="5.76266">
        <ele>99.400001525879</ele>
        <time>2016-05-15T07:51:23.000Z</time>
      </trkpt>
      <trkpt lat="43.18107" lon="5.763">
        <ele>98.599998474121</ele>
        <time>2016-05-15T07:51:28.000Z</time>
      </trkpt>
      <trkpt lat="43.18097" lon="5.76354">
        <ele>96.400001525879</ele>
        <time>2016-05-15T07:51:35.000Z</time>
      </trkpt>
      <trkpt lat="43.18086" lon="5.76393">
        <ele>93.400001525879</ele>
        <time>2016-05-15T07:51:40.000Z</time>
      </trkpt>
      <trkpt lat="43.18083" lon="5.76401">
        <ele>92.800003051758</ele>
        <time>2016-05-15T07:51:41.000Z</time>
      </trkpt>
      <trkpt lat="43.18074" lon="5.76414">
        <ele>91.599998474121</ele>
        <time>2016-05-15T07:51:43.000Z</time>
      </trkpt>
      <trkpt lat="43.1806" lon="5.76424">
        <ele>90.599998474121</ele>
        <time>2016-05-15T07:51:45.000Z</time>
      </trkpt>
      <trkpt lat="43.18053" lon="5.76428">
        <ele>90.199996948242</ele>
        <time>2016-05-15T07:51:46.000Z</time>
      </trkpt>
      <trkpt lat="43.18038" lon="5.76434">
        <ele>89.199996948242</ele>
        <time>2016-05-15T07:51:48.000Z</time>
      </trkpt>
      <trkpt lat="43.18031" lon="5.76437">
        <ele>88.800003051758</ele>
        <time>2016-05-15T07:51:49.000Z</time>
      </trkpt>
      <trkpt lat="43.18023" lon="5.7644">
        <ele>88.199996948242</ele>
        <time>2016-05-15T07:51:50.000Z</time>
      </trkpt>
      <trkpt lat="43.18008" lon="5.76449">
        <ele>86.800003051758</ele>
        <time>2016-05-15T07:51:52.000Z</time>
      </trkpt>
      <trkpt lat="43.17994" lon="5.76458">
        <ele>85</ele>
        <time>2016-05-15T07:51:54.000Z</time>
      </trkpt>
      <trkpt lat="43.17986" lon="5.76462">
        <ele>84.199996948242</ele>
        <time>2016-05-15T07:51:55.000Z</time>
      </trkpt>
      <trkpt lat="43.1798" lon="5.76467">
        <ele>83.400001525879</ele>
        <time>2016-05-15T07:51:56.000Z</time>
      </trkpt>
      <trkpt lat="43.17966" lon="5.76477">
        <ele>81.800003051758</ele>
        <time>2016-05-15T07:51:58.000Z</time>
      </trkpt>
      <trkpt lat="43.17953" lon="5.76485">
        <ele>80.199996948242</ele>
        <time>2016-05-15T07:52:00.000Z</time>
      </trkpt>
      <trkpt lat="43.17939" lon="5.76491">
        <ele>78.800003051758</ele>
        <time>2016-05-15T07:52:02.000Z</time>
      </trkpt>
      <trkpt lat="43.17931" lon="5.76492">
        <ele>78.199996948242</ele>
        <time>2016-05-15T07:52:03.000Z</time>
      </trkpt>
      <trkpt lat="43.17915" lon="5.76494">
        <ele>77.800003051758</ele>
        <time>2016-05-15T07:52:05.000Z</time>
      </trkpt>
      <trkpt lat="43.17906" lon="5.76494">
        <ele>77.800003051758</ele>
        <time>2016-05-15T07:52:06.000Z</time>
      </trkpt>
      <trkpt lat="43.17889" lon="5.76496">
        <ele>77.599998474121</ele>
        <time>2016-05-15T07:52:08.000Z</time>
      </trkpt>
      <trkpt lat="43.17866" lon="5.76502">
        <ele>77.599998474121</ele>
        <time>2016-05-15T07:52:11.000Z</time>
      </trkpt>
      <trkpt lat="43.17859" lon="5.76505">
        <ele>78</ele>
        <time>2016-05-15T07:52:12.000Z</time>
      </trkpt>
      <trkpt lat="43.17853" lon="5.76511">
        <ele>78</ele>
        <time>2016-05-15T07:52:13.000Z</time>
      </trkpt>
      <trkpt lat="43.17839" lon="5.76534">
        <ele>78.199996948242</ele>
        <time>2016-05-15T07:52:16.000Z</time>
      </trkpt>
      <trkpt lat="43.17832" lon="5.76549">
        <ele>78</ele>
        <time>2016-05-15T07:52:18.000Z</time>
      </trkpt>
      <trkpt lat="43.17818" lon="5.76578">
        <ele>76.800003051758</ele>
        <time>2016-05-15T07:52:22.000Z</time>
      </trkpt>
      <trkpt lat="43.17814" lon="5.76584">
        <ele>76.599998474121</ele>
        <time>2016-05-15T07:52:23.000Z</time>
      </trkpt>
      <trkpt lat="43.178" lon="5.76598">
        <ele>76.400001525879</ele>
        <time>2016-05-15T07:52:26.000Z</time>
      </trkpt>
      <trkpt lat="43.1778" lon="5.76606">
        <ele>76.400001525879</ele>
        <time>2016-05-15T07:52:30.000Z</time>
      </trkpt>
      <trkpt lat="43.17776" lon="5.76608">
        <ele>76.400001525879</ele>
        <time>2016-05-15T07:52:31.000Z</time>
      </trkpt>
      <trkpt lat="43.17735" lon="5.76623">
        <ele>76.400001525879</ele>
        <time>2016-05-15T07:52:39.000Z</time>
      </trkpt>
      <trkpt lat="43.1773" lon="5.76627">
        <ele>76</ele>
        <time>2016-05-15T07:52:40.000Z</time>
      </trkpt>
      <trkpt lat="43.17702" lon="5.76652">
        <ele>74</ele>
        <time>2016-05-15T07:52:45.000Z</time>
      </trkpt>
      <trkpt lat="43.17696" lon="5.76655">
        <ele>73.800003051758</ele>
        <time>2016-05-15T07:52:46.000Z</time>
      </trkpt>
      <trkpt lat="43.17676" lon="5.76663">
        <ele>72.599998474121</ele>
        <time>2016-05-15T07:52:49.000Z</time>
      </trkpt>
      <trkpt lat="43.17669" lon="5.76667">
        <ele>72.199996948242</ele>
        <time>2016-05-15T07:52:50.000Z</time>
      </trkpt>
      <trkpt lat="43.1764" lon="5.76683">
        <ele>70</ele>
        <time>2016-05-15T07:52:54.000Z</time>
      </trkpt>
      <trkpt lat="43.17634" lon="5.76689">
        <ele>69.800003051758</ele>
        <time>2016-05-15T07:52:55.000Z</time>
      </trkpt>
      <trkpt lat="43.17621" lon="5.76701">
        <ele>69.400001525879</ele>
        <time>2016-05-15T07:52:57.000Z</time>
      </trkpt>
      <trkpt lat="43.17602" lon="5.76717">
        <ele>69</ele>
        <time>2016-05-15T07:53:00.000Z</time>
      </trkpt>
      <trkpt lat="43.17595" lon="5.76721">
        <ele>69</ele>
        <time>2016-05-15T07:53:01.000Z</time>
      </trkpt>
      <trkpt lat="43.17559" lon="5.76742">
        <ele>68.400001525879</ele>
        <time>2016-05-15T07:53:07.000Z</time>
      </trkpt>
      <trkpt lat="43.17534" lon="5.76766">
        <ele>67.400001525879</ele>
        <time>2016-05-15T07:53:12.000Z</time>
      </trkpt>
      <trkpt lat="43.17515" lon="5.76789">
        <ele>66.800003051758</ele>
        <time>2016-05-15T07:53:16.000Z</time>
      </trkpt>
      <trkpt lat="43.17502" lon="5.76804">
        <ele>66.400001525879</ele>
        <time>2016-05-15T07:53:19.000Z</time>
      </trkpt>
      <trkpt lat="43.17497" lon="5.76808">
        <ele>66</ele>
        <time>2016-05-15T07:53:20.000Z</time>
      </trkpt>
      <trkpt lat="43.17493" lon="5.76813">
        <ele>65.800003051758</ele>
        <time>2016-05-15T07:53:21.000Z</time>
      </trkpt>
      <trkpt lat="43.17484" lon="5.76822">
        <ele>65.199996948242</ele>
        <time>2016-05-15T07:53:23.000Z</time>
      </trkpt>
      <trkpt lat="43.17476" lon="5.7683">
        <ele>64.599998474121</ele>
        <time>2016-05-15T07:53:25.000Z</time>
      </trkpt>
      <trkpt lat="43.17465" lon="5.76846">
        <ele>63.400001525879</ele>
        <time>2016-05-15T07:53:28.000Z</time>
      </trkpt>
      <trkpt lat="43.17462" lon="5.76867">
        <ele>61</ele>
        <time>2016-05-15T07:53:31.000Z</time>
      </trkpt>
      <trkpt lat="43.17464" lon="5.76874">
        <ele>60</ele>
        <time>2016-05-15T07:53:32.000Z</time>
      </trkpt>
      <trkpt lat="43.17467" lon="5.76881">
        <ele>59.200000762939</ele>
        <time>2016-05-15T07:53:33.000Z</time>
      </trkpt>
      <trkpt lat="43.1747" lon="5.76889">
        <ele>58.400001525879</ele>
        <time>2016-05-15T07:53:34.000Z</time>
      </trkpt>
      <trkpt lat="43.17484" lon="5.76926">
        <ele>55.400001525879</ele>
        <time>2016-05-15T07:53:38.000Z</time>
      </trkpt>
      <trkpt lat="43.17486" lon="5.76936">
        <ele>54.599998474121</ele>
        <time>2016-05-15T07:53:39.000Z</time>
      </trkpt>
      <trkpt lat="43.17487" lon="5.76946">
        <ele>53.799999237061</ele>
        <time>2016-05-15T07:53:40.000Z</time>
      </trkpt>
      <trkpt lat="43.17488" lon="5.76975">
        <ele>52</ele>
        <time>2016-05-15T07:53:43.000Z</time>
      </trkpt>
      <trkpt lat="43.17489" lon="5.76985">
        <ele>51.599998474121</ele>
        <time>2016-05-15T07:53:44.000Z</time>
      </trkpt>
      <trkpt lat="43.1749" lon="5.76995">
        <ele>51.400001525879</ele>
        <time>2016-05-15T07:53:45.000Z</time>
      </trkpt>
      <trkpt lat="43.17492" lon="5.77012">
        <ele>51</ele>
        <time>2016-05-15T07:53:47.000Z</time>
      </trkpt>
      <trkpt lat="43.17493" lon="5.77026">
        <ele>50.599998474121</ele>
        <time>2016-05-15T07:53:49.000Z</time>
      </trkpt>
      <trkpt lat="43.17493" lon="5.77034">
        <ele>50.400001525879</ele>
        <time>2016-05-15T07:53:50.000Z</time>
      </trkpt>
      <trkpt lat="43.17491" lon="5.77042">
        <ele>50.200000762939</ele>
        <time>2016-05-15T07:53:51.000Z</time>
      </trkpt>
      <trkpt lat="43.17488" lon="5.77056">
        <ele>49.799999237061</ele>
        <time>2016-05-15T07:53:53.000Z</time>
      </trkpt>
      <trkpt lat="43.17485" lon="5.77062">
        <ele>49.599998474121</ele>
        <time>2016-05-15T07:53:54.000Z</time>
      </trkpt>
      <trkpt lat="43.17481" lon="5.77067">
        <ele>49.599998474121</ele>
        <time>2016-05-15T07:53:55.000Z</time>
      </trkpt>
      <trkpt lat="43.17471" lon="5.77073">
        <ele>49.599998474121</ele>
        <time>2016-05-15T07:53:57.000Z</time>
      </trkpt>
      <trkpt lat="43.17461" lon="5.77078">
        <ele>49.400001525879</ele>
        <time>2016-05-15T07:53:59.000Z</time>
      </trkpt>
      <trkpt lat="43.17456" lon="5.77079">
        <ele>49.400001525879</ele>
        <time>2016-05-15T07:54:00.000Z</time>
      </trkpt>
      <trkpt lat="43.17452" lon="5.7708">
        <ele>49.200000762939</ele>
        <time>2016-05-15T07:54:01.000Z</time>
      </trkpt>
      <trkpt lat="43.17448" lon="5.77081">
        <ele>49.200000762939</ele>
        <time>2016-05-15T07:54:02.000Z</time>
      </trkpt>
      <trkpt lat="43.17446" lon="5.77082">
        <ele>49.200000762939</ele>
        <time>2016-05-15T07:54:03.000Z</time>
      </trkpt>
      <trkpt lat="43.17443" lon="5.77087">
        <ele>49</ele>
        <time>2016-05-15T07:54:05.000Z</time>
      </trkpt>
      <trkpt lat="43.17445" lon="5.77092">
        <ele>49</ele>
        <time>2016-05-15T07:54:06.000Z</time>
      </trkpt>
      <trkpt lat="43.17452" lon="5.77102">
        <ele>49</ele>
        <time>2016-05-15T07:54:09.000Z</time>
      </trkpt>
      <trkpt lat="43.17455" lon="5.77107">
        <ele>49</ele>
        <time>2016-05-15T07:54:10.000Z</time>
      </trkpt>
      <trkpt lat="43.17471" lon="5.77129">
        <ele>49.200000762939</ele>
        <time>2016-05-15T07:54:15.000Z</time>
      </trkpt>
      <trkpt lat="43.17472" lon="5.77134">
        <ele>49</ele>
        <time>2016-05-15T07:54:16.000Z</time>
      </trkpt>
      <trkpt lat="43.17468" lon="5.77142">
        <ele>49</ele>
        <time>2016-05-15T07:54:19.000Z</time>
      </trkpt>
      <trkpt lat="43.17465" lon="5.77143">
        <ele>49</ele>
        <time>2016-05-15T07:54:20.000Z</time>
      </trkpt>
      <trkpt lat="43.17455" lon="5.77144">
        <ele>48.799999237061</ele>
        <time>2016-05-15T07:54:22.000Z</time>
      </trkpt>
      <trkpt lat="43.17428" lon="5.77153">
        <ele>47.799999237061</ele>
        <time>2016-05-15T07:54:27.000Z</time>
      </trkpt>
      <trkpt lat="43.17423" lon="5.77156">
        <ele>47.799999237061</ele>
        <time>2016-05-15T07:54:28.000Z</time>
      </trkpt>
      <trkpt lat="43.17403" lon="5.77164">
        <ele>47.400001525879</ele>
        <time>2016-05-15T07:54:32.000Z</time>
      </trkpt>
      <trkpt lat="43.17389" lon="5.77171">
        <ele>47.200000762939</ele>
        <time>2016-05-15T07:54:35.000Z</time>
      </trkpt>
      <trkpt lat="43.17385" lon="5.77174">
        <ele>47</ele>
        <time>2016-05-15T07:54:36.000Z</time>
      </trkpt>
      <trkpt lat="43.17359" lon="5.77193">
        <ele>46</ele>
        <time>2016-05-15T07:54:42.000Z</time>
      </trkpt>
      <trkpt lat="43.17328" lon="5.77218">
        <ele>45.400001525879</ele>
        <time>2016-05-15T07:54:49.000Z</time>
      </trkpt>
      <trkpt lat="43.17323" lon="5.77222">
        <ele>45.200000762939</ele>
        <time>2016-05-15T07:54:50.000Z</time>
      </trkpt>
      <trkpt lat="43.17294" lon="5.77246">
        <ele>47.200000762939</ele>
        <time>2016-05-15T07:54:57.000Z</time>
      </trkpt>
      <trkpt lat="43.17249" lon="5.77285">
        <ele>48.799999237061</ele>
        <time>2016-05-15T07:55:07.000Z</time>
      </trkpt>
      <trkpt lat="43.17219" lon="5.77306">
        <ele>47.599998474121</ele>
        <time>2016-05-15T07:55:14.000Z</time>
      </trkpt>
      <trkpt lat="43.17197" lon="5.77321">
        <ele>48</ele>
        <time>2016-05-15T07:55:20.000Z</time>
      </trkpt>
      <trkpt lat="43.17195" lon="5.77338">
        <ele>49.799999237061</ele>
        <time>2016-05-15T07:55:24.000Z</time>
      </trkpt>
      <trkpt lat="43.17198" lon="5.77354">
        <ele>52</ele>
        <time>2016-05-15T07:55:27.000Z</time>
      </trkpt>
      <trkpt lat="43.17199" lon="5.77365">
        <ele>53.400001525879</ele>
        <time>2016-05-15T07:55:29.000Z</time>
      </trkpt>
      <trkpt lat="43.172" lon="5.7737">
        <ele>53.799999237061</ele>
        <time>2016-05-15T07:55:30.000Z</time>
      </trkpt>
      <trkpt lat="43.17201" lon="5.77374">
        <ele>54.400001525879</ele>
        <time>2016-05-15T07:55:31.000Z</time>
      </trkpt>
      <trkpt lat="43.172" lon="5.77383">
        <ele>55.400001525879</ele>
        <time>2016-05-15T07:55:33.000Z</time>
      </trkpt>
      <trkpt lat="43.17197" lon="5.77392">
        <ele>56.200000762939</ele>
        <time>2016-05-15T07:55:35.000Z</time>
      </trkpt>
      <trkpt lat="43.17196" lon="5.77395">
        <ele>56.400001525879</ele>
        <time>2016-05-15T07:55:36.000Z</time>
      </trkpt>
      <trkpt lat="43.17191" lon="5.77403">
        <ele>57</ele>
        <time>2016-05-15T07:55:38.000Z</time>
      </trkpt>
      <trkpt lat="43.17187" lon="5.77409">
        <ele>58.200000762939</ele>
        <time>2016-05-15T07:55:40.000Z</time>
      </trkpt>
      <trkpt lat="43.17186" lon="5.77412">
        <ele>58.799999237061</ele>
        <time>2016-05-15T07:55:41.000Z</time>
      </trkpt>
      <trkpt lat="43.17182" lon="5.77418">
        <ele>60</ele>
        <time>2016-05-15T07:55:43.000Z</time>
      </trkpt>
      <trkpt lat="43.17175" lon="5.77429">
        <ele>61.599998474121</ele>
        <time>2016-05-15T07:55:47.000Z</time>
      </trkpt>
      <trkpt lat="43.17172" lon="5.77433">
        <ele>62.200000762939</ele>
        <time>2016-05-15T07:55:48.000Z</time>
      </trkpt>
      <trkpt lat="43.17167" lon="5.77443">
        <ele>63.200000762939</ele>
        <time>2016-05-15T07:55:51.000Z</time>
      </trkpt>
      <trkpt lat="43.17163" lon="5.77451">
        <ele>64.199996948242</ele>
        <time>2016-05-15T07:55:53.000Z</time>
      </trkpt>
      <trkpt lat="43.17161" lon="5.77455">
        <ele>64.599998474121</ele>
        <time>2016-05-15T07:55:54.000Z</time>
      </trkpt>
      <trkpt lat="43.17156" lon="5.77466">
        <ele>65.400001525879</ele>
        <time>2016-05-15T07:55:57.000Z</time>
      </trkpt>
      <trkpt lat="43.17152" lon="5.77479">
        <ele>66.400001525879</ele>
        <time>2016-05-15T07:56:00.000Z</time>
      </trkpt>
      <trkpt lat="43.17151" lon="5.77483">
        <ele>66.800003051758</ele>
        <time>2016-05-15T07:56:01.000Z</time>
      </trkpt>
      <trkpt lat="43.17149" lon="5.77492">
        <ele>67.400001525879</ele>
        <time>2016-05-15T07:56:03.000Z</time>
      </trkpt>
      <trkpt lat="43.17149" lon="5.77506">
        <ele>69</ele>
        <time>2016-05-15T07:56:06.000Z</time>
      </trkpt>
      <trkpt lat="43.17149" lon="5.77516">
        <ele>70</ele>
        <time>2016-05-15T07:56:08.000Z</time>
      </trkpt>
      <trkpt lat="43.1715" lon="5.77525">
        <ele>71</ele>
        <time>2016-05-15T07:56:10.000Z</time>
      </trkpt>
      <trkpt lat="43.17152" lon="5.77538">
        <ele>72.800003051758</ele>
        <time>2016-05-15T07:56:13.000Z</time>
      </trkpt>
      <trkpt lat="43.17155" lon="5.77547">
        <ele>74</ele>
        <time>2016-05-15T07:56:15.000Z</time>
      </trkpt>
      <trkpt lat="43.17156" lon="5.77551">
        <ele>74.599998474121</ele>
        <time>2016-05-15T07:56:16.000Z</time>
      </trkpt>
      <trkpt lat="43.17159" lon="5.77559">
        <ele>75.400001525879</ele>
        <time>2016-05-15T07:56:18.000Z</time>
      </trkpt>
      <trkpt lat="43.17164" lon="5.77571">
        <ele>76.400001525879</ele>
        <time>2016-05-15T07:56:21.000Z</time>
      </trkpt>
      <trkpt lat="43.17169" lon="5.77577">
        <ele>77.199996948242</ele>
        <time>2016-05-15T07:56:23.000Z</time>
      </trkpt>
      <trkpt lat="43.17171" lon="5.7758">
        <ele>77.599998474121</ele>
        <time>2016-05-15T07:56:24.000Z</time>
      </trkpt>
      <trkpt lat="43.17179" lon="5.77589">
        <ele>78.800003051758</ele>
        <time>2016-05-15T07:56:27.000Z</time>
      </trkpt>
      <trkpt lat="43.17186" lon="5.77598">
        <ele>79</ele>
        <time>2016-05-15T07:56:30.000Z</time>
      </trkpt>
      <trkpt lat="43.17188" lon="5.77601">
        <ele>79.199996948242</ele>
        <time>2016-05-15T07:56:31.000Z</time>
      </trkpt>
      <trkpt lat="43.17195" lon="5.7761">
        <ele>79.400001525879</ele>
        <time>2016-05-15T07:56:34.000Z</time>
      </trkpt>
      <trkpt lat="43.17202" lon="5.77624">
        <ele>79.599998474121</ele>
        <time>2016-05-15T07:56:38.000Z</time>
      </trkpt>
      <trkpt lat="43.17206" lon="5.77636">
        <ele>80</ele>
        <time>2016-05-15T07:56:41.000Z</time>
      </trkpt>
      <trkpt lat="43.17209" lon="5.77644">
        <ele>80.599998474121</ele>
        <time>2016-05-15T07:56:43.000Z</time>
      </trkpt>
      <trkpt lat="43.17213" lon="5.77657">
        <ele>81.599998474121</ele>
        <time>2016-05-15T07:56:46.000Z</time>
      </trkpt>
      <trkpt lat="43.17217" lon="5.7767">
        <ele>82.800003051758</ele>
        <time>2016-05-15T07:56:49.000Z</time>
      </trkpt>
      <trkpt lat="43.17223" lon="5.77693">
        <ele>84</ele>
        <time>2016-05-15T07:56:54.000Z</time>
      </trkpt>
      <trkpt lat="43.17224" lon="5.77697">
        <ele>84.199996948242</ele>
        <time>2016-05-15T07:56:55.000Z</time>
      </trkpt>
      <trkpt lat="43.17228" lon="5.77711">
        <ele>84.800003051758</ele>
        <time>2016-05-15T07:56:58.000Z</time>
      </trkpt>
      <trkpt lat="43.17233" lon="5.77729">
        <ele>85.800003051758</ele>
        <time>2016-05-15T07:57:02.000Z</time>
      </trkpt>
      <trkpt lat="43.17234" lon="5.77733">
        <ele>86</ele>
        <time>2016-05-15T07:57:03.000Z</time>
      </trkpt>
      <trkpt lat="43.17237" lon="5.77747">
        <ele>87</ele>
        <time>2016-05-15T07:57:06.000Z</time>
      </trkpt>
      <trkpt lat="43.17241" lon="5.7776">
        <ele>88</ele>
        <time>2016-05-15T07:57:09.000Z</time>
      </trkpt>
      <trkpt lat="43.17243" lon="5.7777">
        <ele>88.800003051758</ele>
        <time>2016-05-15T07:57:11.000Z</time>
      </trkpt>
      <trkpt lat="43.17244" lon="5.77774">
        <ele>89.199996948242</ele>
        <time>2016-05-15T07:57:12.000Z</time>
      </trkpt>
      <trkpt lat="43.17249" lon="5.77793">
        <ele>90.599998474121</ele>
        <time>2016-05-15T07:57:16.000Z</time>
      </trkpt>
      <trkpt lat="43.17251" lon="5.77802">
        <ele>91</ele>
        <time>2016-05-15T07:57:18.000Z</time>
      </trkpt>
      <trkpt lat="43.17253" lon="5.77811">
        <ele>91.800003051758</ele>
        <time>2016-05-15T07:57:20.000Z</time>
      </trkpt>
      <trkpt lat="43.17257" lon="5.77828">
        <ele>94</ele>
        <time>2016-05-15T07:57:24.000Z</time>
      </trkpt>
      <trkpt lat="43.17257" lon="5.77833">
        <ele>94.400001525879</ele>
        <time>2016-05-15T07:57:25.000Z</time>
      </trkpt>
      <trkpt lat="43.17259" lon="5.77842">
        <ele>95.400001525879</ele>
        <time>2016-05-15T07:57:27.000Z</time>
      </trkpt>
      <trkpt lat="43.17262" lon="5.7786">
        <ele>97.400001525879</ele>
        <time>2016-05-15T07:57:31.000Z</time>
      </trkpt>
      <trkpt lat="43.17265" lon="5.77879">
        <ele>99.599998474121</ele>
        <time>2016-05-15T07:57:35.000Z</time>
      </trkpt>
      <trkpt lat="43.17269" lon="5.77897">
        <ele>101.40000152588</ele>
        <time>2016-05-15T07:57:39.000Z</time>
      </trkpt>
      <trkpt lat="43.1727" lon="5.77911">
        <ele>102.80000305176</ele>
        <time>2016-05-15T07:57:42.000Z</time>
      </trkpt>
      <trkpt lat="43.17271" lon="5.77921">
        <ele>103.80000305176</ele>
        <time>2016-05-15T07:57:44.000Z</time>
      </trkpt>
      <trkpt lat="43.17271" lon="5.77925">
        <ele>104.19999694824</ele>
        <time>2016-05-15T07:57:45.000Z</time>
      </trkpt>
      <trkpt lat="43.17273" lon="5.77944">
        <ele>106.19999694824</ele>
        <time>2016-05-15T07:57:49.000Z</time>
      </trkpt>
      <trkpt lat="43.17274" lon="5.77962">
        <ele>108</ele>
        <time>2016-05-15T07:57:53.000Z</time>
      </trkpt>
      <trkpt lat="43.17274" lon="5.77967">
        <ele>108.59999847412</ele>
        <time>2016-05-15T07:57:54.000Z</time>
      </trkpt>
      <trkpt lat="43.17275" lon="5.77976">
        <ele>109.40000152588</ele>
        <time>2016-05-15T07:57:56.000Z</time>
      </trkpt>
      <trkpt lat="43.17275" lon="5.7799">
        <ele>110.59999847412</ele>
        <time>2016-05-15T07:57:59.000Z</time>
      </trkpt>
      <trkpt lat="43.17276" lon="5.78003">
        <ele>112.19999694824</ele>
        <time>2016-05-15T07:58:02.000Z</time>
      </trkpt>
      <trkpt lat="43.17276" lon="5.78008">
        <ele>112.80000305176</ele>
        <time>2016-05-15T07:58:03.000Z</time>
      </trkpt>
      <trkpt lat="43.17277" lon="5.78017">
        <ele>113.80000305176</ele>
        <time>2016-05-15T07:58:05.000Z</time>
      </trkpt>
      <trkpt lat="43.17277" lon="5.78026">
        <ele>115</ele>
        <time>2016-05-15T07:58:07.000Z</time>
      </trkpt>
      <trkpt lat="43.17278" lon="5.78036">
        <ele>116</ele>
        <time>2016-05-15T07:58:09.000Z</time>
      </trkpt>
      <trkpt lat="43.17278" lon="5.78049">
        <ele>117.80000305176</ele>
        <time>2016-05-15T07:58:12.000Z</time>
      </trkpt>
      <trkpt lat="43.17278" lon="5.78062">
        <ele>119.19999694824</ele>
        <time>2016-05-15T07:58:15.000Z</time>
      </trkpt>
      <trkpt lat="43.17278" lon="5.78076">
        <ele>120.40000152588</ele>
        <time>2016-05-15T07:58:18.000Z</time>
      </trkpt>
      <trkpt lat="43.17278" lon="5.7808">
        <ele>120.80000305176</ele>
        <time>2016-05-15T07:58:19.000Z</time>
      </trkpt>
      <trkpt lat="43.17278" lon="5.78085">
        <ele>121</ele>
        <time>2016-05-15T07:58:20.000Z</time>
      </trkpt>
      <trkpt lat="43.17278" lon="5.78094">
        <ele>121.59999847412</ele>
        <time>2016-05-15T07:58:22.000Z</time>
      </trkpt>
      <trkpt lat="43.17278" lon="5.78107">
        <ele>122.40000152588</ele>
        <time>2016-05-15T07:58:25.000Z</time>
      </trkpt>
      <trkpt lat="43.17278" lon="5.7812">
        <ele>123.19999694824</ele>
        <time>2016-05-15T07:58:28.000Z</time>
      </trkpt>
      <trkpt lat="43.17278" lon="5.78129">
        <ele>123.80000305176</ele>
        <time>2016-05-15T07:58:30.000Z</time>
      </trkpt>
      <trkpt lat="43.17279" lon="5.78134">
        <ele>124</ele>
        <time>2016-05-15T07:58:31.000Z</time>
      </trkpt>
      <trkpt lat="43.17279" lon="5.78147">
        <ele>124.80000305176</ele>
        <time>2016-05-15T07:58:34.000Z</time>
      </trkpt>
      <trkpt lat="43.1728" lon="5.78161">
        <ele>125.40000152588</ele>
        <time>2016-05-15T07:58:37.000Z</time>
      </trkpt>
      <trkpt lat="43.17279" lon="5.7817">
        <ele>125.40000152588</ele>
        <time>2016-05-15T07:58:39.000Z</time>
      </trkpt>
      <trkpt lat="43.1728" lon="5.78175">
        <ele>125.40000152588</ele>
        <time>2016-05-15T07:58:40.000Z</time>
      </trkpt>
      <trkpt lat="43.1728" lon="5.78189">
        <ele>125.40000152588</ele>
        <time>2016-05-15T07:58:43.000Z</time>
      </trkpt>
      <trkpt lat="43.17279" lon="5.78202">
        <ele>125.40000152588</ele>
        <time>2016-05-15T07:58:46.000Z</time>
      </trkpt>
      <trkpt lat="43.1728" lon="5.78216">
        <ele>125.40000152588</ele>
        <time>2016-05-15T07:58:49.000Z</time>
      </trkpt>
      <trkpt lat="43.1728" lon="5.78221">
        <ele>125.40000152588</ele>
        <time>2016-05-15T07:58:50.000Z</time>
      </trkpt>
      <trkpt lat="43.17281" lon="5.78235">
        <ele>126.59999847412</ele>
        <time>2016-05-15T07:58:53.000Z</time>
      </trkpt>
      <trkpt lat="43.17287" lon="5.78254">
        <ele>128.19999694824</ele>
        <time>2016-05-15T07:58:57.000Z</time>
      </trkpt>
      <trkpt lat="43.17292" lon="5.78267">
        <ele>129.39999389648</ele>
        <time>2016-05-15T07:59:00.000Z</time>
      </trkpt>
      <trkpt lat="43.17303" lon="5.78298">
        <ele>131.60000610352</ele>
        <time>2016-05-15T07:59:07.000Z</time>
      </trkpt>
      <trkpt lat="43.17307" lon="5.78317">
        <ele>132.80000305176</ele>
        <time>2016-05-15T07:59:11.000Z</time>
      </trkpt>
      <trkpt lat="43.17308" lon="5.78331">
        <ele>133.80000305176</ele>
        <time>2016-05-15T07:59:14.000Z</time>
      </trkpt>
      <trkpt lat="43.17308" lon="5.78336">
        <ele>134.19999694824</ele>
        <time>2016-05-15T07:59:15.000Z</time>
      </trkpt>
      <trkpt lat="43.1731" lon="5.7835">
        <ele>135</ele>
        <time>2016-05-15T07:59:18.000Z</time>
      </trkpt>
      <trkpt lat="43.17311" lon="5.78363">
        <ele>135.60000610352</ele>
        <time>2016-05-15T07:59:21.000Z</time>
      </trkpt>
      <trkpt lat="43.17313" lon="5.78376">
        <ele>136.19999694824</ele>
        <time>2016-05-15T07:59:24.000Z</time>
      </trkpt>
      <trkpt lat="43.17317" lon="5.78389">
        <ele>137.19999694824</ele>
        <time>2016-05-15T07:59:27.000Z</time>
      </trkpt>
      <trkpt lat="43.17321" lon="5.78395">
        <ele>138.60000610352</ele>
        <time>2016-05-15T07:59:29.000Z</time>
      </trkpt>
      <trkpt lat="43.17324" lon="5.78396">
        <ele>139.39999389648</ele>
        <time>2016-05-15T07:59:30.000Z</time>
      </trkpt>
      <trkpt lat="43.17331" lon="5.78397">
        <ele>141</ele>
        <time>2016-05-15T07:59:32.000Z</time>
      </trkpt>
      <trkpt lat="43.17337" lon="5.78395">
        <ele>142.60000610352</ele>
        <time>2016-05-15T07:59:34.000Z</time>
      </trkpt>
      <trkpt lat="43.17341" lon="5.78394">
        <ele>143.19999694824</ele>
        <time>2016-05-15T07:59:35.000Z</time>
      </trkpt>
      <trkpt lat="43.17349" lon="5.78393">
        <ele>145.19999694824</ele>
        <time>2016-05-15T07:59:38.000Z</time>
      </trkpt>
      <trkpt lat="43.17357" lon="5.78393">
        <ele>145.80000305176</ele>
        <time>2016-05-15T07:59:41.000Z</time>
      </trkpt>
      <trkpt lat="43.17365" lon="5.78388">
        <ele>145.80000305176</ele>
        <time>2016-05-15T07:59:44.000Z</time>
      </trkpt>
      <trkpt lat="43.1737" lon="5.78385">
        <ele>146</ele>
        <time>2016-05-15T07:59:46.000Z</time>
      </trkpt>
      <trkpt lat="43.17374" lon="5.78385">
        <ele>146.39999389648</ele>
        <time>2016-05-15T07:59:48.000Z</time>
      </trkpt>
      <trkpt lat="43.17381" lon="5.78391">
        <ele>147.60000610352</ele>
        <time>2016-05-15T07:59:51.000Z</time>
      </trkpt>
      <trkpt lat="43.17385" lon="5.78398">
        <ele>149.19999694824</ele>
        <time>2016-05-15T07:59:53.000Z</time>
      </trkpt>
      <trkpt lat="43.17389" lon="5.78404">
        <ele>150.60000610352</ele>
        <time>2016-05-15T07:59:55.000Z</time>
      </trkpt>
      <trkpt lat="43.17393" lon="5.78407">
        <ele>151.39999389648</ele>
        <time>2016-05-15T07:59:57.000Z</time>
      </trkpt>
      <trkpt lat="43.17396" lon="5.78408">
        <ele>151.80000305176</ele>
        <time>2016-05-15T07:59:58.000Z</time>
      </trkpt>
      <trkpt lat="43.17404" lon="5.78407">
        <ele>152.39999389648</ele>
        <time>2016-05-15T08:00:01.000Z</time>
      </trkpt>
      <trkpt lat="43.17407" lon="5.78408">
        <ele>152.80000305176</ele>
        <time>2016-05-15T08:00:02.000Z</time>
      </trkpt>
      <trkpt lat="43.17411" lon="5.78408">
        <ele>153</ele>
        <time>2016-05-15T08:00:03.000Z</time>
      </trkpt>
      <trkpt lat="43.17417" lon="5.78408">
        <ele>153.60000610352</ele>
        <time>2016-05-15T08:00:05.000Z</time>
      </trkpt>
      <trkpt lat="43.17437" lon="5.78404">
        <ele>155.39999389648</ele>
        <time>2016-05-15T08:00:11.000Z</time>
      </trkpt>
      <trkpt lat="43.1744" lon="5.78403">
        <ele>155.80000305176</ele>
        <time>2016-05-15T08:00:12.000Z</time>
      </trkpt>
      <trkpt lat="43.17468" lon="5.78393">
        <ele>158.60000610352</ele>
        <time>2016-05-15T08:00:20.000Z</time>
      </trkpt>
      <trkpt lat="43.17491" lon="5.78382">
        <ele>161</ele>
        <time>2016-05-15T08:00:27.000Z</time>
      </trkpt>
      <trkpt lat="43.17504" lon="5.78376">
        <ele>162</ele>
        <time>2016-05-15T08:00:31.000Z</time>
      </trkpt>
      <trkpt lat="43.17511" lon="5.78372">
        <ele>161.39999389648</ele>
        <time>2016-05-15T08:00:33.000Z</time>
      </trkpt>
      <trkpt lat="43.17538" lon="5.78365">
        <ele>161.60000610352</ele>
        <time>2016-05-15T08:00:40.000Z</time>
      </trkpt>
      <trkpt lat="43.1756" lon="5.78354">
        <ele>160.60000610352</ele>
        <time>2016-05-15T08:00:46.000Z</time>
      </trkpt>
      <trkpt lat="43.17581" lon="5.78351">
        <ele>162.19999694824</ele>
        <time>2016-05-15T08:00:52.000Z</time>
      </trkpt>
      <trkpt lat="43.17595" lon="5.78349">
        <ele>163.39999389648</ele>
        <time>2016-05-15T08:00:56.000Z</time>
      </trkpt>
      <trkpt lat="43.17605" lon="5.78346">
        <ele>162.80000305176</ele>
        <time>2016-05-15T08:00:59.000Z</time>
      </trkpt>
      <trkpt lat="43.1763" lon="5.78342">
        <ele>161.39999389648</ele>
        <time>2016-05-15T08:01:06.000Z</time>
      </trkpt>
      <trkpt lat="43.17637" lon="5.78341">
        <ele>161.19999694824</ele>
        <time>2016-05-15T08:01:08.000Z</time>
      </trkpt>
      <trkpt lat="43.17651" lon="5.78348">
        <ele>162.39999389648</ele>
        <time>2016-05-15T08:01:13.000Z</time>
      </trkpt>
      <trkpt lat="43.17667" lon="5.78358">
        <ele>164</ele>
        <time>2016-05-15T08:01:19.000Z</time>
      </trkpt>
      <trkpt lat="43.17674" lon="5.78359">
        <ele>164</ele>
        <time>2016-05-15T08:01:21.000Z</time>
      </trkpt>
      <trkpt lat="43.1768" lon="5.7836">
        <ele>164</ele>
        <time>2016-05-15T08:01:23.000Z</time>
      </trkpt>
      <trkpt lat="43.17705" lon="5.78362">
        <ele>163</ele>
        <time>2016-05-15T08:01:30.000Z</time>
      </trkpt>
      <trkpt lat="43.17734" lon="5.78362">
        <ele>161.19999694824</ele>
        <time>2016-05-15T08:01:39.000Z</time>
      </trkpt>
      <trkpt lat="43.17758" lon="5.78364">
        <ele>161.19999694824</ele>
        <time>2016-05-15T08:01:44.000Z</time>
      </trkpt>
      <trkpt lat="43.17763" lon="5.78364">
        <ele>161</ele>
        <time>2016-05-15T08:01:45.000Z</time>
      </trkpt>
      <trkpt lat="43.17778" lon="5.78364">
        <ele>159.39999389648</ele>
        <time>2016-05-15T08:01:48.000Z</time>
      </trkpt>
      <trkpt lat="43.17787" lon="5.78366">
        <ele>158.60000610352</ele>
        <time>2016-05-15T08:01:50.000Z</time>
      </trkpt>
      <trkpt lat="43.17791" lon="5.78368">
        <ele>158.39999389648</ele>
        <time>2016-05-15T08:01:51.000Z</time>
      </trkpt>
      <trkpt lat="43.178" lon="5.78374">
        <ele>157.80000305176</ele>
        <time>2016-05-15T08:01:53.000Z</time>
      </trkpt>
      <trkpt lat="43.17803" lon="5.78378">
        <ele>157.80000305176</ele>
        <time>2016-05-15T08:01:54.000Z</time>
      </trkpt>
      <trkpt lat="43.1781" lon="5.78389">
        <ele>158</ele>
        <time>2016-05-15T08:01:56.000Z</time>
      </trkpt>
      <trkpt lat="43.17813" lon="5.78396">
        <ele>158.39999389648</ele>
        <time>2016-05-15T08:01:57.000Z</time>
      </trkpt>
      <trkpt lat="43.17828" lon="5.78421">
        <ele>159.80000305176</ele>
        <time>2016-05-15T08:02:01.000Z</time>
      </trkpt>
      <trkpt lat="43.17834" lon="5.78432">
        <ele>160.39999389648</ele>
        <time>2016-05-15T08:02:03.000Z</time>
      </trkpt>
      <trkpt lat="43.17841" lon="5.78443">
        <ele>161</ele>
        <time>2016-05-15T08:02:05.000Z</time>
      </trkpt>
      <trkpt lat="43.17847" lon="5.78451">
        <ele>161.60000610352</ele>
        <time>2016-05-15T08:02:07.000Z</time>
      </trkpt>
      <trkpt lat="43.17854" lon="5.78457">
        <ele>162</ele>
        <time>2016-05-15T08:02:09.000Z</time>
      </trkpt>
      <trkpt lat="43.17858" lon="5.78457">
        <ele>162</ele>
        <time>2016-05-15T08:02:10.000Z</time>
      </trkpt>
      <trkpt lat="43.17868" lon="5.78454">
        <ele>161.39999389648</ele>
        <time>2016-05-15T08:02:12.000Z</time>
      </trkpt>
      <trkpt lat="43.17878" lon="5.78445">
        <ele>160</ele>
        <time>2016-05-15T08:02:14.000Z</time>
      </trkpt>
      <trkpt lat="43.17882" lon="5.78441">
        <ele>159.39999389648</ele>
        <time>2016-05-15T08:02:15.000Z</time>
      </trkpt>
      <trkpt lat="43.17886" lon="5.78436">
        <ele>158.80000305176</ele>
        <time>2016-05-15T08:02:16.000Z</time>
      </trkpt>
      <trkpt lat="43.17889" lon="5.78431">
        <ele>158</ele>
        <time>2016-05-15T08:02:17.000Z</time>
      </trkpt>
      <trkpt lat="43.17896" lon="5.78422">
        <ele>155.80000305176</ele>
        <time>2016-05-15T08:02:19.000Z</time>
      </trkpt>
      <trkpt lat="43.17905" lon="5.78417">
        <ele>154.19999694824</ele>
        <time>2016-05-15T08:02:21.000Z</time>
      </trkpt>
      <trkpt lat="43.17919" lon="5.78419">
        <ele>153.19999694824</ele>
        <time>2016-05-15T08:02:24.000Z</time>
      </trkpt>
      <trkpt lat="43.17924" lon="5.78421">
        <ele>153.19999694824</ele>
        <time>2016-05-15T08:02:25.000Z</time>
      </trkpt>
      <trkpt lat="43.17935" lon="5.78425">
        <ele>152.19999694824</ele>
        <time>2016-05-15T08:02:27.000Z</time>
      </trkpt>
      <trkpt lat="43.17946" lon="5.78432">
        <ele>150.60000610352</ele>
        <time>2016-05-15T08:02:29.000Z</time>
      </trkpt>
      <trkpt lat="43.17952" lon="5.78436">
        <ele>149.80000305176</ele>
        <time>2016-05-15T08:02:30.000Z</time>
      </trkpt>
      <trkpt lat="43.17963" lon="5.78441">
        <ele>148.19999694824</ele>
        <time>2016-05-15T08:02:32.000Z</time>
      </trkpt>
      <trkpt lat="43.17974" lon="5.78446">
        <ele>146.39999389648</ele>
        <time>2016-05-15T08:02:34.000Z</time>
      </trkpt>
      <trkpt lat="43.17985" lon="5.78452">
        <ele>144.80000305176</ele>
        <time>2016-05-15T08:02:36.000Z</time>
      </trkpt>
      <trkpt lat="43.17996" lon="5.78458">
        <ele>143.19999694824</ele>
        <time>2016-05-15T08:02:38.000Z</time>
      </trkpt>
      <trkpt lat="43.18007" lon="5.78464">
        <ele>141.80000305176</ele>
        <time>2016-05-15T08:02:40.000Z</time>
      </trkpt>
      <trkpt lat="43.18018" lon="5.78469">
        <ele>140</ele>
        <time>2016-05-15T08:02:42.000Z</time>
      </trkpt>
      <trkpt lat="43.18024" lon="5.78471">
        <ele>139</ele>
        <time>2016-05-15T08:02:43.000Z</time>
      </trkpt>
      <trkpt lat="43.18029" lon="5.78473">
        <ele>138.19999694824</ele>
        <time>2016-05-15T08:02:44.000Z</time>
      </trkpt>
      <trkpt lat="43.18035" lon="5.78474">
        <ele>137</ele>
        <time>2016-05-15T08:02:45.000Z</time>
      </trkpt>
      <trkpt lat="43.18047" lon="5.78477">
        <ele>135</ele>
        <time>2016-05-15T08:02:47.000Z</time>
      </trkpt>
      <trkpt lat="43.18058" lon="5.78479">
        <ele>132.80000305176</ele>
        <time>2016-05-15T08:02:49.000Z</time>
      </trkpt>
      <trkpt lat="43.1807" lon="5.78481">
        <ele>130.39999389648</ele>
        <time>2016-05-15T08:02:51.000Z</time>
      </trkpt>
      <trkpt lat="43.18084" lon="5.78481">
        <ele>127.19999694824</ele>
        <time>2016-05-15T08:02:53.000Z</time>
      </trkpt>
      <trkpt lat="43.18098" lon="5.7848">
        <ele>124</ele>
        <time>2016-05-15T08:02:55.000Z</time>
      </trkpt>
      <trkpt lat="43.18117" lon="5.7848">
        <ele>121.80000305176</ele>
        <time>2016-05-15T08:02:58.000Z</time>
      </trkpt>
      <trkpt lat="43.18129" lon="5.78481">
        <ele>121.19999694824</ele>
        <time>2016-05-15T08:03:00.000Z</time>
      </trkpt>
      <trkpt lat="43.18135" lon="5.78482">
        <ele>120.80000305176</ele>
        <time>2016-05-15T08:03:01.000Z</time>
      </trkpt>
      <trkpt lat="43.18141" lon="5.78481">
        <ele>120.19999694824</ele>
        <time>2016-05-15T08:03:02.000Z</time>
      </trkpt>
      <trkpt lat="43.18146" lon="5.78477">
        <ele>119.59999847412</ele>
        <time>2016-05-15T08:03:03.000Z</time>
      </trkpt>
      <trkpt lat="43.18152" lon="5.78473">
        <ele>119</ele>
        <time>2016-05-15T08:03:04.000Z</time>
      </trkpt>
      <trkpt lat="43.1817" lon="5.78468">
        <ele>117.19999694824</ele>
        <time>2016-05-15T08:03:07.000Z</time>
      </trkpt>
      <trkpt lat="43.18176" lon="5.78468">
        <ele>117</ele>
        <time>2016-05-15T08:03:08.000Z</time>
      </trkpt>
      <trkpt lat="43.18182" lon="5.78469">
        <ele>116.59999847412</ele>
        <time>2016-05-15T08:03:09.000Z</time>
      </trkpt>
      <trkpt lat="43.18198" lon="5.78469">
        <ele>115.80000305176</ele>
        <time>2016-05-15T08:03:12.000Z</time>
      </trkpt>
      <trkpt lat="43.18202" lon="5.78467">
        <ele>115.59999847412</ele>
        <time>2016-05-15T08:03:13.000Z</time>
      </trkpt>
      <trkpt lat="43.18205" lon="5.78454">
        <ele>114.40000152588</ele>
        <time>2016-05-15T08:03:15.000Z</time>
      </trkpt>
      <trkpt lat="43.18205" lon="5.78445">
        <ele>113.80000305176</ele>
        <time>2016-05-15T08:03:16.000Z</time>
      </trkpt>
      <trkpt lat="43.18205" lon="5.78435">
        <ele>113</ele>
        <time>2016-05-15T08:03:17.000Z</time>
      </trkpt>
      <trkpt lat="43.18203" lon="5.78415">
        <ele>111.59999847412</ele>
        <time>2016-05-15T08:03:19.000Z</time>
      </trkpt>
      <trkpt lat="43.18202" lon="5.78405">
        <ele>111</ele>
        <time>2016-05-15T08:03:20.000Z</time>
      </trkpt>
      <trkpt lat="43.18202" lon="5.78388">
        <ele>109.80000305176</ele>
        <time>2016-05-15T08:03:22.000Z</time>
      </trkpt>
      <trkpt lat="43.18203" lon="5.78381">
        <ele>109.19999694824</ele>
        <time>2016-05-15T08:03:23.000Z</time>
      </trkpt>
      <trkpt lat="43.18208" lon="5.78376">
        <ele>108.59999847412</ele>
        <time>2016-05-15T08:03:25.000Z</time>
      </trkpt>
      <trkpt lat="43.18211" lon="5.78377">
        <ele>108.40000152588</ele>
        <time>2016-05-15T08:03:26.000Z</time>
      </trkpt>
      <trkpt lat="43.18215" lon="5.78384">
        <ele>108.80000305176</ele>
        <time>2016-05-15T08:03:27.000Z</time>
      </trkpt>
      <trkpt lat="43.18217" lon="5.78393">
        <ele>109.40000152588</ele>
        <time>2016-05-15T08:03:28.000Z</time>
      </trkpt>
      <trkpt lat="43.1822" lon="5.7841">
        <ele>110.59999847412</ele>
        <time>2016-05-15T08:03:30.000Z</time>
      </trkpt>
      <trkpt lat="43.18223" lon="5.78426">
        <ele>111.59999847412</ele>
        <time>2016-05-15T08:03:32.000Z</time>
      </trkpt>
      <trkpt lat="43.18227" lon="5.78453">
        <ele>113.40000152588</ele>
        <time>2016-05-15T08:03:35.000Z</time>
      </trkpt>
      <trkpt lat="43.18232" lon="5.78485">
        <ele>115</ele>
        <time>2016-05-15T08:03:39.000Z</time>
      </trkpt>
      <trkpt lat="43.18235" lon="5.78492">
        <ele>115.19999694824</ele>
        <time>2016-05-15T08:03:40.000Z</time>
      </trkpt>
      <trkpt lat="43.18248" lon="5.785">
        <ele>115</ele>
        <time>2016-05-15T08:03:43.000Z</time>
      </trkpt>
      <trkpt lat="43.18269" lon="5.78493">
        <ele>114.40000152588</ele>
        <time>2016-05-15T08:03:46.000Z</time>
      </trkpt>
      <trkpt lat="43.18276" lon="5.78487">
        <ele>114.19999694824</ele>
        <time>2016-05-15T08:03:47.000Z</time>
      </trkpt>
      <trkpt lat="43.18288" lon="5.78471">
        <ele>113.59999847412</ele>
        <time>2016-05-15T08:03:49.000Z</time>
      </trkpt>
      <trkpt lat="43.18296" lon="5.78454">
        <ele>112.59999847412</ele>
        <time>2016-05-15T08:03:51.000Z</time>
      </trkpt>
      <trkpt lat="43.18299" lon="5.78446">
        <ele>112</ele>
        <time>2016-05-15T08:03:52.000Z</time>
      </trkpt>
      <trkpt lat="43.18316" lon="5.78392">
        <ele>106.19999694824</ele>
        <time>2016-05-15T08:03:59.000Z</time>
      </trkpt>
      <trkpt lat="43.18333" lon="5.78371">
        <ele>104.19999694824</ele>
        <time>2016-05-15T08:04:03.000Z</time>
      </trkpt>
      <trkpt lat="43.18348" lon="5.78356">
        <ele>102.59999847412</ele>
        <time>2016-05-15T08:04:06.000Z</time>
      </trkpt>
      <trkpt lat="43.18352" lon="5.78348">
        <ele>102</ele>
        <time>2016-05-15T08:04:07.000Z</time>
      </trkpt>
      <trkpt lat="43.18353" lon="5.78314">
        <ele>99.599998474121</ele>
        <time>2016-05-15T08:04:10.000Z</time>
      </trkpt>
      <trkpt lat="43.18354" lon="5.78293">
        <ele>98.800003051758</ele>
        <time>2016-05-15T08:04:12.000Z</time>
      </trkpt>
      <trkpt lat="43.18359" lon="5.78274">
        <ele>98.800003051758</ele>
        <time>2016-05-15T08:04:14.000Z</time>
      </trkpt>
      <trkpt lat="43.18374" lon="5.78248">
        <ele>98.599998474121</ele>
        <time>2016-05-15T08:04:17.000Z</time>
      </trkpt>
      <trkpt lat="43.18384" lon="5.7823">
        <ele>97</ele>
        <time>2016-05-15T08:04:19.000Z</time>
      </trkpt>
      <trkpt lat="43.18402" lon="5.78206">
        <ele>96</ele>
        <time>2016-05-15T08:04:22.000Z</time>
      </trkpt>
      <trkpt lat="43.18409" lon="5.782">
        <ele>95.599998474121</ele>
        <time>2016-05-15T08:04:23.000Z</time>
      </trkpt>
      <trkpt lat="43.18423" lon="5.7819">
        <ele>94</ele>
        <time>2016-05-15T08:04:25.000Z</time>
      </trkpt>
      <trkpt lat="43.18437" lon="5.78184">
        <ele>94</ele>
        <time>2016-05-15T08:04:27.000Z</time>
      </trkpt>
      <trkpt lat="43.1845" lon="5.78182">
        <ele>94.599998474121</ele>
        <time>2016-05-15T08:04:29.000Z</time>
      </trkpt>
      <trkpt lat="43.18467" lon="5.78182">
        <ele>95.400001525879</ele>
        <time>2016-05-15T08:04:32.000Z</time>
      </trkpt>
      <trkpt lat="43.18502" lon="5.78185">
        <ele>97.800003051758</ele>
        <time>2016-05-15T08:04:39.000Z</time>
      </trkpt>
      <trkpt lat="43.18512" lon="5.78185">
        <ele>98.400001525879</ele>
        <time>2016-05-15T08:04:41.000Z</time>
      </trkpt>
      <trkpt lat="43.18517" lon="5.78184">
        <ele>98.800003051758</ele>
        <time>2016-05-15T08:04:42.000Z</time>
      </trkpt>
      <trkpt lat="43.18522" lon="5.78183">
        <ele>99</ele>
        <time>2016-05-15T08:04:43.000Z</time>
      </trkpt>
      <trkpt lat="43.18526" lon="5.7818">
        <ele>99.400001525879</ele>
        <time>2016-05-15T08:04:44.000Z</time>
      </trkpt>
      <trkpt lat="43.18529" lon="5.78175">
        <ele>99.599998474121</ele>
        <time>2016-05-15T08:04:45.000Z</time>
      </trkpt>
      <trkpt lat="43.18531" lon="5.78169">
        <ele>99.800003051758</ele>
        <time>2016-05-15T08:04:46.000Z</time>
      </trkpt>
      <trkpt lat="43.18534" lon="5.78155">
        <ele>100.19999694824</ele>
        <time>2016-05-15T08:04:48.000Z</time>
      </trkpt>
      <trkpt lat="43.18535" lon="5.78148">
        <ele>100.59999847412</ele>
        <time>2016-05-15T08:04:49.000Z</time>
      </trkpt>
      <trkpt lat="43.18537" lon="5.7814">
        <ele>101</ele>
        <time>2016-05-15T08:04:50.000Z</time>
      </trkpt>
      <trkpt lat="43.1854" lon="5.78119">
        <ele>101.40000152588</ele>
        <time>2016-05-15T08:04:53.000Z</time>
      </trkpt>
      <trkpt lat="43.18547" lon="5.78077">
        <ele>101.80000305176</ele>
        <time>2016-05-15T08:04:59.000Z</time>
      </trkpt>
      <trkpt lat="43.18554" lon="5.78033">
        <ele>102</ele>
        <time>2016-05-15T08:05:06.000Z</time>
      </trkpt>
      <trkpt lat="43.18556" lon="5.78029">
        <ele>102.19999694824</ele>
        <time>2016-05-15T08:05:07.000Z</time>
      </trkpt>
      <trkpt lat="43.18563" lon="5.7803">
        <ele>102.59999847412</ele>
        <time>2016-05-15T08:05:10.000Z</time>
      </trkpt>
      <trkpt lat="43.18567" lon="5.78038">
        <ele>103</ele>
        <time>2016-05-15T08:05:12.000Z</time>
      </trkpt>
      <trkpt lat="43.18574" lon="5.78051">
        <ele>103.59999847412</ele>
        <time>2016-05-15T08:05:15.000Z</time>
      </trkpt>
      <trkpt lat="43.18585" lon="5.7807">
        <ele>104.59999847412</ele>
        <time>2016-05-15T08:05:19.000Z</time>
      </trkpt>
      <trkpt lat="43.186" lon="5.78094">
        <ele>105.59999847412</ele>
        <time>2016-05-15T08:05:24.000Z</time>
      </trkpt>
      <trkpt lat="43.18606" lon="5.78104">
        <ele>106</ele>
        <time>2016-05-15T08:05:26.000Z</time>
      </trkpt>
      <trkpt lat="43.18613" lon="5.78113">
        <ele>106.40000152588</ele>
        <time>2016-05-15T08:05:28.000Z</time>
      </trkpt>
      <trkpt lat="43.18628" lon="5.7813">
        <ele>107.19999694824</ele>
        <time>2016-05-15T08:05:32.000Z</time>
      </trkpt>
      <trkpt lat="43.18632" lon="5.78133">
        <ele>107.19999694824</ele>
        <time>2016-05-15T08:05:33.000Z</time>
      </trkpt>
      <trkpt lat="43.18645" lon="5.78143">
        <ele>107.59999847412</ele>
        <time>2016-05-15T08:05:36.000Z</time>
      </trkpt>
      <trkpt lat="43.18664" lon="5.78153">
        <ele>107.80000305176</ele>
        <time>2016-05-15T08:05:40.000Z</time>
      </trkpt>
      <trkpt lat="43.18669" lon="5.78156">
        <ele>107.80000305176</ele>
        <time>2016-05-15T08:05:41.000Z</time>
      </trkpt>
      <trkpt lat="43.18688" lon="5.78166">
        <ele>108.40000152588</ele>
        <time>2016-05-15T08:05:45.000Z</time>
      </trkpt>
      <trkpt lat="43.18711" lon="5.78179">
        <ele>109.40000152588</ele>
        <time>2016-05-15T08:05:50.000Z</time>
      </trkpt>
      <trkpt lat="43.18715" lon="5.78182">
        <ele>109.59999847412</ele>
        <time>2016-05-15T08:05:51.000Z</time>
      </trkpt>
      <trkpt lat="43.18738" lon="5.78195">
        <ele>110.59999847412</ele>
        <time>2016-05-15T08:05:56.000Z</time>
      </trkpt>
      <trkpt lat="43.18752" lon="5.78202">
        <ele>111.19999694824</ele>
        <time>2016-05-15T08:05:59.000Z</time>
      </trkpt>
      <trkpt lat="43.18756" lon="5.78205">
        <ele>111.40000152588</ele>
        <time>2016-05-15T08:06:00.000Z</time>
      </trkpt>
      <trkpt lat="43.18771" lon="5.78213">
        <ele>112.19999694824</ele>
        <time>2016-05-15T08:06:03.000Z</time>
      </trkpt>
      <trkpt lat="43.18794" lon="5.78227">
        <ele>113.59999847412</ele>
        <time>2016-05-15T08:06:08.000Z</time>
      </trkpt>
      <trkpt lat="43.18803" lon="5.78232">
        <ele>114.40000152588</ele>
        <time>2016-05-15T08:06:10.000Z</time>
      </trkpt>
      <trkpt lat="43.18813" lon="5.78237">
        <ele>115.19999694824</ele>
        <time>2016-05-15T08:06:12.000Z</time>
      </trkpt>
      <trkpt lat="43.18832" lon="5.78242">
        <ele>116.59999847412</ele>
        <time>2016-05-15T08:06:16.000Z</time>
      </trkpt>
      <trkpt lat="43.18837" lon="5.78243">
        <ele>117</ele>
        <time>2016-05-15T08:06:17.000Z</time>
      </trkpt>
      <trkpt lat="43.18847" lon="5.78244">
        <ele>117.80000305176</ele>
        <time>2016-05-15T08:06:19.000Z</time>
      </trkpt>
      <trkpt lat="43.18872" lon="5.78243">
        <ele>119.19999694824</ele>
        <time>2016-05-15T08:06:24.000Z</time>
      </trkpt>
      <trkpt lat="43.18897" lon="5.78249">
        <ele>121.19999694824</ele>
        <time>2016-05-15T08:06:29.000Z</time>
      </trkpt>
      <trkpt lat="43.18902" lon="5.78251">
        <ele>121.40000152588</ele>
        <time>2016-05-15T08:06:30.000Z</time>
      </trkpt>
      <trkpt lat="43.18907" lon="5.78254">
        <ele>121.59999847412</ele>
        <time>2016-05-15T08:06:31.000Z</time>
      </trkpt>
      <trkpt lat="43.1892" lon="5.78263">
        <ele>122.40000152588</ele>
        <time>2016-05-15T08:06:34.000Z</time>
      </trkpt>
      <trkpt lat="43.18929" lon="5.7827">
        <ele>122.80000305176</ele>
        <time>2016-05-15T08:06:36.000Z</time>
      </trkpt>
      <trkpt lat="43.18941" lon="5.78281">
        <ele>123</ele>
        <time>2016-05-15T08:06:39.000Z</time>
      </trkpt>
      <trkpt lat="43.18957" lon="5.78294">
        <ele>123.59999847412</ele>
        <time>2016-05-15T08:06:43.000Z</time>
      </trkpt>
      <trkpt lat="43.18964" lon="5.78299">
        <ele>123.80000305176</ele>
        <time>2016-05-15T08:06:45.000Z</time>
      </trkpt>
      <trkpt lat="43.18972" lon="5.78304">
        <ele>124.19999694824</ele>
        <time>2016-05-15T08:06:47.000Z</time>
      </trkpt>
      <trkpt lat="43.18991" lon="5.78321">
        <ele>125.19999694824</ele>
        <time>2016-05-15T08:06:52.000Z</time>
      </trkpt>
      <trkpt lat="43.18995" lon="5.78325">
        <ele>125.40000152588</ele>
        <time>2016-05-15T08:06:53.000Z</time>
      </trkpt>
      <trkpt lat="43.19013" lon="5.78346">
        <ele>126.19999694824</ele>
        <time>2016-05-15T08:06:58.000Z</time>
      </trkpt>
      <trkpt lat="43.19021" lon="5.78354">
        <ele>126.59999847412</ele>
        <time>2016-05-15T08:07:00.000Z</time>
      </trkpt>
      <trkpt lat="43.19037" lon="5.78369">
        <ele>127.19999694824</ele>
        <time>2016-05-15T08:07:04.000Z</time>
      </trkpt>
      <trkpt lat="43.19052" lon="5.78383">
        <ele>128</ele>
        <time>2016-05-15T08:07:08.000Z</time>
      </trkpt>
      <trkpt lat="43.19063" lon="5.78393">
        <ele>128.80000305176</ele>
        <time>2016-05-15T08:07:11.000Z</time>
      </trkpt>
      <trkpt lat="43.19071" lon="5.78403">
        <ele>129.60000610352</ele>
        <time>2016-05-15T08:07:14.000Z</time>
      </trkpt>
      <trkpt lat="43.19074" lon="5.78411">
        <ele>130</ele>
        <time>2016-05-15T08:07:16.000Z</time>
      </trkpt>
      <trkpt lat="43.19081" lon="5.78433">
        <ele>131</ele>
        <time>2016-05-15T08:07:21.000Z</time>
      </trkpt>
      <trkpt lat="43.19089" lon="5.78458">
        <ele>132.19999694824</ele>
        <time>2016-05-15T08:07:27.000Z</time>
      </trkpt>
      <trkpt lat="43.19097" lon="5.78489">
        <ele>133.39999389648</ele>
        <time>2016-05-15T08:07:34.000Z</time>
      </trkpt>
      <trkpt lat="43.19103" lon="5.78518">
        <ele>134.39999389648</ele>
        <time>2016-05-15T08:07:41.000Z</time>
      </trkpt>
      <trkpt lat="43.1911" lon="5.78551">
        <ele>135.39999389648</ele>
        <time>2016-05-15T08:07:49.000Z</time>
      </trkpt>
      <trkpt lat="43.19112" lon="5.78563">
        <ele>136</ele>
        <time>2016-05-15T08:07:52.000Z</time>
      </trkpt>
      <trkpt lat="43.19115" lon="5.78585">
        <ele>137.80000305176</ele>
        <time>2016-05-15T08:07:57.000Z</time>
      </trkpt>
      <trkpt lat="43.19119" lon="5.78602">
        <ele>139.19999694824</ele>
        <time>2016-05-15T08:08:00.000Z</time>
      </trkpt>
      <trkpt lat="43.19127" lon="5.78634">
        <ele>141.80000305176</ele>
        <time>2016-05-15T08:08:06.000Z</time>
      </trkpt>
      <trkpt lat="43.19128" lon="5.78639">
        <ele>142.19999694824</ele>
        <time>2016-05-15T08:08:07.000Z</time>
      </trkpt>
      <trkpt lat="43.19133" lon="5.78665">
        <ele>143</ele>
        <time>2016-05-15T08:08:12.000Z</time>
      </trkpt>
      <trkpt lat="43.19135" lon="5.78675">
        <ele>143.39999389648</ele>
        <time>2016-05-15T08:08:14.000Z</time>
      </trkpt>
      <trkpt lat="43.19138" lon="5.78686">
        <ele>143.80000305176</ele>
        <time>2016-05-15T08:08:16.000Z</time>
      </trkpt>
      <trkpt lat="43.19139" lon="5.787">
        <ele>144.60000610352</ele>
        <time>2016-05-15T08:08:19.000Z</time>
      </trkpt>
      <trkpt lat="43.19139" lon="5.78711">
        <ele>145.19999694824</ele>
        <time>2016-05-15T08:08:21.000Z</time>
      </trkpt>
      <trkpt lat="43.19139" lon="5.78716">
        <ele>145.39999389648</ele>
        <time>2016-05-15T08:08:22.000Z</time>
      </trkpt>
      <trkpt lat="43.19138" lon="5.78733">
        <ele>145.80000305176</ele>
        <time>2016-05-15T08:08:25.000Z</time>
      </trkpt>
      <trkpt lat="43.19137" lon="5.78748">
        <ele>145.80000305176</ele>
        <time>2016-05-15T08:08:28.000Z</time>
      </trkpt>
      <trkpt lat="43.19137" lon="5.78753">
        <ele>145.80000305176</ele>
        <time>2016-05-15T08:08:29.000Z</time>
      </trkpt>
      <trkpt lat="43.19138" lon="5.78774">
        <ele>146.60000610352</ele>
        <time>2016-05-15T08:08:33.000Z</time>
      </trkpt>
      <trkpt lat="43.1914" lon="5.78789">
        <ele>147.60000610352</ele>
        <time>2016-05-15T08:08:36.000Z</time>
      </trkpt>
      <trkpt lat="43.19141" lon="5.78799">
        <ele>148.19999694824</ele>
        <time>2016-05-15T08:08:38.000Z</time>
      </trkpt>
      <trkpt lat="43.19148" lon="5.78833">
        <ele>149.60000610352</ele>
        <time>2016-05-15T08:08:45.000Z</time>
      </trkpt>
      <trkpt lat="43.19149" lon="5.78839">
        <ele>149.80000305176</ele>
        <time>2016-05-15T08:08:46.000Z</time>
      </trkpt>
      <trkpt lat="43.19158" lon="5.78884">
        <ele>152.19999694824</ele>
        <time>2016-05-15T08:08:55.000Z</time>
      </trkpt>
      <trkpt lat="43.19159" lon="5.7889">
        <ele>152.60000610352</ele>
        <time>2016-05-15T08:08:56.000Z</time>
      </trkpt>
      <trkpt lat="43.19163" lon="5.78926">
        <ele>153.80000305176</ele>
        <time>2016-05-15T08:09:03.000Z</time>
      </trkpt>
      <trkpt lat="43.19166" lon="5.78952">
        <ele>154.60000610352</ele>
        <time>2016-05-15T08:09:08.000Z</time>
      </trkpt>
      <trkpt lat="43.19169" lon="5.78978">
        <ele>155.80000305176</ele>
        <time>2016-05-15T08:09:13.000Z</time>
      </trkpt>
      <trkpt lat="43.19169" lon="5.78984">
        <ele>156</ele>
        <time>2016-05-15T08:09:14.000Z</time>
      </trkpt>
      <trkpt lat="43.19172" lon="5.79009">
        <ele>157.39999389648</ele>
        <time>2016-05-15T08:09:19.000Z</time>
      </trkpt>
      <trkpt lat="43.19174" lon="5.79023">
        <ele>158.19999694824</ele>
        <time>2016-05-15T08:09:22.000Z</time>
      </trkpt>
      <trkpt lat="43.19175" lon="5.79028">
        <ele>158.39999389648</ele>
        <time>2016-05-15T08:09:23.000Z</time>
      </trkpt>
      <trkpt lat="43.1918" lon="5.79047">
        <ele>159.60000610352</ele>
        <time>2016-05-15T08:09:27.000Z</time>
      </trkpt>
      <trkpt lat="43.19182" lon="5.7906">
        <ele>160.60000610352</ele>
        <time>2016-05-15T08:09:30.000Z</time>
      </trkpt>
      <trkpt lat="43.19185" lon="5.79069">
        <ele>161.60000610352</ele>
        <time>2016-05-15T08:09:32.000Z</time>
      </trkpt>
      <trkpt lat="43.1919" lon="5.79088">
        <ele>163.80000305176</ele>
        <time>2016-05-15T08:09:36.000Z</time>
      </trkpt>
      <trkpt lat="43.19193" lon="5.79097">
        <ele>164.80000305176</ele>
        <time>2016-05-15T08:09:38.000Z</time>
      </trkpt>
      <trkpt lat="43.19197" lon="5.79106">
        <ele>165.80000305176</ele>
        <time>2016-05-15T08:09:40.000Z</time>
      </trkpt>
      <trkpt lat="43.19204" lon="5.79123">
        <ele>167.80000305176</ele>
        <time>2016-05-15T08:09:44.000Z</time>
      </trkpt>
      <trkpt lat="43.19208" lon="5.79132">
        <ele>168.60000610352</ele>
        <time>2016-05-15T08:09:46.000Z</time>
      </trkpt>
      <trkpt lat="43.19211" lon="5.79136">
        <ele>169.19999694824</ele>
        <time>2016-05-15T08:09:47.000Z</time>
      </trkpt>
      <trkpt lat="43.19219" lon="5.79154">
        <ele>170</ele>
        <time>2016-05-15T08:09:51.000Z</time>
      </trkpt>
      <trkpt lat="43.19223" lon="5.79163">
        <ele>170.39999389648</ele>
        <time>2016-05-15T08:09:53.000Z</time>
      </trkpt>
      <trkpt lat="43.19228" lon="5.79171">
        <ele>170.80000305176</ele>
        <time>2016-05-15T08:09:55.000Z</time>
      </trkpt>
      <trkpt lat="43.19237" lon="5.79187">
        <ele>171.39999389648</ele>
        <time>2016-05-15T08:09:59.000Z</time>
      </trkpt>
      <trkpt lat="43.19248" lon="5.79203">
        <ele>172.19999694824</ele>
        <time>2016-05-15T08:10:03.000Z</time>
      </trkpt>
      <trkpt lat="43.19251" lon="5.79206">
        <ele>172.39999389648</ele>
        <time>2016-05-15T08:10:04.000Z</time>
      </trkpt>
      <trkpt lat="43.19265" lon="5.79224">
        <ele>173</ele>
        <time>2016-05-15T08:10:09.000Z</time>
      </trkpt>
      <trkpt lat="43.1927" lon="5.79231">
        <ele>173.39999389648</ele>
        <time>2016-05-15T08:10:11.000Z</time>
      </trkpt>
      <trkpt lat="43.19275" lon="5.79238">
        <ele>174</ele>
        <time>2016-05-15T08:10:13.000Z</time>
      </trkpt>
      <trkpt lat="43.1929" lon="5.79256">
        <ele>174.80000305176</ele>
        <time>2016-05-15T08:10:18.000Z</time>
      </trkpt>
      <trkpt lat="43.19293" lon="5.79259">
        <ele>175</ele>
        <time>2016-05-15T08:10:19.000Z</time>
      </trkpt>
      <trkpt lat="43.19299" lon="5.79266">
        <ele>175.39999389648</ele>
        <time>2016-05-15T08:10:21.000Z</time>
      </trkpt>
      <trkpt lat="43.19311" lon="5.79277">
        <ele>176</ele>
        <time>2016-05-15T08:10:25.000Z</time>
      </trkpt>
      <trkpt lat="43.1932" lon="5.79285">
        <ele>176.19999694824</ele>
        <time>2016-05-15T08:10:28.000Z</time>
      </trkpt>
      <trkpt lat="43.19327" lon="5.79291">
        <ele>176.39999389648</ele>
        <time>2016-05-15T08:10:30.000Z</time>
      </trkpt>
      <trkpt lat="43.19341" lon="5.79306">
        <ele>177.19999694824</ele>
        <time>2016-05-15T08:10:35.000Z</time>
      </trkpt>
      <trkpt lat="43.19347" lon="5.79312">
        <ele>177.39999389648</ele>
        <time>2016-05-15T08:10:37.000Z</time>
      </trkpt>
      <trkpt lat="43.19359" lon="5.79329">
        <ele>178.39999389648</ele>
        <time>2016-05-15T08:10:42.000Z</time>
      </trkpt>
      <trkpt lat="43.19366" lon="5.79339">
        <ele>179</ele>
        <time>2016-05-15T08:10:45.000Z</time>
      </trkpt>
      <trkpt lat="43.19373" lon="5.79344">
        <ele>179.39999389648</ele>
        <time>2016-05-15T08:10:48.000Z</time>
      </trkpt>
      <trkpt lat="43.19375" lon="5.79345">
        <ele>179.39999389648</ele>
        <time>2016-05-15T08:10:49.000Z</time>
      </trkpt>
      <trkpt lat="43.19379" lon="5.79348">
        <ele>179.60000610352</ele>
        <time>2016-05-15T08:10:57.000Z</time>
      </trkpt>
      <trkpt lat="43.19387" lon="5.79362">
        <ele>180.39999389648</ele>
        <time>2016-05-15T08:11:01.000Z</time>
      </trkpt>
      <trkpt lat="43.19393" lon="5.79376">
        <ele>181.19999694824</ele>
        <time>2016-05-15T08:11:04.000Z</time>
      </trkpt>
      <trkpt lat="43.19404" lon="5.79401">
        <ele>183.19999694824</ele>
        <time>2016-05-15T08:11:09.000Z</time>
      </trkpt>
      <trkpt lat="43.19426" lon="5.79431">
        <ele>186</ele>
        <time>2016-05-15T08:11:16.000Z</time>
      </trkpt>
      <trkpt lat="43.19429" lon="5.79434">
        <ele>186.39999389648</ele>
        <time>2016-05-15T08:11:17.000Z</time>
      </trkpt>
      <trkpt lat="43.19455" lon="5.79465">
        <ele>188.19999694824</ele>
        <time>2016-05-15T08:11:25.000Z</time>
      </trkpt>
      <trkpt lat="43.19458" lon="5.79469">
        <ele>188.39999389648</ele>
        <time>2016-05-15T08:11:26.000Z</time>
      </trkpt>
      <trkpt lat="43.19474" lon="5.79488">
        <ele>188.60000610352</ele>
        <time>2016-05-15T08:11:31.000Z</time>
      </trkpt>
      <trkpt lat="43.19483" lon="5.795">
        <ele>188.80000305176</ele>
        <time>2016-05-15T08:11:34.000Z</time>
      </trkpt>
      <trkpt lat="43.19486" lon="5.79504">
        <ele>188.80000305176</ele>
        <time>2016-05-15T08:11:35.000Z</time>
      </trkpt>
      <trkpt lat="43.19502" lon="5.79522">
        <ele>188.80000305176</ele>
        <time>2016-05-15T08:11:40.000Z</time>
      </trkpt>
      <trkpt lat="43.19517" lon="5.79543">
        <ele>189.19999694824</ele>
        <time>2016-05-15T08:11:45.000Z</time>
      </trkpt>
      <trkpt lat="43.19532" lon="5.79564">
        <ele>189.39999389648</ele>
        <time>2016-05-15T08:11:50.000Z</time>
      </trkpt>
      <trkpt lat="43.19542" lon="5.79583">
        <ele>189.19999694824</ele>
        <time>2016-05-15T08:11:54.000Z</time>
      </trkpt>
      <trkpt lat="43.19562" lon="5.79625">
        <ele>189.80000305176</ele>
        <time>2016-05-15T08:12:01.000Z</time>
      </trkpt>
      <trkpt lat="43.19583" lon="5.79675">
        <ele>187.60000610352</ele>
        <time>2016-05-15T08:12:07.000Z</time>
      </trkpt>
      <trkpt lat="43.19587" lon="5.79684">
        <ele>187</ele>
        <time>2016-05-15T08:12:08.000Z</time>
      </trkpt>
      <trkpt lat="43.19606" lon="5.79739">
        <ele>184.60000610352</ele>
        <time>2016-05-15T08:12:14.000Z</time>
      </trkpt>
      <trkpt lat="43.1961" lon="5.79755">
        <ele>184.39999389648</ele>
        <time>2016-05-15T08:12:16.000Z</time>
      </trkpt>
      <trkpt lat="43.19609" lon="5.79771">
        <ele>184.60000610352</ele>
        <time>2016-05-15T08:12:18.000Z</time>
      </trkpt>
      <trkpt lat="43.19608" lon="5.79779">
        <ele>184.60000610352</ele>
        <time>2016-05-15T08:12:19.000Z</time>
      </trkpt>
      <trkpt lat="43.19607" lon="5.79788">
        <ele>184.60000610352</ele>
        <time>2016-05-15T08:12:20.000Z</time>
      </trkpt>
      <trkpt lat="43.19608" lon="5.79812">
        <ele>184.39999389648</ele>
        <time>2016-05-15T08:12:23.000Z</time>
      </trkpt>
      <trkpt lat="43.19606" lon="5.79853">
        <ele>183.60000610352</ele>
        <time>2016-05-15T08:12:28.000Z</time>
      </trkpt>
      <trkpt lat="43.19603" lon="5.79876">
        <ele>183</ele>
        <time>2016-05-15T08:12:31.000Z</time>
      </trkpt>
      <trkpt lat="43.19599" lon="5.79925">
        <ele>182</ele>
        <time>2016-05-15T08:12:37.000Z</time>
      </trkpt>
      <trkpt lat="43.19595" lon="5.79969">
        <ele>181</ele>
        <time>2016-05-15T08:12:42.000Z</time>
      </trkpt>
      <trkpt lat="43.19593" lon="5.80004">
        <ele>180.39999389648</ele>
        <time>2016-05-15T08:12:46.000Z</time>
      </trkpt>
      <trkpt lat="43.19591" lon="5.80043">
        <ele>179.39999389648</ele>
        <time>2016-05-15T08:12:51.000Z</time>
      </trkpt>
      <trkpt lat="43.1959" lon="5.80065">
        <ele>179</ele>
        <time>2016-05-15T08:12:54.000Z</time>
      </trkpt>
      <trkpt lat="43.19589" lon="5.80094">
        <ele>178.19999694824</ele>
        <time>2016-05-15T08:12:59.000Z</time>
      </trkpt>
      <trkpt lat="43.19589" lon="5.80098">
        <ele>178.19999694824</ele>
        <time>2016-05-15T08:13:00.000Z</time>
      </trkpt>
      <trkpt lat="43.19587" lon="5.80122">
        <ele>177.60000610352</ele>
        <time>2016-05-15T08:13:05.000Z</time>
      </trkpt>
      <trkpt lat="43.19587" lon="5.80137">
        <ele>177.39999389648</ele>
        <time>2016-05-15T08:13:08.000Z</time>
      </trkpt>
      <trkpt lat="43.19585" lon="5.80173">
        <ele>176.19999694824</ele>
        <time>2016-05-15T08:13:14.000Z</time>
      </trkpt>
      <trkpt lat="43.19584" lon="5.80201">
        <ele>175.19999694824</ele>
        <time>2016-05-15T08:13:18.000Z</time>
      </trkpt>
      <trkpt lat="43.19582" lon="5.80233">
        <ele>174.39999389648</ele>
        <time>2016-05-15T08:13:22.000Z</time>
      </trkpt>
      <trkpt lat="43.1958" lon="5.8027">
        <ele>173.60000610352</ele>
        <time>2016-05-15T08:13:27.000Z</time>
      </trkpt>
      <trkpt lat="43.1958" lon="5.80276">
        <ele>173.39999389648</ele>
        <time>2016-05-15T08:13:28.000Z</time>
      </trkpt>
      <trkpt lat="43.19578" lon="5.80301">
        <ele>172.60000610352</ele>
        <time>2016-05-15T08:13:32.000Z</time>
      </trkpt>
      <trkpt lat="43.19576" lon="5.80307">
        <ele>172.39999389648</ele>
        <time>2016-05-15T08:13:33.000Z</time>
      </trkpt>
      <trkpt lat="43.19573" lon="5.80318">
        <ele>172.60000610352</ele>
        <time>2016-05-15T08:13:35.000Z</time>
      </trkpt>
      <trkpt lat="43.19572" lon="5.80324">
        <ele>172.60000610352</ele>
        <time>2016-05-15T08:13:36.000Z</time>
      </trkpt>
      <trkpt lat="43.19572" lon="5.80337">
        <ele>172.60000610352</ele>
        <time>2016-05-15T08:13:38.000Z</time>
      </trkpt>
      <trkpt lat="43.19573" lon="5.80344">
        <ele>172.60000610352</ele>
        <time>2016-05-15T08:13:39.000Z</time>
      </trkpt>
      <trkpt lat="43.19575" lon="5.80359">
        <ele>172.39999389648</ele>
        <time>2016-05-15T08:13:41.000Z</time>
      </trkpt>
      <trkpt lat="43.19575" lon="5.80378">
        <ele>172.39999389648</ele>
        <time>2016-05-15T08:13:44.000Z</time>
      </trkpt>
      <trkpt lat="43.19574" lon="5.80393">
        <ele>172.39999389648</ele>
        <time>2016-05-15T08:13:47.000Z</time>
      </trkpt>
      <trkpt lat="43.19573" lon="5.80403">
        <ele>172.19999694824</ele>
        <time>2016-05-15T08:13:49.000Z</time>
      </trkpt>
      <trkpt lat="43.19572" lon="5.80433">
        <ele>171.39999389648</ele>
        <time>2016-05-15T08:13:54.000Z</time>
      </trkpt>
      <trkpt lat="43.19571" lon="5.80447">
        <ele>171.19999694824</ele>
        <time>2016-05-15T08:13:56.000Z</time>
      </trkpt>
      <trkpt lat="43.19568" lon="5.80503">
        <ele>170.60000610352</ele>
        <time>2016-05-15T08:14:03.000Z</time>
      </trkpt>
      <trkpt lat="43.19565" lon="5.80552">
        <ele>169.80000305176</ele>
        <time>2016-05-15T08:14:09.000Z</time>
      </trkpt>
      <trkpt lat="43.19563" lon="5.80575">
        <ele>169</ele>
        <time>2016-05-15T08:14:12.000Z</time>
      </trkpt>
      <trkpt lat="43.19561" lon="5.80604">
        <ele>168</ele>
        <time>2016-05-15T08:14:17.000Z</time>
      </trkpt>
      <trkpt lat="43.19562" lon="5.80609">
        <ele>168</ele>
        <time>2016-05-15T08:14:18.000Z</time>
      </trkpt>
      <trkpt lat="43.19561" lon="5.80626">
        <ele>167.60000610352</ele>
        <time>2016-05-15T08:14:21.000Z</time>
      </trkpt>
      <trkpt lat="43.19557" lon="5.80638">
        <ele>167.39999389648</ele>
        <time>2016-05-15T08:14:23.000Z</time>
      </trkpt>
      <trkpt lat="43.19547" lon="5.8067">
        <ele>167.39999389648</ele>
        <time>2016-05-15T08:14:28.000Z</time>
      </trkpt>
      <trkpt lat="43.19544" lon="5.80675">
        <ele>167.39999389648</ele>
        <time>2016-05-15T08:14:29.000Z</time>
      </trkpt>
      <trkpt lat="43.19518" lon="5.80713">
        <ele>168.80000305176</ele>
        <time>2016-05-15T08:14:36.000Z</time>
      </trkpt>
      <trkpt lat="43.19506" lon="5.80726">
        <ele>169.19999694824</ele>
        <time>2016-05-15T08:14:39.000Z</time>
      </trkpt>
      <trkpt lat="43.19491" lon="5.80738">
        <ele>169.39999389648</ele>
        <time>2016-05-15T08:14:42.000Z</time>
      </trkpt>
      <trkpt lat="43.19468" lon="5.80769">
        <ele>169.60000610352</ele>
        <time>2016-05-15T08:14:48.000Z</time>
      </trkpt>
      <trkpt lat="43.19464" lon="5.80776">
        <ele>169.60000610352</ele>
        <time>2016-05-15T08:14:49.000Z</time>
      </trkpt>
      <trkpt lat="43.19447" lon="5.80806">
        <ele>170</ele>
        <time>2016-05-15T08:14:54.000Z</time>
      </trkpt>
      <trkpt lat="43.19415" lon="5.80849">
        <ele>171</ele>
        <time>2016-05-15T08:15:02.000Z</time>
      </trkpt>
      <trkpt lat="43.19382" lon="5.80892">
        <ele>172.60000610352</ele>
        <time>2016-05-15T08:15:11.000Z</time>
      </trkpt>
      <trkpt lat="43.19356" lon="5.80926">
        <ele>173.19999694824</ele>
        <time>2016-05-15T08:15:19.000Z</time>
      </trkpt>
      <trkpt lat="43.19334" lon="5.80954">
        <ele>172.80000305176</ele>
        <time>2016-05-15T08:15:26.000Z</time>
      </trkpt>
      <trkpt lat="43.19327" lon="5.80962">
        <ele>172.80000305176</ele>
        <time>2016-05-15T08:15:28.000Z</time>
      </trkpt>
      <trkpt lat="43.193" lon="5.80998">
        <ele>173.19999694824</ele>
        <time>2016-05-15T08:15:36.000Z</time>
      </trkpt>
      <trkpt lat="43.19279" lon="5.8103">
        <ele>174.19999694824</ele>
        <time>2016-05-15T08:15:42.000Z</time>
      </trkpt>
      <trkpt lat="43.1927" lon="5.81041">
        <ele>174.60000610352</ele>
        <time>2016-05-15T08:15:44.000Z</time>
      </trkpt>
      <trkpt lat="43.19248" lon="5.81071">
        <ele>174.80000305176</ele>
        <time>2016-05-15T08:15:49.000Z</time>
      </trkpt>
      <trkpt lat="43.19212" lon="5.81119">
        <ele>174.39999389648</ele>
        <time>2016-05-15T08:15:57.000Z</time>
      </trkpt>
      <trkpt lat="43.19174" lon="5.81173">
        <ele>174.80000305176</ele>
        <time>2016-05-15T08:16:06.000Z</time>
      </trkpt>
      <trkpt lat="43.1917" lon="5.81178">
        <ele>174.60000610352</ele>
        <time>2016-05-15T08:16:07.000Z</time>
      </trkpt>
      <trkpt lat="43.19161" lon="5.81187">
        <ele>174.39999389648</ele>
        <time>2016-05-15T08:16:09.000Z</time>
      </trkpt>
      <trkpt lat="43.1915" lon="5.81189">
        <ele>174.60000610352</ele>
        <time>2016-05-15T08:16:11.000Z</time>
      </trkpt>
      <trkpt lat="43.19133" lon="5.8119">
        <ele>175</ele>
        <time>2016-05-15T08:16:14.000Z</time>
      </trkpt>
      <trkpt lat="43.19128" lon="5.81192">
        <ele>175.19999694824</ele>
        <time>2016-05-15T08:16:15.000Z</time>
      </trkpt>
      <trkpt lat="43.19123" lon="5.81196">
        <ele>175.39999389648</ele>
        <time>2016-05-15T08:16:16.000Z</time>
      </trkpt>
      <trkpt lat="43.19108" lon="5.8122">
        <ele>175.60000610352</ele>
        <time>2016-05-15T08:16:20.000Z</time>
      </trkpt>
      <trkpt lat="43.19103" lon="5.81252">
        <ele>175</ele>
        <time>2016-05-15T08:16:24.000Z</time>
      </trkpt>
      <trkpt lat="43.19094" lon="5.81281">
        <ele>175.39999389648</ele>
        <time>2016-05-15T08:16:28.000Z</time>
      </trkpt>
      <trkpt lat="43.19086" lon="5.81293">
        <ele>176</ele>
        <time>2016-05-15T08:16:30.000Z</time>
      </trkpt>
      <trkpt lat="43.19077" lon="5.81304">
        <ele>176.39999389648</ele>
        <time>2016-05-15T08:16:32.000Z</time>
      </trkpt>
      <trkpt lat="43.1904" lon="5.81352">
        <ele>176.39999389648</ele>
        <time>2016-05-15T08:16:40.000Z</time>
      </trkpt>
      <trkpt lat="43.19031" lon="5.81363">
        <ele>176</ele>
        <time>2016-05-15T08:16:42.000Z</time>
      </trkpt>
      <trkpt lat="43.18996" lon="5.81409">
        <ele>175.39999389648</ele>
        <time>2016-05-15T08:16:50.000Z</time>
      </trkpt>
      <trkpt lat="43.18991" lon="5.81415">
        <ele>175.60000610352</ele>
        <time>2016-05-15T08:16:51.000Z</time>
      </trkpt>
      <trkpt lat="43.18955" lon="5.81464">
        <ele>177.80000305176</ele>
        <time>2016-05-15T08:16:59.000Z</time>
      </trkpt>
      <trkpt lat="43.18942" lon="5.81483">
        <ele>178.60000610352</ele>
        <time>2016-05-15T08:17:02.000Z</time>
      </trkpt>
      <trkpt lat="43.18902" lon="5.81535">
        <ele>178.60000610352</ele>
        <time>2016-05-15T08:17:11.000Z</time>
      </trkpt>
      <trkpt lat="43.18897" lon="5.81541">
        <ele>178.60000610352</ele>
        <time>2016-05-15T08:17:12.000Z</time>
      </trkpt>
      <trkpt lat="43.18893" lon="5.81547">
        <ele>178.60000610352</ele>
        <time>2016-05-15T08:17:13.000Z</time>
      </trkpt>
      <trkpt lat="43.18871" lon="5.81574">
        <ele>178.19999694824</ele>
        <time>2016-05-15T08:17:18.000Z</time>
      </trkpt>
      <trkpt lat="43.18857" lon="5.8159">
        <ele>179.19999694824</ele>
        <time>2016-05-15T08:17:21.000Z</time>
      </trkpt>
      <trkpt lat="43.18829" lon="5.81621">
        <ele>180.19999694824</ele>
        <time>2016-05-15T08:17:27.000Z</time>
      </trkpt>
      <trkpt lat="43.18819" lon="5.81632">
        <ele>180</ele>
        <time>2016-05-15T08:17:29.000Z</time>
      </trkpt>
      <trkpt lat="43.18775" lon="5.81678">
        <ele>178.39999389648</ele>
        <time>2016-05-15T08:17:38.000Z</time>
      </trkpt>
      <trkpt lat="43.18731" lon="5.81723">
        <ele>178.80000305176</ele>
        <time>2016-05-15T08:17:47.000Z</time>
      </trkpt>
      <trkpt lat="43.18726" lon="5.81728">
        <ele>178.60000610352</ele>
        <time>2016-05-15T08:17:48.000Z</time>
      </trkpt>
      <trkpt lat="43.18681" lon="5.81772">
        <ele>178</ele>
        <time>2016-05-15T08:17:57.000Z</time>
      </trkpt>
      <trkpt lat="43.18672" lon="5.81782">
        <ele>178</ele>
        <time>2016-05-15T08:17:59.000Z</time>
      </trkpt>
      <trkpt lat="43.18625" lon="5.8183">
        <ele>180</ele>
        <time>2016-05-15T08:18:10.000Z</time>
      </trkpt>
      <trkpt lat="43.18577" lon="5.81881">
        <ele>182</ele>
        <time>2016-05-15T08:18:20.000Z</time>
      </trkpt>
      <trkpt lat="43.18568" lon="5.8189">
        <ele>181.60000610352</ele>
        <time>2016-05-15T08:18:22.000Z</time>
      </trkpt>
      <trkpt lat="43.18563" lon="5.81895">
        <ele>181.60000610352</ele>
        <time>2016-05-15T08:18:23.000Z</time>
      </trkpt>
      <trkpt lat="43.18519" lon="5.8194">
        <ele>179</ele>
        <time>2016-05-15T08:18:32.000Z</time>
      </trkpt>
      <trkpt lat="43.18514" lon="5.81945">
        <ele>178.39999389648</ele>
        <time>2016-05-15T08:18:33.000Z</time>
      </trkpt>
      <trkpt lat="43.18465" lon="5.81993">
        <ele>177.60000610352</ele>
        <time>2016-05-15T08:18:42.000Z</time>
      </trkpt>
      <trkpt lat="43.18417" lon="5.82038">
        <ele>176.39999389648</ele>
        <time>2016-05-15T08:18:50.000Z</time>
      </trkpt>
      <trkpt lat="43.18404" lon="5.8205">
        <ele>176.19999694824</ele>
        <time>2016-05-15T08:18:52.000Z</time>
      </trkpt>
      <trkpt lat="43.1836" lon="5.82093">
        <ele>176</ele>
        <time>2016-05-15T08:18:59.000Z</time>
      </trkpt>
      <trkpt lat="43.18347" lon="5.82105">
        <ele>175.60000610352</ele>
        <time>2016-05-15T08:19:01.000Z</time>
      </trkpt>
      <trkpt lat="43.18308" lon="5.82142">
        <ele>173.39999389648</ele>
        <time>2016-05-15T08:19:07.000Z</time>
      </trkpt>
      <trkpt lat="43.18301" lon="5.82149">
        <ele>173</ele>
        <time>2016-05-15T08:19:08.000Z</time>
      </trkpt>
      <trkpt lat="43.18288" lon="5.82161">
        <ele>172.19999694824</ele>
        <time>2016-05-15T08:19:10.000Z</time>
      </trkpt>
      <trkpt lat="43.18267" lon="5.82181">
        <ele>172</ele>
        <time>2016-05-15T08:19:13.000Z</time>
      </trkpt>
      <trkpt lat="43.18245" lon="5.82202">
        <ele>171.39999389648</ele>
        <time>2016-05-15T08:19:16.000Z</time>
      </trkpt>
      <trkpt lat="43.18238" lon="5.82209">
        <ele>171.39999389648</ele>
        <time>2016-05-15T08:19:17.000Z</time>
      </trkpt>
      <trkpt lat="43.18231" lon="5.82216">
        <ele>171.19999694824</ele>
        <time>2016-05-15T08:19:18.000Z</time>
      </trkpt>
      <trkpt lat="43.18182" lon="5.82264">
        <ele>169.39999389648</ele>
        <time>2016-05-15T08:19:25.000Z</time>
      </trkpt>
      <trkpt lat="43.18148" lon="5.82296">
        <ele>168.39999389648</ele>
        <time>2016-05-15T08:19:30.000Z</time>
      </trkpt>
      <trkpt lat="43.18122" lon="5.82321">
        <ele>168.39999389648</ele>
        <time>2016-05-15T08:19:34.000Z</time>
      </trkpt>
      <trkpt lat="43.18109" lon="5.82332">
        <ele>168.19999694824</ele>
        <time>2016-05-15T08:19:36.000Z</time>
      </trkpt>
      <trkpt lat="43.1808" lon="5.82359">
        <ele>168</ele>
        <time>2016-05-15T08:19:41.000Z</time>
      </trkpt>
      <trkpt lat="43.18036" lon="5.82402">
        <ele>167</ele>
        <time>2016-05-15T08:19:49.000Z</time>
      </trkpt>
      <trkpt lat="43.1799" lon="5.82445">
        <ele>164.80000305176</ele>
        <time>2016-05-15T08:19:57.000Z</time>
      </trkpt>
      <trkpt lat="43.17945" lon="5.82488">
        <ele>163.39999389648</ele>
        <time>2016-05-15T08:20:05.000Z</time>
      </trkpt>
      <trkpt lat="43.17905" lon="5.82517">
        <ele>162</ele>
        <time>2016-05-15T08:20:11.000Z</time>
      </trkpt>
      <trkpt lat="43.17898" lon="5.82522">
        <ele>161.80000305176</ele>
        <time>2016-05-15T08:20:12.000Z</time>
      </trkpt>
      <trkpt lat="43.17876" lon="5.82537">
        <ele>161</ele>
        <time>2016-05-15T08:20:15.000Z</time>
      </trkpt>
      <trkpt lat="43.17839" lon="5.82563">
        <ele>159.60000610352</ele>
        <time>2016-05-15T08:20:20.000Z</time>
      </trkpt>
      <trkpt lat="43.17824" lon="5.82574">
        <ele>158.80000305176</ele>
        <time>2016-05-15T08:20:22.000Z</time>
      </trkpt>
      <trkpt lat="43.17816" lon="5.82579">
        <ele>158.60000610352</ele>
        <time>2016-05-15T08:20:23.000Z</time>
      </trkpt>
      <trkpt lat="43.17786" lon="5.82599">
        <ele>157.80000305176</ele>
        <time>2016-05-15T08:20:27.000Z</time>
      </trkpt>
      <trkpt lat="43.1775" lon="5.82624">
        <ele>158.39999389648</ele>
        <time>2016-05-15T08:20:32.000Z</time>
      </trkpt>
      <trkpt lat="43.17743" lon="5.82629">
        <ele>158.60000610352</ele>
        <time>2016-05-15T08:20:33.000Z</time>
      </trkpt>
      <trkpt lat="43.1769" lon="5.82665">
        <ele>158.19999694824</ele>
        <time>2016-05-15T08:20:41.000Z</time>
      </trkpt>
      <trkpt lat="43.17684" lon="5.8267">
        <ele>157.80000305176</ele>
        <time>2016-05-15T08:20:42.000Z</time>
      </trkpt>
      <trkpt lat="43.17648" lon="5.82696">
        <ele>155.60000610352</ele>
        <time>2016-05-15T08:20:48.000Z</time>
      </trkpt>
      <trkpt lat="43.17642" lon="5.82701">
        <ele>155.19999694824</ele>
        <time>2016-05-15T08:20:49.000Z</time>
      </trkpt>
      <trkpt lat="43.17631" lon="5.82709">
        <ele>154.80000305176</ele>
        <time>2016-05-15T08:20:51.000Z</time>
      </trkpt>
      <trkpt lat="43.17608" lon="5.82725">
        <ele>153.80000305176</ele>
        <time>2016-05-15T08:20:55.000Z</time>
      </trkpt>
      <trkpt lat="43.17585" lon="5.82741">
        <ele>153.60000610352</ele>
        <time>2016-05-15T08:20:59.000Z</time>
      </trkpt>
      <trkpt lat="43.17568" lon="5.82749">
        <ele>153.60000610352</ele>
        <time>2016-05-15T08:21:02.000Z</time>
      </trkpt>
      <trkpt lat="43.17556" lon="5.8275">
        <ele>153.80000305176</ele>
        <time>2016-05-15T08:21:04.000Z</time>
      </trkpt>
      <trkpt lat="43.17544" lon="5.82747">
        <ele>154</ele>
        <time>2016-05-15T08:21:06.000Z</time>
      </trkpt>
      <trkpt lat="43.17539" lon="5.82747">
        <ele>154</ele>
        <time>2016-05-15T08:21:07.000Z</time>
      </trkpt>
      <trkpt lat="43.17534" lon="5.8275">
        <ele>154.19999694824</ele>
        <time>2016-05-15T08:21:08.000Z</time>
      </trkpt>
      <trkpt lat="43.1753" lon="5.82756">
        <ele>154.19999694824</ele>
        <time>2016-05-15T08:21:09.000Z</time>
      </trkpt>
      <trkpt lat="43.17523" lon="5.82768">
        <ele>154.19999694824</ele>
        <time>2016-05-15T08:21:11.000Z</time>
      </trkpt>
      <trkpt lat="43.17508" lon="5.82792">
        <ele>154.19999694824</ele>
        <time>2016-05-15T08:21:15.000Z</time>
      </trkpt>
      <trkpt lat="43.1749" lon="5.82812">
        <ele>153.80000305176</ele>
        <time>2016-05-15T08:21:19.000Z</time>
      </trkpt>
      <trkpt lat="43.17448" lon="5.82841">
        <ele>153.19999694824</ele>
        <time>2016-05-15T08:21:27.000Z</time>
      </trkpt>
      <trkpt lat="43.17437" lon="5.82848">
        <ele>153</ele>
        <time>2016-05-15T08:21:29.000Z</time>
      </trkpt>
      <trkpt lat="43.17408" lon="5.82868">
        <ele>152.19999694824</ele>
        <time>2016-05-15T08:21:34.000Z</time>
      </trkpt>
      <trkpt lat="43.17359" lon="5.82901">
        <ele>151.60000610352</ele>
        <time>2016-05-15T08:21:42.000Z</time>
      </trkpt>
      <trkpt lat="43.17337" lon="5.82916">
        <ele>150.39999389648</ele>
        <time>2016-05-15T08:21:46.000Z</time>
      </trkpt>
      <trkpt lat="43.17334" lon="5.82919">
        <ele>150.19999694824</ele>
        <time>2016-05-15T08:21:47.000Z</time>
      </trkpt>
      <trkpt lat="43.17328" lon="5.82923">
        <ele>149.80000305176</ele>
        <time>2016-05-15T08:21:49.000Z</time>
      </trkpt>
      <trkpt lat="43.17321" lon="5.82929">
        <ele>149.19999694824</ele>
        <time>2016-05-15T08:21:52.000Z</time>
      </trkpt>
      <trkpt lat="43.17308" lon="5.82938">
        <ele>148.39999389648</ele>
        <time>2016-05-15T08:21:56.000Z</time>
      </trkpt>
      <trkpt lat="43.17298" lon="5.82945">
        <ele>148.60000610352</ele>
        <time>2016-05-15T08:21:58.000Z</time>
      </trkpt>
      <trkpt lat="43.1728" lon="5.82959">
        <ele>148.80000305176</ele>
        <time>2016-05-15T08:22:01.000Z</time>
      </trkpt>
      <trkpt lat="43.1725" lon="5.8298">
        <ele>148.60000610352</ele>
        <time>2016-05-15T08:22:06.000Z</time>
      </trkpt>
      <trkpt lat="43.17238" lon="5.82988">
        <ele>148.39999389648</ele>
        <time>2016-05-15T08:22:08.000Z</time>
      </trkpt>
      <trkpt lat="43.17222" lon="5.82999">
        <ele>147.80000305176</ele>
        <time>2016-05-15T08:22:11.000Z</time>
      </trkpt>
      <trkpt lat="43.17214" lon="5.83003">
        <ele>147.60000610352</ele>
        <time>2016-05-15T08:22:13.000Z</time>
      </trkpt>
      <trkpt lat="43.1721" lon="5.83006">
        <ele>147.60000610352</ele>
        <time>2016-05-15T08:22:16.000Z</time>
      </trkpt>
      <trkpt lat="43.17209" lon="5.83007">
        <ele>147.60000610352</ele>
        <time>2016-05-15T08:22:17.000Z</time>
      </trkpt>
      <trkpt lat="43.17209" lon="5.83012">
        <ele>147.60000610352</ele>
        <time>2016-05-15T08:22:37.000Z</time>
      </trkpt>
      <trkpt lat="43.1721" lon="5.83015">
        <ele>147.39999389648</ele>
        <time>2016-05-15T08:22:38.000Z</time>
      </trkpt>
      <trkpt lat="43.17214" lon="5.83035">
        <ele>147.19999694824</ele>
        <time>2016-05-15T08:22:42.000Z</time>
      </trkpt>
      <trkpt lat="43.17214" lon="5.83041">
        <ele>147.19999694824</ele>
        <time>2016-05-15T08:22:43.000Z</time>
      </trkpt>
      <trkpt lat="43.17215" lon="5.83082">
        <ele>148</ele>
        <time>2016-05-15T08:22:51.000Z</time>
      </trkpt>
      <trkpt lat="43.17219" lon="5.83113">
        <ele>149</ele>
        <time>2016-05-15T08:22:57.000Z</time>
      </trkpt>
      <trkpt lat="43.17221" lon="5.83123">
        <ele>149.39999389648</ele>
        <time>2016-05-15T08:22:59.000Z</time>
      </trkpt>
      <trkpt lat="43.17223" lon="5.83139">
        <ele>150</ele>
        <time>2016-05-15T08:23:02.000Z</time>
      </trkpt>
      <trkpt lat="43.17227" lon="5.83164">
        <ele>151.80000305176</ele>
        <time>2016-05-15T08:23:07.000Z</time>
      </trkpt>
      <trkpt lat="43.17227" lon="5.83169">
        <ele>152.19999694824</ele>
        <time>2016-05-15T08:23:08.000Z</time>
      </trkpt>
      <trkpt lat="43.17229" lon="5.8319">
        <ele>153.60000610352</ele>
        <time>2016-05-15T08:23:12.000Z</time>
      </trkpt>
      <trkpt lat="43.17229" lon="5.83201">
        <ele>154</ele>
        <time>2016-05-15T08:23:14.000Z</time>
      </trkpt>
      <trkpt lat="43.17226" lon="5.83217">
        <ele>154.60000610352</ele>
        <time>2016-05-15T08:23:17.000Z</time>
      </trkpt>
      <trkpt lat="43.17222" lon="5.83234">
        <ele>155</ele>
        <time>2016-05-15T08:23:20.000Z</time>
      </trkpt>
      <trkpt lat="43.1722" lon="5.83246">
        <ele>155.39999389648</ele>
        <time>2016-05-15T08:23:22.000Z</time>
      </trkpt>
      <trkpt lat="43.17215" lon="5.83268">
        <ele>156.39999389648</ele>
        <time>2016-05-15T08:23:26.000Z</time>
      </trkpt>
      <trkpt lat="43.17214" lon="5.83285">
        <ele>157.80000305176</ele>
        <time>2016-05-15T08:23:29.000Z</time>
      </trkpt>
      <trkpt lat="43.17213" lon="5.8329">
        <ele>158.19999694824</ele>
        <time>2016-05-15T08:23:30.000Z</time>
      </trkpt>
      <trkpt lat="43.17211" lon="5.83313">
        <ele>160</ele>
        <time>2016-05-15T08:23:34.000Z</time>
      </trkpt>
      <trkpt lat="43.1721" lon="5.83336">
        <ele>161.39999389648</ele>
        <time>2016-05-15T08:23:38.000Z</time>
      </trkpt>
      <trkpt lat="43.17213" lon="5.83365">
        <ele>162.80000305176</ele>
        <time>2016-05-15T08:23:43.000Z</time>
      </trkpt>
      <trkpt lat="43.17218" lon="5.83389">
        <ele>164</ele>
        <time>2016-05-15T08:23:47.000Z</time>
      </trkpt>
      <trkpt lat="43.17219" lon="5.83395">
        <ele>164.39999389648</ele>
        <time>2016-05-15T08:23:48.000Z</time>
      </trkpt>
      <trkpt lat="43.17225" lon="5.83418">
        <ele>166.39999389648</ele>
        <time>2016-05-15T08:23:52.000Z</time>
      </trkpt>
      <trkpt lat="43.17227" lon="5.83429">
        <ele>167.39999389648</ele>
        <time>2016-05-15T08:23:54.000Z</time>
      </trkpt>
      <trkpt lat="43.17229" lon="5.83442">
        <ele>168.39999389648</ele>
        <time>2016-05-15T08:23:56.000Z</time>
      </trkpt>
      <trkpt lat="43.17236" lon="5.83466">
        <ele>170.19999694824</ele>
        <time>2016-05-15T08:24:00.000Z</time>
      </trkpt>
      <trkpt lat="43.17238" lon="5.83472">
        <ele>170.60000610352</ele>
        <time>2016-05-15T08:24:01.000Z</time>
      </trkpt>
      <trkpt lat="43.17248" lon="5.835">
        <ele>170.19999694824</ele>
        <time>2016-05-15T08:24:06.000Z</time>
      </trkpt>
      <trkpt lat="43.17257" lon="5.83525">
        <ele>169.60000610352</ele>
        <time>2016-05-15T08:24:10.000Z</time>
      </trkpt>
      <trkpt lat="43.17266" lon="5.83551">
        <ele>169.60000610352</ele>
        <time>2016-05-15T08:24:14.000Z</time>
      </trkpt>
      <trkpt lat="43.17272" lon="5.83579">
        <ele>171.60000610352</ele>
        <time>2016-05-15T08:24:18.000Z</time>
      </trkpt>
      <trkpt lat="43.17273" lon="5.83619">
        <ele>171.80000305176</ele>
        <time>2016-05-15T08:24:24.000Z</time>
      </trkpt>
      <trkpt lat="43.17273" lon="5.83625">
        <ele>171.80000305176</ele>
        <time>2016-05-15T08:24:25.000Z</time>
      </trkpt>
      <trkpt lat="43.17273" lon="5.83664">
        <ele>173.19999694824</ele>
        <time>2016-05-15T08:24:31.000Z</time>
      </trkpt>
      <trkpt lat="43.17276" lon="5.83676">
        <ele>175</ele>
        <time>2016-05-15T08:24:33.000Z</time>
      </trkpt>
      <trkpt lat="43.17283" lon="5.83693">
        <ele>177.60000610352</ele>
        <time>2016-05-15T08:24:36.000Z</time>
      </trkpt>
      <trkpt lat="43.17286" lon="5.83698">
        <ele>178.60000610352</ele>
        <time>2016-05-15T08:24:37.000Z</time>
      </trkpt>
      <trkpt lat="43.17289" lon="5.83703">
        <ele>179.39999389648</ele>
        <time>2016-05-15T08:24:38.000Z</time>
      </trkpt>
      <trkpt lat="43.173" lon="5.83725">
        <ele>182.39999389648</ele>
        <time>2016-05-15T08:24:42.000Z</time>
      </trkpt>
      <trkpt lat="43.1731" lon="5.83747">
        <ele>180.60000610352</ele>
        <time>2016-05-15T08:24:46.000Z</time>
      </trkpt>
      <trkpt lat="43.17313" lon="5.83752">
        <ele>180.19999694824</ele>
        <time>2016-05-15T08:24:47.000Z</time>
      </trkpt>
      <trkpt lat="43.17321" lon="5.83768">
        <ele>178.80000305176</ele>
        <time>2016-05-15T08:24:50.000Z</time>
      </trkpt>
      <trkpt lat="43.17332" lon="5.83789">
        <ele>177</ele>
        <time>2016-05-15T08:24:54.000Z</time>
      </trkpt>
      <trkpt lat="43.17337" lon="5.83799">
        <ele>176.39999389648</ele>
        <time>2016-05-15T08:24:56.000Z</time>
      </trkpt>
      <trkpt lat="43.1734" lon="5.83804">
        <ele>176.60000610352</ele>
        <time>2016-05-15T08:24:57.000Z</time>
      </trkpt>
      <trkpt lat="43.17349" lon="5.83818">
        <ele>177</ele>
        <time>2016-05-15T08:25:00.000Z</time>
      </trkpt>
      <trkpt lat="43.17359" lon="5.83832">
        <ele>179.19999694824</ele>
        <time>2016-05-15T08:25:03.000Z</time>
      </trkpt>
      <trkpt lat="43.17362" lon="5.83837">
        <ele>179.80000305176</ele>
        <time>2016-05-15T08:25:04.000Z</time>
      </trkpt>
      <trkpt lat="43.1737" lon="5.83851">
        <ele>181.80000305176</ele>
        <time>2016-05-15T08:25:07.000Z</time>
      </trkpt>
      <trkpt lat="43.17373" lon="5.83857">
        <ele>182.39999389648</ele>
        <time>2016-05-15T08:25:08.000Z</time>
      </trkpt>
      <trkpt lat="43.17377" lon="5.83869">
        <ele>183.39999389648</ele>
        <time>2016-05-15T08:25:10.000Z</time>
      </trkpt>
      <trkpt lat="43.1738" lon="5.83887">
        <ele>184.19999694824</ele>
        <time>2016-05-15T08:25:13.000Z</time>
      </trkpt>
      <trkpt lat="43.1738" lon="5.839">
        <ele>184.60000610352</ele>
        <time>2016-05-15T08:25:15.000Z</time>
      </trkpt>
      <trkpt lat="43.1738" lon="5.83933">
        <ele>187.39999389648</ele>
        <time>2016-05-15T08:25:20.000Z</time>
      </trkpt>
      <trkpt lat="43.17382" lon="5.83946">
        <ele>191</ele>
        <time>2016-05-15T08:25:22.000Z</time>
      </trkpt>
      <trkpt lat="43.17383" lon="5.83953">
        <ele>192.80000305176</ele>
        <time>2016-05-15T08:25:23.000Z</time>
      </trkpt>
      <trkpt lat="43.17397" lon="5.83996">
        <ele>197.80000305176</ele>
        <time>2016-05-15T08:25:30.000Z</time>
      </trkpt>
      <trkpt lat="43.17402" lon="5.84007">
        <ele>197.60000610352</ele>
        <time>2016-05-15T08:25:32.000Z</time>
      </trkpt>
      <trkpt lat="43.17411" lon="5.84028">
        <ele>197.39999389648</ele>
        <time>2016-05-15T08:25:36.000Z</time>
      </trkpt>
      <trkpt lat="43.17416" lon="5.84038">
        <ele>197.39999389648</ele>
        <time>2016-05-15T08:25:38.000Z</time>
      </trkpt>
      <trkpt lat="43.1742" lon="5.84049">
        <ele>197.60000610352</ele>
        <time>2016-05-15T08:25:40.000Z</time>
      </trkpt>
      <trkpt lat="43.17431" lon="5.84068">
        <ele>198.60000610352</ele>
        <time>2016-05-15T08:25:44.000Z</time>
      </trkpt>
      <trkpt lat="43.1744" lon="5.84079">
        <ele>200.60000610352</ele>
        <time>2016-05-15T08:25:47.000Z</time>
      </trkpt>
      <trkpt lat="43.1745" lon="5.84091">
        <ele>202.60000610352</ele>
        <time>2016-05-15T08:25:50.000Z</time>
      </trkpt>
      <trkpt lat="43.17456" lon="5.841">
        <ele>204</ele>
        <time>2016-05-15T08:25:52.000Z</time>
      </trkpt>
      <trkpt lat="43.17459" lon="5.84105">
        <ele>204.80000305176</ele>
        <time>2016-05-15T08:25:53.000Z</time>
      </trkpt>
      <trkpt lat="43.17468" lon="5.84118">
        <ele>206.80000305176</ele>
        <time>2016-05-15T08:25:56.000Z</time>
      </trkpt>
      <trkpt lat="43.17473" lon="5.84126">
        <ele>208.19999694824</ele>
        <time>2016-05-15T08:25:58.000Z</time>
      </trkpt>
      <trkpt lat="43.1748" lon="5.8414">
        <ele>210</ele>
        <time>2016-05-15T08:26:01.000Z</time>
      </trkpt>
      <trkpt lat="43.17482" lon="5.84145">
        <ele>209.80000305176</ele>
        <time>2016-05-15T08:26:02.000Z</time>
      </trkpt>
      <trkpt lat="43.17486" lon="5.84154">
        <ele>209.39999389648</ele>
        <time>2016-05-15T08:26:04.000Z</time>
      </trkpt>
      <trkpt lat="43.17491" lon="5.84168">
        <ele>208.60000610352</ele>
        <time>2016-05-15T08:26:07.000Z</time>
      </trkpt>
      <trkpt lat="43.17492" lon="5.84179">
        <ele>208</ele>
        <time>2016-05-15T08:26:09.000Z</time>
      </trkpt>
      <trkpt lat="43.17493" lon="5.84184">
        <ele>207.60000610352</ele>
        <time>2016-05-15T08:26:10.000Z</time>
      </trkpt>
      <trkpt lat="43.17493" lon="5.84201">
        <ele>206.39999389648</ele>
        <time>2016-05-15T08:26:13.000Z</time>
      </trkpt>
      <trkpt lat="43.17494" lon="5.84217">
        <ele>208.19999694824</ele>
        <time>2016-05-15T08:26:16.000Z</time>
      </trkpt>
      <trkpt lat="43.17494" lon="5.84223">
        <ele>209.19999694824</ele>
        <time>2016-05-15T08:26:17.000Z</time>
      </trkpt>
      <trkpt lat="43.17495" lon="5.8424">
        <ele>209.39999389648</ele>
        <time>2016-05-15T08:26:20.000Z</time>
      </trkpt>
      <trkpt lat="43.17497" lon="5.84261">
        <ele>209.80000305176</ele>
        <time>2016-05-15T08:26:24.000Z</time>
      </trkpt>
      <trkpt lat="43.17498" lon="5.84266">
        <ele>210</ele>
        <time>2016-05-15T08:26:25.000Z</time>
      </trkpt>
      <trkpt lat="43.17502" lon="5.8429">
        <ele>210.19999694824</ele>
        <time>2016-05-15T08:26:29.000Z</time>
      </trkpt>
      <trkpt lat="43.17504" lon="5.84307">
        <ele>212.39999389648</ele>
        <time>2016-05-15T08:26:32.000Z</time>
      </trkpt>
      <trkpt lat="43.17505" lon="5.84312">
        <ele>212.80000305176</ele>
        <time>2016-05-15T08:26:33.000Z</time>
      </trkpt>
      <trkpt lat="43.17512" lon="5.84332">
        <ele>214</ele>
        <time>2016-05-15T08:26:37.000Z</time>
      </trkpt>
      <trkpt lat="43.17515" lon="5.84341">
        <ele>216.39999389648</ele>
        <time>2016-05-15T08:26:39.000Z</time>
      </trkpt>
      <trkpt lat="43.17516" lon="5.84346">
        <ele>217.39999389648</ele>
        <time>2016-05-15T08:26:40.000Z</time>
      </trkpt>
      <trkpt lat="43.17521" lon="5.8436">
        <ele>220.80000305176</ele>
        <time>2016-05-15T08:26:43.000Z</time>
      </trkpt>
      <trkpt lat="43.17525" lon="5.84373">
        <ele>224</ele>
        <time>2016-05-15T08:26:46.000Z</time>
      </trkpt>
      <trkpt lat="43.17529" lon="5.84382">
        <ele>226.19999694824</ele>
        <time>2016-05-15T08:26:48.000Z</time>
      </trkpt>
      <trkpt lat="43.1753" lon="5.84387">
        <ele>227.19999694824</ele>
        <time>2016-05-15T08:26:49.000Z</time>
      </trkpt>
      <trkpt lat="43.17536" lon="5.84402">
        <ele>228.19999694824</ele>
        <time>2016-05-15T08:26:52.000Z</time>
      </trkpt>
      <trkpt lat="43.17543" lon="5.84414">
        <ele>228.60000610352</ele>
        <time>2016-05-15T08:26:55.000Z</time>
      </trkpt>
      <trkpt lat="43.17551" lon="5.84426">
        <ele>229.39999389648</ele>
        <time>2016-05-15T08:26:58.000Z</time>
      </trkpt>
      <trkpt lat="43.17558" lon="5.84437">
        <ele>230.19999694824</ele>
        <time>2016-05-15T08:27:01.000Z</time>
      </trkpt>
      <trkpt lat="43.17566" lon="5.84449">
        <ele>232</ele>
        <time>2016-05-15T08:27:04.000Z</time>
      </trkpt>
      <trkpt lat="43.17573" lon="5.8446">
        <ele>233.39999389648</ele>
        <time>2016-05-15T08:27:07.000Z</time>
      </trkpt>
      <trkpt lat="43.17581" lon="5.84471">
        <ele>235.19999694824</ele>
        <time>2016-05-15T08:27:10.000Z</time>
      </trkpt>
      <trkpt lat="43.17588" lon="5.84483">
        <ele>235.80000305176</ele>
        <time>2016-05-15T08:27:13.000Z</time>
      </trkpt>
      <trkpt lat="43.1759" lon="5.84487">
        <ele>236</ele>
        <time>2016-05-15T08:27:14.000Z</time>
      </trkpt>
      <trkpt lat="43.17591" lon="5.84491">
        <ele>236.39999389648</ele>
        <time>2016-05-15T08:27:15.000Z</time>
      </trkpt>
      <trkpt lat="43.17597" lon="5.84504">
        <ele>238</ele>
        <time>2016-05-15T08:27:18.000Z</time>
      </trkpt>
      <trkpt lat="43.17604" lon="5.84516">
        <ele>240.60000610352</ele>
        <time>2016-05-15T08:27:21.000Z</time>
      </trkpt>
      <trkpt lat="43.1761" lon="5.84529">
        <ele>243.39999389648</ele>
        <time>2016-05-15T08:27:24.000Z</time>
      </trkpt>
      <trkpt lat="43.17617" lon="5.84543">
        <ele>246.39999389648</ele>
        <time>2016-05-15T08:27:27.000Z</time>
      </trkpt>
      <trkpt lat="43.17618" lon="5.84547">
        <ele>247.19999694824</ele>
        <time>2016-05-15T08:27:28.000Z</time>
      </trkpt>
      <trkpt lat="43.17622" lon="5.84556">
        <ele>248.80000305176</ele>
        <time>2016-05-15T08:27:30.000Z</time>
      </trkpt>
      <trkpt lat="43.17625" lon="5.84569">
        <ele>249.19999694824</ele>
        <time>2016-05-15T08:27:33.000Z</time>
      </trkpt>
      <trkpt lat="43.17627" lon="5.84579">
        <ele>249.19999694824</ele>
        <time>2016-05-15T08:27:35.000Z</time>
      </trkpt>
      <trkpt lat="43.1763" lon="5.84593">
        <ele>249.80000305176</ele>
        <time>2016-05-15T08:27:38.000Z</time>
      </trkpt>
      <trkpt lat="43.17633" lon="5.84607">
        <ele>253</ele>
        <time>2016-05-15T08:27:41.000Z</time>
      </trkpt>
      <trkpt lat="43.17637" lon="5.84621">
        <ele>256</ele>
        <time>2016-05-15T08:27:44.000Z</time>
      </trkpt>
      <trkpt lat="43.17639" lon="5.84625">
        <ele>257</ele>
        <time>2016-05-15T08:27:45.000Z</time>
      </trkpt>
      <trkpt lat="43.17642" lon="5.84635">
        <ele>259.20001220703</ele>
        <time>2016-05-15T08:27:47.000Z</time>
      </trkpt>
      <trkpt lat="43.17649" lon="5.84654">
        <ele>260</ele>
        <time>2016-05-15T08:27:51.000Z</time>
      </trkpt>
      <trkpt lat="43.17655" lon="5.84667">
        <ele>260</ele>
        <time>2016-05-15T08:27:54.000Z</time>
      </trkpt>
      <trkpt lat="43.17658" lon="5.84675">
        <ele>260</ele>
        <time>2016-05-15T08:27:56.000Z</time>
      </trkpt>
      <trkpt lat="43.17661" lon="5.84685">
        <ele>260.20001220703</ele>
        <time>2016-05-15T08:27:58.000Z</time>
      </trkpt>
      <trkpt lat="43.17666" lon="5.84699">
        <ele>260.20001220703</ele>
        <time>2016-05-15T08:28:01.000Z</time>
      </trkpt>
      <trkpt lat="43.17668" lon="5.84704">
        <ele>260.20001220703</ele>
        <time>2016-05-15T08:28:02.000Z</time>
      </trkpt>
      <trkpt lat="43.17673" lon="5.84718">
        <ele>260.60000610352</ele>
        <time>2016-05-15T08:28:05.000Z</time>
      </trkpt>
      <trkpt lat="43.17681" lon="5.84737">
        <ele>263</ele>
        <time>2016-05-15T08:28:09.000Z</time>
      </trkpt>
      <trkpt lat="43.17682" lon="5.84742">
        <ele>263.79998779297</ele>
        <time>2016-05-15T08:28:10.000Z</time>
      </trkpt>
      <trkpt lat="43.17687" lon="5.84751">
        <ele>265.39999389648</ele>
        <time>2016-05-15T08:28:12.000Z</time>
      </trkpt>
      <trkpt lat="43.17693" lon="5.84764">
        <ele>267.60000610352</ele>
        <time>2016-05-15T08:28:15.000Z</time>
      </trkpt>
      <trkpt lat="43.177" lon="5.84777">
        <ele>269.60000610352</ele>
        <time>2016-05-15T08:28:18.000Z</time>
      </trkpt>
      <trkpt lat="43.17708" lon="5.8479">
        <ele>271.60000610352</ele>
        <time>2016-05-15T08:28:21.000Z</time>
      </trkpt>
      <trkpt lat="43.17716" lon="5.84803">
        <ele>273.39999389648</ele>
        <time>2016-05-15T08:28:24.000Z</time>
      </trkpt>
      <trkpt lat="43.17719" lon="5.84807">
        <ele>273.60000610352</ele>
        <time>2016-05-15T08:28:25.000Z</time>
      </trkpt>
      <trkpt lat="43.1773" lon="5.84823">
        <ele>272.20001220703</ele>
        <time>2016-05-15T08:28:29.000Z</time>
      </trkpt>
      <trkpt lat="43.17741" lon="5.84839">
        <ele>270.60000610352</ele>
        <time>2016-05-15T08:28:33.000Z</time>
      </trkpt>
      <trkpt lat="43.17756" lon="5.84859">
        <ele>268.60000610352</ele>
        <time>2016-05-15T08:28:38.000Z</time>
      </trkpt>
      <trkpt lat="43.17765" lon="5.84871">
        <ele>268</ele>
        <time>2016-05-15T08:28:41.000Z</time>
      </trkpt>
      <trkpt lat="43.17781" lon="5.84892">
        <ele>267.79998779297</ele>
        <time>2016-05-15T08:28:46.000Z</time>
      </trkpt>
      <trkpt lat="43.17797" lon="5.84912">
        <ele>267.79998779297</ele>
        <time>2016-05-15T08:28:51.000Z</time>
      </trkpt>
      <trkpt lat="43.17803" lon="5.8492">
        <ele>267.79998779297</ele>
        <time>2016-05-15T08:28:53.000Z</time>
      </trkpt>
      <trkpt lat="43.17814" lon="5.84935">
        <ele>268</ele>
        <time>2016-05-15T08:28:58.000Z</time>
      </trkpt>
      <trkpt lat="43.17815" lon="5.84939">
        <ele>268</ele>
        <time>2016-05-15T08:29:00.000Z</time>
      </trkpt>
      <trkpt lat="43.17819" lon="5.84943">
        <ele>268</ele>
        <time>2016-05-15T08:31:52.000Z</time>
      </trkpt>
      <trkpt lat="43.17822" lon="5.84946">
        <ele>268</ele>
        <time>2016-05-15T08:31:53.000Z</time>
      </trkpt>
      <trkpt lat="43.17824" lon="5.84949">
        <ele>268</ele>
        <time>2016-05-15T08:31:54.000Z</time>
      </trkpt>
      <trkpt lat="43.17847" lon="5.84978">
        <ele>268.60000610352</ele>
        <time>2016-05-15T08:32:02.000Z</time>
      </trkpt>
      <trkpt lat="43.17849" lon="5.84982">
        <ele>269</ele>
        <time>2016-05-15T08:32:03.000Z</time>
      </trkpt>
      <trkpt lat="43.17852" lon="5.85001">
        <ele>272</ele>
        <time>2016-05-15T08:32:07.000Z</time>
      </trkpt>
      <trkpt lat="43.17847" lon="5.85016">
        <ele>275.39999389648</ele>
        <time>2016-05-15T08:32:10.000Z</time>
      </trkpt>
      <trkpt lat="43.17845" lon="5.85021">
        <ele>276.60000610352</ele>
        <time>2016-05-15T08:32:11.000Z</time>
      </trkpt>
      <trkpt lat="43.17841" lon="5.85024">
        <ele>278</ele>
        <time>2016-05-15T08:32:12.000Z</time>
      </trkpt>
      <trkpt lat="43.17833" lon="5.85024">
        <ele>279.39999389648</ele>
        <time>2016-05-15T08:32:14.000Z</time>
      </trkpt>
      <trkpt lat="43.17822" lon="5.85019">
        <ele>280.60000610352</ele>
        <time>2016-05-15T08:32:17.000Z</time>
      </trkpt>
      <trkpt lat="43.17816" lon="5.85014">
        <ele>281</ele>
        <time>2016-05-15T08:32:19.000Z</time>
      </trkpt>
      <trkpt lat="43.17813" lon="5.85012">
        <ele>281.20001220703</ele>
        <time>2016-05-15T08:32:20.000Z</time>
      </trkpt>
      <trkpt lat="43.17807" lon="5.85007">
        <ele>281.39999389648</ele>
        <time>2016-05-15T08:32:22.000Z</time>
      </trkpt>
      <trkpt lat="43.17797" lon="5.84999">
        <ele>281.79998779297</ele>
        <time>2016-05-15T08:32:25.000Z</time>
      </trkpt>
      <trkpt lat="43.17789" lon="5.84989">
        <ele>281.79998779297</ele>
        <time>2016-05-15T08:32:28.000Z</time>
      </trkpt>
      <trkpt lat="43.17786" lon="5.84986">
        <ele>281.79998779297</ele>
        <time>2016-05-15T08:32:29.000Z</time>
      </trkpt>
      <trkpt lat="43.17779" lon="5.84979">
        <ele>281.79998779297</ele>
        <time>2016-05-15T08:32:31.000Z</time>
      </trkpt>
      <trkpt lat="43.1777" lon="5.84969">
        <ele>281.60000610352</ele>
        <time>2016-05-15T08:32:34.000Z</time>
      </trkpt>
      <trkpt lat="43.1776" lon="5.84959">
        <ele>281.60000610352</ele>
        <time>2016-05-15T08:32:37.000Z</time>
      </trkpt>
      <trkpt lat="43.17754" lon="5.84953">
        <ele>282</ele>
        <time>2016-05-15T08:32:39.000Z</time>
      </trkpt>
      <trkpt lat="43.17751" lon="5.8495">
        <ele>282</ele>
        <time>2016-05-15T08:32:40.000Z</time>
      </trkpt>
      <trkpt lat="43.17742" lon="5.84941">
        <ele>282.39999389648</ele>
        <time>2016-05-15T08:32:43.000Z</time>
      </trkpt>
      <trkpt lat="43.17731" lon="5.84935">
        <ele>283.79998779297</ele>
        <time>2016-05-15T08:32:46.000Z</time>
      </trkpt>
      <trkpt lat="43.1772" lon="5.84932">
        <ele>285.39999389648</ele>
        <time>2016-05-15T08:32:49.000Z</time>
      </trkpt>
      <trkpt lat="43.17709" lon="5.84934">
        <ele>286.20001220703</ele>
        <time>2016-05-15T08:32:52.000Z</time>
      </trkpt>
      <trkpt lat="43.17705" lon="5.84936">
        <ele>286.39999389648</ele>
        <time>2016-05-15T08:32:53.000Z</time>
      </trkpt>
      <trkpt lat="43.17699" lon="5.84941">
        <ele>287</ele>
        <time>2016-05-15T08:32:55.000Z</time>
      </trkpt>
      <trkpt lat="43.17692" lon="5.84945">
        <ele>287.60000610352</ele>
        <time>2016-05-15T08:32:57.000Z</time>
      </trkpt>
      <trkpt lat="43.17683" lon="5.84954">
        <ele>288.20001220703</ele>
        <time>2016-05-15T08:33:00.000Z</time>
      </trkpt>
      <trkpt lat="43.17676" lon="5.84963">
        <ele>289</ele>
        <time>2016-05-15T08:33:03.000Z</time>
      </trkpt>
      <trkpt lat="43.17675" lon="5.84972">
        <ele>289.60000610352</ele>
        <time>2016-05-15T08:33:05.000Z</time>
      </trkpt>
      <trkpt lat="43.17674" lon="5.84976">
        <ele>290.20001220703</ele>
        <time>2016-05-15T08:33:06.000Z</time>
      </trkpt>
      <trkpt lat="43.17676" lon="5.84991">
        <ele>292</ele>
        <time>2016-05-15T08:33:09.000Z</time>
      </trkpt>
      <trkpt lat="43.17679" lon="5.84996">
        <ele>292.39999389648</ele>
        <time>2016-05-15T08:33:10.000Z</time>
      </trkpt>
      <trkpt lat="43.17684" lon="5.85014">
        <ele>294.39999389648</ele>
        <time>2016-05-15T08:33:13.000Z</time>
      </trkpt>
      <trkpt lat="43.17689" lon="5.8503">
        <ele>296.39999389648</ele>
        <time>2016-05-15T08:33:16.000Z</time>
      </trkpt>
      <trkpt lat="43.1769" lon="5.85041">
        <ele>298</ele>
        <time>2016-05-15T08:33:18.000Z</time>
      </trkpt>
      <trkpt lat="43.17686" lon="5.8506">
        <ele>300.39999389648</ele>
        <time>2016-05-15T08:33:22.000Z</time>
      </trkpt>
      <trkpt lat="43.17673" lon="5.85067">
        <ele>303.39999389648</ele>
        <time>2016-05-15T08:33:25.000Z</time>
      </trkpt>
      <trkpt lat="43.17669" lon="5.85068">
        <ele>304.20001220703</ele>
        <time>2016-05-15T08:33:26.000Z</time>
      </trkpt>
      <trkpt lat="43.17661" lon="5.85067">
        <ele>305.39999389648</ele>
        <time>2016-05-15T08:33:28.000Z</time>
      </trkpt>
      <trkpt lat="43.1765" lon="5.8506">
        <ele>306.20001220703</ele>
        <time>2016-05-15T08:33:31.000Z</time>
      </trkpt>
      <trkpt lat="43.17641" lon="5.8505">
        <ele>306.39999389648</ele>
        <time>2016-05-15T08:33:34.000Z</time>
      </trkpt>
      <trkpt lat="43.17633" lon="5.85038">
        <ele>306.39999389648</ele>
        <time>2016-05-15T08:33:37.000Z</time>
      </trkpt>
      <trkpt lat="43.1763" lon="5.85035">
        <ele>306.39999389648</ele>
        <time>2016-05-15T08:33:38.000Z</time>
      </trkpt>
      <trkpt lat="43.17627" lon="5.85031">
        <ele>306.39999389648</ele>
        <time>2016-05-15T08:33:39.000Z</time>
      </trkpt>
      <trkpt lat="43.17619" lon="5.85019">
        <ele>306.39999389648</ele>
        <time>2016-05-15T08:33:42.000Z</time>
      </trkpt>
      <trkpt lat="43.17607" lon="5.85005">
        <ele>306.79998779297</ele>
        <time>2016-05-15T08:33:46.000Z</time>
      </trkpt>
      <trkpt lat="43.17604" lon="5.85002">
        <ele>307</ele>
        <time>2016-05-15T08:33:47.000Z</time>
      </trkpt>
      <trkpt lat="43.17584" lon="5.84982">
        <ele>307.79998779297</ele>
        <time>2016-05-15T08:33:53.000Z</time>
      </trkpt>
      <trkpt lat="43.17568" lon="5.84963">
        <ele>308.60000610352</ele>
        <time>2016-05-15T08:33:58.000Z</time>
      </trkpt>
      <trkpt lat="43.17556" lon="5.84947">
        <ele>309</ele>
        <time>2016-05-15T08:34:02.000Z</time>
      </trkpt>
      <trkpt lat="43.17545" lon="5.84929">
        <ele>309.20001220703</ele>
        <time>2016-05-15T08:34:06.000Z</time>
      </trkpt>
      <trkpt lat="43.17537" lon="5.84916">
        <ele>309.20001220703</ele>
        <time>2016-05-15T08:34:09.000Z</time>
      </trkpt>
      <trkpt lat="43.17525" lon="5.84899">
        <ele>309.79998779297</ele>
        <time>2016-05-15T08:34:13.000Z</time>
      </trkpt>
      <trkpt lat="43.17512" lon="5.84877">
        <ele>310.79998779297</ele>
        <time>2016-05-15T08:34:18.000Z</time>
      </trkpt>
      <trkpt lat="43.17502" lon="5.84863">
        <ele>311.79998779297</ele>
        <time>2016-05-15T08:34:22.000Z</time>
      </trkpt>
      <trkpt lat="43.17493" lon="5.84846">
        <ele>312.60000610352</ele>
        <time>2016-05-15T08:34:26.000Z</time>
      </trkpt>
      <trkpt lat="43.17488" lon="5.84826">
        <ele>313</ele>
        <time>2016-05-15T08:34:30.000Z</time>
      </trkpt>
      <trkpt lat="43.17487" lon="5.84821">
        <ele>313</ele>
        <time>2016-05-15T08:34:31.000Z</time>
      </trkpt>
      <trkpt lat="43.17487" lon="5.84811">
        <ele>313</ele>
        <time>2016-05-15T08:34:33.000Z</time>
      </trkpt>
      <trkpt lat="43.17489" lon="5.84794">
        <ele>312.20001220703</ele>
        <time>2016-05-15T08:34:36.000Z</time>
      </trkpt>
      <trkpt lat="43.17489" lon="5.84783">
        <ele>311.79998779297</ele>
        <time>2016-05-15T08:34:38.000Z</time>
      </trkpt>
      <trkpt lat="43.17489" lon="5.84778">
        <ele>311.60000610352</ele>
        <time>2016-05-15T08:34:39.000Z</time>
      </trkpt>
      <trkpt lat="43.17488" lon="5.84761">
        <ele>310.79998779297</ele>
        <time>2016-05-15T08:34:42.000Z</time>
      </trkpt>
      <trkpt lat="43.17483" lon="5.84747">
        <ele>310.39999389648</ele>
        <time>2016-05-15T08:34:45.000Z</time>
      </trkpt>
      <trkpt lat="43.17481" lon="5.84742">
        <ele>310.60000610352</ele>
        <time>2016-05-15T08:34:46.000Z</time>
      </trkpt>
      <trkpt lat="43.17471" lon="5.84733">
        <ele>311.39999389648</ele>
        <time>2016-05-15T08:34:49.000Z</time>
      </trkpt>
      <trkpt lat="43.17468" lon="5.84731">
        <ele>311.79998779297</ele>
        <time>2016-05-15T08:34:50.000Z</time>
      </trkpt>
      <trkpt lat="43.17454" lon="5.84721">
        <ele>313</ele>
        <time>2016-05-15T08:34:54.000Z</time>
      </trkpt>
      <trkpt lat="43.17435" lon="5.84711">
        <ele>315.39999389648</ele>
        <time>2016-05-15T08:34:59.000Z</time>
      </trkpt>
      <trkpt lat="43.17431" lon="5.84711">
        <ele>316</ele>
        <time>2016-05-15T08:35:00.000Z</time>
      </trkpt>
      <trkpt lat="43.17411" lon="5.84708">
        <ele>318</ele>
        <time>2016-05-15T08:35:05.000Z</time>
      </trkpt>
      <trkpt lat="43.17407" lon="5.84708">
        <ele>318.39999389648</ele>
        <time>2016-05-15T08:35:06.000Z</time>
      </trkpt>
      <trkpt lat="43.1739" lon="5.84704">
        <ele>319.39999389648</ele>
        <time>2016-05-15T08:35:10.000Z</time>
      </trkpt>
      <trkpt lat="43.17377" lon="5.84701">
        <ele>320.39999389648</ele>
        <time>2016-05-15T08:35:13.000Z</time>
      </trkpt>
      <trkpt lat="43.17364" lon="5.84698">
        <ele>321.20001220703</ele>
        <time>2016-05-15T08:35:16.000Z</time>
      </trkpt>
      <trkpt lat="43.17347" lon="5.84695">
        <ele>322.39999389648</ele>
        <time>2016-05-15T08:35:20.000Z</time>
      </trkpt>
      <trkpt lat="43.17338" lon="5.84694">
        <ele>322.60000610352</ele>
        <time>2016-05-15T08:35:22.000Z</time>
      </trkpt>
      <trkpt lat="43.17321" lon="5.84692">
        <ele>322.60000610352</ele>
        <time>2016-05-15T08:35:26.000Z</time>
      </trkpt>
      <trkpt lat="43.17307" lon="5.84691">
        <ele>322.79998779297</ele>
        <time>2016-05-15T08:35:29.000Z</time>
      </trkpt>
      <trkpt lat="43.17302" lon="5.8469">
        <ele>323</ele>
        <time>2016-05-15T08:35:30.000Z</time>
      </trkpt>
      <trkpt lat="43.17275" lon="5.84685">
        <ele>323.79998779297</ele>
        <time>2016-05-15T08:35:36.000Z</time>
      </trkpt>
      <trkpt lat="43.17228" lon="5.84679">
        <ele>323</ele>
        <time>2016-05-15T08:35:45.000Z</time>
      </trkpt>
      <trkpt lat="43.17187" lon="5.84673">
        <ele>321.20001220703</ele>
        <time>2016-05-15T08:35:52.000Z</time>
      </trkpt>
      <trkpt lat="43.17144" lon="5.84663">
        <ele>318.60000610352</ele>
        <time>2016-05-15T08:35:59.000Z</time>
      </trkpt>
      <trkpt lat="43.17138" lon="5.84661">
        <ele>318.20001220703</ele>
        <time>2016-05-15T08:36:00.000Z</time>
      </trkpt>
      <trkpt lat="43.17096" lon="5.8465">
        <ele>315.20001220703</ele>
        <time>2016-05-15T08:36:07.000Z</time>
      </trkpt>
      <trkpt lat="43.17045" lon="5.84637">
        <ele>317.60000610352</ele>
        <time>2016-05-15T08:36:16.000Z</time>
      </trkpt>
      <trkpt lat="43.17013" lon="5.84629">
        <ele>320.20001220703</ele>
        <time>2016-05-15T08:36:22.000Z</time>
      </trkpt>
      <trkpt lat="43.16996" lon="5.84627">
        <ele>320.79998779297</ele>
        <time>2016-05-15T08:36:26.000Z</time>
      </trkpt>
      <trkpt lat="43.16988" lon="5.84632">
        <ele>320.20001220703</ele>
        <time>2016-05-15T08:36:28.000Z</time>
      </trkpt>
      <trkpt lat="43.16976" lon="5.84645">
        <ele>319</ele>
        <time>2016-05-15T08:36:31.000Z</time>
      </trkpt>
      <trkpt lat="43.16972" lon="5.84652">
        <ele>318.60000610352</ele>
        <time>2016-05-15T08:36:32.000Z</time>
      </trkpt>
      <trkpt lat="43.16968" lon="5.84659">
        <ele>318</ele>
        <time>2016-05-15T08:36:33.000Z</time>
      </trkpt>
      <trkpt lat="43.16958" lon="5.84673">
        <ele>317</ele>
        <time>2016-05-15T08:36:35.000Z</time>
      </trkpt>
      <trkpt lat="43.16952" lon="5.84678">
        <ele>316.39999389648</ele>
        <time>2016-05-15T08:36:36.000Z</time>
      </trkpt>
      <trkpt lat="43.16931" lon="5.84691">
        <ele>314.39999389648</ele>
        <time>2016-05-15T08:36:39.000Z</time>
      </trkpt>
      <trkpt lat="43.16924" lon="5.84697">
        <ele>313.20001220703</ele>
        <time>2016-05-15T08:36:40.000Z</time>
      </trkpt>
      <trkpt lat="43.16918" lon="5.84705">
        <ele>311.39999389648</ele>
        <time>2016-05-15T08:36:41.000Z</time>
      </trkpt>
      <trkpt lat="43.1691" lon="5.84724">
        <ele>309.79998779297</ele>
        <time>2016-05-15T08:36:43.000Z</time>
      </trkpt>
      <trkpt lat="43.16908" lon="5.84746">
        <ele>310.39999389648</ele>
        <time>2016-05-15T08:36:45.000Z</time>
      </trkpt>
      <trkpt lat="43.16907" lon="5.84757">
        <ele>310.79998779297</ele>
        <time>2016-05-15T08:36:46.000Z</time>
      </trkpt>
      <trkpt lat="43.16905" lon="5.84768">
        <ele>311</ele>
        <time>2016-05-15T08:36:47.000Z</time>
      </trkpt>
      <trkpt lat="43.16903" lon="5.84777">
        <ele>311.20001220703</ele>
        <time>2016-05-15T08:36:48.000Z</time>
      </trkpt>
      <trkpt lat="43.16899" lon="5.84785">
        <ele>312</ele>
        <time>2016-05-15T08:36:49.000Z</time>
      </trkpt>
      <trkpt lat="43.16894" lon="5.84793">
        <ele>313</ele>
        <time>2016-05-15T08:36:50.000Z</time>
      </trkpt>
      <trkpt lat="43.16889" lon="5.84799">
        <ele>314</ele>
        <time>2016-05-15T08:36:51.000Z</time>
      </trkpt>
      <trkpt lat="43.16885" lon="5.84804">
        <ele>314.79998779297</ele>
        <time>2016-05-15T08:36:52.000Z</time>
      </trkpt>
      <trkpt lat="43.16881" lon="5.84808">
        <ele>315.39999389648</ele>
        <time>2016-05-15T08:36:53.000Z</time>
      </trkpt>
      <trkpt lat="43.16876" lon="5.84812">
        <ele>315.79998779297</ele>
        <time>2016-05-15T08:36:54.000Z</time>
      </trkpt>
      <trkpt lat="43.1686" lon="5.84798">
        <ele>314.60000610352</ele>
        <time>2016-05-15T08:36:56.000Z</time>
      </trkpt>
      <trkpt lat="43.16811" lon="5.84778">
        <ele>313</ele>
        <time>2016-05-15T08:37:03.000Z</time>
      </trkpt>
      <trkpt lat="43.16806" lon="5.84776">
        <ele>313</ele>
        <time>2016-05-15T08:37:04.000Z</time>
      </trkpt>
      <trkpt lat="43.16768" lon="5.84766">
        <ele>313.60000610352</ele>
        <time>2016-05-15T08:37:11.000Z</time>
      </trkpt>
      <trkpt lat="43.16718" lon="5.84755">
        <ele>311.39999389648</ele>
        <time>2016-05-15T08:37:21.000Z</time>
      </trkpt>
      <trkpt lat="43.16681" lon="5.84752">
        <ele>310.39999389648</ele>
        <time>2016-05-15T08:37:28.000Z</time>
      </trkpt>
      <trkpt lat="43.16677" lon="5.84753">
        <ele>310.39999389648</ele>
        <time>2016-05-15T08:37:29.000Z</time>
      </trkpt>
      <trkpt lat="43.16658" lon="5.84759">
        <ele>309.20001220703</ele>
        <time>2016-05-15T08:37:33.000Z</time>
      </trkpt>
      <trkpt lat="43.16632" lon="5.84778">
        <ele>309.39999389648</ele>
        <time>2016-05-15T08:37:39.000Z</time>
      </trkpt>
      <trkpt lat="43.16612" lon="5.84806">
        <ele>312</ele>
        <time>2016-05-15T08:37:45.000Z</time>
      </trkpt>
      <trkpt lat="43.16584" lon="5.8484">
        <ele>312.79998779297</ele>
        <time>2016-05-15T08:37:52.000Z</time>
      </trkpt>
      <trkpt lat="43.16557" lon="5.84873">
        <ele>312</ele>
        <time>2016-05-15T08:37:59.000Z</time>
      </trkpt>
      <trkpt lat="43.16526" lon="5.84912">
        <ele>313</ele>
        <time>2016-05-15T08:38:07.000Z</time>
      </trkpt>
      <trkpt lat="43.16497" lon="5.84957">
        <ele>311.79998779297</ele>
        <time>2016-05-15T08:38:15.000Z</time>
      </trkpt>
      <trkpt lat="43.16471" lon="5.84994">
        <ele>308.39999389648</ele>
        <time>2016-05-15T08:38:23.000Z</time>
      </trkpt>
      <trkpt lat="43.16452" lon="5.85019">
        <ele>307.79998779297</ele>
        <time>2016-05-15T08:38:29.000Z</time>
      </trkpt>
      <trkpt lat="43.16449" lon="5.85024">
        <ele>307.79998779297</ele>
        <time>2016-05-15T08:38:30.000Z</time>
      </trkpt>
      <trkpt lat="43.16434" lon="5.85049">
        <ele>309.39999389648</ele>
        <time>2016-05-15T08:38:35.000Z</time>
      </trkpt>
      <trkpt lat="43.16422" lon="5.85074">
        <ele>309.39999389648</ele>
        <time>2016-05-15T08:38:39.000Z</time>
      </trkpt>
      <trkpt lat="43.16418" lon="5.85081">
        <ele>308.79998779297</ele>
        <time>2016-05-15T08:38:40.000Z</time>
      </trkpt>
      <trkpt lat="43.16397" lon="5.85122">
        <ele>308.20001220703</ele>
        <time>2016-05-15T08:38:46.000Z</time>
      </trkpt>
      <trkpt lat="43.16394" lon="5.85129">
        <ele>309</ele>
        <time>2016-05-15T08:38:47.000Z</time>
      </trkpt>
      <trkpt lat="43.16384" lon="5.85148">
        <ele>308.39999389648</ele>
        <time>2016-05-15T08:38:50.000Z</time>
      </trkpt>
      <trkpt lat="43.16369" lon="5.85178">
        <ele>303.39999389648</ele>
        <time>2016-05-15T08:38:55.000Z</time>
      </trkpt>
      <trkpt lat="43.16367" lon="5.85185">
        <ele>302.79998779297</ele>
        <time>2016-05-15T08:38:56.000Z</time>
      </trkpt>
      <trkpt lat="43.16374" lon="5.85207">
        <ele>304.39999389648</ele>
        <time>2016-05-15T08:38:59.000Z</time>
      </trkpt>
      <trkpt lat="43.16387" lon="5.85225">
        <ele>307.79998779297</ele>
        <time>2016-05-15T08:39:02.000Z</time>
      </trkpt>
      <trkpt lat="43.16392" lon="5.85231">
        <ele>308.60000610352</ele>
        <time>2016-05-15T08:39:03.000Z</time>
      </trkpt>
      <trkpt lat="43.16422" lon="5.85274">
        <ele>315</ele>
        <time>2016-05-15T08:39:11.000Z</time>
      </trkpt>
      <trkpt lat="43.16426" lon="5.85299">
        <ele>314.79998779297</ele>
        <time>2016-05-15T08:39:15.000Z</time>
      </trkpt>
      <trkpt lat="43.16416" lon="5.85328">
        <ele>312.39999389648</ele>
        <time>2016-05-15T08:39:19.000Z</time>
      </trkpt>
      <trkpt lat="43.16413" lon="5.85335">
        <ele>311.79998779297</ele>
        <time>2016-05-15T08:39:20.000Z</time>
      </trkpt>
      <trkpt lat="43.16385" lon="5.85399">
        <ele>302.39999389648</ele>
        <time>2016-05-15T08:39:30.000Z</time>
      </trkpt>
      <trkpt lat="43.16379" lon="5.85419">
        <ele>296.79998779297</ele>
        <time>2016-05-15T08:39:33.000Z</time>
      </trkpt>
      <trkpt lat="43.16378" lon="5.85433">
        <ele>293.60000610352</ele>
        <time>2016-05-15T08:39:35.000Z</time>
      </trkpt>
      <trkpt lat="43.16382" lon="5.85461">
        <ele>290.60000610352</ele>
        <time>2016-05-15T08:39:39.000Z</time>
      </trkpt>
      <trkpt lat="43.16395" lon="5.85481">
        <ele>291.20001220703</ele>
        <time>2016-05-15T08:39:43.000Z</time>
      </trkpt>
      <trkpt lat="43.16404" lon="5.8549">
        <ele>291.39999389648</ele>
        <time>2016-05-15T08:39:45.000Z</time>
      </trkpt>
      <trkpt lat="43.1643" lon="5.85517">
        <ele>292</ele>
        <time>2016-05-15T08:39:51.000Z</time>
      </trkpt>
      <trkpt lat="43.16456" lon="5.85542">
        <ele>291.39999389648</ele>
        <time>2016-05-15T08:39:57.000Z</time>
      </trkpt>
      <trkpt lat="43.16466" lon="5.85547">
        <ele>292.79998779297</ele>
        <time>2016-05-15T08:39:59.000Z</time>
      </trkpt>
      <trkpt lat="43.165" lon="5.85564">
        <ele>298.79998779297</ele>
        <time>2016-05-15T08:40:06.000Z</time>
      </trkpt>
      <trkpt lat="43.16541" lon="5.85586">
        <ele>301.20001220703</ele>
        <time>2016-05-15T08:40:14.000Z</time>
      </trkpt>
      <trkpt lat="43.16586" lon="5.85608">
        <ele>302.60000610352</ele>
        <time>2016-05-15T08:40:23.000Z</time>
      </trkpt>
      <trkpt lat="43.16621" lon="5.85622">
        <ele>300.79998779297</ele>
        <time>2016-05-15T08:40:30.000Z</time>
      </trkpt>
      <trkpt lat="43.16656" lon="5.8562">
        <ele>303</ele>
        <time>2016-05-15T08:40:37.000Z</time>
      </trkpt>
      <trkpt lat="43.16695" lon="5.85615">
        <ele>311.60000610352</ele>
        <time>2016-05-15T08:40:45.000Z</time>
      </trkpt>
      <trkpt lat="43.16699" lon="5.85616">
        <ele>312.20001220703</ele>
        <time>2016-05-15T08:40:46.000Z</time>
      </trkpt>
      <trkpt lat="43.16717" lon="5.85627">
        <ele>311.60000610352</ele>
        <time>2016-05-15T08:40:50.000Z</time>
      </trkpt>
      <trkpt lat="43.1672" lon="5.85631">
        <ele>310.79998779297</ele>
        <time>2016-05-15T08:40:51.000Z</time>
      </trkpt>
      <trkpt lat="43.16724" lon="5.85636">
        <ele>309.60000610352</ele>
        <time>2016-05-15T08:40:52.000Z</time>
      </trkpt>
      <trkpt lat="43.16739" lon="5.85649">
        <ele>310.79998779297</ele>
        <time>2016-05-15T08:40:56.000Z</time>
      </trkpt>
      <trkpt lat="43.16767" lon="5.85679">
        <ele>315.79998779297</ele>
        <time>2016-05-15T08:41:03.000Z</time>
      </trkpt>
      <trkpt lat="43.16771" lon="5.85702">
        <ele>315.79998779297</ele>
        <time>2016-05-15T08:41:07.000Z</time>
      </trkpt>
      <trkpt lat="43.16769" lon="5.85719">
        <ele>313.39999389648</ele>
        <time>2016-05-15T08:41:10.000Z</time>
      </trkpt>
      <trkpt lat="43.16767" lon="5.85731">
        <ele>312.20001220703</ele>
        <time>2016-05-15T08:41:12.000Z</time>
      </trkpt>
      <trkpt lat="43.16761" lon="5.85778">
        <ele>310.39999389648</ele>
        <time>2016-05-15T08:41:18.000Z</time>
      </trkpt>
      <trkpt lat="43.16754" lon="5.85851">
        <ele>302</ele>
        <time>2016-05-15T08:41:27.000Z</time>
      </trkpt>
      <trkpt lat="43.16755" lon="5.85858">
        <ele>301.79998779297</ele>
        <time>2016-05-15T08:41:28.000Z</time>
      </trkpt>
      <trkpt lat="43.16764" lon="5.85885">
        <ele>303.60000610352</ele>
        <time>2016-05-15T08:41:32.000Z</time>
      </trkpt>
      <trkpt lat="43.16771" lon="5.85896">
        <ele>305.60000610352</ele>
        <time>2016-05-15T08:41:34.000Z</time>
      </trkpt>
      <trkpt lat="43.16787" lon="5.85923">
        <ele>309.39999389648</ele>
        <time>2016-05-15T08:41:39.000Z</time>
      </trkpt>
      <trkpt lat="43.16803" lon="5.85955">
        <ele>312.60000610352</ele>
        <time>2016-05-15T08:41:45.000Z</time>
      </trkpt>
      <trkpt lat="43.16805" lon="5.8596">
        <ele>313</ele>
        <time>2016-05-15T08:41:46.000Z</time>
      </trkpt>
      <trkpt lat="43.16813" lon="5.85991">
        <ele>314.60000610352</ele>
        <time>2016-05-15T08:41:51.000Z</time>
      </trkpt>
      <trkpt lat="43.16813" lon="5.85997">
        <ele>314.60000610352</ele>
        <time>2016-05-15T08:41:52.000Z</time>
      </trkpt>
      <trkpt lat="43.16809" lon="5.86027">
        <ele>312.20001220703</ele>
        <time>2016-05-15T08:41:56.000Z</time>
      </trkpt>
      <trkpt lat="43.16807" lon="5.86034">
        <ele>311.20001220703</ele>
        <time>2016-05-15T08:41:57.000Z</time>
      </trkpt>
      <trkpt lat="43.16799" lon="5.86108">
        <ele>302.79998779297</ele>
        <time>2016-05-15T08:42:07.000Z</time>
      </trkpt>
      <trkpt lat="43.168" lon="5.86115">
        <ele>303</ele>
        <time>2016-05-15T08:42:08.000Z</time>
      </trkpt>
      <trkpt lat="43.16804" lon="5.86128">
        <ele>304.20001220703</ele>
        <time>2016-05-15T08:42:10.000Z</time>
      </trkpt>
      <trkpt lat="43.16809" lon="5.86141">
        <ele>305.60000610352</ele>
        <time>2016-05-15T08:42:12.000Z</time>
      </trkpt>
      <trkpt lat="43.16812" lon="5.86147">
        <ele>306.20001220703</ele>
        <time>2016-05-15T08:42:13.000Z</time>
      </trkpt>
      <trkpt lat="43.16837" lon="5.86201">
        <ele>310.39999389648</ele>
        <time>2016-05-15T08:42:22.000Z</time>
      </trkpt>
      <trkpt lat="43.16852" lon="5.86246">
        <ele>312.79998779297</ele>
        <time>2016-05-15T08:42:29.000Z</time>
      </trkpt>
      <trkpt lat="43.16855" lon="5.86274">
        <ele>312.20001220703</ele>
        <time>2016-05-15T08:42:33.000Z</time>
      </trkpt>
      <trkpt lat="43.16854" lon="5.86281">
        <ele>311.60000610352</ele>
        <time>2016-05-15T08:42:34.000Z</time>
      </trkpt>
      <trkpt lat="43.16848" lon="5.86344">
        <ele>305.60000610352</ele>
        <time>2016-05-15T08:42:43.000Z</time>
      </trkpt>
      <trkpt lat="43.16848" lon="5.86386">
        <ele>303.60000610352</ele>
        <time>2016-05-15T08:42:49.000Z</time>
      </trkpt>
      <trkpt lat="43.1685" lon="5.86393">
        <ele>303.79998779297</ele>
        <time>2016-05-15T08:42:50.000Z</time>
      </trkpt>
      <trkpt lat="43.16866" lon="5.86437">
        <ele>304.39999389648</ele>
        <time>2016-05-15T08:42:56.000Z</time>
      </trkpt>
      <trkpt lat="43.16867" lon="5.86446">
        <ele>304</ele>
        <time>2016-05-15T08:42:57.000Z</time>
      </trkpt>
      <trkpt lat="43.16869" lon="5.86454">
        <ele>303.39999389648</ele>
        <time>2016-05-15T08:42:58.000Z</time>
      </trkpt>
      <trkpt lat="43.16872" lon="5.86482">
        <ele>301</ele>
        <time>2016-05-15T08:43:01.000Z</time>
      </trkpt>
      <trkpt lat="43.16878" lon="5.86517">
        <ele>298.39999389648</ele>
        <time>2016-05-15T08:43:05.000Z</time>
      </trkpt>
      <trkpt lat="43.16882" lon="5.86525">
        <ele>298.60000610352</ele>
        <time>2016-05-15T08:43:06.000Z</time>
      </trkpt>
      <trkpt lat="43.16886" lon="5.86533">
        <ele>298.79998779297</ele>
        <time>2016-05-15T08:43:07.000Z</time>
      </trkpt>
      <trkpt lat="43.16899" lon="5.86556">
        <ele>300.20001220703</ele>
        <time>2016-05-15T08:43:10.000Z</time>
      </trkpt>
      <trkpt lat="43.16913" lon="5.8658">
        <ele>302</ele>
        <time>2016-05-15T08:43:13.000Z</time>
      </trkpt>
      <trkpt lat="43.1692" lon="5.86587">
        <ele>303.20001220703</ele>
        <time>2016-05-15T08:43:14.000Z</time>
      </trkpt>
      <trkpt lat="43.16942" lon="5.86615">
        <ele>305</ele>
        <time>2016-05-15T08:43:18.000Z</time>
      </trkpt>
      <trkpt lat="43.16946" lon="5.86624">
        <ele>304.79998779297</ele>
        <time>2016-05-15T08:43:19.000Z</time>
      </trkpt>
      <trkpt lat="43.16958" lon="5.86652">
        <ele>303.79998779297</ele>
        <time>2016-05-15T08:43:22.000Z</time>
      </trkpt>
      <trkpt lat="43.16964" lon="5.86672">
        <ele>303</ele>
        <time>2016-05-15T08:43:24.000Z</time>
      </trkpt>
      <trkpt lat="43.16975" lon="5.86702">
        <ele>302</ele>
        <time>2016-05-15T08:43:27.000Z</time>
      </trkpt>
      <trkpt lat="43.16986" lon="5.86732">
        <ele>301</ele>
        <time>2016-05-15T08:43:30.000Z</time>
      </trkpt>
      <trkpt lat="43.17009" lon="5.86792">
        <ele>299</ele>
        <time>2016-05-15T08:43:36.000Z</time>
      </trkpt>
      <trkpt lat="43.17013" lon="5.86801">
        <ele>298.39999389648</ele>
        <time>2016-05-15T08:43:37.000Z</time>
      </trkpt>
      <trkpt lat="43.17026" lon="5.86829">
        <ele>295.60000610352</ele>
        <time>2016-05-15T08:43:40.000Z</time>
      </trkpt>
      <trkpt lat="43.17034" lon="5.86834">
        <ele>295.20001220703</ele>
        <time>2016-05-15T08:43:41.000Z</time>
      </trkpt>
      <trkpt lat="43.17041" lon="5.86836">
        <ele>295.20001220703</ele>
        <time>2016-05-15T08:43:42.000Z</time>
      </trkpt>
      <trkpt lat="43.17056" lon="5.86827">
        <ele>295.39999389648</ele>
        <time>2016-05-15T08:43:44.000Z</time>
      </trkpt>
      <trkpt lat="43.17071" lon="5.868">
        <ele>297.20001220703</ele>
        <time>2016-05-15T08:43:47.000Z</time>
      </trkpt>
      <trkpt lat="43.17076" lon="5.8679">
        <ele>298</ele>
        <time>2016-05-15T08:43:48.000Z</time>
      </trkpt>
      <trkpt lat="43.17091" lon="5.86761">
        <ele>298.79998779297</ele>
        <time>2016-05-15T08:43:51.000Z</time>
      </trkpt>
      <trkpt lat="43.17106" lon="5.86733">
        <ele>298.39999389648</ele>
        <time>2016-05-15T08:43:54.000Z</time>
      </trkpt>
      <trkpt lat="43.17115" lon="5.86714">
        <ele>297.79998779297</ele>
        <time>2016-05-15T08:43:56.000Z</time>
      </trkpt>
      <trkpt lat="43.17122" lon="5.86694">
        <ele>297.20001220703</ele>
        <time>2016-05-15T08:43:58.000Z</time>
      </trkpt>
      <trkpt lat="43.17125" lon="5.86673">
        <ele>297.20001220703</ele>
        <time>2016-05-15T08:44:00.000Z</time>
      </trkpt>
      <trkpt lat="43.1713" lon="5.86652">
        <ele>297.39999389648</ele>
        <time>2016-05-15T08:44:02.000Z</time>
      </trkpt>
      <trkpt lat="43.17134" lon="5.86644">
        <ele>297</ele>
        <time>2016-05-15T08:44:03.000Z</time>
      </trkpt>
      <trkpt lat="43.17148" lon="5.86635">
        <ele>295.20001220703</ele>
        <time>2016-05-15T08:44:05.000Z</time>
      </trkpt>
      <trkpt lat="43.17157" lon="5.86638">
        <ele>294</ele>
        <time>2016-05-15T08:44:06.000Z</time>
      </trkpt>
      <trkpt lat="43.17166" lon="5.86642">
        <ele>292.60000610352</ele>
        <time>2016-05-15T08:44:07.000Z</time>
      </trkpt>
      <trkpt lat="43.17173" lon="5.86646">
        <ele>291.39999389648</ele>
        <time>2016-05-15T08:44:08.000Z</time>
      </trkpt>
      <trkpt lat="43.17196" lon="5.86659">
        <ele>288.79998779297</ele>
        <time>2016-05-15T08:44:11.000Z</time>
      </trkpt>
      <trkpt lat="43.17241" lon="5.86684">
        <ele>285.79998779297</ele>
        <time>2016-05-15T08:44:17.000Z</time>
      </trkpt>
      <trkpt lat="43.17254" lon="5.86694">
        <ele>284.60000610352</ele>
        <time>2016-05-15T08:44:19.000Z</time>
      </trkpt>
      <trkpt lat="43.17265" lon="5.86708">
        <ele>282.79998779297</ele>
        <time>2016-05-15T08:44:21.000Z</time>
      </trkpt>
      <trkpt lat="43.1727" lon="5.86717">
        <ele>281.79998779297</ele>
        <time>2016-05-15T08:44:22.000Z</time>
      </trkpt>
      <trkpt lat="43.17273" lon="5.86727">
        <ele>281.39999389648</ele>
        <time>2016-05-15T08:44:23.000Z</time>
      </trkpt>
      <trkpt lat="43.17276" lon="5.86738">
        <ele>281.79998779297</ele>
        <time>2016-05-15T08:44:24.000Z</time>
      </trkpt>
      <trkpt lat="43.17281" lon="5.86767">
        <ele>282.79998779297</ele>
        <time>2016-05-15T08:44:27.000Z</time>
      </trkpt>
      <trkpt lat="43.17286" lon="5.86804">
        <ele>283.79998779297</ele>
        <time>2016-05-15T08:44:32.000Z</time>
      </trkpt>
      <trkpt lat="43.17287" lon="5.86815">
        <ele>284.39999389648</ele>
        <time>2016-05-15T08:44:34.000Z</time>
      </trkpt>
      <trkpt lat="43.17293" lon="5.86848">
        <ele>286</ele>
        <time>2016-05-15T08:44:40.000Z</time>
      </trkpt>
      <trkpt lat="43.17296" lon="5.86865">
        <ele>286.79998779297</ele>
        <time>2016-05-15T08:44:43.000Z</time>
      </trkpt>
      <trkpt lat="43.17303" lon="5.86892">
        <ele>288</ele>
        <time>2016-05-15T08:44:48.000Z</time>
      </trkpt>
      <trkpt lat="43.17304" lon="5.86897">
        <ele>288</ele>
        <time>2016-05-15T08:44:49.000Z</time>
      </trkpt>
      <trkpt lat="43.17316" lon="5.86943">
        <ele>288.60000610352</ele>
        <time>2016-05-15T08:44:58.000Z</time>
      </trkpt>
      <trkpt lat="43.17319" lon="5.86948">
        <ele>288.79998779297</ele>
        <time>2016-05-15T08:44:59.000Z</time>
      </trkpt>
      <trkpt lat="43.17329" lon="5.86981">
        <ele>289.20001220703</ele>
        <time>2016-05-15T08:45:06.000Z</time>
      </trkpt>
      <trkpt lat="43.17333" lon="5.86999">
        <ele>289.60000610352</ele>
        <time>2016-05-15T08:45:10.000Z</time>
      </trkpt>
      <trkpt lat="43.17335" lon="5.87007">
        <ele>289.79998779297</ele>
        <time>2016-05-15T08:45:12.000Z</time>
      </trkpt>
      <trkpt lat="43.17348" lon="5.87035">
        <ele>291</ele>
        <time>2016-05-15T08:45:19.000Z</time>
      </trkpt>
      <trkpt lat="43.17366" lon="5.87067">
        <ele>292.60000610352</ele>
        <time>2016-05-15T08:45:27.000Z</time>
      </trkpt>
      <trkpt lat="43.17368" lon="5.87078">
        <ele>293.20001220703</ele>
        <time>2016-05-15T08:45:29.000Z</time>
      </trkpt>
      <trkpt lat="43.17373" lon="5.871">
        <ele>293.79998779297</ele>
        <time>2016-05-15T08:45:33.000Z</time>
      </trkpt>
      <trkpt lat="43.17379" lon="5.87115">
        <ele>294.60000610352</ele>
        <time>2016-05-15T08:45:36.000Z</time>
      </trkpt>
      <trkpt lat="43.17385" lon="5.87131">
        <ele>295.20001220703</ele>
        <time>2016-05-15T08:45:39.000Z</time>
      </trkpt>
      <trkpt lat="43.17392" lon="5.87146">
        <ele>296.20001220703</ele>
        <time>2016-05-15T08:45:42.000Z</time>
      </trkpt>
      <trkpt lat="43.17395" lon="5.87151">
        <ele>296.79998779297</ele>
        <time>2016-05-15T08:45:43.000Z</time>
      </trkpt>
      <trkpt lat="43.17401" lon="5.87158">
        <ele>297.60000610352</ele>
        <time>2016-05-15T08:45:45.000Z</time>
      </trkpt>
      <trkpt lat="43.17404" lon="5.87162">
        <ele>298.20001220703</ele>
        <time>2016-05-15T08:45:46.000Z</time>
      </trkpt>
      <trkpt lat="43.17418" lon="5.87178">
        <ele>300</ele>
        <time>2016-05-15T08:45:50.000Z</time>
      </trkpt>
      <trkpt lat="43.17429" lon="5.8719">
        <ele>301.39999389648</ele>
        <time>2016-05-15T08:45:53.000Z</time>
      </trkpt>
      <trkpt lat="43.1744" lon="5.87202">
        <ele>302</ele>
        <time>2016-05-15T08:45:56.000Z</time>
      </trkpt>
      <trkpt lat="43.17458" lon="5.87222">
        <ele>303</ele>
        <time>2016-05-15T08:46:01.000Z</time>
      </trkpt>
      <trkpt lat="43.17466" lon="5.8723">
        <ele>303.20001220703</ele>
        <time>2016-05-15T08:46:03.000Z</time>
      </trkpt>
      <trkpt lat="43.17477" lon="5.87242">
        <ele>303.60000610352</ele>
        <time>2016-05-15T08:46:06.000Z</time>
      </trkpt>
      <trkpt lat="43.17495" lon="5.87263">
        <ele>304.39999389648</ele>
        <time>2016-05-15T08:46:11.000Z</time>
      </trkpt>
      <trkpt lat="43.17502" lon="5.87271">
        <ele>304.79998779297</ele>
        <time>2016-05-15T08:46:13.000Z</time>
      </trkpt>
      <trkpt lat="43.17509" lon="5.87281">
        <ele>305</ele>
        <time>2016-05-15T08:46:15.000Z</time>
      </trkpt>
      <trkpt lat="43.17513" lon="5.87292">
        <ele>305.39999389648</ele>
        <time>2016-05-15T08:46:17.000Z</time>
      </trkpt>
      <trkpt lat="43.17514" lon="5.87299">
        <ele>305.60000610352</ele>
        <time>2016-05-15T08:46:18.000Z</time>
      </trkpt>
      <trkpt lat="43.17514" lon="5.87312">
        <ele>306.20001220703</ele>
        <time>2016-05-15T08:46:20.000Z</time>
      </trkpt>
      <trkpt lat="43.17514" lon="5.87338">
        <ele>306.79998779297</ele>
        <time>2016-05-15T08:46:24.000Z</time>
      </trkpt>
      <trkpt lat="43.17514" lon="5.87352">
        <ele>307</ele>
        <time>2016-05-15T08:46:26.000Z</time>
      </trkpt>
      <trkpt lat="43.17514" lon="5.87365">
        <ele>307.39999389648</ele>
        <time>2016-05-15T08:46:28.000Z</time>
      </trkpt>
      <trkpt lat="43.17516" lon="5.87413">
        <ele>309.20001220703</ele>
        <time>2016-05-15T08:46:35.000Z</time>
      </trkpt>
      <trkpt lat="43.17517" lon="5.87426">
        <ele>310</ele>
        <time>2016-05-15T08:46:37.000Z</time>
      </trkpt>
      <trkpt lat="43.17518" lon="5.87433">
        <ele>310.20001220703</ele>
        <time>2016-05-15T08:46:38.000Z</time>
      </trkpt>
      <trkpt lat="43.17528" lon="5.87462">
        <ele>311.79998779297</ele>
        <time>2016-05-15T08:46:43.000Z</time>
      </trkpt>
      <trkpt lat="43.17533" lon="5.87472">
        <ele>312.39999389648</ele>
        <time>2016-05-15T08:46:45.000Z</time>
      </trkpt>
      <trkpt lat="43.17541" lon="5.87487">
        <ele>315</ele>
        <time>2016-05-15T08:46:48.000Z</time>
      </trkpt>
      <trkpt lat="43.1754" lon="5.87503">
        <ele>317.60000610352</ele>
        <time>2016-05-15T08:46:51.000Z</time>
      </trkpt>
      <trkpt lat="43.17531" lon="5.87515">
        <ele>317.60000610352</ele>
        <time>2016-05-15T08:46:54.000Z</time>
      </trkpt>
      <trkpt lat="43.17524" lon="5.87523">
        <ele>317.60000610352</ele>
        <time>2016-05-15T08:46:56.000Z</time>
      </trkpt>
      <trkpt lat="43.17504" lon="5.87547">
        <ele>318.60000610352</ele>
        <time>2016-05-15T08:47:02.000Z</time>
      </trkpt>
      <trkpt lat="43.17498" lon="5.87555">
        <ele>319.20001220703</ele>
        <time>2016-05-15T08:47:04.000Z</time>
      </trkpt>
      <trkpt lat="43.17495" lon="5.8756">
        <ele>319.60000610352</ele>
        <time>2016-05-15T08:47:05.000Z</time>
      </trkpt>
      <trkpt lat="43.17493" lon="5.87566">
        <ele>319.79998779297</ele>
        <time>2016-05-15T08:47:06.000Z</time>
      </trkpt>
      <trkpt lat="43.17491" lon="5.87578">
        <ele>320.60000610352</ele>
        <time>2016-05-15T08:47:08.000Z</time>
      </trkpt>
      <trkpt lat="43.17492" lon="5.87591">
        <ele>321.20001220703</ele>
        <time>2016-05-15T08:47:10.000Z</time>
      </trkpt>
      <trkpt lat="43.17495" lon="5.87603">
        <ele>321.60000610352</ele>
        <time>2016-05-15T08:47:12.000Z</time>
      </trkpt>
      <trkpt lat="43.17499" lon="5.87614">
        <ele>322</ele>
        <time>2016-05-15T08:47:14.000Z</time>
      </trkpt>
      <trkpt lat="43.17502" lon="5.87619">
        <ele>322.20001220703</ele>
        <time>2016-05-15T08:47:15.000Z</time>
      </trkpt>
      <trkpt lat="43.17508" lon="5.87636">
        <ele>323</ele>
        <time>2016-05-15T08:47:18.000Z</time>
      </trkpt>
      <trkpt lat="43.17512" lon="5.87648">
        <ele>324</ele>
        <time>2016-05-15T08:47:20.000Z</time>
      </trkpt>
      <trkpt lat="43.17514" lon="5.87654">
        <ele>324.79998779297</ele>
        <time>2016-05-15T08:47:21.000Z</time>
      </trkpt>
      <trkpt lat="43.17516" lon="5.87667">
        <ele>326.39999389648</ele>
        <time>2016-05-15T08:47:23.000Z</time>
      </trkpt>
      <trkpt lat="43.17516" lon="5.87679">
        <ele>327.60000610352</ele>
        <time>2016-05-15T08:47:25.000Z</time>
      </trkpt>
      <trkpt lat="43.17516" lon="5.87685">
        <ele>328</ele>
        <time>2016-05-15T08:47:26.000Z</time>
      </trkpt>
      <trkpt lat="43.17515" lon="5.87698">
        <ele>328.79998779297</ele>
        <time>2016-05-15T08:47:28.000Z</time>
      </trkpt>
      <trkpt lat="43.1751" lon="5.87723">
        <ele>330</ele>
        <time>2016-05-15T08:47:32.000Z</time>
      </trkpt>
      <trkpt lat="43.17508" lon="5.87729">
        <ele>331</ele>
        <time>2016-05-15T08:47:33.000Z</time>
      </trkpt>
      <trkpt lat="43.17505" lon="5.87748">
        <ele>333.79998779297</ele>
        <time>2016-05-15T08:47:36.000Z</time>
      </trkpt>
      <trkpt lat="43.17501" lon="5.87768">
        <ele>336.79998779297</ele>
        <time>2016-05-15T08:47:39.000Z</time>
      </trkpt>
      <trkpt lat="43.17498" lon="5.87781">
        <ele>338.79998779297</ele>
        <time>2016-05-15T08:47:41.000Z</time>
      </trkpt>
      <trkpt lat="43.17497" lon="5.87787">
        <ele>339.79998779297</ele>
        <time>2016-05-15T08:47:42.000Z</time>
      </trkpt>
      <trkpt lat="43.17491" lon="5.87812">
        <ele>340</ele>
        <time>2016-05-15T08:47:46.000Z</time>
      </trkpt>
      <trkpt lat="43.17488" lon="5.8783">
        <ele>341.39999389648</ele>
        <time>2016-05-15T08:47:49.000Z</time>
      </trkpt>
      <trkpt lat="43.17485" lon="5.87842">
        <ele>342.20001220703</ele>
        <time>2016-05-15T08:47:51.000Z</time>
      </trkpt>
      <trkpt lat="43.17484" lon="5.87848">
        <ele>342.60000610352</ele>
        <time>2016-05-15T08:47:52.000Z</time>
      </trkpt>
      <trkpt lat="43.17479" lon="5.87866">
        <ele>343</ele>
        <time>2016-05-15T08:47:55.000Z</time>
      </trkpt>
      <trkpt lat="43.17475" lon="5.8789">
        <ele>342</ele>
        <time>2016-05-15T08:47:59.000Z</time>
      </trkpt>
      <trkpt lat="43.17473" lon="5.87902">
        <ele>342.60000610352</ele>
        <time>2016-05-15T08:48:01.000Z</time>
      </trkpt>
      <trkpt lat="43.17469" lon="5.87926">
        <ele>343.79998779297</ele>
        <time>2016-05-15T08:48:05.000Z</time>
      </trkpt>
      <trkpt lat="43.17464" lon="5.87952">
        <ele>344</ele>
        <time>2016-05-15T08:48:09.000Z</time>
      </trkpt>
      <trkpt lat="43.17463" lon="5.87958">
        <ele>344</ele>
        <time>2016-05-15T08:48:10.000Z</time>
      </trkpt>
      <trkpt lat="43.17459" lon="5.87983">
        <ele>344.39999389648</ele>
        <time>2016-05-15T08:48:14.000Z</time>
      </trkpt>
      <trkpt lat="43.17455" lon="5.88005">
        <ele>344.79998779297</ele>
        <time>2016-05-15T08:48:18.000Z</time>
      </trkpt>
      <trkpt lat="43.17453" lon="5.88023">
        <ele>345.39999389648</ele>
        <time>2016-05-15T08:48:21.000Z</time>
      </trkpt>
      <trkpt lat="43.1745" lon="5.88041">
        <ele>345.79998779297</ele>
        <time>2016-05-15T08:48:24.000Z</time>
      </trkpt>
      <trkpt lat="43.17448" lon="5.88047">
        <ele>345.79998779297</ele>
        <time>2016-05-15T08:48:25.000Z</time>
      </trkpt>
      <trkpt lat="43.17444" lon="5.88064">
        <ele>346</ele>
        <time>2016-05-15T08:48:28.000Z</time>
      </trkpt>
      <trkpt lat="43.17439" lon="5.88082">
        <ele>346</ele>
        <time>2016-05-15T08:48:31.000Z</time>
      </trkpt>
      <trkpt lat="43.17433" lon="5.88106">
        <ele>346.60000610352</ele>
        <time>2016-05-15T08:48:35.000Z</time>
      </trkpt>
      <trkpt lat="43.17431" lon="5.88118">
        <ele>347</ele>
        <time>2016-05-15T08:48:37.000Z</time>
      </trkpt>
      <trkpt lat="43.17427" lon="5.88142">
        <ele>348.20001220703</ele>
        <time>2016-05-15T08:48:41.000Z</time>
      </trkpt>
      <trkpt lat="43.17426" lon="5.88148">
        <ele>349</ele>
        <time>2016-05-15T08:48:42.000Z</time>
      </trkpt>
      <trkpt lat="43.17423" lon="5.8816">
        <ele>350.60000610352</ele>
        <time>2016-05-15T08:48:44.000Z</time>
      </trkpt>
      <trkpt lat="43.17416" lon="5.88183">
        <ele>353.39999389648</ele>
        <time>2016-05-15T08:48:48.000Z</time>
      </trkpt>
      <trkpt lat="43.17414" lon="5.88188">
        <ele>354</ele>
        <time>2016-05-15T08:48:49.000Z</time>
      </trkpt>
      <trkpt lat="43.17409" lon="5.88205">
        <ele>356</ele>
        <time>2016-05-15T08:48:52.000Z</time>
      </trkpt>
      <trkpt lat="43.17403" lon="5.88228">
        <ele>356.20001220703</ele>
        <time>2016-05-15T08:48:56.000Z</time>
      </trkpt>
      <trkpt lat="43.17402" lon="5.88234">
        <ele>356.79998779297</ele>
        <time>2016-05-15T08:48:57.000Z</time>
      </trkpt>
      <trkpt lat="43.17399" lon="5.88251">
        <ele>358.60000610352</ele>
        <time>2016-05-15T08:49:00.000Z</time>
      </trkpt>
      <trkpt lat="43.17394" lon="5.88275">
        <ele>360.79998779297</ele>
        <time>2016-05-15T08:49:04.000Z</time>
      </trkpt>
      <trkpt lat="43.17389" lon="5.88299">
        <ele>361.79998779297</ele>
        <time>2016-05-15T08:49:08.000Z</time>
      </trkpt>
      <trkpt lat="43.17386" lon="5.88316">
        <ele>363.79998779297</ele>
        <time>2016-05-15T08:49:11.000Z</time>
      </trkpt>
      <trkpt lat="43.17385" lon="5.88333">
        <ele>366.79998779297</ele>
        <time>2016-05-15T08:49:14.000Z</time>
      </trkpt>
      <trkpt lat="43.17384" lon="5.88345">
        <ele>369</ele>
        <time>2016-05-15T08:49:16.000Z</time>
      </trkpt>
      <trkpt lat="43.17383" lon="5.88357">
        <ele>370.60000610352</ele>
        <time>2016-05-15T08:49:18.000Z</time>
      </trkpt>
      <trkpt lat="43.17381" lon="5.88369">
        <ele>372.20001220703</ele>
        <time>2016-05-15T08:49:20.000Z</time>
      </trkpt>
      <trkpt lat="43.17378" lon="5.8838">
        <ele>373</ele>
        <time>2016-05-15T08:49:22.000Z</time>
      </trkpt>
      <trkpt lat="43.17376" lon="5.88385">
        <ele>373.39999389648</ele>
        <time>2016-05-15T08:49:23.000Z</time>
      </trkpt>
      <trkpt lat="43.17367" lon="5.88398">
        <ele>373.39999389648</ele>
        <time>2016-05-15T08:49:26.000Z</time>
      </trkpt>
      <trkpt lat="43.17361" lon="5.88406">
        <ele>373.39999389648</ele>
        <time>2016-05-15T08:49:28.000Z</time>
      </trkpt>
      <trkpt lat="43.17355" lon="5.88415">
        <ele>372.79998779297</ele>
        <time>2016-05-15T08:49:30.000Z</time>
      </trkpt>
      <trkpt lat="43.17341" lon="5.88428">
        <ele>372</ele>
        <time>2016-05-15T08:49:34.000Z</time>
      </trkpt>
      <trkpt lat="43.17337" lon="5.88428">
        <ele>371.79998779297</ele>
        <time>2016-05-15T08:49:35.000Z</time>
      </trkpt>
      <trkpt lat="43.17322" lon="5.88422">
        <ele>370.39999389648</ele>
        <time>2016-05-15T08:49:38.000Z</time>
      </trkpt>
      <trkpt lat="43.17317" lon="5.8842">
        <ele>370</ele>
        <time>2016-05-15T08:49:39.000Z</time>
      </trkpt>
      <trkpt lat="43.17304" lon="5.88423">
        <ele>370</ele>
        <time>2016-05-15T08:49:42.000Z</time>
      </trkpt>
      <trkpt lat="43.173" lon="5.88427">
        <ele>370.39999389648</ele>
        <time>2016-05-15T08:49:43.000Z</time>
      </trkpt>
      <trkpt lat="43.17297" lon="5.8843">
        <ele>371</ele>
        <time>2016-05-15T08:49:44.000Z</time>
      </trkpt>
      <trkpt lat="43.17283" lon="5.88446">
        <ele>374.39999389648</ele>
        <time>2016-05-15T08:49:48.000Z</time>
      </trkpt>
      <trkpt lat="43.17279" lon="5.8845">
        <ele>375.20001220703</ele>
        <time>2016-05-15T08:49:49.000Z</time>
      </trkpt>
      <trkpt lat="43.17267" lon="5.8846">
        <ele>377.39999389648</ele>
        <time>2016-05-15T08:49:52.000Z</time>
      </trkpt>
      <trkpt lat="43.17256" lon="5.88469">
        <ele>379.79998779297</ele>
        <time>2016-05-15T08:49:55.000Z</time>
      </trkpt>
      <trkpt lat="43.17252" lon="5.88471">
        <ele>379.60000610352</ele>
        <time>2016-05-15T08:49:56.000Z</time>
      </trkpt>
      <trkpt lat="43.17241" lon="5.88479">
        <ele>380.20001220703</ele>
        <time>2016-05-15T08:49:59.000Z</time>
      </trkpt>
      <trkpt lat="43.17233" lon="5.88484">
        <ele>381</ele>
        <time>2016-05-15T08:50:01.000Z</time>
      </trkpt>
      <trkpt lat="43.17229" lon="5.88487">
        <ele>381.39999389648</ele>
        <time>2016-05-15T08:50:02.000Z</time>
      </trkpt>
      <trkpt lat="43.17225" lon="5.8849">
        <ele>382</ele>
        <time>2016-05-15T08:50:03.000Z</time>
      </trkpt>
      <trkpt lat="43.17221" lon="5.88494">
        <ele>382.60000610352</ele>
        <time>2016-05-15T08:50:04.000Z</time>
      </trkpt>
      <trkpt lat="43.1721" lon="5.88507">
        <ele>384.79998779297</ele>
        <time>2016-05-15T08:50:07.000Z</time>
      </trkpt>
      <trkpt lat="43.17207" lon="5.88511">
        <ele>385.20001220703</ele>
        <time>2016-05-15T08:50:08.000Z</time>
      </trkpt>
      <trkpt lat="43.17196" lon="5.88522">
        <ele>386.39999389648</ele>
        <time>2016-05-15T08:50:11.000Z</time>
      </trkpt>
      <trkpt lat="43.17177" lon="5.88538">
        <ele>387.79998779297</ele>
        <time>2016-05-15T08:50:16.000Z</time>
      </trkpt>
      <trkpt lat="43.17161" lon="5.88551">
        <ele>390</ele>
        <time>2016-05-15T08:50:20.000Z</time>
      </trkpt>
      <trkpt lat="43.17145" lon="5.88564">
        <ele>390.39999389648</ele>
        <time>2016-05-15T08:50:24.000Z</time>
      </trkpt>
      <trkpt lat="43.17141" lon="5.88567">
        <ele>390.79998779297</ele>
        <time>2016-05-15T08:50:25.000Z</time>
      </trkpt>
      <trkpt lat="43.17126" lon="5.88581">
        <ele>392.39999389648</ele>
        <time>2016-05-15T08:50:29.000Z</time>
      </trkpt>
      <trkpt lat="43.17117" lon="5.88593">
        <ele>392.20001220703</ele>
        <time>2016-05-15T08:50:32.000Z</time>
      </trkpt>
      <trkpt lat="43.17115" lon="5.88598">
        <ele>391.79998779297</ele>
        <time>2016-05-15T08:50:33.000Z</time>
      </trkpt>
      <trkpt lat="43.17112" lon="5.88603">
        <ele>391.60000610352</ele>
        <time>2016-05-15T08:50:34.000Z</time>
      </trkpt>
      <trkpt lat="43.17107" lon="5.8862">
        <ele>391.39999389648</ele>
        <time>2016-05-15T08:50:37.000Z</time>
      </trkpt>
      <trkpt lat="43.17104" lon="5.88632">
        <ele>391.60000610352</ele>
        <time>2016-05-15T08:50:39.000Z</time>
      </trkpt>
      <trkpt lat="43.17099" lon="5.88656">
        <ele>392.39999389648</ele>
        <time>2016-05-15T08:50:43.000Z</time>
      </trkpt>
      <trkpt lat="43.17094" lon="5.88678">
        <ele>393.20001220703</ele>
        <time>2016-05-15T08:50:47.000Z</time>
      </trkpt>
      <trkpt lat="43.1709" lon="5.88695">
        <ele>395.20001220703</ele>
        <time>2016-05-15T08:50:50.000Z</time>
      </trkpt>
      <trkpt lat="43.17084" lon="5.88718">
        <ele>397.20001220703</ele>
        <time>2016-05-15T08:50:54.000Z</time>
      </trkpt>
      <trkpt lat="43.17079" lon="5.88728">
        <ele>397</ele>
        <time>2016-05-15T08:50:56.000Z</time>
      </trkpt>
      <trkpt lat="43.17075" lon="5.88737">
        <ele>397.20001220703</ele>
        <time>2016-05-15T08:50:58.000Z</time>
      </trkpt>
      <trkpt lat="43.17069" lon="5.88746">
        <ele>397.60000610352</ele>
        <time>2016-05-15T08:51:00.000Z</time>
      </trkpt>
      <trkpt lat="43.17059" lon="5.88756">
        <ele>397.79998779297</ele>
        <time>2016-05-15T08:51:03.000Z</time>
      </trkpt>
      <trkpt lat="43.17046" lon="5.88774">
        <ele>396</ele>
        <time>2016-05-15T08:51:08.000Z</time>
      </trkpt>
      <trkpt lat="43.17044" lon="5.88778">
        <ele>395.20001220703</ele>
        <time>2016-05-15T08:51:09.000Z</time>
      </trkpt>
      <trkpt lat="43.17038" lon="5.88791">
        <ele>392.79998779297</ele>
        <time>2016-05-15T08:51:12.000Z</time>
      </trkpt>
      <trkpt lat="43.17036" lon="5.88805">
        <ele>391</ele>
        <time>2016-05-15T08:51:15.000Z</time>
      </trkpt>
      <trkpt lat="43.17033" lon="5.8882">
        <ele>389.20001220703</ele>
        <time>2016-05-15T08:51:18.000Z</time>
      </trkpt>
      <trkpt lat="43.17032" lon="5.88834">
        <ele>386.60000610352</ele>
        <time>2016-05-15T08:51:21.000Z</time>
      </trkpt>
      <trkpt lat="43.17033" lon="5.88838">
        <ele>386.20001220703</ele>
        <time>2016-05-15T08:51:22.000Z</time>
      </trkpt>
      <trkpt lat="43.17036" lon="5.8884">
        <ele>386.39999389648</ele>
        <time>2016-05-15T08:51:24.000Z</time>
      </trkpt>
      <trkpt lat="43.17041" lon="5.88845">
        <ele>387</ele>
        <time>2016-05-15T08:51:29.000Z</time>
      </trkpt>
      <trkpt lat="43.17049" lon="5.88849">
        <ele>388.20001220703</ele>
        <time>2016-05-15T08:51:33.000Z</time>
      </trkpt>
      <trkpt lat="43.17066" lon="5.88865">
        <ele>389.60000610352</ele>
        <time>2016-05-15T08:51:39.000Z</time>
      </trkpt>
      <trkpt lat="43.17077" lon="5.88876">
        <ele>390</ele>
        <time>2016-05-15T08:51:43.000Z</time>
      </trkpt>
      <trkpt lat="43.17085" lon="5.88885">
        <ele>390.60000610352</ele>
        <time>2016-05-15T08:51:46.000Z</time>
      </trkpt>
      <trkpt lat="43.1709" lon="5.88892">
        <ele>390.60000610352</ele>
        <time>2016-05-15T08:51:48.000Z</time>
      </trkpt>
      <trkpt lat="43.17098" lon="5.88906">
        <ele>392</ele>
        <time>2016-05-15T08:51:52.000Z</time>
      </trkpt>
      <trkpt lat="43.171" lon="5.88915">
        <ele>392.20001220703</ele>
        <time>2016-05-15T08:51:54.000Z</time>
      </trkpt>
      <trkpt lat="43.17104" lon="5.88933">
        <ele>392.20001220703</ele>
        <time>2016-05-15T08:51:58.000Z</time>
      </trkpt>
      <trkpt lat="43.17105" lon="5.88941">
        <ele>392.20001220703</ele>
        <time>2016-05-15T08:52:00.000Z</time>
      </trkpt>
      <trkpt lat="43.17108" lon="5.88974">
        <ele>390.20001220703</ele>
        <time>2016-05-15T08:52:07.000Z</time>
      </trkpt>
      <trkpt lat="43.17108" lon="5.88985">
        <ele>390.20001220703</ele>
        <time>2016-05-15T08:52:09.000Z</time>
      </trkpt>
      <trkpt lat="43.17112" lon="5.8903">
        <ele>391.20001220703</ele>
        <time>2016-05-15T08:52:17.000Z</time>
      </trkpt>
      <trkpt lat="43.1712" lon="5.89077">
        <ele>394.39999389648</ele>
        <time>2016-05-15T08:52:26.000Z</time>
      </trkpt>
      <trkpt lat="43.17121" lon="5.89094">
        <ele>394.39999389648</ele>
        <time>2016-05-15T08:52:29.000Z</time>
      </trkpt>
      <trkpt lat="43.17121" lon="5.89121">
        <ele>394.20001220703</ele>
        <time>2016-05-15T08:52:34.000Z</time>
      </trkpt>
      <trkpt lat="43.17124" lon="5.89142">
        <ele>395.60000610352</ele>
        <time>2016-05-15T08:52:38.000Z</time>
      </trkpt>
      <trkpt lat="43.17127" lon="5.89162">
        <ele>397.79998779297</ele>
        <time>2016-05-15T08:52:42.000Z</time>
      </trkpt>
      <trkpt lat="43.17131" lon="5.89182">
        <ele>399.79998779297</ele>
        <time>2016-05-15T08:52:46.000Z</time>
      </trkpt>
      <trkpt lat="43.17134" lon="5.89197">
        <ele>401.39999389648</ele>
        <time>2016-05-15T08:52:49.000Z</time>
      </trkpt>
      <trkpt lat="43.17136" lon="5.89207">
        <ele>402.39999389648</ele>
        <time>2016-05-15T08:52:51.000Z</time>
      </trkpt>
      <trkpt lat="43.17136" lon="5.89212">
        <ele>402.79998779297</ele>
        <time>2016-05-15T08:52:52.000Z</time>
      </trkpt>
      <trkpt lat="43.17138" lon="5.89227">
        <ele>403.79998779297</ele>
        <time>2016-05-15T08:52:55.000Z</time>
      </trkpt>
      <trkpt lat="43.1714" lon="5.89243">
        <ele>404.60000610352</ele>
        <time>2016-05-15T08:52:58.000Z</time>
      </trkpt>
      <trkpt lat="43.1714" lon="5.89248">
        <ele>404.60000610352</ele>
        <time>2016-05-15T08:52:59.000Z</time>
      </trkpt>
      <trkpt lat="43.17139" lon="5.89257">
        <ele>404.39999389648</ele>
        <time>2016-05-15T08:53:01.000Z</time>
      </trkpt>
      <trkpt lat="43.17139" lon="5.89277">
        <ele>404</ele>
        <time>2016-05-15T08:53:05.000Z</time>
      </trkpt>
      <trkpt lat="43.17138" lon="5.89292">
        <ele>403.60000610352</ele>
        <time>2016-05-15T08:53:08.000Z</time>
      </trkpt>
      <trkpt lat="43.17138" lon="5.89306">
        <ele>403.39999389648</ele>
        <time>2016-05-15T08:53:11.000Z</time>
      </trkpt>
      <trkpt lat="43.17138" lon="5.8932">
        <ele>401.20001220703</ele>
        <time>2016-05-15T08:53:14.000Z</time>
      </trkpt>
      <trkpt lat="43.1714" lon="5.89334">
        <ele>399.79998779297</ele>
        <time>2016-05-15T08:53:17.000Z</time>
      </trkpt>
      <trkpt lat="43.1714" lon="5.89339">
        <ele>399.39999389648</ele>
        <time>2016-05-15T08:53:18.000Z</time>
      </trkpt>
      <trkpt lat="43.17143" lon="5.89354">
        <ele>398.60000610352</ele>
        <time>2016-05-15T08:53:21.000Z</time>
      </trkpt>
      <trkpt lat="43.17147" lon="5.89367">
        <ele>399</ele>
        <time>2016-05-15T08:53:24.000Z</time>
      </trkpt>
      <trkpt lat="43.17147" lon="5.89371">
        <ele>399.20001220703</ele>
        <time>2016-05-15T08:53:25.000Z</time>
      </trkpt>
      <trkpt lat="43.17149" lon="5.89379">
        <ele>399.39999389648</ele>
        <time>2016-05-15T08:53:27.000Z</time>
      </trkpt>
      <trkpt lat="43.17155" lon="5.89394">
        <ele>400.20001220703</ele>
        <time>2016-05-15T08:53:31.000Z</time>
      </trkpt>
      <trkpt lat="43.17163" lon="5.89404">
        <ele>401</ele>
        <time>2016-05-15T08:53:35.000Z</time>
      </trkpt>
      <trkpt lat="43.17166" lon="5.89405">
        <ele>401.79998779297</ele>
        <time>2016-05-15T08:53:36.000Z</time>
      </trkpt>
      <trkpt lat="43.17172" lon="5.89408">
        <ele>403.60000610352</ele>
        <time>2016-05-15T08:53:38.000Z</time>
      </trkpt>
      <trkpt lat="43.17182" lon="5.89411">
        <ele>407.79998779297</ele>
        <time>2016-05-15T08:53:42.000Z</time>
      </trkpt>
      <trkpt lat="43.17188" lon="5.89413">
        <ele>410.20001220703</ele>
        <time>2016-05-15T08:53:44.000Z</time>
      </trkpt>
      <trkpt lat="43.17197" lon="5.89416">
        <ele>413.60000610352</ele>
        <time>2016-05-15T08:53:47.000Z</time>
      </trkpt>
      <trkpt lat="43.17208" lon="5.89421">
        <ele>418.20001220703</ele>
        <time>2016-05-15T08:53:51.000Z</time>
      </trkpt>
      <trkpt lat="43.17216" lon="5.89425">
        <ele>421</ele>
        <time>2016-05-15T08:53:54.000Z</time>
      </trkpt>
      <trkpt lat="43.17219" lon="5.89426">
        <ele>421.79998779297</ele>
        <time>2016-05-15T08:53:55.000Z</time>
      </trkpt>
      <trkpt lat="43.1723" lon="5.89431">
        <ele>425.39999389648</ele>
        <time>2016-05-15T08:53:59.000Z</time>
      </trkpt>
      <trkpt lat="43.17239" lon="5.89436">
        <ele>428</ele>
        <time>2016-05-15T08:54:02.000Z</time>
      </trkpt>
      <trkpt lat="43.17241" lon="5.89437">
        <ele>428.79998779297</ele>
        <time>2016-05-15T08:54:03.000Z</time>
      </trkpt>
      <trkpt lat="43.17248" lon="5.89445">
        <ele>430.20001220703</ele>
        <time>2016-05-15T08:54:06.000Z</time>
      </trkpt>
      <trkpt lat="43.17253" lon="5.89455">
        <ele>430.20001220703</ele>
        <time>2016-05-15T08:54:09.000Z</time>
      </trkpt>
      <trkpt lat="43.17255" lon="5.89463">
        <ele>429.60000610352</ele>
        <time>2016-05-15T08:54:11.000Z</time>
      </trkpt>
      <trkpt lat="43.17259" lon="5.8948">
        <ele>428.20001220703</ele>
        <time>2016-05-15T08:54:15.000Z</time>
      </trkpt>
      <trkpt lat="43.17261" lon="5.89493">
        <ele>428.79998779297</ele>
        <time>2016-05-15T08:54:18.000Z</time>
      </trkpt>
      <trkpt lat="43.17262" lon="5.89498">
        <ele>429</ele>
        <time>2016-05-15T08:54:19.000Z</time>
      </trkpt>
      <trkpt lat="43.17265" lon="5.89511">
        <ele>429.60000610352</ele>
        <time>2016-05-15T08:54:22.000Z</time>
      </trkpt>
      <trkpt lat="43.17269" lon="5.89523">
        <ele>430.39999389648</ele>
        <time>2016-05-15T08:54:25.000Z</time>
      </trkpt>
      <trkpt lat="43.17272" lon="5.89535">
        <ele>431.39999389648</ele>
        <time>2016-05-15T08:54:28.000Z</time>
      </trkpt>
      <trkpt lat="43.17276" lon="5.89547">
        <ele>432.20001220703</ele>
        <time>2016-05-15T08:54:31.000Z</time>
      </trkpt>
      <trkpt lat="43.17278" lon="5.89559">
        <ele>432.20001220703</ele>
        <time>2016-05-15T08:54:34.000Z</time>
      </trkpt>
      <trkpt lat="43.17278" lon="5.89572">
        <ele>430.60000610352</ele>
        <time>2016-05-15T08:54:37.000Z</time>
      </trkpt>
      <trkpt lat="43.17279" lon="5.89586">
        <ele>430.20001220703</ele>
        <time>2016-05-15T08:54:40.000Z</time>
      </trkpt>
      <trkpt lat="43.1728" lon="5.89595">
        <ele>430.20001220703</ele>
        <time>2016-05-15T08:54:42.000Z</time>
      </trkpt>
      <trkpt lat="43.17281" lon="5.89599">
        <ele>430.20001220703</ele>
        <time>2016-05-15T08:54:43.000Z</time>
      </trkpt>
      <trkpt lat="43.17287" lon="5.89616">
        <ele>431.79998779297</ele>
        <time>2016-05-15T08:54:47.000Z</time>
      </trkpt>
      <trkpt lat="43.17291" lon="5.89624">
        <ele>432.60000610352</ele>
        <time>2016-05-15T08:54:49.000Z</time>
      </trkpt>
      <trkpt lat="43.17293" lon="5.89627">
        <ele>433.20001220703</ele>
        <time>2016-05-15T08:54:50.000Z</time>
      </trkpt>
      <trkpt lat="43.17302" lon="5.89639">
        <ele>436.39999389648</ele>
        <time>2016-05-15T08:54:54.000Z</time>
      </trkpt>
      <trkpt lat="43.17305" lon="5.89641">
        <ele>437.39999389648</ele>
        <time>2016-05-15T08:54:55.000Z</time>
      </trkpt>
      <trkpt lat="43.17313" lon="5.89649">
        <ele>439.79998779297</ele>
        <time>2016-05-15T08:54:58.000Z</time>
      </trkpt>
      <trkpt lat="43.17321" lon="5.89657">
        <ele>442.39999389648</ele>
        <time>2016-05-15T08:55:01.000Z</time>
      </trkpt>
      <trkpt lat="43.17332" lon="5.89668">
        <ele>446</ele>
        <time>2016-05-15T08:55:05.000Z</time>
      </trkpt>
      <trkpt lat="43.17335" lon="5.89671">
        <ele>446.79998779297</ele>
        <time>2016-05-15T08:55:06.000Z</time>
      </trkpt>
      <trkpt lat="43.1734" lon="5.89677">
        <ele>448.60000610352</ele>
        <time>2016-05-15T08:55:08.000Z</time>
      </trkpt>
      <trkpt lat="43.17347" lon="5.89688">
        <ele>450</ele>
        <time>2016-05-15T08:55:11.000Z</time>
      </trkpt>
      <trkpt lat="43.1735" lon="5.89697">
        <ele>450</ele>
        <time>2016-05-15T08:55:13.000Z</time>
      </trkpt>
      <trkpt lat="43.17351" lon="5.89701">
        <ele>450</ele>
        <time>2016-05-15T08:55:14.000Z</time>
      </trkpt>
      <trkpt lat="43.17355" lon="5.89713">
        <ele>450</ele>
        <time>2016-05-15T08:55:17.000Z</time>
      </trkpt>
      <trkpt lat="43.17359" lon="5.89724">
        <ele>449.79998779297</ele>
        <time>2016-05-15T08:55:20.000Z</time>
      </trkpt>
      <trkpt lat="43.17362" lon="5.89732">
        <ele>449.20001220703</ele>
        <time>2016-05-15T08:55:22.000Z</time>
      </trkpt>
      <trkpt lat="43.17364" lon="5.89736">
        <ele>449</ele>
        <time>2016-05-15T08:55:23.000Z</time>
      </trkpt>
      <trkpt lat="43.17369" lon="5.89747">
        <ele>448.39999389648</ele>
        <time>2016-05-15T08:55:26.000Z</time>
      </trkpt>
      <trkpt lat="43.17375" lon="5.89757">
        <ele>447.79998779297</ele>
        <time>2016-05-15T08:55:29.000Z</time>
      </trkpt>
      <trkpt lat="43.17376" lon="5.89761">
        <ele>447.60000610352</ele>
        <time>2016-05-15T08:55:30.000Z</time>
      </trkpt>
      <trkpt lat="43.17384" lon="5.8977">
        <ele>447.79998779297</ele>
        <time>2016-05-15T08:55:33.000Z</time>
      </trkpt>
      <trkpt lat="43.1739" lon="5.89773">
        <ele>448.39999389648</ele>
        <time>2016-05-15T08:55:35.000Z</time>
      </trkpt>
      <trkpt lat="43.17393" lon="5.89774">
        <ele>449</ele>
        <time>2016-05-15T08:55:36.000Z</time>
      </trkpt>
      <trkpt lat="43.17406" lon="5.89776">
        <ele>451.60000610352</ele>
        <time>2016-05-15T08:55:40.000Z</time>
      </trkpt>
      <trkpt lat="43.17413" lon="5.89775">
        <ele>453</ele>
        <time>2016-05-15T08:55:42.000Z</time>
      </trkpt>
      <trkpt lat="43.1742" lon="5.89776">
        <ele>454.39999389648</ele>
        <time>2016-05-15T08:55:44.000Z</time>
      </trkpt>
      <trkpt lat="43.1743" lon="5.89778">
        <ele>456.39999389648</ele>
        <time>2016-05-15T08:55:47.000Z</time>
      </trkpt>
      <trkpt lat="43.1744" lon="5.8978">
        <ele>458.79998779297</ele>
        <time>2016-05-15T08:55:50.000Z</time>
      </trkpt>
      <trkpt lat="43.1745" lon="5.8978">
        <ele>461.20001220703</ele>
        <time>2016-05-15T08:55:53.000Z</time>
      </trkpt>
      <trkpt lat="43.17463" lon="5.89776">
        <ele>465.20001220703</ele>
        <time>2016-05-15T08:55:57.000Z</time>
      </trkpt>
      <trkpt lat="43.17473" lon="5.89774">
        <ele>468.39999389648</ele>
        <time>2016-05-15T08:56:00.000Z</time>
      </trkpt>
      <trkpt lat="43.17483" lon="5.89771">
        <ele>471</ele>
        <time>2016-05-15T08:56:03.000Z</time>
      </trkpt>
      <trkpt lat="43.17494" lon="5.89767">
        <ele>473.20001220703</ele>
        <time>2016-05-15T08:56:06.000Z</time>
      </trkpt>
      <trkpt lat="43.17503" lon="5.89767">
        <ele>474.79998779297</ele>
        <time>2016-05-15T08:56:09.000Z</time>
      </trkpt>
      <trkpt lat="43.17509" lon="5.89772">
        <ele>475.60000610352</ele>
        <time>2016-05-15T08:56:11.000Z</time>
      </trkpt>
      <trkpt lat="43.17512" lon="5.89775">
        <ele>475.79998779297</ele>
        <time>2016-05-15T08:56:12.000Z</time>
      </trkpt>
      <trkpt lat="43.17517" lon="5.89788">
        <ele>476.79998779297</ele>
        <time>2016-05-15T08:56:15.000Z</time>
      </trkpt>
      <trkpt lat="43.17519" lon="5.89792">
        <ele>477</ele>
        <time>2016-05-15T08:56:16.000Z</time>
      </trkpt>
      <trkpt lat="43.17522" lon="5.89806">
        <ele>477.20001220703</ele>
        <time>2016-05-15T08:56:19.000Z</time>
      </trkpt>
      <trkpt lat="43.17525" lon="5.89825">
        <ele>478.60000610352</ele>
        <time>2016-05-15T08:56:23.000Z</time>
      </trkpt>
      <trkpt lat="43.17525" lon="5.89834">
        <ele>478.79998779297</ele>
        <time>2016-05-15T08:56:25.000Z</time>
      </trkpt>
      <trkpt lat="43.17524" lon="5.89839">
        <ele>478.79998779297</ele>
        <time>2016-05-15T08:56:26.000Z</time>
      </trkpt>
      <trkpt lat="43.17522" lon="5.89854">
        <ele>478.60000610352</ele>
        <time>2016-05-15T08:56:29.000Z</time>
      </trkpt>
      <trkpt lat="43.1752" lon="5.89868">
        <ele>478.20001220703</ele>
        <time>2016-05-15T08:56:32.000Z</time>
      </trkpt>
      <trkpt lat="43.17518" lon="5.89877">
        <ele>478</ele>
        <time>2016-05-15T08:56:34.000Z</time>
      </trkpt>
      <trkpt lat="43.17516" lon="5.89886">
        <ele>477.60000610352</ele>
        <time>2016-05-15T08:56:36.000Z</time>
      </trkpt>
      <trkpt lat="43.17515" lon="5.899">
        <ele>476</ele>
        <time>2016-05-15T08:56:39.000Z</time>
      </trkpt>
      <trkpt lat="43.17514" lon="5.89914">
        <ele>473.79998779297</ele>
        <time>2016-05-15T08:56:42.000Z</time>
      </trkpt>
      <trkpt lat="43.17515" lon="5.89923">
        <ele>472.79998779297</ele>
        <time>2016-05-15T08:56:44.000Z</time>
      </trkpt>
      <trkpt lat="43.17517" lon="5.89932">
        <ele>472.39999389648</ele>
        <time>2016-05-15T08:56:46.000Z</time>
      </trkpt>
      <trkpt lat="43.17523" lon="5.89944">
        <ele>472.79998779297</ele>
        <time>2016-05-15T08:56:49.000Z</time>
      </trkpt>
      <trkpt lat="43.17531" lon="5.8996">
        <ele>474</ele>
        <time>2016-05-15T08:56:53.000Z</time>
      </trkpt>
      <trkpt lat="43.17541" lon="5.89973">
        <ele>476.20001220703</ele>
        <time>2016-05-15T08:56:57.000Z</time>
      </trkpt>
      <trkpt lat="43.17553" lon="5.89985">
        <ele>478.79998779297</ele>
        <time>2016-05-15T08:57:01.000Z</time>
      </trkpt>
      <trkpt lat="43.17564" lon="5.89996">
        <ele>481</ele>
        <time>2016-05-15T08:57:05.000Z</time>
      </trkpt>
      <trkpt lat="43.17566" lon="5.89999">
        <ele>481.60000610352</ele>
        <time>2016-05-15T08:57:06.000Z</time>
      </trkpt>
      <trkpt lat="43.17572" lon="5.90004">
        <ele>483</ele>
        <time>2016-05-15T08:57:08.000Z</time>
      </trkpt>
      <trkpt lat="43.17581" lon="5.90012">
        <ele>485.20001220703</ele>
        <time>2016-05-15T08:57:11.000Z</time>
      </trkpt>
      <trkpt lat="43.17587" lon="5.90016">
        <ele>486.60000610352</ele>
        <time>2016-05-15T08:57:13.000Z</time>
      </trkpt>
      <trkpt lat="43.17593" lon="5.90021">
        <ele>488.20001220703</ele>
        <time>2016-05-15T08:57:15.000Z</time>
      </trkpt>
      <trkpt lat="43.17596" lon="5.90023">
        <ele>489</ele>
        <time>2016-05-15T08:57:16.000Z</time>
      </trkpt>
      <trkpt lat="43.17605" lon="5.90031">
        <ele>490.39999389648</ele>
        <time>2016-05-15T08:57:19.000Z</time>
      </trkpt>
      <trkpt lat="43.17613" lon="5.90046">
        <ele>490.79998779297</ele>
        <time>2016-05-15T08:57:23.000Z</time>
      </trkpt>
      <trkpt lat="43.17617" lon="5.90064">
        <ele>487.79998779297</ele>
        <time>2016-05-15T08:57:27.000Z</time>
      </trkpt>
      <trkpt lat="43.17621" lon="5.90077">
        <ele>485</ele>
        <time>2016-05-15T08:57:30.000Z</time>
      </trkpt>
      <trkpt lat="43.17622" lon="5.90081">
        <ele>484.20001220703</ele>
        <time>2016-05-15T08:57:31.000Z</time>
      </trkpt>
      <trkpt lat="43.17628" lon="5.90092">
        <ele>482.60000610352</ele>
        <time>2016-05-15T08:57:34.000Z</time>
      </trkpt>
      <trkpt lat="43.17635" lon="5.90101">
        <ele>482.39999389648</ele>
        <time>2016-05-15T08:57:37.000Z</time>
      </trkpt>
      <trkpt lat="43.17645" lon="5.90108">
        <ele>483.60000610352</ele>
        <time>2016-05-15T08:57:40.000Z</time>
      </trkpt>
      <trkpt lat="43.17655" lon="5.90112">
        <ele>485.79998779297</ele>
        <time>2016-05-15T08:57:43.000Z</time>
      </trkpt>
      <trkpt lat="43.17665" lon="5.90114">
        <ele>488.79998779297</ele>
        <time>2016-05-15T08:57:46.000Z</time>
      </trkpt>
      <trkpt lat="43.17676" lon="5.90116">
        <ele>492</ele>
        <time>2016-05-15T08:57:49.000Z</time>
      </trkpt>
      <trkpt lat="43.17686" lon="5.90119">
        <ele>492.79998779297</ele>
        <time>2016-05-15T08:57:52.000Z</time>
      </trkpt>
      <trkpt lat="43.1769" lon="5.9012">
        <ele>493</ele>
        <time>2016-05-15T08:57:53.000Z</time>
      </trkpt>
      <trkpt lat="43.17704" lon="5.90123">
        <ele>493.79998779297</ele>
        <time>2016-05-15T08:57:57.000Z</time>
      </trkpt>
      <trkpt lat="43.17719" lon="5.90125">
        <ele>494.79998779297</ele>
        <time>2016-05-15T08:58:01.000Z</time>
      </trkpt>
      <trkpt lat="43.17726" lon="5.90127">
        <ele>495</ele>
        <time>2016-05-15T08:58:03.000Z</time>
      </trkpt>
      <trkpt lat="43.17732" lon="5.9013">
        <ele>495</ele>
        <time>2016-05-15T08:58:05.000Z</time>
      </trkpt>
      <trkpt lat="43.17747" lon="5.90133">
        <ele>495.39999389648</ele>
        <time>2016-05-15T08:58:09.000Z</time>
      </trkpt>
      <trkpt lat="43.17761" lon="5.90136">
        <ele>497</ele>
        <time>2016-05-15T08:58:13.000Z</time>
      </trkpt>
      <trkpt lat="43.17776" lon="5.90135">
        <ele>498.39999389648</ele>
        <time>2016-05-15T08:58:17.000Z</time>
      </trkpt>
      <trkpt lat="43.17787" lon="5.90134">
        <ele>499.79998779297</ele>
        <time>2016-05-15T08:58:20.000Z</time>
      </trkpt>
      <trkpt lat="43.17791" lon="5.90134">
        <ele>500.39999389648</ele>
        <time>2016-05-15T08:58:21.000Z</time>
      </trkpt>
      <trkpt lat="43.17802" lon="5.90132">
        <ele>501.79998779297</ele>
        <time>2016-05-15T08:58:24.000Z</time>
      </trkpt>
      <trkpt lat="43.17809" lon="5.90132">
        <ele>502.60000610352</ele>
        <time>2016-05-15T08:58:26.000Z</time>
      </trkpt>
      <trkpt lat="43.1782" lon="5.90131">
        <ele>503.79998779297</ele>
        <time>2016-05-15T08:58:29.000Z</time>
      </trkpt>
      <trkpt lat="43.17823" lon="5.9013">
        <ele>504.60000610352</ele>
        <time>2016-05-15T08:58:30.000Z</time>
      </trkpt>
      <trkpt lat="43.17834" lon="5.90127">
        <ele>507.20001220703</ele>
        <time>2016-05-15T08:58:33.000Z</time>
      </trkpt>
      <trkpt lat="43.17844" lon="5.90123">
        <ele>511</ele>
        <time>2016-05-15T08:58:36.000Z</time>
      </trkpt>
      <trkpt lat="43.17848" lon="5.90121">
        <ele>512.79998779297</ele>
        <time>2016-05-15T08:58:37.000Z</time>
      </trkpt>
      <trkpt lat="43.17861" lon="5.90115">
        <ele>519.59997558594</ele>
        <time>2016-05-15T08:58:41.000Z</time>
      </trkpt>
      <trkpt lat="43.1787" lon="5.9011">
        <ele>524.20001220703</ele>
        <time>2016-05-15T08:58:44.000Z</time>
      </trkpt>
      <trkpt lat="43.17874" lon="5.90109">
        <ele>525.59997558594</ele>
        <time>2016-05-15T08:58:45.000Z</time>
      </trkpt>
      <trkpt lat="43.17883" lon="5.90107">
        <ele>529</ele>
        <time>2016-05-15T08:58:48.000Z</time>
      </trkpt>
      <trkpt lat="43.17893" lon="5.90106">
        <ele>531.79998779297</ele>
        <time>2016-05-15T08:58:51.000Z</time>
      </trkpt>
      <trkpt lat="43.17903" lon="5.90106">
        <ele>532.59997558594</ele>
        <time>2016-05-15T08:58:54.000Z</time>
      </trkpt>
      <trkpt lat="43.17906" lon="5.90107">
        <ele>532.40002441406</ele>
        <time>2016-05-15T08:58:55.000Z</time>
      </trkpt>
      <trkpt lat="43.17919" lon="5.90108">
        <ele>532.40002441406</ele>
        <time>2016-05-15T08:58:59.000Z</time>
      </trkpt>
      <trkpt lat="43.17932" lon="5.90109">
        <ele>534.40002441406</ele>
        <time>2016-05-15T08:59:03.000Z</time>
      </trkpt>
      <trkpt lat="43.17935" lon="5.90109">
        <ele>535.40002441406</ele>
        <time>2016-05-15T08:59:04.000Z</time>
      </trkpt>
      <trkpt lat="43.17944" lon="5.90112">
        <ele>538.59997558594</ele>
        <time>2016-05-15T08:59:07.000Z</time>
      </trkpt>
      <trkpt lat="43.17955" lon="5.90118">
        <ele>541.40002441406</ele>
        <time>2016-05-15T08:59:10.000Z</time>
      </trkpt>
      <trkpt lat="43.17957" lon="5.90121">
        <ele>541.59997558594</ele>
        <time>2016-05-15T08:59:11.000Z</time>
      </trkpt>
      <trkpt lat="43.17961" lon="5.90134">
        <ele>539.79998779297</ele>
        <time>2016-05-15T08:59:14.000Z</time>
      </trkpt>
      <trkpt lat="43.17961" lon="5.90138">
        <ele>538</ele>
        <time>2016-05-15T08:59:15.000Z</time>
      </trkpt>
      <trkpt lat="43.17957" lon="5.90145">
        <ele>535.79998779297</ele>
        <time>2016-05-15T08:59:17.000Z</time>
      </trkpt>
      <trkpt lat="43.17954" lon="5.90148">
        <ele>534.59997558594</ele>
        <time>2016-05-15T08:59:18.000Z</time>
      </trkpt>
      <trkpt lat="43.17949" lon="5.90155">
        <ele>532.20001220703</ele>
        <time>2016-05-15T08:59:20.000Z</time>
      </trkpt>
      <trkpt lat="43.17943" lon="5.90162">
        <ele>528.79998779297</ele>
        <time>2016-05-15T08:59:22.000Z</time>
      </trkpt>
      <trkpt lat="43.17942" lon="5.90166">
        <ele>527.40002441406</ele>
        <time>2016-05-15T08:59:23.000Z</time>
      </trkpt>
      <trkpt lat="43.17941" lon="5.9018">
        <ele>525.20001220703</ele>
        <time>2016-05-15T08:59:26.000Z</time>
      </trkpt>
      <trkpt lat="43.17943" lon="5.90185">
        <ele>525.79998779297</ele>
        <time>2016-05-15T08:59:27.000Z</time>
      </trkpt>
      <trkpt lat="43.17951" lon="5.90196">
        <ele>528.79998779297</ele>
        <time>2016-05-15T08:59:30.000Z</time>
      </trkpt>
      <trkpt lat="43.1796" lon="5.90212">
        <ele>531.79998779297</ele>
        <time>2016-05-15T08:59:34.000Z</time>
      </trkpt>
      <trkpt lat="43.17965" lon="5.90226">
        <ele>533.20001220703</ele>
        <time>2016-05-15T08:59:37.000Z</time>
      </trkpt>
      <trkpt lat="43.1797" lon="5.9024">
        <ele>535.59997558594</ele>
        <time>2016-05-15T08:59:40.000Z</time>
      </trkpt>
      <trkpt lat="43.17976" lon="5.90253">
        <ele>538</ele>
        <time>2016-05-15T08:59:43.000Z</time>
      </trkpt>
      <trkpt lat="43.17977" lon="5.90258">
        <ele>538.40002441406</ele>
        <time>2016-05-15T08:59:44.000Z</time>
      </trkpt>
      <trkpt lat="43.17978" lon="5.90278">
        <ele>538.79998779297</ele>
        <time>2016-05-15T08:59:48.000Z</time>
      </trkpt>
      <trkpt lat="43.17979" lon="5.90283">
        <ele>539</ele>
        <time>2016-05-15T08:59:49.000Z</time>
      </trkpt>
      <trkpt lat="43.17979" lon="5.90299">
        <ele>539.59997558594</ele>
        <time>2016-05-15T08:59:52.000Z</time>
      </trkpt>
      <trkpt lat="43.1798" lon="5.9032">
        <ele>539.59997558594</ele>
        <time>2016-05-15T08:59:56.000Z</time>
      </trkpt>
      <trkpt lat="43.17981" lon="5.90325">
        <ele>539.59997558594</ele>
        <time>2016-05-15T08:59:57.000Z</time>
      </trkpt>
      <trkpt lat="43.17985" lon="5.9034">
        <ele>540.59997558594</ele>
        <time>2016-05-15T09:00:00.000Z</time>
      </trkpt>
      <trkpt lat="43.1799" lon="5.90353">
        <ele>542.40002441406</ele>
        <time>2016-05-15T09:00:03.000Z</time>
      </trkpt>
      <trkpt lat="43.17991" lon="5.90358">
        <ele>543</ele>
        <time>2016-05-15T09:00:04.000Z</time>
      </trkpt>
      <trkpt lat="43.17995" lon="5.90366">
        <ele>544</ele>
        <time>2016-05-15T09:00:06.000Z</time>
      </trkpt>
      <trkpt lat="43.18001" lon="5.90385">
        <ele>547.40002441406</ele>
        <time>2016-05-15T09:00:10.000Z</time>
      </trkpt>
      <trkpt lat="43.18006" lon="5.90397">
        <ele>550.40002441406</ele>
        <time>2016-05-15T09:00:13.000Z</time>
      </trkpt>
      <trkpt lat="43.18009" lon="5.90402">
        <ele>551.40002441406</ele>
        <time>2016-05-15T09:00:14.000Z</time>
      </trkpt>
      <trkpt lat="43.18013" lon="5.90409">
        <ele>553.20001220703</ele>
        <time>2016-05-15T09:00:16.000Z</time>
      </trkpt>
      <trkpt lat="43.18022" lon="5.90422">
        <ele>557.79998779297</ele>
        <time>2016-05-15T09:00:20.000Z</time>
      </trkpt>
      <trkpt lat="43.18028" lon="5.90428">
        <ele>560.20001220703</ele>
        <time>2016-05-15T09:00:22.000Z</time>
      </trkpt>
      <trkpt lat="43.18031" lon="5.90436">
        <ele>562.40002441406</ele>
        <time>2016-05-15T09:00:24.000Z</time>
      </trkpt>
      <trkpt lat="43.18032" lon="5.90446">
        <ele>563.59997558594</ele>
        <time>2016-05-15T09:00:26.000Z</time>
      </trkpt>
      <trkpt lat="43.18032" lon="5.90451">
        <ele>564</ele>
        <time>2016-05-15T09:00:27.000Z</time>
      </trkpt>
      <trkpt lat="43.18032" lon="5.90471">
        <ele>565.40002441406</ele>
        <time>2016-05-15T09:00:31.000Z</time>
      </trkpt>
      <trkpt lat="43.18032" lon="5.90486">
        <ele>566.20001220703</ele>
        <time>2016-05-15T09:00:34.000Z</time>
      </trkpt>
      <trkpt lat="43.18035" lon="5.905">
        <ele>568</ele>
        <time>2016-05-15T09:00:37.000Z</time>
      </trkpt>
      <trkpt lat="43.18038" lon="5.90512">
        <ele>570.59997558594</ele>
        <time>2016-05-15T09:00:40.000Z</time>
      </trkpt>
      <trkpt lat="43.1804" lon="5.90516">
        <ele>571.40002441406</ele>
        <time>2016-05-15T09:00:41.000Z</time>
      </trkpt>
      <trkpt lat="43.18043" lon="5.90525">
        <ele>573.40002441406</ele>
        <time>2016-05-15T09:00:43.000Z</time>
      </trkpt>
      <trkpt lat="43.18046" lon="5.90539">
        <ele>576.20001220703</ele>
        <time>2016-05-15T09:00:46.000Z</time>
      </trkpt>
      <trkpt lat="43.18047" lon="5.90549">
        <ele>577.59997558594</ele>
        <time>2016-05-15T09:00:48.000Z</time>
      </trkpt>
      <trkpt lat="43.18044" lon="5.90556">
        <ele>578</ele>
        <time>2016-05-15T09:00:50.000Z</time>
      </trkpt>
      <trkpt lat="43.18042" lon="5.90559">
        <ele>577.59997558594</ele>
        <time>2016-05-15T09:00:51.000Z</time>
      </trkpt>
      <trkpt lat="43.18039" lon="5.90561">
        <ele>576.79998779297</ele>
        <time>2016-05-15T09:00:52.000Z</time>
      </trkpt>
      <trkpt lat="43.18031" lon="5.90564">
        <ele>574.59997558594</ele>
        <time>2016-05-15T09:00:54.000Z</time>
      </trkpt>
      <trkpt lat="43.18016" lon="5.90572">
        <ele>570.20001220703</ele>
        <time>2016-05-15T09:00:58.000Z</time>
      </trkpt>
      <trkpt lat="43.18004" lon="5.90583">
        <ele>568</ele>
        <time>2016-05-15T09:01:02.000Z</time>
      </trkpt>
      <trkpt lat="43.18001" lon="5.90591">
        <ele>567.59997558594</ele>
        <time>2016-05-15T09:01:04.000Z</time>
      </trkpt>
      <trkpt lat="43.17999" lon="5.90605">
        <ele>567.40002441406</ele>
        <time>2016-05-15T09:01:07.000Z</time>
      </trkpt>
      <trkpt lat="43.18" lon="5.90613">
        <ele>567.40002441406</ele>
        <time>2016-05-15T09:01:09.000Z</time>
      </trkpt>
      <trkpt lat="43.18003" lon="5.90624">
        <ele>567.79998779297</ele>
        <time>2016-05-15T09:01:12.000Z</time>
      </trkpt>
      <trkpt lat="43.18008" lon="5.90628">
        <ele>568.40002441406</ele>
        <time>2016-05-15T09:01:14.000Z</time>
      </trkpt>
      <trkpt lat="43.18015" lon="5.9062">
        <ele>570</ele>
        <time>2016-05-15T09:01:17.000Z</time>
      </trkpt>
      <trkpt lat="43.18016" lon="5.90616">
        <ele>570.40002441406</ele>
        <time>2016-05-15T09:01:18.000Z</time>
      </trkpt>
      <trkpt lat="43.18019" lon="5.90602">
        <ele>571.40002441406</ele>
        <time>2016-05-15T09:01:21.000Z</time>
      </trkpt>
      <trkpt lat="43.1803" lon="5.9059">
        <ele>574.59997558594</ele>
        <time>2016-05-15T09:01:25.000Z</time>
      </trkpt>
      <trkpt lat="43.18033" lon="5.90588">
        <ele>575.59997558594</ele>
        <time>2016-05-15T09:01:26.000Z</time>
      </trkpt>
      <trkpt lat="43.1804" lon="5.90586">
        <ele>577.59997558594</ele>
        <time>2016-05-15T09:01:28.000Z</time>
      </trkpt>
      <trkpt lat="43.1805" lon="5.90584">
        <ele>580.40002441406</ele>
        <time>2016-05-15T09:01:31.000Z</time>
      </trkpt>
      <trkpt lat="43.18054" lon="5.90583">
        <ele>581.40002441406</ele>
        <time>2016-05-15T09:01:32.000Z</time>
      </trkpt>
      <trkpt lat="43.18064" lon="5.90581">
        <ele>584.20001220703</ele>
        <time>2016-05-15T09:01:35.000Z</time>
      </trkpt>
      <trkpt lat="43.18073" lon="5.90578">
        <ele>586.59997558594</ele>
        <time>2016-05-15T09:01:38.000Z</time>
      </trkpt>
      <trkpt lat="43.18076" lon="5.90575">
        <ele>587.20001220703</ele>
        <time>2016-05-15T09:01:39.000Z</time>
      </trkpt>
      <trkpt lat="43.18078" lon="5.90566">
        <ele>587.79998779297</ele>
        <time>2016-05-15T09:01:41.000Z</time>
      </trkpt>
      <trkpt lat="43.18079" lon="5.90551">
        <ele>586.79998779297</ele>
        <time>2016-05-15T09:01:44.000Z</time>
      </trkpt>
      <trkpt lat="43.18078" lon="5.90546">
        <ele>586.20001220703</ele>
        <time>2016-05-15T09:01:45.000Z</time>
      </trkpt>
      <trkpt lat="43.18078" lon="5.90532">
        <ele>585</ele>
        <time>2016-05-15T09:01:48.000Z</time>
      </trkpt>
      <trkpt lat="43.18079" lon="5.90517">
        <ele>584.79998779297</ele>
        <time>2016-05-15T09:01:51.000Z</time>
      </trkpt>
      <trkpt lat="43.1808" lon="5.90513">
        <ele>584.79998779297</ele>
        <time>2016-05-15T09:01:52.000Z</time>
      </trkpt>
      <trkpt lat="43.18082" lon="5.90499">
        <ele>585.20001220703</ele>
        <time>2016-05-15T09:01:55.000Z</time>
      </trkpt>
      <trkpt lat="43.18086" lon="5.90486">
        <ele>586</ele>
        <time>2016-05-15T09:01:58.000Z</time>
      </trkpt>
      <trkpt lat="43.18088" lon="5.90476">
        <ele>586.59997558594</ele>
        <time>2016-05-15T09:02:00.000Z</time>
      </trkpt>
      <trkpt lat="43.18089" lon="5.90472">
        <ele>586.59997558594</ele>
        <time>2016-05-15T09:02:01.000Z</time>
      </trkpt>
      <trkpt lat="43.18093" lon="5.90453">
        <ele>588.79998779297</ele>
        <time>2016-05-15T09:02:05.000Z</time>
      </trkpt>
      <trkpt lat="43.18093" lon="5.90443">
        <ele>589.20001220703</ele>
        <time>2016-05-15T09:02:07.000Z</time>
      </trkpt>
      <trkpt lat="43.18093" lon="5.90433">
        <ele>589.79998779297</ele>
        <time>2016-05-15T09:02:09.000Z</time>
      </trkpt>
      <trkpt lat="43.18095" lon="5.90414">
        <ele>591.20001220703</ele>
        <time>2016-05-15T09:02:13.000Z</time>
      </trkpt>
      <trkpt lat="43.18095" lon="5.90399">
        <ele>591.59997558594</ele>
        <time>2016-05-15T09:02:16.000Z</time>
      </trkpt>
      <trkpt lat="43.18094" lon="5.90394">
        <ele>591.59997558594</ele>
        <time>2016-05-15T09:02:17.000Z</time>
      </trkpt>
      <trkpt lat="43.18093" lon="5.90385">
        <ele>591.40002441406</ele>
        <time>2016-05-15T09:02:19.000Z</time>
      </trkpt>
      <trkpt lat="43.18091" lon="5.9037">
        <ele>591.79998779297</ele>
        <time>2016-05-15T09:02:22.000Z</time>
      </trkpt>
      <trkpt lat="43.1809" lon="5.90356">
        <ele>592.20001220703</ele>
        <time>2016-05-15T09:02:25.000Z</time>
      </trkpt>
      <trkpt lat="43.18091" lon="5.90338">
        <ele>593.79998779297</ele>
        <time>2016-05-15T09:02:29.000Z</time>
      </trkpt>
      <trkpt lat="43.18091" lon="5.90319">
        <ele>595.40002441406</ele>
        <time>2016-05-15T09:02:33.000Z</time>
      </trkpt>
      <trkpt lat="43.18092" lon="5.90315">
        <ele>596</ele>
        <time>2016-05-15T09:02:34.000Z</time>
      </trkpt>
      <trkpt lat="43.18093" lon="5.90302">
        <ele>597.20001220703</ele>
        <time>2016-05-15T09:02:37.000Z</time>
      </trkpt>
      <trkpt lat="43.18095" lon="5.90284">
        <ele>597.20001220703</ele>
        <time>2016-05-15T09:02:41.000Z</time>
      </trkpt>
      <trkpt lat="43.18095" lon="5.90275">
        <ele>597.20001220703</ele>
        <time>2016-05-15T09:02:43.000Z</time>
      </trkpt>
      <trkpt lat="43.18096" lon="5.90271">
        <ele>597.20001220703</ele>
        <time>2016-05-15T09:02:44.000Z</time>
      </trkpt>
      <trkpt lat="43.18099" lon="5.90254">
        <ele>598</ele>
        <time>2016-05-15T09:02:48.000Z</time>
      </trkpt>
      <trkpt lat="43.18102" lon="5.90242">
        <ele>599.59997558594</ele>
        <time>2016-05-15T09:02:51.000Z</time>
      </trkpt>
      <trkpt lat="43.18111" lon="5.9023">
        <ele>603.40002441406</ele>
        <time>2016-05-15T09:02:55.000Z</time>
      </trkpt>
      <trkpt lat="43.18116" lon="5.90224">
        <ele>605.79998779297</ele>
        <time>2016-05-15T09:02:57.000Z</time>
      </trkpt>
      <trkpt lat="43.1812" lon="5.90217">
        <ele>608.20001220703</ele>
        <time>2016-05-15T09:02:59.000Z</time>
      </trkpt>
      <trkpt lat="43.18127" lon="5.90202">
        <ele>612</ele>
        <time>2016-05-15T09:03:03.000Z</time>
      </trkpt>
      <trkpt lat="43.18128" lon="5.90197">
        <ele>612.40002441406</ele>
        <time>2016-05-15T09:03:04.000Z</time>
      </trkpt>
      <trkpt lat="43.18123" lon="5.9018">
        <ele>610</ele>
        <time>2016-05-15T09:03:08.000Z</time>
      </trkpt>
      <trkpt lat="43.18114" lon="5.90151">
        <ele>605.79998779297</ele>
        <time>2016-05-15T09:03:14.000Z</time>
      </trkpt>
      <trkpt lat="43.1811" lon="5.90136">
        <ele>604.20001220703</ele>
        <time>2016-05-15T09:03:17.000Z</time>
      </trkpt>
      <trkpt lat="43.18109" lon="5.90132">
        <ele>603.79998779297</ele>
        <time>2016-05-15T09:03:18.000Z</time>
      </trkpt>
      <trkpt lat="43.18106" lon="5.90113">
        <ele>603.59997558594</ele>
        <time>2016-05-15T09:03:22.000Z</time>
      </trkpt>
      <trkpt lat="43.18107" lon="5.90103">
        <ele>604.40002441406</ele>
        <time>2016-05-15T09:03:24.000Z</time>
      </trkpt>
      <trkpt lat="43.18108" lon="5.90094">
        <ele>605.59997558594</ele>
        <time>2016-05-15T09:03:26.000Z</time>
      </trkpt>
      <trkpt lat="43.18114" lon="5.90078">
        <ele>609.59997558594</ele>
        <time>2016-05-15T09:03:30.000Z</time>
      </trkpt>
      <trkpt lat="43.18119" lon="5.90066">
        <ele>613.40002441406</ele>
        <time>2016-05-15T09:03:33.000Z</time>
      </trkpt>
      <trkpt lat="43.18122" lon="5.90053">
        <ele>617.20001220703</ele>
        <time>2016-05-15T09:03:36.000Z</time>
      </trkpt>
      <trkpt lat="43.18124" lon="5.90044">
        <ele>620.20001220703</ele>
        <time>2016-05-15T09:03:38.000Z</time>
      </trkpt>
      <trkpt lat="43.18125" lon="5.90039">
        <ele>621.59997558594</ele>
        <time>2016-05-15T09:03:39.000Z</time>
      </trkpt>
      <trkpt lat="43.18123" lon="5.90023">
        <ele>624.20001220703</ele>
        <time>2016-05-15T09:03:43.000Z</time>
      </trkpt>
      <trkpt lat="43.1812" lon="5.90019">
        <ele>623.40002441406</ele>
        <time>2016-05-15T09:03:44.000Z</time>
      </trkpt>
      <trkpt lat="43.18108" lon="5.90008">
        <ele>619.40002441406</ele>
        <time>2016-05-15T09:03:48.000Z</time>
      </trkpt>
      <trkpt lat="43.18099" lon="5.9">
        <ele>616.40002441406</ele>
        <time>2016-05-15T09:03:51.000Z</time>
      </trkpt>
      <trkpt lat="43.18093" lon="5.89995">
        <ele>614.59997558594</ele>
        <time>2016-05-15T09:03:53.000Z</time>
      </trkpt>
      <trkpt lat="43.18085" lon="5.89986">
        <ele>614</ele>
        <time>2016-05-15T09:03:56.000Z</time>
      </trkpt>
      <trkpt lat="43.18077" lon="5.89976">
        <ele>613.79998779297</ele>
        <time>2016-05-15T09:03:59.000Z</time>
      </trkpt>
      <trkpt lat="43.18075" lon="5.89973">
        <ele>613.79998779297</ele>
        <time>2016-05-15T09:04:00.000Z</time>
      </trkpt>
      <trkpt lat="43.1807" lon="5.89967">
        <ele>615</ele>
        <time>2016-05-15T09:04:02.000Z</time>
      </trkpt>
      <trkpt lat="43.1806" lon="5.89955">
        <ele>616.79998779297</ele>
        <time>2016-05-15T09:04:06.000Z</time>
      </trkpt>
      <trkpt lat="43.1805" lon="5.89944">
        <ele>618.40002441406</ele>
        <time>2016-05-15T09:04:10.000Z</time>
      </trkpt>
      <trkpt lat="43.18047" lon="5.89938">
        <ele>620</ele>
        <time>2016-05-15T09:04:12.000Z</time>
      </trkpt>
      <trkpt lat="43.1805" lon="5.89931">
        <ele>623.59997558594</ele>
        <time>2016-05-15T09:04:14.000Z</time>
      </trkpt>
      <trkpt lat="43.18058" lon="5.89936">
        <ele>624.20001220703</ele>
        <time>2016-05-15T09:04:17.000Z</time>
      </trkpt>
      <trkpt lat="43.1806" lon="5.8994">
        <ele>623.20001220703</ele>
        <time>2016-05-15T09:04:18.000Z</time>
      </trkpt>
      <trkpt lat="43.18063" lon="5.89944">
        <ele>622.59997558594</ele>
        <time>2016-05-15T09:04:19.000Z</time>
      </trkpt>
      <trkpt lat="43.18074" lon="5.89954">
        <ele>621.59997558594</ele>
        <time>2016-05-15T09:04:23.000Z</time>
      </trkpt>
      <trkpt lat="43.18077" lon="5.89957">
        <ele>621.40002441406</ele>
        <time>2016-05-15T09:04:24.000Z</time>
      </trkpt>
      <trkpt lat="43.18086" lon="5.89964">
        <ele>621.20001220703</ele>
        <time>2016-05-15T09:04:27.000Z</time>
      </trkpt>
      <trkpt lat="43.18099" lon="5.89972">
        <ele>622.59997558594</ele>
        <time>2016-05-15T09:04:31.000Z</time>
      </trkpt>
      <trkpt lat="43.18112" lon="5.89978">
        <ele>627</ele>
        <time>2016-05-15T09:04:35.000Z</time>
      </trkpt>
      <trkpt lat="43.18125" lon="5.89984">
        <ele>632</ele>
        <time>2016-05-15T09:04:39.000Z</time>
      </trkpt>
      <trkpt lat="43.18129" lon="5.89986">
        <ele>633.40002441406</ele>
        <time>2016-05-15T09:04:40.000Z</time>
      </trkpt>
      <trkpt lat="43.18135" lon="5.89988">
        <ele>635.79998779297</ele>
        <time>2016-05-15T09:04:42.000Z</time>
      </trkpt>
      <trkpt lat="43.18145" lon="5.89992">
        <ele>639.59997558594</ele>
        <time>2016-05-15T09:04:45.000Z</time>
      </trkpt>
      <trkpt lat="43.18154" lon="5.89998">
        <ele>643</ele>
        <time>2016-05-15T09:04:48.000Z</time>
      </trkpt>
      <trkpt lat="43.18159" lon="5.90005">
        <ele>644.20001220703</ele>
        <time>2016-05-15T09:04:50.000Z</time>
      </trkpt>
      <trkpt lat="43.18162" lon="5.90014">
        <ele>644.59997558594</ele>
        <time>2016-05-15T09:04:52.000Z</time>
      </trkpt>
      <trkpt lat="43.18163" lon="5.90023">
        <ele>644.20001220703</ele>
        <time>2016-05-15T09:04:54.000Z</time>
      </trkpt>
      <trkpt lat="43.18164" lon="5.90042">
        <ele>642.59997558594</ele>
        <time>2016-05-15T09:04:58.000Z</time>
      </trkpt>
      <trkpt lat="43.18163" lon="5.90061">
        <ele>638.40002441406</ele>
        <time>2016-05-15T09:05:02.000Z</time>
      </trkpt>
      <trkpt lat="43.18165" lon="5.90081">
        <ele>637.59997558594</ele>
        <time>2016-05-15T09:05:06.000Z</time>
      </trkpt>
      <trkpt lat="43.18166" lon="5.90085">
        <ele>637.59997558594</ele>
        <time>2016-05-15T09:05:07.000Z</time>
      </trkpt>
      <trkpt lat="43.18168" lon="5.90094">
        <ele>637.79998779297</ele>
        <time>2016-05-15T09:05:09.000Z</time>
      </trkpt>
      <trkpt lat="43.18173" lon="5.90112">
        <ele>638.79998779297</ele>
        <time>2016-05-15T09:05:13.000Z</time>
      </trkpt>
      <trkpt lat="43.18175" lon="5.90121">
        <ele>639.20001220703</ele>
        <time>2016-05-15T09:05:15.000Z</time>
      </trkpt>
      <trkpt lat="43.18176" lon="5.90125">
        <ele>639.40002441406</ele>
        <time>2016-05-15T09:05:16.000Z</time>
      </trkpt>
      <trkpt lat="43.18183" lon="5.90142">
        <ele>641.40002441406</ele>
        <time>2016-05-15T09:05:20.000Z</time>
      </trkpt>
      <trkpt lat="43.18187" lon="5.90149">
        <ele>643.79998779297</ele>
        <time>2016-05-15T09:05:22.000Z</time>
      </trkpt>
      <trkpt lat="43.18191" lon="5.90157">
        <ele>645.79998779297</ele>
        <time>2016-05-15T09:05:24.000Z</time>
      </trkpt>
      <trkpt lat="43.18196" lon="5.90169">
        <ele>648.59997558594</ele>
        <time>2016-05-15T09:05:27.000Z</time>
      </trkpt>
      <trkpt lat="43.18201" lon="5.90181">
        <ele>651.40002441406</ele>
        <time>2016-05-15T09:05:30.000Z</time>
      </trkpt>
      <trkpt lat="43.18203" lon="5.90186">
        <ele>652.20001220703</ele>
        <time>2016-05-15T09:05:31.000Z</time>
      </trkpt>
      <trkpt lat="43.18206" lon="5.90204">
        <ele>653.59997558594</ele>
        <time>2016-05-15T09:05:35.000Z</time>
      </trkpt>
      <trkpt lat="43.18206" lon="5.90209">
        <ele>653.59997558594</ele>
        <time>2016-05-15T09:05:36.000Z</time>
      </trkpt>
      <trkpt lat="43.18204" lon="5.90224">
        <ele>652.40002441406</ele>
        <time>2016-05-15T09:05:39.000Z</time>
      </trkpt>
      <trkpt lat="43.18202" lon="5.90243">
        <ele>651.40002441406</ele>
        <time>2016-05-15T09:05:43.000Z</time>
      </trkpt>
      <trkpt lat="43.182" lon="5.90257">
        <ele>650.59997558594</ele>
        <time>2016-05-15T09:05:46.000Z</time>
      </trkpt>
      <trkpt lat="43.18198" lon="5.90277">
        <ele>650</ele>
        <time>2016-05-15T09:05:50.000Z</time>
      </trkpt>
      <trkpt lat="43.18198" lon="5.90281">
        <ele>650.20001220703</ele>
        <time>2016-05-15T09:05:51.000Z</time>
      </trkpt>
      <trkpt lat="43.182" lon="5.90301">
        <ele>651.40002441406</ele>
        <time>2016-05-15T09:05:55.000Z</time>
      </trkpt>
      <trkpt lat="43.18202" lon="5.90319">
        <ele>652.79998779297</ele>
        <time>2016-05-15T09:05:59.000Z</time>
      </trkpt>
      <trkpt lat="43.18204" lon="5.90329">
        <ele>653.79998779297</ele>
        <time>2016-05-15T09:06:01.000Z</time>
      </trkpt>
      <trkpt lat="43.18208" lon="5.90342">
        <ele>655</ele>
        <time>2016-05-15T09:06:04.000Z</time>
      </trkpt>
      <trkpt lat="43.18212" lon="5.90354">
        <ele>656.40002441406</ele>
        <time>2016-05-15T09:06:07.000Z</time>
      </trkpt>
      <trkpt lat="43.18219" lon="5.90372">
        <ele>658.40002441406</ele>
        <time>2016-05-15T09:06:11.000Z</time>
      </trkpt>
      <trkpt lat="43.18223" lon="5.90391">
        <ele>659.20001220703</ele>
        <time>2016-05-15T09:06:15.000Z</time>
      </trkpt>
      <trkpt lat="43.18227" lon="5.90405">
        <ele>660.59997558594</ele>
        <time>2016-05-15T09:06:18.000Z</time>
      </trkpt>
      <trkpt lat="43.18228" lon="5.9041">
        <ele>661</ele>
        <time>2016-05-15T09:06:19.000Z</time>
      </trkpt>
      <trkpt lat="43.18232" lon="5.90424">
        <ele>663.20001220703</ele>
        <time>2016-05-15T09:06:22.000Z</time>
      </trkpt>
      <trkpt lat="43.18238" lon="5.90444">
        <ele>665.59997558594</ele>
        <time>2016-05-15T09:06:26.000Z</time>
      </trkpt>
      <trkpt lat="43.18243" lon="5.90462">
        <ele>668</ele>
        <time>2016-05-15T09:06:30.000Z</time>
      </trkpt>
      <trkpt lat="43.18244" lon="5.90482">
        <ele>668.40002441406</ele>
        <time>2016-05-15T09:06:34.000Z</time>
      </trkpt>
      <trkpt lat="43.18246" lon="5.90496">
        <ele>668.20001220703</ele>
        <time>2016-05-15T09:06:37.000Z</time>
      </trkpt>
      <trkpt lat="43.18247" lon="5.90514">
        <ele>667.79998779297</ele>
        <time>2016-05-15T09:06:41.000Z</time>
      </trkpt>
      <trkpt lat="43.18247" lon="5.90522">
        <ele>667.59997558594</ele>
        <time>2016-05-15T09:06:43.000Z</time>
      </trkpt>
      <trkpt lat="43.18247" lon="5.90528">
        <ele>667</ele>
        <time>2016-05-15T09:06:45.000Z</time>
      </trkpt>
      <trkpt lat="43.1825" lon="5.90533">
        <ele>668.59997558594</ele>
        <time>2016-05-15T09:08:00.000Z</time>
      </trkpt>
      <trkpt lat="43.18255" lon="5.90532">
        <ele>671.59997558594</ele>
        <time>2016-05-15T09:08:02.000Z</time>
      </trkpt>
      <trkpt lat="43.18259" lon="5.9052">
        <ele>674.59997558594</ele>
        <time>2016-05-15T09:08:05.000Z</time>
      </trkpt>
      <trkpt lat="43.18257" lon="5.90506">
        <ele>674.59997558594</ele>
        <time>2016-05-15T09:08:08.000Z</time>
      </trkpt>
      <trkpt lat="43.18257" lon="5.90496">
        <ele>674.79998779297</ele>
        <time>2016-05-15T09:08:10.000Z</time>
      </trkpt>
      <trkpt lat="43.18257" lon="5.90481">
        <ele>676</ele>
        <time>2016-05-15T09:08:13.000Z</time>
      </trkpt>
      <trkpt lat="43.18256" lon="5.90462">
        <ele>676.40002441406</ele>
        <time>2016-05-15T09:08:17.000Z</time>
      </trkpt>
      <trkpt lat="43.18256" lon="5.9044">
        <ele>677.59997558594</ele>
        <time>2016-05-15T09:08:22.000Z</time>
      </trkpt>
      <trkpt lat="43.18256" lon="5.90421">
        <ele>678</ele>
        <time>2016-05-15T09:08:26.000Z</time>
      </trkpt>
      <trkpt lat="43.18255" lon="5.90412">
        <ele>678.20001220703</ele>
        <time>2016-05-15T09:08:28.000Z</time>
      </trkpt>
      <trkpt lat="43.18255" lon="5.90399">
        <ele>679</ele>
        <time>2016-05-15T09:08:31.000Z</time>
      </trkpt>
      <trkpt lat="43.18257" lon="5.90385">
        <ele>680.59997558594</ele>
        <time>2016-05-15T09:08:34.000Z</time>
      </trkpt>
      <trkpt lat="43.18257" lon="5.90381">
        <ele>681</ele>
        <time>2016-05-15T09:08:35.000Z</time>
      </trkpt>
      <trkpt lat="43.18259" lon="5.90368">
        <ele>682</ele>
        <time>2016-05-15T09:08:38.000Z</time>
      </trkpt>
      <trkpt lat="43.18262" lon="5.90346">
        <ele>684.40002441406</ele>
        <time>2016-05-15T09:08:43.000Z</time>
      </trkpt>
      <trkpt lat="43.18262" lon="5.90337">
        <ele>684.79998779297</ele>
        <time>2016-05-15T09:08:45.000Z</time>
      </trkpt>
      <trkpt lat="43.18263" lon="5.90327">
        <ele>685.40002441406</ele>
        <time>2016-05-15T09:08:47.000Z</time>
      </trkpt>
      <trkpt lat="43.18264" lon="5.90314">
        <ele>686.40002441406</ele>
        <time>2016-05-15T09:08:50.000Z</time>
      </trkpt>
      <trkpt lat="43.18267" lon="5.903">
        <ele>687.79998779297</ele>
        <time>2016-05-15T09:08:53.000Z</time>
      </trkpt>
      <trkpt lat="43.18268" lon="5.90296">
        <ele>688.20001220703</ele>
        <time>2016-05-15T09:08:54.000Z</time>
      </trkpt>
      <trkpt lat="43.18273" lon="5.90278">
        <ele>690.20001220703</ele>
        <time>2016-05-15T09:08:58.000Z</time>
      </trkpt>
      <trkpt lat="43.18277" lon="5.90261">
        <ele>692.40002441406</ele>
        <time>2016-05-15T09:09:02.000Z</time>
      </trkpt>
      <trkpt lat="43.18279" lon="5.90257">
        <ele>693</ele>
        <time>2016-05-15T09:09:03.000Z</time>
      </trkpt>
      <trkpt lat="43.18283" lon="5.90244">
        <ele>694.59997558594</ele>
        <time>2016-05-15T09:09:06.000Z</time>
      </trkpt>
      <trkpt lat="43.18287" lon="5.90228">
        <ele>694.40002441406</ele>
        <time>2016-05-15T09:09:10.000Z</time>
      </trkpt>
      <trkpt lat="43.18288" lon="5.90223">
        <ele>694.40002441406</ele>
        <time>2016-05-15T09:09:11.000Z</time>
      </trkpt>
      <trkpt lat="43.18293" lon="5.90208">
        <ele>695.40002441406</ele>
        <time>2016-05-15T09:09:15.000Z</time>
      </trkpt>
      <trkpt lat="43.18296" lon="5.9019">
        <ele>695.59997558594</ele>
        <time>2016-05-15T09:09:19.000Z</time>
      </trkpt>
      <trkpt lat="43.18296" lon="5.90185">
        <ele>695.40002441406</ele>
        <time>2016-05-15T09:09:20.000Z</time>
      </trkpt>
      <trkpt lat="43.18295" lon="5.90168">
        <ele>694.20001220703</ele>
        <time>2016-05-15T09:09:24.000Z</time>
      </trkpt>
      <trkpt lat="43.18293" lon="5.90159">
        <ele>693.20001220703</ele>
        <time>2016-05-15T09:09:26.000Z</time>
      </trkpt>
      <trkpt lat="43.1829" lon="5.90141">
        <ele>691</ele>
        <time>2016-05-15T09:09:30.000Z</time>
      </trkpt>
      <trkpt lat="43.18287" lon="5.90123">
        <ele>691</ele>
        <time>2016-05-15T09:09:34.000Z</time>
      </trkpt>
      <trkpt lat="43.18283" lon="5.90105">
        <ele>691</ele>
        <time>2016-05-15T09:09:38.000Z</time>
      </trkpt>
      <trkpt lat="43.18277" lon="5.90078">
        <ele>691.40002441406</ele>
        <time>2016-05-15T09:09:44.000Z</time>
      </trkpt>
      <trkpt lat="43.18276" lon="5.90051">
        <ele>691</ele>
        <time>2016-05-15T09:09:50.000Z</time>
      </trkpt>
      <trkpt lat="43.18278" lon="5.90042">
        <ele>691.59997558594</ele>
        <time>2016-05-15T09:09:52.000Z</time>
      </trkpt>
      <trkpt lat="43.1828" lon="5.90029">
        <ele>692.79998779297</ele>
        <time>2016-05-15T09:09:55.000Z</time>
      </trkpt>
      <trkpt lat="43.18283" lon="5.9001">
        <ele>694</ele>
        <time>2016-05-15T09:10:00.000Z</time>
      </trkpt>
      <trkpt lat="43.18283" lon="5.90006">
        <ele>694.20001220703</ele>
        <time>2016-05-15T09:10:01.000Z</time>
      </trkpt>
      <trkpt lat="43.18285" lon="5.90001">
        <ele>695</ele>
        <time>2016-05-15T09:10:03.000Z</time>
      </trkpt>
      <trkpt lat="43.18288" lon="5.90001">
        <ele>695.59997558594</ele>
        <time>2016-05-15T09:10:04.000Z</time>
      </trkpt>
      <trkpt lat="43.1829" lon="5.90001">
        <ele>696</ele>
        <time>2016-05-15T09:10:05.000Z</time>
      </trkpt>
      <trkpt lat="43.18296" lon="5.90013">
        <ele>697.20001220703</ele>
        <time>2016-05-15T09:10:09.000Z</time>
      </trkpt>
      <trkpt lat="43.18296" lon="5.90021">
        <ele>697</ele>
        <time>2016-05-15T09:10:11.000Z</time>
      </trkpt>
      <trkpt lat="43.18296" lon="5.90037">
        <ele>696.40002441406</ele>
        <time>2016-05-15T09:10:15.000Z</time>
      </trkpt>
      <trkpt lat="43.18296" lon="5.90041">
        <ele>696.40002441406</ele>
        <time>2016-05-15T09:10:16.000Z</time>
      </trkpt>
      <trkpt lat="43.183" lon="5.90056">
        <ele>696.79998779297</ele>
        <time>2016-05-15T09:10:20.000Z</time>
      </trkpt>
      <trkpt lat="43.18303" lon="5.90064">
        <ele>698</ele>
        <time>2016-05-15T09:10:22.000Z</time>
      </trkpt>
      <trkpt lat="43.18306" lon="5.9007">
        <ele>699</ele>
        <time>2016-05-15T09:10:24.000Z</time>
      </trkpt>
      <trkpt lat="43.18311" lon="5.90081">
        <ele>700.59997558594</ele>
        <time>2016-05-15T09:10:27.000Z</time>
      </trkpt>
      <trkpt lat="43.18317" lon="5.90095">
        <ele>702.79998779297</ele>
        <time>2016-05-15T09:10:31.000Z</time>
      </trkpt>
      <trkpt lat="43.18318" lon="5.90099">
        <ele>703.40002441406</ele>
        <time>2016-05-15T09:10:32.000Z</time>
      </trkpt>
      <trkpt lat="43.18322" lon="5.90111">
        <ele>704.79998779297</ele>
        <time>2016-05-15T09:10:35.000Z</time>
      </trkpt>
      <trkpt lat="43.18325" lon="5.90129">
        <ele>705.40002441406</ele>
        <time>2016-05-15T09:10:39.000Z</time>
      </trkpt>
      <trkpt lat="43.18327" lon="5.90138">
        <ele>705.20001220703</ele>
        <time>2016-05-15T09:10:41.000Z</time>
      </trkpt>
      <trkpt lat="43.18329" lon="5.90146">
        <ele>706</ele>
        <time>2016-05-15T09:10:43.000Z</time>
      </trkpt>
      <trkpt lat="43.18333" lon="5.90163">
        <ele>708.79998779297</ele>
        <time>2016-05-15T09:10:47.000Z</time>
      </trkpt>
      <trkpt lat="43.18338" lon="5.9018">
        <ele>711.40002441406</ele>
        <time>2016-05-15T09:10:51.000Z</time>
      </trkpt>
      <trkpt lat="43.18342" lon="5.902">
        <ele>714</ele>
        <time>2016-05-15T09:10:56.000Z</time>
      </trkpt>
      <trkpt lat="43.18342" lon="5.90208">
        <ele>714.20001220703</ele>
        <time>2016-05-15T09:10:58.000Z</time>
      </trkpt>
      <trkpt lat="43.1834" lon="5.90216">
        <ele>714</ele>
        <time>2016-05-15T09:11:00.000Z</time>
      </trkpt>
      <trkpt lat="43.18337" lon="5.90232">
        <ele>714</ele>
        <time>2016-05-15T09:11:04.000Z</time>
      </trkpt>
      <trkpt lat="43.18336" lon="5.90237">
        <ele>714.20001220703</ele>
        <time>2016-05-15T09:11:05.000Z</time>
      </trkpt>
      <trkpt lat="43.18332" lon="5.9026">
        <ele>715.59997558594</ele>
        <time>2016-05-15T09:11:11.000Z</time>
      </trkpt>
      <trkpt lat="43.18331" lon="5.90268">
        <ele>716.20001220703</ele>
        <time>2016-05-15T09:11:13.000Z</time>
      </trkpt>
      <trkpt lat="43.1833" lon="5.90276">
        <ele>716.59997558594</ele>
        <time>2016-05-15T09:11:15.000Z</time>
      </trkpt>
      <trkpt lat="43.18329" lon="5.90296">
        <ele>718.20001220703</ele>
        <time>2016-05-15T09:11:20.000Z</time>
      </trkpt>
      <trkpt lat="43.18329" lon="5.90304">
        <ele>718.40002441406</ele>
        <time>2016-05-15T09:11:22.000Z</time>
      </trkpt>
      <trkpt lat="43.1833" lon="5.90326">
        <ele>719.20001220703</ele>
        <time>2016-05-15T09:11:27.000Z</time>
      </trkpt>
      <trkpt lat="43.18331" lon="5.90338">
        <ele>720</ele>
        <time>2016-05-15T09:11:30.000Z</time>
      </trkpt>
      <trkpt lat="43.18331" lon="5.90346">
        <ele>720.40002441406</ele>
        <time>2016-05-15T09:11:32.000Z</time>
      </trkpt>
      <trkpt lat="43.18331" lon="5.90356">
        <ele>720.59997558594</ele>
        <time>2016-05-15T09:11:36.000Z</time>
      </trkpt>
      <trkpt lat="43.18332" lon="5.9036">
        <ele>720.79998779297</ele>
        <time>2016-05-15T09:11:57.000Z</time>
      </trkpt>
      <trkpt lat="43.18332" lon="5.90363">
        <ele>721</ele>
        <time>2016-05-15T09:11:58.000Z</time>
      </trkpt>
      <trkpt lat="43.18333" lon="5.9037">
        <ele>721.59997558594</ele>
        <time>2016-05-15T09:12:00.000Z</time>
      </trkpt>
      <trkpt lat="43.18335" lon="5.90391">
        <ele>722.79998779297</ele>
        <time>2016-05-15T09:12:05.000Z</time>
      </trkpt>
      <trkpt lat="43.18336" lon="5.90396">
        <ele>723</ele>
        <time>2016-05-15T09:12:06.000Z</time>
      </trkpt>
      <trkpt lat="43.18338" lon="5.90414">
        <ele>724.40002441406</ele>
        <time>2016-05-15T09:12:10.000Z</time>
      </trkpt>
      <trkpt lat="43.18341" lon="5.90427">
        <ele>726</ele>
        <time>2016-05-15T09:12:13.000Z</time>
      </trkpt>
      <trkpt lat="43.18343" lon="5.90436">
        <ele>726.79998779297</ele>
        <time>2016-05-15T09:12:15.000Z</time>
      </trkpt>
      <trkpt lat="43.18346" lon="5.9046">
        <ele>728.20001220703</ele>
        <time>2016-05-15T09:12:20.000Z</time>
      </trkpt>
      <trkpt lat="43.18348" lon="5.90469">
        <ele>728.59997558594</ele>
        <time>2016-05-15T09:12:22.000Z</time>
      </trkpt>
      <trkpt lat="43.18349" lon="5.90478">
        <ele>730</ele>
        <time>2016-05-15T09:12:24.000Z</time>
      </trkpt>
      <trkpt lat="43.18352" lon="5.90492">
        <ele>730.79998779297</ele>
        <time>2016-05-15T09:12:27.000Z</time>
      </trkpt>
      <trkpt lat="43.18355" lon="5.90511">
        <ele>731.79998779297</ele>
        <time>2016-05-15T09:12:31.000Z</time>
      </trkpt>
      <trkpt lat="43.18358" lon="5.90529">
        <ele>732.59997558594</ele>
        <time>2016-05-15T09:12:35.000Z</time>
      </trkpt>
      <trkpt lat="43.18361" lon="5.90548">
        <ele>733.40002441406</ele>
        <time>2016-05-15T09:12:39.000Z</time>
      </trkpt>
      <trkpt lat="43.18362" lon="5.90552">
        <ele>733.79998779297</ele>
        <time>2016-05-15T09:12:40.000Z</time>
      </trkpt>
      <trkpt lat="43.18365" lon="5.90564">
        <ele>735.79998779297</ele>
        <time>2016-05-15T09:12:43.000Z</time>
      </trkpt>
      <trkpt lat="43.18368" lon="5.90577">
        <ele>738</ele>
        <time>2016-05-15T09:12:46.000Z</time>
      </trkpt>
      <trkpt lat="43.18369" lon="5.90582">
        <ele>738.59997558594</ele>
        <time>2016-05-15T09:12:47.000Z</time>
      </trkpt>
      <trkpt lat="43.18372" lon="5.90595">
        <ele>739.59997558594</ele>
        <time>2016-05-15T09:12:50.000Z</time>
      </trkpt>
      <trkpt lat="43.18375" lon="5.90607">
        <ele>740.79998779297</ele>
        <time>2016-05-15T09:12:53.000Z</time>
      </trkpt>
      <trkpt lat="43.18379" lon="5.9062">
        <ele>742.20001220703</ele>
        <time>2016-05-15T09:12:56.000Z</time>
      </trkpt>
      <trkpt lat="43.18379" lon="5.90624">
        <ele>742.40002441406</ele>
        <time>2016-05-15T09:12:57.000Z</time>
      </trkpt>
      <trkpt lat="43.18384" lon="5.90641">
        <ele>744</ele>
        <time>2016-05-15T09:13:01.000Z</time>
      </trkpt>
      <trkpt lat="43.18389" lon="5.90657">
        <ele>747.20001220703</ele>
        <time>2016-05-15T09:13:05.000Z</time>
      </trkpt>
      <trkpt lat="43.1839" lon="5.90661">
        <ele>747.79998779297</ele>
        <time>2016-05-15T09:13:06.000Z</time>
      </trkpt>
      <trkpt lat="43.18393" lon="5.90673">
        <ele>749.59997558594</ele>
        <time>2016-05-15T09:13:09.000Z</time>
      </trkpt>
      <trkpt lat="43.18398" lon="5.90694">
        <ele>752.40002441406</ele>
        <time>2016-05-15T09:13:13.000Z</time>
      </trkpt>
      <trkpt lat="43.18399" lon="5.90709">
        <ele>753</ele>
        <time>2016-05-15T09:13:16.000Z</time>
      </trkpt>
      <trkpt lat="43.18398" lon="5.90722">
        <ele>752.59997558594</ele>
        <time>2016-05-15T09:13:19.000Z</time>
      </trkpt>
      <trkpt lat="43.18397" lon="5.90727">
        <ele>752.20001220703</ele>
        <time>2016-05-15T09:13:20.000Z</time>
      </trkpt>
      <trkpt lat="43.18394" lon="5.90744">
        <ele>751.59997558594</ele>
        <time>2016-05-15T09:13:24.000Z</time>
      </trkpt>
      <trkpt lat="43.18393" lon="5.90748">
        <ele>751.59997558594</ele>
        <time>2016-05-15T09:13:25.000Z</time>
      </trkpt>
      <trkpt lat="43.1839" lon="5.90764">
        <ele>751</ele>
        <time>2016-05-15T09:13:29.000Z</time>
      </trkpt>
      <trkpt lat="43.18387" lon="5.90781">
        <ele>750.79998779297</ele>
        <time>2016-05-15T09:13:33.000Z</time>
      </trkpt>
      <trkpt lat="43.18386" lon="5.90785">
        <ele>750.40002441406</ele>
        <time>2016-05-15T09:13:34.000Z</time>
      </trkpt>
      <trkpt lat="43.18383" lon="5.908">
        <ele>750.20001220703</ele>
        <time>2016-05-15T09:13:38.000Z</time>
      </trkpt>
      <trkpt lat="43.18381" lon="5.90815">
        <ele>749.59997558594</ele>
        <time>2016-05-15T09:13:42.000Z</time>
      </trkpt>
      <trkpt lat="43.1838" lon="5.90818">
        <ele>749.20001220703</ele>
        <time>2016-05-15T09:13:43.000Z</time>
      </trkpt>
      <trkpt lat="43.1838" lon="5.90833">
        <ele>749.40002441406</ele>
        <time>2016-05-15T09:13:47.000Z</time>
      </trkpt>
      <trkpt lat="43.1838" lon="5.90841">
        <ele>749.59997558594</ele>
        <time>2016-05-15T09:13:49.000Z</time>
      </trkpt>
      <trkpt lat="43.18379" lon="5.90852">
        <ele>749.79998779297</ele>
        <time>2016-05-15T09:13:52.000Z</time>
      </trkpt>
      <trkpt lat="43.18375" lon="5.90866">
        <ele>749.40002441406</ele>
        <time>2016-05-15T09:13:56.000Z</time>
      </trkpt>
      <trkpt lat="43.18374" lon="5.9087">
        <ele>749.20001220703</ele>
        <time>2016-05-15T09:13:57.000Z</time>
      </trkpt>
      <trkpt lat="43.1837" lon="5.90884">
        <ele>748.79998779297</ele>
        <time>2016-05-15T09:14:01.000Z</time>
      </trkpt>
      <trkpt lat="43.18367" lon="5.90898">
        <ele>745.40002441406</ele>
        <time>2016-05-15T09:14:05.000Z</time>
      </trkpt>
      <trkpt lat="43.18365" lon="5.90905">
        <ele>743</ele>
        <time>2016-05-15T09:14:07.000Z</time>
      </trkpt>
      <trkpt lat="43.18364" lon="5.90913">
        <ele>740</ele>
        <time>2016-05-15T09:14:10.000Z</time>
      </trkpt>
      <trkpt lat="43.18365" lon="5.90918">
        <ele>739.20001220703</ele>
        <time>2016-05-15T09:23:52.000Z</time>
      </trkpt>
      <trkpt lat="43.18367" lon="5.90911">
        <ele>742.20001220703</ele>
        <time>2016-05-15T09:23:54.000Z</time>
      </trkpt>
      <trkpt lat="43.1837" lon="5.909">
        <ele>746.40002441406</ele>
        <time>2016-05-15T09:23:56.000Z</time>
      </trkpt>
      <trkpt lat="43.18372" lon="5.90893">
        <ele>749.20001220703</ele>
        <time>2016-05-15T09:23:57.000Z</time>
      </trkpt>
      <trkpt lat="43.18374" lon="5.90886">
        <ele>750.40002441406</ele>
        <time>2016-05-15T09:23:58.000Z</time>
      </trkpt>
      <trkpt lat="43.18382" lon="5.90849">
        <ele>750.79998779297</ele>
        <time>2016-05-15T09:24:03.000Z</time>
      </trkpt>
      <trkpt lat="43.18383" lon="5.90832">
        <ele>750.79998779297</ele>
        <time>2016-05-15T09:24:05.000Z</time>
      </trkpt>
      <trkpt lat="43.18384" lon="5.90805">
        <ele>750.79998779297</ele>
        <time>2016-05-15T09:24:08.000Z</time>
      </trkpt>
      <trkpt lat="43.18387" lon="5.90786">
        <ele>751</ele>
        <time>2016-05-15T09:24:10.000Z</time>
      </trkpt>
      <trkpt lat="43.1839" lon="5.90769">
        <ele>751.40002441406</ele>
        <time>2016-05-15T09:24:12.000Z</time>
      </trkpt>
      <trkpt lat="43.18392" lon="5.90762">
        <ele>751.79998779297</ele>
        <time>2016-05-15T09:24:13.000Z</time>
      </trkpt>
      <trkpt lat="43.18393" lon="5.90754">
        <ele>752</ele>
        <time>2016-05-15T09:24:14.000Z</time>
      </trkpt>
      <trkpt lat="43.18395" lon="5.90738">
        <ele>752</ele>
        <time>2016-05-15T09:24:16.000Z</time>
      </trkpt>
      <trkpt lat="43.18398" lon="5.90721">
        <ele>752.59997558594</ele>
        <time>2016-05-15T09:24:18.000Z</time>
      </trkpt>
      <trkpt lat="43.18399" lon="5.90706">
        <ele>753.20001220703</ele>
        <time>2016-05-15T09:24:20.000Z</time>
      </trkpt>
      <trkpt lat="43.18399" lon="5.90698">
        <ele>753</ele>
        <time>2016-05-15T09:24:21.000Z</time>
      </trkpt>
      <trkpt lat="43.18395" lon="5.90674">
        <ele>750.40002441406</ele>
        <time>2016-05-15T09:24:24.000Z</time>
      </trkpt>
      <trkpt lat="43.1839" lon="5.90658">
        <ele>747.79998779297</ele>
        <time>2016-05-15T09:24:26.000Z</time>
      </trkpt>
      <trkpt lat="43.18388" lon="5.90651">
        <ele>746.40002441406</ele>
        <time>2016-05-15T09:24:27.000Z</time>
      </trkpt>
      <trkpt lat="43.18383" lon="5.90636">
        <ele>743.79998779297</ele>
        <time>2016-05-15T09:24:29.000Z</time>
      </trkpt>
      <trkpt lat="43.18379" lon="5.90619">
        <ele>742.20001220703</ele>
        <time>2016-05-15T09:24:31.000Z</time>
      </trkpt>
      <trkpt lat="43.18372" lon="5.90594">
        <ele>739.59997558594</ele>
        <time>2016-05-15T09:24:34.000Z</time>
      </trkpt>
      <trkpt lat="43.18365" lon="5.90569">
        <ele>736.20001220703</ele>
        <time>2016-05-15T09:24:37.000Z</time>
      </trkpt>
      <trkpt lat="43.18361" lon="5.90552">
        <ele>733.79998779297</ele>
        <time>2016-05-15T09:24:39.000Z</time>
      </trkpt>
      <trkpt lat="43.18359" lon="5.90543">
        <ele>733</ele>
        <time>2016-05-15T09:24:40.000Z</time>
      </trkpt>
      <trkpt lat="43.18357" lon="5.90526">
        <ele>732.40002441406</ele>
        <time>2016-05-15T09:24:42.000Z</time>
      </trkpt>
      <trkpt lat="43.18354" lon="5.90507">
        <ele>731.59997558594</ele>
        <time>2016-05-15T09:24:44.000Z</time>
      </trkpt>
      <trkpt lat="43.18353" lon="5.90498">
        <ele>731.20001220703</ele>
        <time>2016-05-15T09:24:45.000Z</time>
      </trkpt>
      <trkpt lat="43.18352" lon="5.90489">
        <ele>730.79998779297</ele>
        <time>2016-05-15T09:24:46.000Z</time>
      </trkpt>
      <trkpt lat="43.18348" lon="5.90471">
        <ele>728.59997558594</ele>
        <time>2016-05-15T09:24:48.000Z</time>
      </trkpt>
      <trkpt lat="43.18346" lon="5.90452">
        <ele>728.20001220703</ele>
        <time>2016-05-15T09:24:50.000Z</time>
      </trkpt>
      <trkpt lat="43.18342" lon="5.90434">
        <ele>726.59997558594</ele>
        <time>2016-05-15T09:24:52.000Z</time>
      </trkpt>
      <trkpt lat="43.1834" lon="5.90425">
        <ele>725.59997558594</ele>
        <time>2016-05-15T09:24:53.000Z</time>
      </trkpt>
      <trkpt lat="43.18336" lon="5.90398">
        <ele>723</ele>
        <time>2016-05-15T09:24:56.000Z</time>
      </trkpt>
      <trkpt lat="43.18334" lon="5.90381">
        <ele>722.40002441406</ele>
        <time>2016-05-15T09:24:58.000Z</time>
      </trkpt>
      <trkpt lat="43.18333" lon="5.90363">
        <ele>721.40002441406</ele>
        <time>2016-05-15T09:25:00.000Z</time>
      </trkpt>
      <trkpt lat="43.18331" lon="5.90345">
        <ele>720.40002441406</ele>
        <time>2016-05-15T09:25:02.000Z</time>
      </trkpt>
      <trkpt lat="43.1833" lon="5.90327">
        <ele>719.20001220703</ele>
        <time>2016-05-15T09:25:04.000Z</time>
      </trkpt>
      <trkpt lat="43.18328" lon="5.90296">
        <ele>717.59997558594</ele>
        <time>2016-05-15T09:25:07.000Z</time>
      </trkpt>
      <trkpt lat="43.18328" lon="5.90286">
        <ele>717.20001220703</ele>
        <time>2016-05-15T09:25:08.000Z</time>
      </trkpt>
      <trkpt lat="43.18329" lon="5.90276">
        <ele>716.40002441406</ele>
        <time>2016-05-15T09:25:09.000Z</time>
      </trkpt>
      <trkpt lat="43.18331" lon="5.90267">
        <ele>715.79998779297</ele>
        <time>2016-05-15T09:25:10.000Z</time>
      </trkpt>
      <trkpt lat="43.18334" lon="5.90249">
        <ele>714.79998779297</ele>
        <time>2016-05-15T09:25:12.000Z</time>
      </trkpt>
      <trkpt lat="43.18337" lon="5.90231">
        <ele>714</ele>
        <time>2016-05-15T09:25:14.000Z</time>
      </trkpt>
      <trkpt lat="43.1834" lon="5.90213">
        <ele>713.79998779297</ele>
        <time>2016-05-15T09:25:16.000Z</time>
      </trkpt>
      <trkpt lat="43.18343" lon="5.90197">
        <ele>714</ele>
        <time>2016-05-15T09:25:18.000Z</time>
      </trkpt>
      <trkpt lat="43.1834" lon="5.90181">
        <ele>712</ele>
        <time>2016-05-15T09:25:20.000Z</time>
      </trkpt>
      <trkpt lat="43.18338" lon="5.90173">
        <ele>711</ele>
        <time>2016-05-15T09:25:21.000Z</time>
      </trkpt>
      <trkpt lat="43.18335" lon="5.90165">
        <ele>709.59997558594</ele>
        <time>2016-05-15T09:25:22.000Z</time>
      </trkpt>
      <trkpt lat="43.18333" lon="5.90157">
        <ele>708.20001220703</ele>
        <time>2016-05-15T09:25:23.000Z</time>
      </trkpt>
      <trkpt lat="43.1833" lon="5.90148">
        <ele>706.79998779297</ele>
        <time>2016-05-15T09:25:24.000Z</time>
      </trkpt>
      <trkpt lat="43.18326" lon="5.9013">
        <ele>705.79998779297</ele>
        <time>2016-05-15T09:25:26.000Z</time>
      </trkpt>
      <trkpt lat="43.18321" lon="5.90107">
        <ele>704.40002441406</ele>
        <time>2016-05-15T09:25:29.000Z</time>
      </trkpt>
      <trkpt lat="43.18315" lon="5.90091">
        <ele>702.20001220703</ele>
        <time>2016-05-15T09:25:31.000Z</time>
      </trkpt>
      <trkpt lat="43.18312" lon="5.90084">
        <ele>701</ele>
        <time>2016-05-15T09:25:32.000Z</time>
      </trkpt>
      <trkpt lat="43.18309" lon="5.90076">
        <ele>700</ele>
        <time>2016-05-15T09:25:33.000Z</time>
      </trkpt>
      <trkpt lat="43.18303" lon="5.90062">
        <ele>697.59997558594</ele>
        <time>2016-05-15T09:25:35.000Z</time>
      </trkpt>
      <trkpt lat="43.18297" lon="5.90047">
        <ele>696.40002441406</ele>
        <time>2016-05-15T09:25:37.000Z</time>
      </trkpt>
      <trkpt lat="43.18295" lon="5.9004">
        <ele>696.20001220703</ele>
        <time>2016-05-15T09:25:38.000Z</time>
      </trkpt>
      <trkpt lat="43.18294" lon="5.90034">
        <ele>696</ele>
        <time>2016-05-15T09:25:39.000Z</time>
      </trkpt>
      <trkpt lat="43.18294" lon="5.90019">
        <ele>696.59997558594</ele>
        <time>2016-05-15T09:25:41.000Z</time>
      </trkpt>
      <trkpt lat="43.18295" lon="5.90007">
        <ele>697.20001220703</ele>
        <time>2016-05-15T09:25:43.000Z</time>
      </trkpt>
      <trkpt lat="43.18291" lon="5.9">
        <ele>695.79998779297</ele>
        <time>2016-05-15T09:25:45.000Z</time>
      </trkpt>
      <trkpt lat="43.18289" lon="5.89997">
        <ele>695.20001220703</ele>
        <time>2016-05-15T09:25:46.000Z</time>
      </trkpt>
      <trkpt lat="43.18287" lon="5.89996">
        <ele>695.20001220703</ele>
        <time>2016-05-15T09:25:47.000Z</time>
      </trkpt>
      <trkpt lat="43.18285" lon="5.89999">
        <ele>695</ele>
        <time>2016-05-15T09:26:25.000Z</time>
      </trkpt>
      <trkpt lat="43.18283" lon="5.90008">
        <ele>694.20001220703</ele>
        <time>2016-05-15T09:26:28.000Z</time>
      </trkpt>
      <trkpt lat="43.18278" lon="5.90036">
        <ele>691.79998779297</ele>
        <time>2016-05-15T09:26:33.000Z</time>
      </trkpt>
      <trkpt lat="43.18276" lon="5.90077">
        <ele>691</ele>
        <time>2016-05-15T09:26:38.000Z</time>
      </trkpt>
      <trkpt lat="43.1828" lon="5.90095">
        <ele>690.79998779297</ele>
        <time>2016-05-15T09:26:40.000Z</time>
      </trkpt>
      <trkpt lat="43.18285" lon="5.9012">
        <ele>690.79998779297</ele>
        <time>2016-05-15T09:26:43.000Z</time>
      </trkpt>
      <trkpt lat="43.18287" lon="5.90128">
        <ele>690.79998779297</ele>
        <time>2016-05-15T09:26:44.000Z</time>
      </trkpt>
      <trkpt lat="43.18292" lon="5.9016">
        <ele>692.79998779297</ele>
        <time>2016-05-15T09:26:48.000Z</time>
      </trkpt>
      <trkpt lat="43.18295" lon="5.90184">
        <ele>695.20001220703</ele>
        <time>2016-05-15T09:26:51.000Z</time>
      </trkpt>
      <trkpt lat="43.18295" lon="5.90192">
        <ele>695.40002441406</ele>
        <time>2016-05-15T09:26:52.000Z</time>
      </trkpt>
      <trkpt lat="43.18294" lon="5.902">
        <ele>695.40002441406</ele>
        <time>2016-05-15T09:26:53.000Z</time>
      </trkpt>
      <trkpt lat="43.18291" lon="5.90216">
        <ele>695</ele>
        <time>2016-05-15T09:26:55.000Z</time>
      </trkpt>
      <trkpt lat="43.18288" lon="5.90223">
        <ele>694.40002441406</ele>
        <time>2016-05-15T09:26:56.000Z</time>
      </trkpt>
      <trkpt lat="43.18286" lon="5.90231">
        <ele>694.20001220703</ele>
        <time>2016-05-15T09:26:57.000Z</time>
      </trkpt>
      <trkpt lat="43.18282" lon="5.90245">
        <ele>694.40002441406</ele>
        <time>2016-05-15T09:26:59.000Z</time>
      </trkpt>
      <trkpt lat="43.18278" lon="5.9026">
        <ele>692.40002441406</ele>
        <time>2016-05-15T09:27:01.000Z</time>
      </trkpt>
      <trkpt lat="43.18276" lon="5.90266">
        <ele>691.59997558594</ele>
        <time>2016-05-15T09:27:02.000Z</time>
      </trkpt>
      <trkpt lat="43.1827" lon="5.90286">
        <ele>689</ele>
        <time>2016-05-15T09:27:05.000Z</time>
      </trkpt>
      <trkpt lat="43.18264" lon="5.90306">
        <ele>686.20001220703</ele>
        <time>2016-05-15T09:27:08.000Z</time>
      </trkpt>
      <trkpt lat="43.18261" lon="5.90324">
        <ele>684.40002441406</ele>
        <time>2016-05-15T09:27:10.000Z</time>
      </trkpt>
      <trkpt lat="43.18261" lon="5.90333">
        <ele>684</ele>
        <time>2016-05-15T09:27:11.000Z</time>
      </trkpt>
      <trkpt lat="43.1826" lon="5.90342">
        <ele>683.20001220703</ele>
        <time>2016-05-15T09:27:12.000Z</time>
      </trkpt>
      <trkpt lat="43.18256" lon="5.90367">
        <ele>680.79998779297</ele>
        <time>2016-05-15T09:27:15.000Z</time>
      </trkpt>
      <trkpt lat="43.18254" lon="5.90384">
        <ele>679</ele>
        <time>2016-05-15T09:27:17.000Z</time>
      </trkpt>
      <trkpt lat="43.18252" lon="5.90401">
        <ele>676.79998779297</ele>
        <time>2016-05-15T09:27:19.000Z</time>
      </trkpt>
      <trkpt lat="43.18251" lon="5.90427">
        <ele>675</ele>
        <time>2016-05-15T09:27:22.000Z</time>
      </trkpt>
      <trkpt lat="43.18252" lon="5.90443">
        <ele>674.40002441406</ele>
        <time>2016-05-15T09:27:24.000Z</time>
      </trkpt>
      <trkpt lat="43.18252" lon="5.90459">
        <ele>673.79998779297</ele>
        <time>2016-05-15T09:27:26.000Z</time>
      </trkpt>
      <trkpt lat="43.18252" lon="5.90467">
        <ele>673.79998779297</ele>
        <time>2016-05-15T09:27:27.000Z</time>
      </trkpt>
      <trkpt lat="43.18253" lon="5.90491">
        <ele>672.79998779297</ele>
        <time>2016-05-15T09:27:30.000Z</time>
      </trkpt>
      <trkpt lat="43.18254" lon="5.90507">
        <ele>672.59997558594</ele>
        <time>2016-05-15T09:27:32.000Z</time>
      </trkpt>
      <trkpt lat="43.18255" lon="5.90513">
        <ele>672.59997558594</ele>
        <time>2016-05-15T09:27:33.000Z</time>
      </trkpt>
      <trkpt lat="43.18256" lon="5.90519">
        <ele>673.20001220703</ele>
        <time>2016-05-15T09:27:34.000Z</time>
      </trkpt>
      <trkpt lat="43.18257" lon="5.90524">
        <ele>673.20001220703</ele>
        <time>2016-05-15T09:27:35.000Z</time>
      </trkpt>
      <trkpt lat="43.18254" lon="5.90531">
        <ele>671</ele>
        <time>2016-05-15T09:27:37.000Z</time>
      </trkpt>
      <trkpt lat="43.18248" lon="5.90521">
        <ele>668.20001220703</ele>
        <time>2016-05-15T09:27:39.000Z</time>
      </trkpt>
      <trkpt lat="43.18247" lon="5.90507">
        <ele>668.40002441406</ele>
        <time>2016-05-15T09:27:41.000Z</time>
      </trkpt>
      <trkpt lat="43.18247" lon="5.90499">
        <ele>668.79998779297</ele>
        <time>2016-05-15T09:27:42.000Z</time>
      </trkpt>
      <trkpt lat="43.18247" lon="5.90491">
        <ele>669.20001220703</ele>
        <time>2016-05-15T09:27:43.000Z</time>
      </trkpt>
      <trkpt lat="43.18245" lon="5.90472">
        <ele>669.20001220703</ele>
        <time>2016-05-15T09:27:45.000Z</time>
      </trkpt>
      <trkpt lat="43.18243" lon="5.90454">
        <ele>668.40002441406</ele>
        <time>2016-05-15T09:27:47.000Z</time>
      </trkpt>
      <trkpt lat="43.1824" lon="5.90445">
        <ele>667.20001220703</ele>
        <time>2016-05-15T09:27:48.000Z</time>
      </trkpt>
      <trkpt lat="43.18237" lon="5.90436">
        <ele>665.79998779297</ele>
        <time>2016-05-15T09:27:49.000Z</time>
      </trkpt>
      <trkpt lat="43.18232" lon="5.90419">
        <ele>663.20001220703</ele>
        <time>2016-05-15T09:27:51.000Z</time>
      </trkpt>
      <trkpt lat="43.1823" lon="5.9041">
        <ele>662.40002441406</ele>
        <time>2016-05-15T09:27:52.000Z</time>
      </trkpt>
      <trkpt lat="43.18226" lon="5.90393">
        <ele>660.59997558594</ele>
        <time>2016-05-15T09:27:54.000Z</time>
      </trkpt>
      <trkpt lat="43.18221" lon="5.90376">
        <ele>659.20001220703</ele>
        <time>2016-05-15T09:27:56.000Z</time>
      </trkpt>
      <trkpt lat="43.18215" lon="5.90359">
        <ele>657.20001220703</ele>
        <time>2016-05-15T09:27:58.000Z</time>
      </trkpt>
      <trkpt lat="43.18212" lon="5.9035">
        <ele>656.20001220703</ele>
        <time>2016-05-15T09:27:59.000Z</time>
      </trkpt>
      <trkpt lat="43.18204" lon="5.90325">
        <ele>653.79998779297</ele>
        <time>2016-05-15T09:28:02.000Z</time>
      </trkpt>
      <trkpt lat="43.182" lon="5.90297">
        <ele>651.59997558594</ele>
        <time>2016-05-15T09:28:05.000Z</time>
      </trkpt>
      <trkpt lat="43.18199" lon="5.90278">
        <ele>650.59997558594</ele>
        <time>2016-05-15T09:28:07.000Z</time>
      </trkpt>
      <trkpt lat="43.182" lon="5.90268">
        <ele>651</ele>
        <time>2016-05-15T09:28:08.000Z</time>
      </trkpt>
      <trkpt lat="43.18202" lon="5.90259">
        <ele>651.59997558594</ele>
        <time>2016-05-15T09:28:09.000Z</time>
      </trkpt>
      <trkpt lat="43.18203" lon="5.90249">
        <ele>651.79998779297</ele>
        <time>2016-05-15T09:28:10.000Z</time>
      </trkpt>
      <trkpt lat="43.18205" lon="5.90231">
        <ele>652.79998779297</ele>
        <time>2016-05-15T09:28:12.000Z</time>
      </trkpt>
      <trkpt lat="43.18207" lon="5.90212">
        <ele>654.20001220703</ele>
        <time>2016-05-15T09:28:14.000Z</time>
      </trkpt>
      <trkpt lat="43.18208" lon="5.90195">
        <ele>654.79998779297</ele>
        <time>2016-05-15T09:28:16.000Z</time>
      </trkpt>
      <trkpt lat="43.18206" lon="5.90186">
        <ele>654</ele>
        <time>2016-05-15T09:28:17.000Z</time>
      </trkpt>
      <trkpt lat="43.18204" lon="5.90178">
        <ele>652.59997558594</ele>
        <time>2016-05-15T09:28:18.000Z</time>
      </trkpt>
      <trkpt lat="43.18196" lon="5.90161">
        <ele>648.59997558594</ele>
        <time>2016-05-15T09:28:20.000Z</time>
      </trkpt>
      <trkpt lat="43.18192" lon="5.90153">
        <ele>646.40002441406</ele>
        <time>2016-05-15T09:28:21.000Z</time>
      </trkpt>
      <trkpt lat="43.18188" lon="5.90144">
        <ele>644</ele>
        <time>2016-05-15T09:28:22.000Z</time>
      </trkpt>
      <trkpt lat="43.1818" lon="5.90128">
        <ele>641</ele>
        <time>2016-05-15T09:28:24.000Z</time>
      </trkpt>
      <trkpt lat="43.18173" lon="5.90111">
        <ele>639.20001220703</ele>
        <time>2016-05-15T09:28:26.000Z</time>
      </trkpt>
      <trkpt lat="43.18169" lon="5.90093">
        <ele>638.40002441406</ele>
        <time>2016-05-15T09:28:28.000Z</time>
      </trkpt>
      <trkpt lat="43.18167" lon="5.90084">
        <ele>638.40002441406</ele>
        <time>2016-05-15T09:28:29.000Z</time>
      </trkpt>
      <trkpt lat="43.18164" lon="5.90058">
        <ele>639</ele>
        <time>2016-05-15T09:28:32.000Z</time>
      </trkpt>
      <trkpt lat="43.18163" lon="5.90049">
        <ele>640.59997558594</ele>
        <time>2016-05-15T09:28:33.000Z</time>
      </trkpt>
      <trkpt lat="43.18164" lon="5.90031">
        <ele>643.40002441406</ele>
        <time>2016-05-15T09:28:35.000Z</time>
      </trkpt>
      <trkpt lat="43.18163" lon="5.90015">
        <ele>645</ele>
        <time>2016-05-15T09:28:37.000Z</time>
      </trkpt>
      <trkpt lat="43.18162" lon="5.90007">
        <ele>645.40002441406</ele>
        <time>2016-05-15T09:28:38.000Z</time>
      </trkpt>
      <trkpt lat="43.18159" lon="5.9">
        <ele>644.79998779297</ele>
        <time>2016-05-15T09:28:39.000Z</time>
      </trkpt>
      <trkpt lat="43.18148" lon="5.8999">
        <ele>641.40002441406</ele>
        <time>2016-05-15T09:28:41.000Z</time>
      </trkpt>
      <trkpt lat="43.18142" lon="5.89986">
        <ele>638.79998779297</ele>
        <time>2016-05-15T09:28:42.000Z</time>
      </trkpt>
      <trkpt lat="43.18128" lon="5.89981">
        <ele>633.40002441406</ele>
        <time>2016-05-15T09:28:44.000Z</time>
      </trkpt>
      <trkpt lat="43.18115" lon="5.89976">
        <ele>628.20001220703</ele>
        <time>2016-05-15T09:28:46.000Z</time>
      </trkpt>
      <trkpt lat="43.18108" lon="5.89973">
        <ele>625.79998779297</ele>
        <time>2016-05-15T09:28:47.000Z</time>
      </trkpt>
      <trkpt lat="43.18101" lon="5.8997">
        <ele>624</ele>
        <time>2016-05-15T09:28:48.000Z</time>
      </trkpt>
      <trkpt lat="43.18088" lon="5.89962">
        <ele>622.40002441406</ele>
        <time>2016-05-15T09:28:50.000Z</time>
      </trkpt>
      <trkpt lat="43.18077" lon="5.89955">
        <ele>622.20001220703</ele>
        <time>2016-05-15T09:28:52.000Z</time>
      </trkpt>
      <trkpt lat="43.18071" lon="5.89951">
        <ele>622.20001220703</ele>
        <time>2016-05-15T09:28:53.000Z</time>
      </trkpt>
      <trkpt lat="43.18062" lon="5.89942">
        <ele>623.20001220703</ele>
        <time>2016-05-15T09:28:55.000Z</time>
      </trkpt>
      <trkpt lat="43.18059" lon="5.89937">
        <ele>624.40002441406</ele>
        <time>2016-05-15T09:28:56.000Z</time>
      </trkpt>
      <trkpt lat="43.18056" lon="5.89932">
        <ele>625.40002441406</ele>
        <time>2016-05-15T09:28:57.000Z</time>
      </trkpt>
      <trkpt lat="43.18054" lon="5.89928">
        <ele>625.79998779297</ele>
        <time>2016-05-15T09:28:58.000Z</time>
      </trkpt>
      <trkpt lat="43.18048" lon="5.89928">
        <ele>624.40002441406</ele>
        <time>2016-05-15T09:29:00.000Z</time>
      </trkpt>
      <trkpt lat="43.18046" lon="5.8993">
        <ele>622.79998779297</ele>
        <time>2016-05-15T09:29:01.000Z</time>
      </trkpt>
      <trkpt lat="43.18047" lon="5.89939">
        <ele>619.59997558594</ele>
        <time>2016-05-15T09:29:03.000Z</time>
      </trkpt>
      <trkpt lat="43.1805" lon="5.89943">
        <ele>618.79998779297</ele>
        <time>2016-05-15T09:29:04.000Z</time>
      </trkpt>
      <trkpt lat="43.18056" lon="5.89952">
        <ele>617</ele>
        <time>2016-05-15T09:29:06.000Z</time>
      </trkpt>
      <trkpt lat="43.18069" lon="5.89968">
        <ele>614.20001220703</ele>
        <time>2016-05-15T09:29:09.000Z</time>
      </trkpt>
      <trkpt lat="43.18078" lon="5.8998">
        <ele>613.20001220703</ele>
        <time>2016-05-15T09:29:11.000Z</time>
      </trkpt>
      <trkpt lat="43.18098" lon="5.90002">
        <ele>615.20001220703</ele>
        <time>2016-05-15T09:29:15.000Z</time>
      </trkpt>
      <trkpt lat="43.18108" lon="5.9001">
        <ele>618.79998779297</ele>
        <time>2016-05-15T09:29:17.000Z</time>
      </trkpt>
      <trkpt lat="43.18117" lon="5.90018">
        <ele>622</ele>
        <time>2016-05-15T09:29:19.000Z</time>
      </trkpt>
      <trkpt lat="43.18123" lon="5.90027">
        <ele>623.79998779297</ele>
        <time>2016-05-15T09:29:21.000Z</time>
      </trkpt>
      <trkpt lat="43.18125" lon="5.90038">
        <ele>621.79998779297</ele>
        <time>2016-05-15T09:29:23.000Z</time>
      </trkpt>
      <trkpt lat="43.18123" lon="5.90045">
        <ele>619.59997558594</ele>
        <time>2016-05-15T09:29:24.000Z</time>
      </trkpt>
      <trkpt lat="43.18122" lon="5.90052">
        <ele>617</ele>
        <time>2016-05-15T09:29:25.000Z</time>
      </trkpt>
      <trkpt lat="43.18118" lon="5.90064">
        <ele>613.40002441406</ele>
        <time>2016-05-15T09:29:27.000Z</time>
      </trkpt>
      <trkpt lat="43.18114" lon="5.90076">
        <ele>610</ele>
        <time>2016-05-15T09:29:29.000Z</time>
      </trkpt>
      <trkpt lat="43.18108" lon="5.90092">
        <ele>605.59997558594</ele>
        <time>2016-05-15T09:29:32.000Z</time>
      </trkpt>
      <trkpt lat="43.18105" lon="5.90104">
        <ele>603.59997558594</ele>
        <time>2016-05-15T09:29:34.000Z</time>
      </trkpt>
      <trkpt lat="43.18105" lon="5.9011">
        <ele>603</ele>
        <time>2016-05-15T09:29:35.000Z</time>
      </trkpt>
      <trkpt lat="43.18105" lon="5.90118">
        <ele>602.59997558594</ele>
        <time>2016-05-15T09:29:36.000Z</time>
      </trkpt>
      <trkpt lat="43.18107" lon="5.90134">
        <ele>602.59997558594</ele>
        <time>2016-05-15T09:29:38.000Z</time>
      </trkpt>
      <trkpt lat="43.18113" lon="5.90156">
        <ele>605.20001220703</ele>
        <time>2016-05-15T09:29:41.000Z</time>
      </trkpt>
      <trkpt lat="43.18119" lon="5.90177">
        <ele>608.40002441406</ele>
        <time>2016-05-15T09:29:44.000Z</time>
      </trkpt>
      <trkpt lat="43.18125" lon="5.90197">
        <ele>611</ele>
        <time>2016-05-15T09:29:47.000Z</time>
      </trkpt>
      <trkpt lat="43.18126" lon="5.90203">
        <ele>611.20001220703</ele>
        <time>2016-05-15T09:29:48.000Z</time>
      </trkpt>
      <trkpt lat="43.18125" lon="5.90208">
        <ele>610.59997558594</ele>
        <time>2016-05-15T09:29:49.000Z</time>
      </trkpt>
      <trkpt lat="43.18121" lon="5.90218">
        <ele>608.79998779297</ele>
        <time>2016-05-15T09:29:51.000Z</time>
      </trkpt>
      <trkpt lat="43.18115" lon="5.90226">
        <ele>605.40002441406</ele>
        <time>2016-05-15T09:29:53.000Z</time>
      </trkpt>
      <trkpt lat="43.18111" lon="5.9023">
        <ele>603.59997558594</ele>
        <time>2016-05-15T09:29:54.000Z</time>
      </trkpt>
      <trkpt lat="43.18108" lon="5.90234">
        <ele>601.79998779297</ele>
        <time>2016-05-15T09:29:55.000Z</time>
      </trkpt>
      <trkpt lat="43.18104" lon="5.90239">
        <ele>600.20001220703</ele>
        <time>2016-05-15T09:29:56.000Z</time>
      </trkpt>
      <trkpt lat="43.18101" lon="5.90243">
        <ele>599</ele>
        <time>2016-05-15T09:29:57.000Z</time>
      </trkpt>
      <trkpt lat="43.18095" lon="5.9026">
        <ele>596.40002441406</ele>
        <time>2016-05-15T09:30:00.000Z</time>
      </trkpt>
      <trkpt lat="43.18093" lon="5.90266">
        <ele>595.79998779297</ele>
        <time>2016-05-15T09:30:01.000Z</time>
      </trkpt>
      <trkpt lat="43.18092" lon="5.90282">
        <ele>595.79998779297</ele>
        <time>2016-05-15T09:30:03.000Z</time>
      </trkpt>
      <trkpt lat="43.18091" lon="5.90297">
        <ele>596</ele>
        <time>2016-05-15T09:30:05.000Z</time>
      </trkpt>
      <trkpt lat="43.1809" lon="5.90327">
        <ele>594</ele>
        <time>2016-05-15T09:30:09.000Z</time>
      </trkpt>
      <trkpt lat="43.18089" lon="5.90341">
        <ele>592.59997558594</ele>
        <time>2016-05-15T09:30:11.000Z</time>
      </trkpt>
      <trkpt lat="43.18089" lon="5.90355">
        <ele>591.40002441406</ele>
        <time>2016-05-15T09:30:13.000Z</time>
      </trkpt>
      <trkpt lat="43.18089" lon="5.90362">
        <ele>591</ele>
        <time>2016-05-15T09:30:14.000Z</time>
      </trkpt>
      <trkpt lat="43.1809" lon="5.90383">
        <ele>590.20001220703</ele>
        <time>2016-05-15T09:30:17.000Z</time>
      </trkpt>
      <trkpt lat="43.18092" lon="5.90398">
        <ele>590.20001220703</ele>
        <time>2016-05-15T09:30:19.000Z</time>
      </trkpt>
      <trkpt lat="43.18093" lon="5.90413">
        <ele>590.20001220703</ele>
        <time>2016-05-15T09:30:21.000Z</time>
      </trkpt>
      <trkpt lat="43.18093" lon="5.9042">
        <ele>590</ele>
        <time>2016-05-15T09:30:22.000Z</time>
      </trkpt>
      <trkpt lat="43.18092" lon="5.9044">
        <ele>588.59997558594</ele>
        <time>2016-05-15T09:30:25.000Z</time>
      </trkpt>
      <trkpt lat="43.1809" lon="5.90454">
        <ele>587.59997558594</ele>
        <time>2016-05-15T09:30:27.000Z</time>
      </trkpt>
      <trkpt lat="43.1809" lon="5.90462">
        <ele>587</ele>
        <time>2016-05-15T09:30:28.000Z</time>
      </trkpt>
      <trkpt lat="43.18089" lon="5.90469">
        <ele>586.40002441406</ele>
        <time>2016-05-15T09:30:29.000Z</time>
      </trkpt>
      <trkpt lat="43.18087" lon="5.90475">
        <ele>586.40002441406</ele>
        <time>2016-05-15T09:30:30.000Z</time>
      </trkpt>
      <trkpt lat="43.18083" lon="5.90487">
        <ele>585.20001220703</ele>
        <time>2016-05-15T09:30:32.000Z</time>
      </trkpt>
      <trkpt lat="43.18081" lon="5.90494">
        <ele>584.79998779297</ele>
        <time>2016-05-15T09:30:33.000Z</time>
      </trkpt>
      <trkpt lat="43.18078" lon="5.90508">
        <ele>584.20001220703</ele>
        <time>2016-05-15T09:30:35.000Z</time>
      </trkpt>
      <trkpt lat="43.18076" lon="5.90529">
        <ele>584</ele>
        <time>2016-05-15T09:30:38.000Z</time>
      </trkpt>
      <trkpt lat="43.18075" lon="5.90536">
        <ele>584</ele>
        <time>2016-05-15T09:30:39.000Z</time>
      </trkpt>
      <trkpt lat="43.18076" lon="5.9055">
        <ele>586</ele>
        <time>2016-05-15T09:30:41.000Z</time>
      </trkpt>
      <trkpt lat="43.18077" lon="5.90564">
        <ele>587.20001220703</ele>
        <time>2016-05-15T09:30:43.000Z</time>
      </trkpt>
      <trkpt lat="43.18076" lon="5.9057">
        <ele>587</ele>
        <time>2016-05-15T09:30:44.000Z</time>
      </trkpt>
      <trkpt lat="43.18071" lon="5.90578">
        <ele>586</ele>
        <time>2016-05-15T09:30:46.000Z</time>
      </trkpt>
      <trkpt lat="43.18068" lon="5.9058">
        <ele>585.20001220703</ele>
        <time>2016-05-15T09:30:47.000Z</time>
      </trkpt>
      <trkpt lat="43.1806" lon="5.90582">
        <ele>583</ele>
        <time>2016-05-15T09:30:49.000Z</time>
      </trkpt>
      <trkpt lat="43.18051" lon="5.90583">
        <ele>580.59997558594</ele>
        <time>2016-05-15T09:30:51.000Z</time>
      </trkpt>
      <trkpt lat="43.18047" lon="5.90584">
        <ele>579.59997558594</ele>
        <time>2016-05-15T09:30:52.000Z</time>
      </trkpt>
      <trkpt lat="43.18039" lon="5.90585">
        <ele>577.40002441406</ele>
        <time>2016-05-15T09:30:54.000Z</time>
      </trkpt>
      <trkpt lat="43.18028" lon="5.9059">
        <ele>573.79998779297</ele>
        <time>2016-05-15T09:30:57.000Z</time>
      </trkpt>
      <trkpt lat="43.18024" lon="5.90592">
        <ele>572.79998779297</ele>
        <time>2016-05-15T09:30:58.000Z</time>
      </trkpt>
      <trkpt lat="43.18017" lon="5.90603">
        <ele>570.59997558594</ele>
        <time>2016-05-15T09:31:01.000Z</time>
      </trkpt>
      <trkpt lat="43.18015" lon="5.90607">
        <ele>570.20001220703</ele>
        <time>2016-05-15T09:31:02.000Z</time>
      </trkpt>
      <trkpt lat="43.18013" lon="5.90616">
        <ele>569.40002441406</ele>
        <time>2016-05-15T09:31:04.000Z</time>
      </trkpt>
      <trkpt lat="43.18006" lon="5.9062">
        <ele>568.40002441406</ele>
        <time>2016-05-15T09:31:07.000Z</time>
      </trkpt>
      <trkpt lat="43.18003" lon="5.90617">
        <ele>568</ele>
        <time>2016-05-15T09:31:08.000Z</time>
      </trkpt>
      <trkpt lat="43.18001" lon="5.90608">
        <ele>567.59997558594</ele>
        <time>2016-05-15T09:31:10.000Z</time>
      </trkpt>
      <trkpt lat="43.18003" lon="5.90588">
        <ele>567.79998779297</ele>
        <time>2016-05-15T09:31:13.000Z</time>
      </trkpt>
      <trkpt lat="43.18005" lon="5.9058">
        <ele>568.20001220703</ele>
        <time>2016-05-15T09:31:14.000Z</time>
      </trkpt>
      <trkpt lat="43.1802" lon="5.90566">
        <ele>571.59997558594</ele>
        <time>2016-05-15T09:31:17.000Z</time>
      </trkpt>
      <trkpt lat="43.18026" lon="5.90563">
        <ele>573.20001220703</ele>
        <time>2016-05-15T09:31:18.000Z</time>
      </trkpt>
      <trkpt lat="43.18032" lon="5.9056">
        <ele>574.59997558594</ele>
        <time>2016-05-15T09:31:19.000Z</time>
      </trkpt>
      <trkpt lat="43.18045" lon="5.9055">
        <ele>577.40002441406</ele>
        <time>2016-05-15T09:31:22.000Z</time>
      </trkpt>
      <trkpt lat="43.18047" lon="5.90544">
        <ele>577.20001220703</ele>
        <time>2016-05-15T09:31:23.000Z</time>
      </trkpt>
      <trkpt lat="43.18048" lon="5.90536">
        <ele>576.20001220703</ele>
        <time>2016-05-15T09:31:24.000Z</time>
      </trkpt>
      <trkpt lat="43.18044" lon="5.90521">
        <ele>573.20001220703</ele>
        <time>2016-05-15T09:31:26.000Z</time>
      </trkpt>
      <trkpt lat="43.18042" lon="5.90514">
        <ele>571.79998779297</ele>
        <time>2016-05-15T09:31:27.000Z</time>
      </trkpt>
      <trkpt lat="43.1804" lon="5.90507">
        <ele>570.20001220703</ele>
        <time>2016-05-15T09:31:28.000Z</time>
      </trkpt>
      <trkpt lat="43.18033" lon="5.90476">
        <ele>566.20001220703</ele>
        <time>2016-05-15T09:31:32.000Z</time>
      </trkpt>
      <trkpt lat="43.18033" lon="5.90467">
        <ele>565.59997558594</ele>
        <time>2016-05-15T09:31:33.000Z</time>
      </trkpt>
      <trkpt lat="43.18033" lon="5.90459">
        <ele>564.59997558594</ele>
        <time>2016-05-15T09:31:34.000Z</time>
      </trkpt>
      <trkpt lat="43.18032" lon="5.90441">
        <ele>562.79998779297</ele>
        <time>2016-05-15T09:31:36.000Z</time>
      </trkpt>
      <trkpt lat="43.18027" lon="5.90424">
        <ele>559.59997558594</ele>
        <time>2016-05-15T09:31:38.000Z</time>
      </trkpt>
      <trkpt lat="43.18021" lon="5.90418">
        <ele>557</ele>
        <time>2016-05-15T09:31:39.000Z</time>
      </trkpt>
      <trkpt lat="43.18011" lon="5.90404">
        <ele>552</ele>
        <time>2016-05-15T09:31:41.000Z</time>
      </trkpt>
      <trkpt lat="43.18002" lon="5.90386">
        <ele>548</ele>
        <time>2016-05-15T09:31:43.000Z</time>
      </trkpt>
      <trkpt lat="43.17998" lon="5.90377">
        <ele>545.40002441406</ele>
        <time>2016-05-15T09:31:44.000Z</time>
      </trkpt>
      <trkpt lat="43.17995" lon="5.90367">
        <ele>544.20001220703</ele>
        <time>2016-05-15T09:31:45.000Z</time>
      </trkpt>
      <trkpt lat="43.17988" lon="5.90348">
        <ele>541.79998779297</ele>
        <time>2016-05-15T09:31:47.000Z</time>
      </trkpt>
      <trkpt lat="43.17982" lon="5.90328">
        <ele>540</ele>
        <time>2016-05-15T09:31:49.000Z</time>
      </trkpt>
      <trkpt lat="43.1798" lon="5.90318">
        <ele>539.79998779297</ele>
        <time>2016-05-15T09:31:50.000Z</time>
      </trkpt>
      <trkpt lat="43.1798" lon="5.90307">
        <ele>540</ele>
        <time>2016-05-15T09:31:51.000Z</time>
      </trkpt>
      <trkpt lat="43.17978" lon="5.90285">
        <ele>538.79998779297</ele>
        <time>2016-05-15T09:31:53.000Z</time>
      </trkpt>
      <trkpt lat="43.17977" lon="5.90263">
        <ele>538.20001220703</ele>
        <time>2016-05-15T09:31:55.000Z</time>
      </trkpt>
      <trkpt lat="43.17973" lon="5.90241">
        <ele>536.79998779297</ele>
        <time>2016-05-15T09:31:57.000Z</time>
      </trkpt>
      <trkpt lat="43.17969" lon="5.9023">
        <ele>535</ele>
        <time>2016-05-15T09:31:58.000Z</time>
      </trkpt>
      <trkpt lat="43.17962" lon="5.90211">
        <ele>533.20001220703</ele>
        <time>2016-05-15T09:32:00.000Z</time>
      </trkpt>
      <trkpt lat="43.17955" lon="5.90195">
        <ele>531.20001220703</ele>
        <time>2016-05-15T09:32:02.000Z</time>
      </trkpt>
      <trkpt lat="43.1795" lon="5.90188">
        <ele>529.59997558594</ele>
        <time>2016-05-15T09:32:03.000Z</time>
      </trkpt>
      <trkpt lat="43.17946" lon="5.90182">
        <ele>527.79998779297</ele>
        <time>2016-05-15T09:32:04.000Z</time>
      </trkpt>
      <trkpt lat="43.17943" lon="5.90177">
        <ele>526.79998779297</ele>
        <time>2016-05-15T09:32:05.000Z</time>
      </trkpt>
      <trkpt lat="43.17941" lon="5.90163">
        <ele>527.40002441406</ele>
        <time>2016-05-15T09:32:07.000Z</time>
      </trkpt>
      <trkpt lat="43.17947" lon="5.9015">
        <ele>531.59997558594</ele>
        <time>2016-05-15T09:32:09.000Z</time>
      </trkpt>
      <trkpt lat="43.17952" lon="5.90144">
        <ele>533.59997558594</ele>
        <time>2016-05-15T09:32:10.000Z</time>
      </trkpt>
      <trkpt lat="43.17956" lon="5.90139">
        <ele>536</ele>
        <time>2016-05-15T09:32:11.000Z</time>
      </trkpt>
      <trkpt lat="43.1796" lon="5.90133">
        <ele>539.40002441406</ele>
        <time>2016-05-15T09:32:12.000Z</time>
      </trkpt>
      <trkpt lat="43.17963" lon="5.90128">
        <ele>542.40002441406</ele>
        <time>2016-05-15T09:32:13.000Z</time>
      </trkpt>
      <trkpt lat="43.17963" lon="5.90122">
        <ele>544</ele>
        <time>2016-05-15T09:32:14.000Z</time>
      </trkpt>
      <trkpt lat="43.17955" lon="5.90111">
        <ele>543.79998779297</ele>
        <time>2016-05-15T09:32:16.000Z</time>
      </trkpt>
      <trkpt lat="43.1795" lon="5.90108">
        <ele>542</ele>
        <time>2016-05-15T09:32:17.000Z</time>
      </trkpt>
      <trkpt lat="43.17944" lon="5.90108">
        <ele>539.79998779297</ele>
        <time>2016-05-15T09:32:18.000Z</time>
      </trkpt>
      <trkpt lat="43.17932" lon="5.90107">
        <ele>534.59997558594</ele>
        <time>2016-05-15T09:32:20.000Z</time>
      </trkpt>
      <trkpt lat="43.17912" lon="5.90106">
        <ele>532.79998779297</ele>
        <time>2016-05-15T09:32:23.000Z</time>
      </trkpt>
      <trkpt lat="43.1789" lon="5.90104">
        <ele>532.20001220703</ele>
        <time>2016-05-15T09:32:26.000Z</time>
      </trkpt>
      <trkpt lat="43.17875" lon="5.90107">
        <ele>527</ele>
        <time>2016-05-15T09:32:28.000Z</time>
      </trkpt>
      <trkpt lat="43.17867" lon="5.9011">
        <ele>523.40002441406</ele>
        <time>2016-05-15T09:32:29.000Z</time>
      </trkpt>
      <trkpt lat="43.17859" lon="5.90114">
        <ele>519.40002441406</ele>
        <time>2016-05-15T09:32:30.000Z</time>
      </trkpt>
      <trkpt lat="43.17851" lon="5.90117">
        <ele>515.79998779297</ele>
        <time>2016-05-15T09:32:31.000Z</time>
      </trkpt>
      <trkpt lat="43.17837" lon="5.90123">
        <ele>509.39999389648</ele>
        <time>2016-05-15T09:32:33.000Z</time>
      </trkpt>
      <trkpt lat="43.17822" lon="5.90129">
        <ele>505.20001220703</ele>
        <time>2016-05-15T09:32:35.000Z</time>
      </trkpt>
      <trkpt lat="43.17815" lon="5.9013">
        <ele>504</ele>
        <time>2016-05-15T09:32:36.000Z</time>
      </trkpt>
      <trkpt lat="43.17806" lon="5.90131">
        <ele>502.79998779297</ele>
        <time>2016-05-15T09:32:37.000Z</time>
      </trkpt>
      <trkpt lat="43.17791" lon="5.90132">
        <ele>500.79998779297</ele>
        <time>2016-05-15T09:32:39.000Z</time>
      </trkpt>
      <trkpt lat="43.17776" lon="5.90134">
        <ele>499</ele>
        <time>2016-05-15T09:32:41.000Z</time>
      </trkpt>
      <trkpt lat="43.17762" lon="5.90134">
        <ele>497.79998779297</ele>
        <time>2016-05-15T09:32:43.000Z</time>
      </trkpt>
      <trkpt lat="43.17746" lon="5.90131">
        <ele>496</ele>
        <time>2016-05-15T09:32:45.000Z</time>
      </trkpt>
      <trkpt lat="43.17738" lon="5.9013">
        <ele>495.60000610352</ele>
        <time>2016-05-15T09:32:46.000Z</time>
      </trkpt>
      <trkpt lat="43.17731" lon="5.90128">
        <ele>495.20001220703</ele>
        <time>2016-05-15T09:32:47.000Z</time>
      </trkpt>
      <trkpt lat="43.17718" lon="5.90126">
        <ele>494.39999389648</ele>
        <time>2016-05-15T09:32:49.000Z</time>
      </trkpt>
      <trkpt lat="43.17706" lon="5.90123">
        <ele>493.79998779297</ele>
        <time>2016-05-15T09:32:51.000Z</time>
      </trkpt>
      <trkpt lat="43.17699" lon="5.90122">
        <ele>493.60000610352</ele>
        <time>2016-05-15T09:32:52.000Z</time>
      </trkpt>
      <trkpt lat="43.17693" lon="5.9012">
        <ele>493.20001220703</ele>
        <time>2016-05-15T09:32:53.000Z</time>
      </trkpt>
      <trkpt lat="43.17682" lon="5.90118">
        <ele>492.79998779297</ele>
        <time>2016-05-15T09:32:55.000Z</time>
      </trkpt>
      <trkpt lat="43.17668" lon="5.90115">
        <ele>489.60000610352</ele>
        <time>2016-05-15T09:32:58.000Z</time>
      </trkpt>
      <trkpt lat="43.1766" lon="5.90114">
        <ele>487</ele>
        <time>2016-05-15T09:33:00.000Z</time>
      </trkpt>
      <trkpt lat="43.17654" lon="5.90113">
        <ele>485.20001220703</ele>
        <time>2016-05-15T09:33:02.000Z</time>
      </trkpt>
      <trkpt lat="43.17651" lon="5.90113">
        <ele>484.39999389648</ele>
        <time>2016-05-15T09:33:03.000Z</time>
      </trkpt>
      <trkpt lat="43.17648" lon="5.90111">
        <ele>483.60000610352</ele>
        <time>2016-05-15T09:33:04.000Z</time>
      </trkpt>
      <trkpt lat="43.17639" lon="5.90104">
        <ele>482.60000610352</ele>
        <time>2016-05-15T09:33:07.000Z</time>
      </trkpt>
      <trkpt lat="43.17635" lon="5.90102">
        <ele>482.20001220703</ele>
        <time>2016-05-15T09:33:08.000Z</time>
      </trkpt>
      <trkpt lat="43.17628" lon="5.90096">
        <ele>481.60000610352</ele>
        <time>2016-05-15T09:33:11.000Z</time>
      </trkpt>
      <trkpt lat="43.17624" lon="5.9009">
        <ele>482</ele>
        <time>2016-05-15T09:33:14.000Z</time>
      </trkpt>
      <trkpt lat="43.17624" lon="5.9009">
        <ele>482</ele>
        <time>2016-05-15T09:33:15.000Z</time>
      </trkpt>
      <trkpt lat="43.17625" lon="5.90089">
        <ele>482.39999389648</ele>
        <time>2016-05-15T09:35:20.000Z</time>
      </trkpt>
      <trkpt lat="43.17624" lon="5.90087">
        <ele>482.79998779297</ele>
        <time>2016-05-15T09:35:21.000Z</time>
      </trkpt>
      <trkpt lat="43.17621" lon="5.90074">
        <ele>485.79998779297</ele>
        <time>2016-05-15T09:35:24.000Z</time>
      </trkpt>
      <trkpt lat="43.17619" lon="5.90068">
        <ele>487</ele>
        <time>2016-05-15T09:35:25.000Z</time>
      </trkpt>
      <trkpt lat="43.17609" lon="5.90038">
        <ele>491</ele>
        <time>2016-05-15T09:35:29.000Z</time>
      </trkpt>
      <trkpt lat="43.17605" lon="5.90031">
        <ele>490.79998779297</ele>
        <time>2016-05-15T09:35:30.000Z</time>
      </trkpt>
      <trkpt lat="43.17595" lon="5.90022">
        <ele>488.79998779297</ele>
        <time>2016-05-15T09:35:32.000Z</time>
      </trkpt>
      <trkpt lat="43.17582" lon="5.90012">
        <ele>485.39999389648</ele>
        <time>2016-05-15T09:35:34.000Z</time>
      </trkpt>
      <trkpt lat="43.17576" lon="5.90007">
        <ele>483.79998779297</ele>
        <time>2016-05-15T09:35:35.000Z</time>
      </trkpt>
      <trkpt lat="43.1755" lon="5.89982">
        <ele>478</ele>
        <time>2016-05-15T09:35:39.000Z</time>
      </trkpt>
      <trkpt lat="43.17538" lon="5.89969">
        <ele>475.60000610352</ele>
        <time>2016-05-15T09:35:41.000Z</time>
      </trkpt>
      <trkpt lat="43.17533" lon="5.89961">
        <ele>474.60000610352</ele>
        <time>2016-05-15T09:35:42.000Z</time>
      </trkpt>
      <trkpt lat="43.17524" lon="5.89945">
        <ele>473.20001220703</ele>
        <time>2016-05-15T09:35:44.000Z</time>
      </trkpt>
      <trkpt lat="43.1752" lon="5.89936">
        <ele>472.79998779297</ele>
        <time>2016-05-15T09:35:45.000Z</time>
      </trkpt>
      <trkpt lat="43.17516" lon="5.89927">
        <ele>472.79998779297</ele>
        <time>2016-05-15T09:35:46.000Z</time>
      </trkpt>
      <trkpt lat="43.17514" lon="5.89907">
        <ele>474.60000610352</ele>
        <time>2016-05-15T09:35:48.000Z</time>
      </trkpt>
      <trkpt lat="43.17515" lon="5.89884">
        <ele>477.20001220703</ele>
        <time>2016-05-15T09:35:50.000Z</time>
      </trkpt>
      <trkpt lat="43.17517" lon="5.89872">
        <ele>477.39999389648</ele>
        <time>2016-05-15T09:35:51.000Z</time>
      </trkpt>
      <trkpt lat="43.17519" lon="5.89861">
        <ele>477.79998779297</ele>
        <time>2016-05-15T09:35:52.000Z</time>
      </trkpt>
      <trkpt lat="43.17523" lon="5.89839">
        <ele>478.39999389648</ele>
        <time>2016-05-15T09:35:54.000Z</time>
      </trkpt>
      <trkpt lat="43.17524" lon="5.89828">
        <ele>478.39999389648</ele>
        <time>2016-05-15T09:35:55.000Z</time>
      </trkpt>
      <trkpt lat="43.17524" lon="5.89817">
        <ele>478</ele>
        <time>2016-05-15T09:35:56.000Z</time>
      </trkpt>
      <trkpt lat="43.17521" lon="5.89797">
        <ele>477.39999389648</ele>
        <time>2016-05-15T09:35:58.000Z</time>
      </trkpt>
      <trkpt lat="43.17515" lon="5.8978">
        <ele>476.79998779297</ele>
        <time>2016-05-15T09:36:00.000Z</time>
      </trkpt>
      <trkpt lat="43.17507" lon="5.89767">
        <ele>475.39999389648</ele>
        <time>2016-05-15T09:36:02.000Z</time>
      </trkpt>
      <trkpt lat="43.17501" lon="5.89764">
        <ele>474.79998779297</ele>
        <time>2016-05-15T09:36:03.000Z</time>
      </trkpt>
      <trkpt lat="43.17495" lon="5.89764">
        <ele>473.60000610352</ele>
        <time>2016-05-15T09:36:04.000Z</time>
      </trkpt>
      <trkpt lat="43.17488" lon="5.89766">
        <ele>472.20001220703</ele>
        <time>2016-05-15T09:36:05.000Z</time>
      </trkpt>
      <trkpt lat="43.17481" lon="5.89768">
        <ele>470.79998779297</ele>
        <time>2016-05-15T09:36:06.000Z</time>
      </trkpt>
      <trkpt lat="43.17458" lon="5.89774">
        <ele>464.60000610352</ele>
        <time>2016-05-15T09:36:09.000Z</time>
      </trkpt>
      <trkpt lat="43.17451" lon="5.89775">
        <ele>462.39999389648</ele>
        <time>2016-05-15T09:36:10.000Z</time>
      </trkpt>
      <trkpt lat="43.17443" lon="5.89775">
        <ele>460.20001220703</ele>
        <time>2016-05-15T09:36:11.000Z</time>
      </trkpt>
      <trkpt lat="43.17435" lon="5.89774">
        <ele>458.39999389648</ele>
        <time>2016-05-15T09:36:12.000Z</time>
      </trkpt>
      <trkpt lat="43.17418" lon="5.89771">
        <ele>455</ele>
        <time>2016-05-15T09:36:14.000Z</time>
      </trkpt>
      <trkpt lat="43.17403" lon="5.89769">
        <ele>452</ele>
        <time>2016-05-15T09:36:16.000Z</time>
      </trkpt>
      <trkpt lat="43.17391" lon="5.89767">
        <ele>449.60000610352</ele>
        <time>2016-05-15T09:36:18.000Z</time>
      </trkpt>
      <trkpt lat="43.17381" lon="5.8976">
        <ele>448.79998779297</ele>
        <time>2016-05-15T09:36:20.000Z</time>
      </trkpt>
      <trkpt lat="43.17377" lon="5.89753">
        <ele>448.79998779297</ele>
        <time>2016-05-15T09:36:21.000Z</time>
      </trkpt>
      <trkpt lat="43.17372" lon="5.89746">
        <ele>449.20001220703</ele>
        <time>2016-05-15T09:36:22.000Z</time>
      </trkpt>
      <trkpt lat="43.17368" lon="5.89737">
        <ele>449.79998779297</ele>
        <time>2016-05-15T09:36:23.000Z</time>
      </trkpt>
      <trkpt lat="43.17363" lon="5.89727">
        <ele>450.39999389648</ele>
        <time>2016-05-15T09:36:24.000Z</time>
      </trkpt>
      <trkpt lat="43.17359" lon="5.89717">
        <ele>450.60000610352</ele>
        <time>2016-05-15T09:36:25.000Z</time>
      </trkpt>
      <trkpt lat="43.17355" lon="5.89705">
        <ele>450.60000610352</ele>
        <time>2016-05-15T09:36:26.000Z</time>
      </trkpt>
      <trkpt lat="43.17346" lon="5.89683">
        <ele>450.39999389648</ele>
        <time>2016-05-15T09:36:28.000Z</time>
      </trkpt>
      <trkpt lat="43.17334" lon="5.89665">
        <ele>446.79998779297</ele>
        <time>2016-05-15T09:36:30.000Z</time>
      </trkpt>
      <trkpt lat="43.17327" lon="5.89657">
        <ele>444.79998779297</ele>
        <time>2016-05-15T09:36:31.000Z</time>
      </trkpt>
      <trkpt lat="43.1732" lon="5.8965">
        <ele>442.79998779297</ele>
        <time>2016-05-15T09:36:32.000Z</time>
      </trkpt>
      <trkpt lat="43.17307" lon="5.89637">
        <ele>438.39999389648</ele>
        <time>2016-05-15T09:36:34.000Z</time>
      </trkpt>
      <trkpt lat="43.17296" lon="5.89625">
        <ele>434.39999389648</ele>
        <time>2016-05-15T09:36:36.000Z</time>
      </trkpt>
      <trkpt lat="43.17286" lon="5.89608">
        <ele>431.79998779297</ele>
        <time>2016-05-15T09:36:38.000Z</time>
      </trkpt>
      <trkpt lat="43.1728" lon="5.8959">
        <ele>430.60000610352</ele>
        <time>2016-05-15T09:36:40.000Z</time>
      </trkpt>
      <trkpt lat="43.17278" lon="5.89569">
        <ele>431.39999389648</ele>
        <time>2016-05-15T09:36:42.000Z</time>
      </trkpt>
      <trkpt lat="43.17277" lon="5.89547">
        <ele>432.60000610352</ele>
        <time>2016-05-15T09:36:44.000Z</time>
      </trkpt>
      <trkpt lat="43.17275" lon="5.89536">
        <ele>432.60000610352</ele>
        <time>2016-05-15T09:36:45.000Z</time>
      </trkpt>
      <trkpt lat="43.17273" lon="5.89525">
        <ele>432</ele>
        <time>2016-05-15T09:36:46.000Z</time>
      </trkpt>
      <trkpt lat="43.17267" lon="5.89501">
        <ele>430.79998779297</ele>
        <time>2016-05-15T09:36:48.000Z</time>
      </trkpt>
      <trkpt lat="43.17262" lon="5.89478">
        <ele>430.20001220703</ele>
        <time>2016-05-15T09:36:50.000Z</time>
      </trkpt>
      <trkpt lat="43.17261" lon="5.89467">
        <ele>430.79998779297</ele>
        <time>2016-05-15T09:36:51.000Z</time>
      </trkpt>
      <trkpt lat="43.17258" lon="5.89457">
        <ele>431.79998779297</ele>
        <time>2016-05-15T09:36:52.000Z</time>
      </trkpt>
      <trkpt lat="43.17256" lon="5.89448">
        <ele>432.60000610352</ele>
        <time>2016-05-15T09:36:53.000Z</time>
      </trkpt>
      <trkpt lat="43.17252" lon="5.8944">
        <ele>432.39999389648</ele>
        <time>2016-05-15T09:36:54.000Z</time>
      </trkpt>
      <trkpt lat="43.17247" lon="5.89434">
        <ele>431.79998779297</ele>
        <time>2016-05-15T09:36:55.000Z</time>
      </trkpt>
      <trkpt lat="43.17242" lon="5.8943">
        <ele>430.39999389648</ele>
        <time>2016-05-15T09:36:56.000Z</time>
      </trkpt>
      <trkpt lat="43.17228" lon="5.89423">
        <ele>426.20001220703</ele>
        <time>2016-05-15T09:36:58.000Z</time>
      </trkpt>
      <trkpt lat="43.1722" lon="5.8942">
        <ele>423.39999389648</ele>
        <time>2016-05-15T09:36:59.000Z</time>
      </trkpt>
      <trkpt lat="43.17211" lon="5.89416">
        <ele>420.39999389648</ele>
        <time>2016-05-15T09:37:00.000Z</time>
      </trkpt>
      <trkpt lat="43.17176" lon="5.89406">
        <ele>406.39999389648</ele>
        <time>2016-05-15T09:37:04.000Z</time>
      </trkpt>
      <trkpt lat="43.17169" lon="5.89403">
        <ele>404.20001220703</ele>
        <time>2016-05-15T09:37:05.000Z</time>
      </trkpt>
      <trkpt lat="43.17163" lon="5.89399">
        <ele>402.39999389648</ele>
        <time>2016-05-15T09:37:06.000Z</time>
      </trkpt>
      <trkpt lat="43.17153" lon="5.89385">
        <ele>401.20001220703</ele>
        <time>2016-05-15T09:37:08.000Z</time>
      </trkpt>
      <trkpt lat="43.1715" lon="5.89376">
        <ele>400</ele>
        <time>2016-05-15T09:37:09.000Z</time>
      </trkpt>
      <trkpt lat="43.17147" lon="5.89365">
        <ele>399.39999389648</ele>
        <time>2016-05-15T09:37:10.000Z</time>
      </trkpt>
      <trkpt lat="43.17144" lon="5.89354">
        <ele>399</ele>
        <time>2016-05-15T09:37:11.000Z</time>
      </trkpt>
      <trkpt lat="43.17142" lon="5.89343">
        <ele>399.79998779297</ele>
        <time>2016-05-15T09:37:12.000Z</time>
      </trkpt>
      <trkpt lat="43.1714" lon="5.89318">
        <ele>402.60000610352</ele>
        <time>2016-05-15T09:37:14.000Z</time>
      </trkpt>
      <trkpt lat="43.17138" lon="5.89293">
        <ele>403.79998779297</ele>
        <time>2016-05-15T09:37:16.000Z</time>
      </trkpt>
      <trkpt lat="43.17138" lon="5.89282">
        <ele>403.79998779297</ele>
        <time>2016-05-15T09:37:17.000Z</time>
      </trkpt>
      <trkpt lat="43.17139" lon="5.89271">
        <ele>403.79998779297</ele>
        <time>2016-05-15T09:37:18.000Z</time>
      </trkpt>
      <trkpt lat="43.17139" lon="5.89249">
        <ele>404.39999389648</ele>
        <time>2016-05-15T09:37:20.000Z</time>
      </trkpt>
      <trkpt lat="43.17139" lon="5.89226">
        <ele>404.20001220703</ele>
        <time>2016-05-15T09:37:22.000Z</time>
      </trkpt>
      <trkpt lat="43.17138" lon="5.89214">
        <ele>403.60000610352</ele>
        <time>2016-05-15T09:37:23.000Z</time>
      </trkpt>
      <trkpt lat="43.17136" lon="5.89202">
        <ele>402.60000610352</ele>
        <time>2016-05-15T09:37:24.000Z</time>
      </trkpt>
      <trkpt lat="43.17131" lon="5.89178">
        <ele>400.39999389648</ele>
        <time>2016-05-15T09:37:26.000Z</time>
      </trkpt>
      <trkpt lat="43.17127" lon="5.89153">
        <ele>397.60000610352</ele>
        <time>2016-05-15T09:37:28.000Z</time>
      </trkpt>
      <trkpt lat="43.17126" lon="5.89141">
        <ele>396.39999389648</ele>
        <time>2016-05-15T09:37:29.000Z</time>
      </trkpt>
      <trkpt lat="43.17124" lon="5.89129">
        <ele>395.79998779297</ele>
        <time>2016-05-15T09:37:30.000Z</time>
      </trkpt>
      <trkpt lat="43.17124" lon="5.89105">
        <ele>395.79998779297</ele>
        <time>2016-05-15T09:37:32.000Z</time>
      </trkpt>
      <trkpt lat="43.17124" lon="5.89093">
        <ele>396.20001220703</ele>
        <time>2016-05-15T09:37:33.000Z</time>
      </trkpt>
      <trkpt lat="43.17124" lon="5.89081">
        <ele>396.39999389648</ele>
        <time>2016-05-15T09:37:34.000Z</time>
      </trkpt>
      <trkpt lat="43.17123" lon="5.89069">
        <ele>396.20001220703</ele>
        <time>2016-05-15T09:37:35.000Z</time>
      </trkpt>
      <trkpt lat="43.17122" lon="5.89057">
        <ele>395.60000610352</ele>
        <time>2016-05-15T09:37:36.000Z</time>
      </trkpt>
      <trkpt lat="43.1712" lon="5.89046">
        <ele>395</ele>
        <time>2016-05-15T09:37:37.000Z</time>
      </trkpt>
      <trkpt lat="43.17118" lon="5.89034">
        <ele>394.39999389648</ele>
        <time>2016-05-15T09:37:38.000Z</time>
      </trkpt>
      <trkpt lat="43.17116" lon="5.89011">
        <ele>393.39999389648</ele>
        <time>2016-05-15T09:37:40.000Z</time>
      </trkpt>
      <trkpt lat="43.17114" lon="5.88989">
        <ele>393.20001220703</ele>
        <time>2016-05-15T09:37:42.000Z</time>
      </trkpt>
      <trkpt lat="43.17113" lon="5.88978">
        <ele>393</ele>
        <time>2016-05-15T09:37:43.000Z</time>
      </trkpt>
      <trkpt lat="43.17112" lon="5.88948">
        <ele>395</ele>
        <time>2016-05-15T09:37:46.000Z</time>
      </trkpt>
      <trkpt lat="43.17109" lon="5.88913">
        <ele>397.39999389648</ele>
        <time>2016-05-15T09:37:50.000Z</time>
      </trkpt>
      <trkpt lat="43.17108" lon="5.88905">
        <ele>397.79998779297</ele>
        <time>2016-05-15T09:37:51.000Z</time>
      </trkpt>
      <trkpt lat="43.17107" lon="5.88898">
        <ele>397.20001220703</ele>
        <time>2016-05-15T09:37:52.000Z</time>
      </trkpt>
      <trkpt lat="43.17101" lon="5.88885">
        <ele>395</ele>
        <time>2016-05-15T09:37:54.000Z</time>
      </trkpt>
      <trkpt lat="43.17092" lon="5.88875">
        <ele>393</ele>
        <time>2016-05-15T09:37:56.000Z</time>
      </trkpt>
      <trkpt lat="43.17081" lon="5.88866">
        <ele>392.20001220703</ele>
        <time>2016-05-15T09:37:58.000Z</time>
      </trkpt>
      <trkpt lat="43.17076" lon="5.88862">
        <ele>391.79998779297</ele>
        <time>2016-05-15T09:37:59.000Z</time>
      </trkpt>
      <trkpt lat="43.17062" lon="5.8885">
        <ele>390.79998779297</ele>
        <time>2016-05-15T09:38:02.000Z</time>
      </trkpt>
      <trkpt lat="43.17054" lon="5.88843">
        <ele>390.20001220703</ele>
        <time>2016-05-15T09:38:04.000Z</time>
      </trkpt>
      <trkpt lat="43.1705" lon="5.88841">
        <ele>389.79998779297</ele>
        <time>2016-05-15T09:38:05.000Z</time>
      </trkpt>
      <trkpt lat="43.17046" lon="5.88839">
        <ele>389.39999389648</ele>
        <time>2016-05-15T09:38:06.000Z</time>
      </trkpt>
      <trkpt lat="43.17041" lon="5.88837">
        <ele>388.60000610352</ele>
        <time>2016-05-15T09:38:08.000Z</time>
      </trkpt>
      <trkpt lat="43.17039" lon="5.88834">
        <ele>388.60000610352</ele>
        <time>2016-05-15T09:38:09.000Z</time>
      </trkpt>
      <trkpt lat="43.17037" lon="5.88827">
        <ele>389</ele>
        <time>2016-05-15T09:38:11.000Z</time>
      </trkpt>
      <trkpt lat="43.17038" lon="5.8882">
        <ele>389.79998779297</ele>
        <time>2016-05-15T09:38:13.000Z</time>
      </trkpt>
      <trkpt lat="43.17038" lon="5.88817">
        <ele>390.20001220703</ele>
        <time>2016-05-15T09:38:14.000Z</time>
      </trkpt>
      <trkpt lat="43.17043" lon="5.88795">
        <ele>393.20001220703</ele>
        <time>2016-05-15T09:38:20.000Z</time>
      </trkpt>
      <trkpt lat="43.17048" lon="5.8878">
        <ele>395.60000610352</ele>
        <time>2016-05-15T09:38:26.000Z</time>
      </trkpt>
      <trkpt lat="43.17059" lon="5.88764">
        <ele>398</ele>
        <time>2016-05-15T09:38:32.000Z</time>
      </trkpt>
      <trkpt lat="43.17076" lon="5.88745">
        <ele>397.60000610352</ele>
        <time>2016-05-15T09:38:37.000Z</time>
      </trkpt>
      <trkpt lat="43.17079" lon="5.8874">
        <ele>397.39999389648</ele>
        <time>2016-05-15T09:38:38.000Z</time>
      </trkpt>
      <trkpt lat="43.17089" lon="5.8872">
        <ele>397</ele>
        <time>2016-05-15T09:38:41.000Z</time>
      </trkpt>
      <trkpt lat="43.17091" lon="5.88713">
        <ele>396.60000610352</ele>
        <time>2016-05-15T09:38:42.000Z</time>
      </trkpt>
      <trkpt lat="43.17102" lon="5.88678">
        <ele>394.79998779297</ele>
        <time>2016-05-15T09:38:46.000Z</time>
      </trkpt>
      <trkpt lat="43.17104" lon="5.88668">
        <ele>394.39999389648</ele>
        <time>2016-05-15T09:38:47.000Z</time>
      </trkpt>
      <trkpt lat="43.17114" lon="5.88626">
        <ele>393</ele>
        <time>2016-05-15T09:38:51.000Z</time>
      </trkpt>
      <trkpt lat="43.17123" lon="5.88594">
        <ele>393.20001220703</ele>
        <time>2016-05-15T09:38:54.000Z</time>
      </trkpt>
      <trkpt lat="43.17128" lon="5.88584">
        <ele>393</ele>
        <time>2016-05-15T09:38:55.000Z</time>
      </trkpt>
      <trkpt lat="43.1714" lon="5.88568">
        <ele>390.79998779297</ele>
        <time>2016-05-15T09:38:57.000Z</time>
      </trkpt>
      <trkpt lat="43.17147" lon="5.88561">
        <ele>390</ele>
        <time>2016-05-15T09:38:58.000Z</time>
      </trkpt>
      <trkpt lat="43.17162" lon="5.88548">
        <ele>390.20001220703</ele>
        <time>2016-05-15T09:39:00.000Z</time>
      </trkpt>
      <trkpt lat="43.17178" lon="5.88534">
        <ele>387</ele>
        <time>2016-05-15T09:39:02.000Z</time>
      </trkpt>
      <trkpt lat="43.17194" lon="5.88519">
        <ele>385.60000610352</ele>
        <time>2016-05-15T09:39:04.000Z</time>
      </trkpt>
      <trkpt lat="43.1721" lon="5.88503">
        <ele>384</ele>
        <time>2016-05-15T09:39:06.000Z</time>
      </trkpt>
      <trkpt lat="43.17225" lon="5.88488">
        <ele>381.39999389648</ele>
        <time>2016-05-15T09:39:08.000Z</time>
      </trkpt>
      <trkpt lat="43.17241" lon="5.88475">
        <ele>379.39999389648</ele>
        <time>2016-05-15T09:39:10.000Z</time>
      </trkpt>
      <trkpt lat="43.17259" lon="5.88463">
        <ele>378.39999389648</ele>
        <time>2016-05-15T09:39:12.000Z</time>
      </trkpt>
      <trkpt lat="43.17285" lon="5.88444">
        <ele>374</ele>
        <time>2016-05-15T09:39:15.000Z</time>
      </trkpt>
      <trkpt lat="43.17292" lon="5.88438">
        <ele>372.39999389648</ele>
        <time>2016-05-15T09:39:16.000Z</time>
      </trkpt>
      <trkpt lat="43.17305" lon="5.88426">
        <ele>370.39999389648</ele>
        <time>2016-05-15T09:39:18.000Z</time>
      </trkpt>
      <trkpt lat="43.1731" lon="5.88421">
        <ele>370</ele>
        <time>2016-05-15T09:39:19.000Z</time>
      </trkpt>
      <trkpt lat="43.17316" lon="5.88419">
        <ele>369.79998779297</ele>
        <time>2016-05-15T09:39:20.000Z</time>
      </trkpt>
      <trkpt lat="43.17322" lon="5.8842">
        <ele>370.20001220703</ele>
        <time>2016-05-15T09:39:21.000Z</time>
      </trkpt>
      <trkpt lat="43.17328" lon="5.88422">
        <ele>370.60000610352</ele>
        <time>2016-05-15T09:39:22.000Z</time>
      </trkpt>
      <trkpt lat="43.17334" lon="5.88425">
        <ele>371.20001220703</ele>
        <time>2016-05-15T09:39:23.000Z</time>
      </trkpt>
      <trkpt lat="43.1734" lon="5.88426">
        <ele>371.60000610352</ele>
        <time>2016-05-15T09:39:24.000Z</time>
      </trkpt>
      <trkpt lat="43.17346" lon="5.88424">
        <ele>372</ele>
        <time>2016-05-15T09:39:25.000Z</time>
      </trkpt>
      <trkpt lat="43.17352" lon="5.8842">
        <ele>372.79998779297</ele>
        <time>2016-05-15T09:39:26.000Z</time>
      </trkpt>
      <trkpt lat="43.17363" lon="5.88407">
        <ele>374</ele>
        <time>2016-05-15T09:39:28.000Z</time>
      </trkpt>
      <trkpt lat="43.17369" lon="5.884">
        <ele>374.20001220703</ele>
        <time>2016-05-15T09:39:29.000Z</time>
      </trkpt>
      <trkpt lat="43.17375" lon="5.88392">
        <ele>374.39999389648</ele>
        <time>2016-05-15T09:39:30.000Z</time>
      </trkpt>
      <trkpt lat="43.17397" lon="5.88356">
        <ele>373.39999389648</ele>
        <time>2016-05-15T09:39:34.000Z</time>
      </trkpt>
      <trkpt lat="43.17401" lon="5.88346">
        <ele>372.60000610352</ele>
        <time>2016-05-15T09:39:35.000Z</time>
      </trkpt>
      <trkpt lat="43.1741" lon="5.88315">
        <ele>368.20001220703</ele>
        <time>2016-05-15T09:39:38.000Z</time>
      </trkpt>
      <trkpt lat="43.1741" lon="5.88301">
        <ele>366.20001220703</ele>
        <time>2016-05-15T09:39:39.000Z</time>
      </trkpt>
      <trkpt lat="43.17413" lon="5.88259">
        <ele>361.60000610352</ele>
        <time>2016-05-15T09:39:42.000Z</time>
      </trkpt>
      <trkpt lat="43.17415" lon="5.88232">
        <ele>358.39999389648</ele>
        <time>2016-05-15T09:39:44.000Z</time>
      </trkpt>
      <trkpt lat="43.17419" lon="5.88204">
        <ele>356.39999389648</ele>
        <time>2016-05-15T09:39:46.000Z</time>
      </trkpt>
      <trkpt lat="43.17421" lon="5.88191">
        <ele>354.60000610352</ele>
        <time>2016-05-15T09:39:47.000Z</time>
      </trkpt>
      <trkpt lat="43.17424" lon="5.88177">
        <ele>352.79998779297</ele>
        <time>2016-05-15T09:39:48.000Z</time>
      </trkpt>
      <trkpt lat="43.17431" lon="5.88151">
        <ele>350.39999389648</ele>
        <time>2016-05-15T09:39:50.000Z</time>
      </trkpt>
      <trkpt lat="43.1744" lon="5.88111">
        <ele>349.39999389648</ele>
        <time>2016-05-15T09:39:53.000Z</time>
      </trkpt>
      <trkpt lat="43.17442" lon="5.88097">
        <ele>348.79998779297</ele>
        <time>2016-05-15T09:39:54.000Z</time>
      </trkpt>
      <trkpt lat="43.17448" lon="5.88069">
        <ele>347.60000610352</ele>
        <time>2016-05-15T09:39:56.000Z</time>
      </trkpt>
      <trkpt lat="43.17454" lon="5.88041">
        <ele>347.20001220703</ele>
        <time>2016-05-15T09:39:58.000Z</time>
      </trkpt>
      <trkpt lat="43.17461" lon="5.88012">
        <ele>347.20001220703</ele>
        <time>2016-05-15T09:40:00.000Z</time>
      </trkpt>
      <trkpt lat="43.17464" lon="5.87997">
        <ele>347</ele>
        <time>2016-05-15T09:40:01.000Z</time>
      </trkpt>
      <trkpt lat="43.17467" lon="5.87982">
        <ele>346.79998779297</ele>
        <time>2016-05-15T09:40:02.000Z</time>
      </trkpt>
      <trkpt lat="43.17471" lon="5.87952">
        <ele>346.20001220703</ele>
        <time>2016-05-15T09:40:04.000Z</time>
      </trkpt>
      <trkpt lat="43.17475" lon="5.87921">
        <ele>345</ele>
        <time>2016-05-15T09:40:06.000Z</time>
      </trkpt>
      <trkpt lat="43.1748" lon="5.8789">
        <ele>343.39999389648</ele>
        <time>2016-05-15T09:40:08.000Z</time>
      </trkpt>
      <trkpt lat="43.17486" lon="5.8786">
        <ele>344.20001220703</ele>
        <time>2016-05-15T09:40:10.000Z</time>
      </trkpt>
      <trkpt lat="43.17489" lon="5.87846">
        <ele>343.20001220703</ele>
        <time>2016-05-15T09:40:11.000Z</time>
      </trkpt>
      <trkpt lat="43.17492" lon="5.87831">
        <ele>342.20001220703</ele>
        <time>2016-05-15T09:40:12.000Z</time>
      </trkpt>
      <trkpt lat="43.17497" lon="5.87803">
        <ele>340.60000610352</ele>
        <time>2016-05-15T09:40:14.000Z</time>
      </trkpt>
      <trkpt lat="43.17503" lon="5.87774">
        <ele>338</ele>
        <time>2016-05-15T09:40:16.000Z</time>
      </trkpt>
      <trkpt lat="43.17506" lon="5.8776">
        <ele>335.79998779297</ele>
        <time>2016-05-15T09:40:17.000Z</time>
      </trkpt>
      <trkpt lat="43.17511" lon="5.87732">
        <ele>331.39999389648</ele>
        <time>2016-05-15T09:40:19.000Z</time>
      </trkpt>
      <trkpt lat="43.17515" lon="5.87705">
        <ele>329.60000610352</ele>
        <time>2016-05-15T09:40:21.000Z</time>
      </trkpt>
      <trkpt lat="43.17521" lon="5.87681">
        <ele>328.79998779297</ele>
        <time>2016-05-15T09:40:23.000Z</time>
      </trkpt>
      <trkpt lat="43.17524" lon="5.87657">
        <ele>327.60000610352</ele>
        <time>2016-05-15T09:40:25.000Z</time>
      </trkpt>
      <trkpt lat="43.17515" lon="5.87633">
        <ele>323.39999389648</ele>
        <time>2016-05-15T09:40:27.000Z</time>
      </trkpt>
      <trkpt lat="43.17505" lon="5.87611">
        <ele>321.79998779297</ele>
        <time>2016-05-15T09:40:29.000Z</time>
      </trkpt>
      <trkpt lat="43.17501" lon="5.876">
        <ele>321.39999389648</ele>
        <time>2016-05-15T09:40:30.000Z</time>
      </trkpt>
      <trkpt lat="43.17495" lon="5.87581">
        <ele>320.60000610352</ele>
        <time>2016-05-15T09:40:32.000Z</time>
      </trkpt>
      <trkpt lat="43.17494" lon="5.87562">
        <ele>319.60000610352</ele>
        <time>2016-05-15T09:40:34.000Z</time>
      </trkpt>
      <trkpt lat="43.17497" lon="5.87552">
        <ele>319</ele>
        <time>2016-05-15T09:40:35.000Z</time>
      </trkpt>
      <trkpt lat="43.17502" lon="5.87544">
        <ele>318.39999389648</ele>
        <time>2016-05-15T09:40:36.000Z</time>
      </trkpt>
      <trkpt lat="43.17513" lon="5.87528">
        <ele>316.79998779297</ele>
        <time>2016-05-15T09:40:38.000Z</time>
      </trkpt>
      <trkpt lat="43.17525" lon="5.87514">
        <ele>317</ele>
        <time>2016-05-15T09:40:40.000Z</time>
      </trkpt>
      <trkpt lat="43.17537" lon="5.87502">
        <ele>317.20001220703</ele>
        <time>2016-05-15T09:40:42.000Z</time>
      </trkpt>
      <trkpt lat="43.17547" lon="5.87491">
        <ele>316</ele>
        <time>2016-05-15T09:40:44.000Z</time>
      </trkpt>
      <trkpt lat="43.17551" lon="5.87481">
        <ele>314.39999389648</ele>
        <time>2016-05-15T09:40:46.000Z</time>
      </trkpt>
      <trkpt lat="43.17549" lon="5.87476">
        <ele>313.39999389648</ele>
        <time>2016-05-15T09:40:47.000Z</time>
      </trkpt>
      <trkpt lat="43.17546" lon="5.87471">
        <ele>312.79998779297</ele>
        <time>2016-05-15T09:40:48.000Z</time>
      </trkpt>
      <trkpt lat="43.17542" lon="5.87466">
        <ele>312.39999389648</ele>
        <time>2016-05-15T09:40:49.000Z</time>
      </trkpt>
      <trkpt lat="43.17538" lon="5.8746">
        <ele>312</ele>
        <time>2016-05-15T09:40:50.000Z</time>
      </trkpt>
      <trkpt lat="43.17535" lon="5.87454">
        <ele>311.60000610352</ele>
        <time>2016-05-15T09:40:51.000Z</time>
      </trkpt>
      <trkpt lat="43.17521" lon="5.87414">
        <ele>309.39999389648</ele>
        <time>2016-05-15T09:40:57.000Z</time>
      </trkpt>
      <trkpt lat="43.1752" lon="5.87406">
        <ele>309</ele>
        <time>2016-05-15T09:40:58.000Z</time>
      </trkpt>
      <trkpt lat="43.17518" lon="5.87379">
        <ele>307.79998779297</ele>
        <time>2016-05-15T09:41:02.000Z</time>
      </trkpt>
      <trkpt lat="43.17518" lon="5.87319">
        <ele>306.39999389648</ele>
        <time>2016-05-15T09:41:10.000Z</time>
      </trkpt>
      <trkpt lat="43.17515" lon="5.87286">
        <ele>305.20001220703</ele>
        <time>2016-05-15T09:41:14.000Z</time>
      </trkpt>
      <trkpt lat="43.17511" lon="5.87278">
        <ele>305</ele>
        <time>2016-05-15T09:41:15.000Z</time>
      </trkpt>
      <trkpt lat="43.17496" lon="5.87258">
        <ele>304.20001220703</ele>
        <time>2016-05-15T09:41:18.000Z</time>
      </trkpt>
      <trkpt lat="43.1749" lon="5.87251">
        <ele>304</ele>
        <time>2016-05-15T09:41:19.000Z</time>
      </trkpt>
      <trkpt lat="43.17479" lon="5.87238">
        <ele>303.60000610352</ele>
        <time>2016-05-15T09:41:21.000Z</time>
      </trkpt>
      <trkpt lat="43.17442" lon="5.87199">
        <ele>301.79998779297</ele>
        <time>2016-05-15T09:41:27.000Z</time>
      </trkpt>
      <trkpt lat="43.17436" lon="5.87193">
        <ele>301.60000610352</ele>
        <time>2016-05-15T09:41:28.000Z</time>
      </trkpt>
      <trkpt lat="43.17416" lon="5.87173">
        <ele>299.60000610352</ele>
        <time>2016-05-15T09:41:31.000Z</time>
      </trkpt>
      <trkpt lat="43.17399" lon="5.87155">
        <ele>297.20001220703</ele>
        <time>2016-05-15T09:41:34.000Z</time>
      </trkpt>
      <trkpt lat="43.17394" lon="5.87148">
        <ele>296.60000610352</ele>
        <time>2016-05-15T09:41:35.000Z</time>
      </trkpt>
      <trkpt lat="43.17386" lon="5.87134">
        <ele>295.39999389648</ele>
        <time>2016-05-15T09:41:37.000Z</time>
      </trkpt>
      <trkpt lat="43.17378" lon="5.8712">
        <ele>294.60000610352</ele>
        <time>2016-05-15T09:41:39.000Z</time>
      </trkpt>
      <trkpt lat="43.17375" lon="5.87112">
        <ele>294.20001220703</ele>
        <time>2016-05-15T09:41:40.000Z</time>
      </trkpt>
      <trkpt lat="43.17366" lon="5.8709">
        <ele>293.20001220703</ele>
        <time>2016-05-15T09:41:43.000Z</time>
      </trkpt>
      <trkpt lat="43.17365" lon="5.87083">
        <ele>293</ele>
        <time>2016-05-15T09:41:44.000Z</time>
      </trkpt>
      <trkpt lat="43.17362" lon="5.87069">
        <ele>292.39999389648</ele>
        <time>2016-05-15T09:41:46.000Z</time>
      </trkpt>
      <trkpt lat="43.1736" lon="5.87063">
        <ele>292</ele>
        <time>2016-05-15T09:41:47.000Z</time>
      </trkpt>
      <trkpt lat="43.17354" lon="5.87053">
        <ele>291.39999389648</ele>
        <time>2016-05-15T09:41:49.000Z</time>
      </trkpt>
      <trkpt lat="43.17346" lon="5.87037">
        <ele>290.79998779297</ele>
        <time>2016-05-15T09:41:52.000Z</time>
      </trkpt>
      <trkpt lat="43.1734" lon="5.87025">
        <ele>290.39999389648</ele>
        <time>2016-05-15T09:41:55.000Z</time>
      </trkpt>
      <trkpt lat="43.17337" lon="5.87016">
        <ele>290</ele>
        <time>2016-05-15T09:41:58.000Z</time>
      </trkpt>
      <trkpt lat="43.17334" lon="5.87011">
        <ele>289.79998779297</ele>
        <time>2016-05-15T09:42:01.000Z</time>
      </trkpt>
      <trkpt lat="43.17333" lon="5.8701">
        <ele>289.79998779297</ele>
        <time>2016-05-15T09:42:02.000Z</time>
      </trkpt>
      <trkpt lat="43.17332" lon="5.87005">
        <ele>289.60000610352</ele>
        <time>2016-05-15T09:47:04.000Z</time>
      </trkpt>
      <trkpt lat="43.17331" lon="5.87002">
        <ele>289.60000610352</ele>
        <time>2016-05-15T09:47:05.000Z</time>
      </trkpt>
      <trkpt lat="43.17327" lon="5.86981">
        <ele>289</ele>
        <time>2016-05-15T09:47:10.000Z</time>
      </trkpt>
      <trkpt lat="43.17318" lon="5.86948">
        <ele>288.60000610352</ele>
        <time>2016-05-15T09:47:15.000Z</time>
      </trkpt>
      <trkpt lat="43.17304" lon="5.86901">
        <ele>288</ele>
        <time>2016-05-15T09:47:22.000Z</time>
      </trkpt>
      <trkpt lat="43.17293" lon="5.86853">
        <ele>286.20001220703</ele>
        <time>2016-05-15T09:47:29.000Z</time>
      </trkpt>
      <trkpt lat="43.1729" lon="5.86839">
        <ele>285.60000610352</ele>
        <time>2016-05-15T09:47:31.000Z</time>
      </trkpt>
      <trkpt lat="43.17285" lon="5.86807">
        <ele>283.79998779297</ele>
        <time>2016-05-15T09:47:35.000Z</time>
      </trkpt>
      <trkpt lat="43.17281" lon="5.86789">
        <ele>283.39999389648</ele>
        <time>2016-05-15T09:47:37.000Z</time>
      </trkpt>
      <trkpt lat="43.17275" lon="5.86751">
        <ele>282.20001220703</ele>
        <time>2016-05-15T09:47:41.000Z</time>
      </trkpt>
      <trkpt lat="43.17272" lon="5.86733">
        <ele>281.60000610352</ele>
        <time>2016-05-15T09:47:43.000Z</time>
      </trkpt>
      <trkpt lat="43.1727" lon="5.86725">
        <ele>281.20001220703</ele>
        <time>2016-05-15T09:47:44.000Z</time>
      </trkpt>
      <trkpt lat="43.17267" lon="5.8671">
        <ele>282.60000610352</ele>
        <time>2016-05-15T09:47:46.000Z</time>
      </trkpt>
      <trkpt lat="43.17262" lon="5.86699">
        <ele>283.79998779297</ele>
        <time>2016-05-15T09:47:48.000Z</time>
      </trkpt>
      <trkpt lat="43.17243" lon="5.8668">
        <ele>286.20001220703</ele>
        <time>2016-05-15T09:47:53.000Z</time>
      </trkpt>
      <trkpt lat="43.17234" lon="5.86675">
        <ele>286.79998779297</ele>
        <time>2016-05-15T09:47:55.000Z</time>
      </trkpt>
      <trkpt lat="43.17215" lon="5.86666">
        <ele>287.79998779297</ele>
        <time>2016-05-15T09:47:59.000Z</time>
      </trkpt>
      <trkpt lat="43.17205" lon="5.86662">
        <ele>288.39999389648</ele>
        <time>2016-05-15T09:48:01.000Z</time>
      </trkpt>
      <trkpt lat="43.17177" lon="5.86647">
        <ele>290.79998779297</ele>
        <time>2016-05-15T09:48:07.000Z</time>
      </trkpt>
      <trkpt lat="43.17152" lon="5.86636">
        <ele>294.60000610352</ele>
        <time>2016-05-15T09:48:12.000Z</time>
      </trkpt>
      <trkpt lat="43.17147" lon="5.86636">
        <ele>295.39999389648</ele>
        <time>2016-05-15T09:48:13.000Z</time>
      </trkpt>
      <trkpt lat="43.17138" lon="5.86638">
        <ele>296.79998779297</ele>
        <time>2016-05-15T09:48:15.000Z</time>
      </trkpt>
      <trkpt lat="43.17121" lon="5.86656">
        <ele>298.39999389648</ele>
        <time>2016-05-15T09:48:19.000Z</time>
      </trkpt>
      <trkpt lat="43.17115" lon="5.86684">
        <ele>298.39999389648</ele>
        <time>2016-05-15T09:48:23.000Z</time>
      </trkpt>
      <trkpt lat="43.17114" lon="5.86698">
        <ele>298.39999389648</ele>
        <time>2016-05-15T09:48:25.000Z</time>
      </trkpt>
      <trkpt lat="43.17109" lon="5.86717">
        <ele>298.60000610352</ele>
        <time>2016-05-15T09:48:28.000Z</time>
      </trkpt>
      <trkpt lat="43.17104" lon="5.8673">
        <ele>299</ele>
        <time>2016-05-15T09:48:30.000Z</time>
      </trkpt>
      <trkpt lat="43.17101" lon="5.86735">
        <ele>299</ele>
        <time>2016-05-15T09:48:31.000Z</time>
      </trkpt>
      <trkpt lat="43.17082" lon="5.8677">
        <ele>299</ele>
        <time>2016-05-15T09:48:37.000Z</time>
      </trkpt>
      <trkpt lat="43.17076" lon="5.86781">
        <ele>298.60000610352</ele>
        <time>2016-05-15T09:48:39.000Z</time>
      </trkpt>
      <trkpt lat="43.17067" lon="5.86797">
        <ele>297.60000610352</ele>
        <time>2016-05-15T09:48:42.000Z</time>
      </trkpt>
      <trkpt lat="43.17059" lon="5.86813">
        <ele>296.39999389648</ele>
        <time>2016-05-15T09:48:45.000Z</time>
      </trkpt>
      <trkpt lat="43.17051" lon="5.86823">
        <ele>295.79998779297</ele>
        <time>2016-05-15T09:48:47.000Z</time>
      </trkpt>
      <trkpt lat="43.17047" lon="5.86826">
        <ele>295.60000610352</ele>
        <time>2016-05-15T09:48:48.000Z</time>
      </trkpt>
      <trkpt lat="43.17043" lon="5.86828">
        <ele>295.60000610352</ele>
        <time>2016-05-15T09:48:49.000Z</time>
      </trkpt>
      <trkpt lat="43.17032" lon="5.86826">
        <ele>296</ele>
        <time>2016-05-15T09:48:51.000Z</time>
      </trkpt>
      <trkpt lat="43.1702" lon="5.86813">
        <ele>297.20001220703</ele>
        <time>2016-05-15T09:48:54.000Z</time>
      </trkpt>
      <trkpt lat="43.17017" lon="5.86807">
        <ele>297.79998779297</ele>
        <time>2016-05-15T09:48:55.000Z</time>
      </trkpt>
      <trkpt lat="43.17011" lon="5.86794">
        <ele>299.20001220703</ele>
        <time>2016-05-15T09:48:57.000Z</time>
      </trkpt>
      <trkpt lat="43.17007" lon="5.86782">
        <ele>299.60000610352</ele>
        <time>2016-05-15T09:48:59.000Z</time>
      </trkpt>
      <trkpt lat="43.16997" lon="5.86756">
        <ele>300.60000610352</ele>
        <time>2016-05-15T09:49:03.000Z</time>
      </trkpt>
      <trkpt lat="43.16991" lon="5.86736">
        <ele>301.20001220703</ele>
        <time>2016-05-15T09:49:06.000Z</time>
      </trkpt>
      <trkpt lat="43.16982" lon="5.86711">
        <ele>302.20001220703</ele>
        <time>2016-05-15T09:49:10.000Z</time>
      </trkpt>
      <trkpt lat="43.16968" lon="5.86674">
        <ele>303.39999389648</ele>
        <time>2016-05-15T09:49:16.000Z</time>
      </trkpt>
      <trkpt lat="43.16965" lon="5.86667">
        <ele>303.60000610352</ele>
        <time>2016-05-15T09:49:17.000Z</time>
      </trkpt>
      <trkpt lat="43.16957" lon="5.86642">
        <ele>304.60000610352</ele>
        <time>2016-05-15T09:49:21.000Z</time>
      </trkpt>
      <trkpt lat="43.16944" lon="5.86613">
        <ele>305.60000610352</ele>
        <time>2016-05-15T09:49:26.000Z</time>
      </trkpt>
      <trkpt lat="43.16935" lon="5.86597">
        <ele>305.60000610352</ele>
        <time>2016-05-15T09:49:29.000Z</time>
      </trkpt>
      <trkpt lat="43.16927" lon="5.86588">
        <ele>305.39999389648</ele>
        <time>2016-05-15T09:49:31.000Z</time>
      </trkpt>
      <trkpt lat="43.16924" lon="5.86584">
        <ele>304.60000610352</ele>
        <time>2016-05-15T09:49:32.000Z</time>
      </trkpt>
      <trkpt lat="43.16913" lon="5.8657">
        <ele>302.79998779297</ele>
        <time>2016-05-15T09:49:35.000Z</time>
      </trkpt>
      <trkpt lat="43.1691" lon="5.86564">
        <ele>302.39999389648</ele>
        <time>2016-05-15T09:49:36.000Z</time>
      </trkpt>
      <trkpt lat="43.16904" lon="5.86553">
        <ele>301.79998779297</ele>
        <time>2016-05-15T09:49:38.000Z</time>
      </trkpt>
      <trkpt lat="43.16892" lon="5.86531">
        <ele>300.79998779297</ele>
        <time>2016-05-15T09:49:42.000Z</time>
      </trkpt>
      <trkpt lat="43.16881" lon="5.86507">
        <ele>300.39999389648</ele>
        <time>2016-05-15T09:49:46.000Z</time>
      </trkpt>
      <trkpt lat="43.16879" lon="5.86501">
        <ele>300.79998779297</ele>
        <time>2016-05-15T09:49:47.000Z</time>
      </trkpt>
      <trkpt lat="43.16873" lon="5.86466">
        <ele>303.60000610352</ele>
        <time>2016-05-15T09:49:52.000Z</time>
      </trkpt>
      <trkpt lat="43.16871" lon="5.86452">
        <ele>304.60000610352</ele>
        <time>2016-05-15T09:49:54.000Z</time>
      </trkpt>
      <trkpt lat="43.16867" lon="5.86425">
        <ele>306.20001220703</ele>
        <time>2016-05-15T09:49:58.000Z</time>
      </trkpt>
      <trkpt lat="43.16864" lon="5.86412">
        <ele>306.39999389648</ele>
        <time>2016-05-15T09:50:00.000Z</time>
      </trkpt>
      <trkpt lat="43.16855" lon="5.86388">
        <ele>306</ele>
        <time>2016-05-15T09:50:04.000Z</time>
      </trkpt>
      <trkpt lat="43.16849" lon="5.86368">
        <ele>304.79998779297</ele>
        <time>2016-05-15T09:50:07.000Z</time>
      </trkpt>
      <trkpt lat="43.16848" lon="5.86341">
        <ele>305.79998779297</ele>
        <time>2016-05-15T09:50:11.000Z</time>
      </trkpt>
      <trkpt lat="43.16849" lon="5.86334">
        <ele>306.39999389648</ele>
        <time>2016-05-15T09:50:12.000Z</time>
      </trkpt>
      <trkpt lat="43.16851" lon="5.8632">
        <ele>307.79998779297</ele>
        <time>2016-05-15T09:50:14.000Z</time>
      </trkpt>
      <trkpt lat="43.16856" lon="5.86272">
        <ele>312.79998779297</ele>
        <time>2016-05-15T09:50:21.000Z</time>
      </trkpt>
      <trkpt lat="43.16858" lon="5.86251">
        <ele>314.79998779297</ele>
        <time>2016-05-15T09:50:24.000Z</time>
      </trkpt>
      <trkpt lat="43.16854" lon="5.86237">
        <ele>314.20001220703</ele>
        <time>2016-05-15T09:50:26.000Z</time>
      </trkpt>
      <trkpt lat="43.16836" lon="5.86191">
        <ele>311.60000610352</ele>
        <time>2016-05-15T09:50:33.000Z</time>
      </trkpt>
      <trkpt lat="43.16809" lon="5.86129">
        <ele>306.60000610352</ele>
        <time>2016-05-15T09:50:43.000Z</time>
      </trkpt>
      <trkpt lat="43.16802" lon="5.86102">
        <ele>304.60000610352</ele>
        <time>2016-05-15T09:50:47.000Z</time>
      </trkpt>
      <trkpt lat="43.16802" lon="5.86094">
        <ele>305.20001220703</ele>
        <time>2016-05-15T09:50:48.000Z</time>
      </trkpt>
      <trkpt lat="43.16807" lon="5.86051">
        <ele>310.60000610352</ele>
        <time>2016-05-15T09:50:54.000Z</time>
      </trkpt>
      <trkpt lat="43.16816" lon="5.85981">
        <ele>316.20001220703</ele>
        <time>2016-05-15T09:51:04.000Z</time>
      </trkpt>
      <trkpt lat="43.16809" lon="5.85954">
        <ele>315.79998779297</ele>
        <time>2016-05-15T09:51:08.000Z</time>
      </trkpt>
      <trkpt lat="43.16793" lon="5.85924">
        <ele>312.39999389648</ele>
        <time>2016-05-15T09:51:13.000Z</time>
      </trkpt>
      <trkpt lat="43.1679" lon="5.85918">
        <ele>311.60000610352</ele>
        <time>2016-05-15T09:51:14.000Z</time>
      </trkpt>
      <trkpt lat="43.16761" lon="5.85865">
        <ele>304.60000610352</ele>
        <time>2016-05-15T09:51:23.000Z</time>
      </trkpt>
      <trkpt lat="43.16759" lon="5.85858">
        <ele>304.39999389648</ele>
        <time>2016-05-15T09:51:24.000Z</time>
      </trkpt>
      <trkpt lat="43.16758" lon="5.85837">
        <ele>306</ele>
        <time>2016-05-15T09:51:27.000Z</time>
      </trkpt>
      <trkpt lat="43.1676" lon="5.85822">
        <ele>308.39999389648</ele>
        <time>2016-05-15T09:51:29.000Z</time>
      </trkpt>
      <trkpt lat="43.16765" lon="5.85795">
        <ele>312.39999389648</ele>
        <time>2016-05-15T09:51:33.000Z</time>
      </trkpt>
      <trkpt lat="43.16776" lon="5.8574">
        <ele>316.39999389648</ele>
        <time>2016-05-15T09:51:41.000Z</time>
      </trkpt>
      <trkpt lat="43.16784" lon="5.85694">
        <ele>323</ele>
        <time>2016-05-15T09:51:48.000Z</time>
      </trkpt>
      <trkpt lat="43.16783" lon="5.85686">
        <ele>322.79998779297</ele>
        <time>2016-05-15T09:51:49.000Z</time>
      </trkpt>
      <trkpt lat="43.16774" lon="5.85667">
        <ele>320.79998779297</ele>
        <time>2016-05-15T09:51:52.000Z</time>
      </trkpt>
      <trkpt lat="43.16771" lon="5.85662">
        <ele>319.39999389648</ele>
        <time>2016-05-15T09:51:53.000Z</time>
      </trkpt>
      <trkpt lat="43.16748" lon="5.85642">
        <ele>313.60000610352</ele>
        <time>2016-05-15T09:51:58.000Z</time>
      </trkpt>
      <trkpt lat="43.1672" lon="5.85619">
        <ele>315.60000610352</ele>
        <time>2016-05-15T09:52:04.000Z</time>
      </trkpt>
      <trkpt lat="43.16709" lon="5.85614">
        <ele>315.39999389648</ele>
        <time>2016-05-15T09:52:06.000Z</time>
      </trkpt>
      <trkpt lat="43.16693" lon="5.85611">
        <ele>312.79998779297</ele>
        <time>2016-05-15T09:52:09.000Z</time>
      </trkpt>
      <trkpt lat="43.16676" lon="5.85613">
        <ele>308</ele>
        <time>2016-05-15T09:52:12.000Z</time>
      </trkpt>
      <trkpt lat="43.1666" lon="5.85617">
        <ele>304.79998779297</ele>
        <time>2016-05-15T09:52:15.000Z</time>
      </trkpt>
      <trkpt lat="43.16622" lon="5.85619">
        <ele>301.79998779297</ele>
        <time>2016-05-15T09:52:22.000Z</time>
      </trkpt>
      <trkpt lat="43.16592" lon="5.85609">
        <ele>303.79998779297</ele>
        <time>2016-05-15T09:52:28.000Z</time>
      </trkpt>
      <trkpt lat="43.16577" lon="5.85601">
        <ele>303.39999389648</ele>
        <time>2016-05-15T09:52:31.000Z</time>
      </trkpt>
      <trkpt lat="43.16537" lon="5.85578">
        <ele>303.20001220703</ele>
        <time>2016-05-15T09:52:39.000Z</time>
      </trkpt>
      <trkpt lat="43.16503" lon="5.8556">
        <ele>301.20001220703</ele>
        <time>2016-05-15T09:52:46.000Z</time>
      </trkpt>
      <trkpt lat="43.16493" lon="5.85555">
        <ele>299.60000610352</ele>
        <time>2016-05-15T09:52:48.000Z</time>
      </trkpt>
      <trkpt lat="43.16447" lon="5.85529">
        <ele>293.60000610352</ele>
        <time>2016-05-15T09:52:57.000Z</time>
      </trkpt>
      <trkpt lat="43.16418" lon="5.85499">
        <ele>294.20001220703</ele>
        <time>2016-05-15T09:53:04.000Z</time>
      </trkpt>
      <trkpt lat="43.16393" lon="5.85473">
        <ele>293.79998779297</ele>
        <time>2016-05-15T09:53:10.000Z</time>
      </trkpt>
      <trkpt lat="43.1639" lon="5.85467">
        <ele>293.20001220703</ele>
        <time>2016-05-15T09:53:11.000Z</time>
      </trkpt>
      <trkpt lat="43.16387" lon="5.85461">
        <ele>293</ele>
        <time>2016-05-15T09:53:12.000Z</time>
      </trkpt>
      <trkpt lat="43.16382" lon="5.85435">
        <ele>295.39999389648</ele>
        <time>2016-05-15T09:53:16.000Z</time>
      </trkpt>
      <trkpt lat="43.16386" lon="5.85402">
        <ele>302.60000610352</ele>
        <time>2016-05-15T09:53:21.000Z</time>
      </trkpt>
      <trkpt lat="43.16388" lon="5.85396">
        <ele>304.39999389648</ele>
        <time>2016-05-15T09:53:22.000Z</time>
      </trkpt>
      <trkpt lat="43.16391" lon="5.85389">
        <ele>306.39999389648</ele>
        <time>2016-05-15T09:53:23.000Z</time>
      </trkpt>
      <trkpt lat="43.16404" lon="5.85359">
        <ele>310.39999389648</ele>
        <time>2016-05-15T09:53:28.000Z</time>
      </trkpt>
      <trkpt lat="43.16428" lon="5.85297">
        <ele>315.39999389648</ele>
        <time>2016-05-15T09:53:38.000Z</time>
      </trkpt>
      <trkpt lat="43.16429" lon="5.85291">
        <ele>316.20001220703</ele>
        <time>2016-05-15T09:53:39.000Z</time>
      </trkpt>
      <trkpt lat="43.16427" lon="5.85272">
        <ele>316.60000610352</ele>
        <time>2016-05-15T09:53:42.000Z</time>
      </trkpt>
      <trkpt lat="43.16413" lon="5.8525">
        <ele>313.60000610352</ele>
        <time>2016-05-15T09:53:46.000Z</time>
      </trkpt>
      <trkpt lat="43.16382" lon="5.85211">
        <ele>306.39999389648</ele>
        <time>2016-05-15T09:53:54.000Z</time>
      </trkpt>
      <trkpt lat="43.16377" lon="5.85199">
        <ele>305.20001220703</ele>
        <time>2016-05-15T09:53:56.000Z</time>
      </trkpt>
      <trkpt lat="43.16378" lon="5.85174">
        <ele>306</ele>
        <time>2016-05-15T09:54:00.000Z</time>
      </trkpt>
      <trkpt lat="43.16387" lon="5.85158">
        <ele>309.20001220703</ele>
        <time>2016-05-15T09:54:03.000Z</time>
      </trkpt>
      <trkpt lat="43.16394" lon="5.85146">
        <ele>311.60000610352</ele>
        <time>2016-05-15T09:54:05.000Z</time>
      </trkpt>
      <trkpt lat="43.16418" lon="5.85107">
        <ele>313</ele>
        <time>2016-05-15T09:54:11.000Z</time>
      </trkpt>
      <trkpt lat="43.16454" lon="5.85044">
        <ele>314.39999389648</ele>
        <time>2016-05-15T09:54:19.000Z</time>
      </trkpt>
      <trkpt lat="43.16459" lon="5.85035">
        <ele>313.79998779297</ele>
        <time>2016-05-15T09:54:20.000Z</time>
      </trkpt>
      <trkpt lat="43.1648" lon="5.85">
        <ele>313</ele>
        <time>2016-05-15T09:54:24.000Z</time>
      </trkpt>
      <trkpt lat="43.16501" lon="5.84964">
        <ele>314.39999389648</ele>
        <time>2016-05-15T09:54:28.000Z</time>
      </trkpt>
      <trkpt lat="43.16507" lon="5.84956">
        <ele>314.79998779297</ele>
        <time>2016-05-15T09:54:29.000Z</time>
      </trkpt>
      <trkpt lat="43.16524" lon="5.84931">
        <ele>315.39999389648</ele>
        <time>2016-05-15T09:54:32.000Z</time>
      </trkpt>
      <trkpt lat="43.1654" lon="5.8491">
        <ele>315.79998779297</ele>
        <time>2016-05-15T09:54:35.000Z</time>
      </trkpt>
      <trkpt lat="43.1655" lon="5.84897">
        <ele>314.79998779297</ele>
        <time>2016-05-15T09:54:37.000Z</time>
      </trkpt>
      <trkpt lat="43.16569" lon="5.84873">
        <ele>314.39999389648</ele>
        <time>2016-05-15T09:54:41.000Z</time>
      </trkpt>
      <trkpt lat="43.16578" lon="5.8486">
        <ele>314.39999389648</ele>
        <time>2016-05-15T09:54:43.000Z</time>
      </trkpt>
      <trkpt lat="43.16615" lon="5.8481">
        <ele>313.60000610352</ele>
        <time>2016-05-15T09:54:51.000Z</time>
      </trkpt>
      <trkpt lat="43.16634" lon="5.84785">
        <ele>311</ele>
        <time>2016-05-15T09:54:55.000Z</time>
      </trkpt>
      <trkpt lat="43.16654" lon="5.84765">
        <ele>309.79998779297</ele>
        <time>2016-05-15T09:54:59.000Z</time>
      </trkpt>
      <trkpt lat="43.1666" lon="5.84761">
        <ele>309.79998779297</ele>
        <time>2016-05-15T09:55:00.000Z</time>
      </trkpt>
      <trkpt lat="43.16678" lon="5.84754">
        <ele>310.79998779297</ele>
        <time>2016-05-15T09:55:03.000Z</time>
      </trkpt>
      <trkpt lat="43.16684" lon="5.84754">
        <ele>310.60000610352</ele>
        <time>2016-05-15T09:55:04.000Z</time>
      </trkpt>
      <trkpt lat="43.16691" lon="5.84753">
        <ele>310.79998779297</ele>
        <time>2016-05-15T09:55:05.000Z</time>
      </trkpt>
      <trkpt lat="43.16728" lon="5.84758">
        <ele>312</ele>
        <time>2016-05-15T09:55:11.000Z</time>
      </trkpt>
      <trkpt lat="43.16784" lon="5.84768">
        <ele>312.79998779297</ele>
        <time>2016-05-15T09:55:20.000Z</time>
      </trkpt>
      <trkpt lat="43.1679" lon="5.84769">
        <ele>312.60000610352</ele>
        <time>2016-05-15T09:55:21.000Z</time>
      </trkpt>
      <trkpt lat="43.16835" lon="5.84778">
        <ele>312.39999389648</ele>
        <time>2016-05-15T09:55:28.000Z</time>
      </trkpt>
      <trkpt lat="43.16885" lon="5.84786">
        <ele>312.39999389648</ele>
        <time>2016-05-15T09:55:36.000Z</time>
      </trkpt>
      <trkpt lat="43.16891" lon="5.84786">
        <ele>312.20001220703</ele>
        <time>2016-05-15T09:55:37.000Z</time>
      </trkpt>
      <trkpt lat="43.16897" lon="5.84785">
        <ele>312</ele>
        <time>2016-05-15T09:55:38.000Z</time>
      </trkpt>
      <trkpt lat="43.16914" lon="5.84775">
        <ele>311.79998779297</ele>
        <time>2016-05-15T09:55:41.000Z</time>
      </trkpt>
      <trkpt lat="43.16922" lon="5.84761">
        <ele>312</ele>
        <time>2016-05-15T09:55:43.000Z</time>
      </trkpt>
      <trkpt lat="43.16924" lon="5.84754">
        <ele>311.79998779297</ele>
        <time>2016-05-15T09:55:44.000Z</time>
      </trkpt>
      <trkpt lat="43.16927" lon="5.84738">
        <ele>311.60000610352</ele>
        <time>2016-05-15T09:55:46.000Z</time>
      </trkpt>
      <trkpt lat="43.1693" lon="5.84722">
        <ele>311</ele>
        <time>2016-05-15T09:55:48.000Z</time>
      </trkpt>
      <trkpt lat="43.16931" lon="5.84714">
        <ele>312</ele>
        <time>2016-05-15T09:55:49.000Z</time>
      </trkpt>
      <trkpt lat="43.16934" lon="5.84699">
        <ele>313.60000610352</ele>
        <time>2016-05-15T09:55:51.000Z</time>
      </trkpt>
      <trkpt lat="43.16943" lon="5.84681">
        <ele>315.79998779297</ele>
        <time>2016-05-15T09:55:54.000Z</time>
      </trkpt>
      <trkpt lat="43.16953" lon="5.84675">
        <ele>316.79998779297</ele>
        <time>2016-05-15T09:55:56.000Z</time>
      </trkpt>
      <trkpt lat="43.16959" lon="5.84672">
        <ele>317.20001220703</ele>
        <time>2016-05-15T09:55:57.000Z</time>
      </trkpt>
      <trkpt lat="43.16964" lon="5.84668">
        <ele>317.39999389648</ele>
        <time>2016-05-15T09:55:58.000Z</time>
      </trkpt>
      <trkpt lat="43.16973" lon="5.84657">
        <ele>318.20001220703</ele>
        <time>2016-05-15T09:56:00.000Z</time>
      </trkpt>
      <trkpt lat="43.16977" lon="5.84651">
        <ele>318.60000610352</ele>
        <time>2016-05-15T09:56:01.000Z</time>
      </trkpt>
      <trkpt lat="43.16981" lon="5.84645">
        <ele>319</ele>
        <time>2016-05-15T09:56:02.000Z</time>
      </trkpt>
      <trkpt lat="43.16988" lon="5.84635">
        <ele>319.79998779297</ele>
        <time>2016-05-15T09:56:04.000Z</time>
      </trkpt>
      <trkpt lat="43.16995" lon="5.84626">
        <ele>321</ele>
        <time>2016-05-15T09:56:06.000Z</time>
      </trkpt>
      <trkpt lat="43.17" lon="5.84625">
        <ele>321</ele>
        <time>2016-05-15T09:56:07.000Z</time>
      </trkpt>
      <trkpt lat="43.17004" lon="5.84624">
        <ele>321</ele>
        <time>2016-05-15T09:56:08.000Z</time>
      </trkpt>
      <trkpt lat="43.17009" lon="5.84624">
        <ele>321</ele>
        <time>2016-05-15T09:56:09.000Z</time>
      </trkpt>
      <trkpt lat="43.17015" lon="5.84625">
        <ele>320.60000610352</ele>
        <time>2016-05-15T09:56:10.000Z</time>
      </trkpt>
      <trkpt lat="43.17035" lon="5.84632">
        <ele>318.79998779297</ele>
        <time>2016-05-15T09:56:13.000Z</time>
      </trkpt>
      <trkpt lat="43.17091" lon="5.84651">
        <ele>315.20001220703</ele>
        <time>2016-05-15T09:56:21.000Z</time>
      </trkpt>
      <trkpt lat="43.1714" lon="5.84666">
        <ele>318.39999389648</ele>
        <time>2016-05-15T09:56:29.000Z</time>
      </trkpt>
      <trkpt lat="43.17152" lon="5.8467">
        <ele>319.20001220703</ele>
        <time>2016-05-15T09:56:31.000Z</time>
      </trkpt>
      <trkpt lat="43.1719" lon="5.84677">
        <ele>321.60000610352</ele>
        <time>2016-05-15T09:56:37.000Z</time>
      </trkpt>
      <trkpt lat="43.17244" lon="5.84686">
        <ele>323.79998779297</ele>
        <time>2016-05-15T09:56:46.000Z</time>
      </trkpt>
      <trkpt lat="43.1725" lon="5.84687">
        <ele>324</ele>
        <time>2016-05-15T09:56:47.000Z</time>
      </trkpt>
      <trkpt lat="43.1729" lon="5.84691">
        <ele>323.39999389648</ele>
        <time>2016-05-15T09:56:54.000Z</time>
      </trkpt>
      <trkpt lat="43.1733" lon="5.84696">
        <ele>322.60000610352</ele>
        <time>2016-05-15T09:57:01.000Z</time>
      </trkpt>
      <trkpt lat="43.17376" lon="5.84704">
        <ele>320.39999389648</ele>
        <time>2016-05-15T09:57:08.000Z</time>
      </trkpt>
      <trkpt lat="43.17412" lon="5.84708">
        <ele>318</ele>
        <time>2016-05-15T09:57:14.000Z</time>
      </trkpt>
      <trkpt lat="43.1743" lon="5.84711">
        <ele>316.20001220703</ele>
        <time>2016-05-15T09:57:17.000Z</time>
      </trkpt>
      <trkpt lat="43.17444" lon="5.84715">
        <ele>314.39999389648</ele>
        <time>2016-05-15T09:57:20.000Z</time>
      </trkpt>
      <trkpt lat="43.17447" lon="5.84717">
        <ele>314</ele>
        <time>2016-05-15T09:57:21.000Z</time>
      </trkpt>
      <trkpt lat="43.17449" lon="5.8472">
        <ele>313.79998779297</ele>
        <time>2016-05-15T09:57:22.000Z</time>
      </trkpt>
      <trkpt lat="43.17451" lon="5.84723">
        <ele>313.60000610352</ele>
        <time>2016-05-15T09:57:24.000Z</time>
      </trkpt>
      <trkpt lat="43.17452" lon="5.84724">
        <ele>313.79998779297</ele>
        <time>2016-05-15T09:57:25.000Z</time>
      </trkpt>
      <trkpt lat="43.17452" lon="5.84727">
        <ele>313.79998779297</ele>
        <time>2016-05-15T09:57:27.000Z</time>
      </trkpt>
      <trkpt lat="43.17452" lon="5.84729">
        <ele>314</ele>
        <time>2016-05-15T09:57:30.000Z</time>
      </trkpt>
      <trkpt lat="43.17451" lon="5.8473">
        <ele>314</ele>
        <time>2016-05-15T09:57:31.000Z</time>
      </trkpt>
      <trkpt lat="43.17451" lon="5.84727">
        <ele>314</ele>
        <time>2016-05-15T09:57:38.000Z</time>
      </trkpt>
      <trkpt lat="43.17454" lon="5.84726">
        <ele>313.39999389648</ele>
        <time>2016-05-15T09:57:40.000Z</time>
      </trkpt>
      <trkpt lat="43.17463" lon="5.84731">
        <ele>312.39999389648</ele>
        <time>2016-05-15T09:57:43.000Z</time>
      </trkpt>
      <trkpt lat="43.17467" lon="5.84734">
        <ele>312</ele>
        <time>2016-05-15T09:57:44.000Z</time>
      </trkpt>
      <trkpt lat="43.17475" lon="5.84742">
        <ele>311.39999389648</ele>
        <time>2016-05-15T09:57:46.000Z</time>
      </trkpt>
      <trkpt lat="43.17484" lon="5.84758">
        <ele>311</ele>
        <time>2016-05-15T09:57:48.000Z</time>
      </trkpt>
      <trkpt lat="43.17486" lon="5.84767">
        <ele>311.20001220703</ele>
        <time>2016-05-15T09:57:49.000Z</time>
      </trkpt>
      <trkpt lat="43.17488" lon="5.84789">
        <ele>312.20001220703</ele>
        <time>2016-05-15T09:57:51.000Z</time>
      </trkpt>
      <trkpt lat="43.17488" lon="5.84801">
        <ele>312.60000610352</ele>
        <time>2016-05-15T09:57:52.000Z</time>
      </trkpt>
      <trkpt lat="43.17488" lon="5.84837">
        <ele>313.20001220703</ele>
        <time>2016-05-15T09:57:55.000Z</time>
      </trkpt>
      <trkpt lat="43.17492" lon="5.84849">
        <ele>312.79998779297</ele>
        <time>2016-05-15T09:57:56.000Z</time>
      </trkpt>
      <trkpt lat="43.17503" lon="5.84873">
        <ele>311.79998779297</ele>
        <time>2016-05-15T09:57:58.000Z</time>
      </trkpt>
      <trkpt lat="43.1751" lon="5.84885">
        <ele>311.20001220703</ele>
        <time>2016-05-15T09:57:59.000Z</time>
      </trkpt>
      <trkpt lat="43.17525" lon="5.84909">
        <ele>310.60000610352</ele>
        <time>2016-05-15T09:58:01.000Z</time>
      </trkpt>
      <trkpt lat="43.17542" lon="5.84933">
        <ele>310.20001220703</ele>
        <time>2016-05-15T09:58:03.000Z</time>
      </trkpt>
      <trkpt lat="43.17558" lon="5.84957">
        <ele>309.60000610352</ele>
        <time>2016-05-15T09:58:05.000Z</time>
      </trkpt>
      <trkpt lat="43.17576" lon="5.8498">
        <ele>309</ele>
        <time>2016-05-15T09:58:07.000Z</time>
      </trkpt>
      <trkpt lat="43.17595" lon="5.85">
        <ele>308.20001220703</ele>
        <time>2016-05-15T09:58:09.000Z</time>
      </trkpt>
      <trkpt lat="43.17613" lon="5.85019">
        <ele>307.60000610352</ele>
        <time>2016-05-15T09:58:11.000Z</time>
      </trkpt>
      <trkpt lat="43.17629" lon="5.85038">
        <ele>307.20001220703</ele>
        <time>2016-05-15T09:58:13.000Z</time>
      </trkpt>
      <trkpt lat="43.17636" lon="5.85048">
        <ele>307</ele>
        <time>2016-05-15T09:58:14.000Z</time>
      </trkpt>
      <trkpt lat="43.17643" lon="5.85057">
        <ele>307</ele>
        <time>2016-05-15T09:58:15.000Z</time>
      </trkpt>
      <trkpt lat="43.17657" lon="5.85071">
        <ele>306.79998779297</ele>
        <time>2016-05-15T09:58:17.000Z</time>
      </trkpt>
      <trkpt lat="43.17664" lon="5.85075">
        <ele>306.20001220703</ele>
        <time>2016-05-15T09:58:18.000Z</time>
      </trkpt>
      <trkpt lat="43.17671" lon="5.85076">
        <ele>305</ele>
        <time>2016-05-15T09:58:19.000Z</time>
      </trkpt>
      <trkpt lat="43.17678" lon="5.85072">
        <ele>303.39999389648</ele>
        <time>2016-05-15T09:58:20.000Z</time>
      </trkpt>
      <trkpt lat="43.17684" lon="5.85066">
        <ele>301.20001220703</ele>
        <time>2016-05-15T09:58:21.000Z</time>
      </trkpt>
      <trkpt lat="43.17689" lon="5.85056">
        <ele>300.20001220703</ele>
        <time>2016-05-15T09:58:22.000Z</time>
      </trkpt>
      <trkpt lat="43.17691" lon="5.85045">
        <ele>298.39999389648</ele>
        <time>2016-05-15T09:58:23.000Z</time>
      </trkpt>
      <trkpt lat="43.1769" lon="5.85034">
        <ele>296.79998779297</ele>
        <time>2016-05-15T09:58:24.000Z</time>
      </trkpt>
      <trkpt lat="43.17688" lon="5.85022">
        <ele>295.20001220703</ele>
        <time>2016-05-15T09:58:25.000Z</time>
      </trkpt>
      <trkpt lat="43.17682" lon="5.84999">
        <ele>292.39999389648</ele>
        <time>2016-05-15T09:58:27.000Z</time>
      </trkpt>
      <trkpt lat="43.17678" lon="5.84978">
        <ele>289.79998779297</ele>
        <time>2016-05-15T09:58:29.000Z</time>
      </trkpt>
      <trkpt lat="43.17678" lon="5.84967">
        <ele>288.79998779297</ele>
        <time>2016-05-15T09:58:30.000Z</time>
      </trkpt>
      <trkpt lat="43.17681" lon="5.84956">
        <ele>288.39999389648</ele>
        <time>2016-05-15T09:58:31.000Z</time>
      </trkpt>
      <trkpt lat="43.17685" lon="5.84946">
        <ele>288</ele>
        <time>2016-05-15T09:58:32.000Z</time>
      </trkpt>
      <trkpt lat="43.17689" lon="5.84936">
        <ele>287.39999389648</ele>
        <time>2016-05-15T09:58:33.000Z</time>
      </trkpt>
      <trkpt lat="43.17694" lon="5.84928">
        <ele>287</ele>
        <time>2016-05-15T09:58:34.000Z</time>
      </trkpt>
      <trkpt lat="43.17698" lon="5.84921">
        <ele>286.60000610352</ele>
        <time>2016-05-15T09:58:35.000Z</time>
      </trkpt>
      <trkpt lat="43.17706" lon="5.8491">
        <ele>284.79998779297</ele>
        <time>2016-05-15T09:58:37.000Z</time>
      </trkpt>
      <trkpt lat="43.17711" lon="5.84906">
        <ele>282.79998779297</ele>
        <time>2016-05-15T09:58:39.000Z</time>
      </trkpt>
      <trkpt lat="43.17727" lon="5.84916">
        <ele>281.20001220703</ele>
        <time>2016-05-15T09:58:42.000Z</time>
      </trkpt>
      <trkpt lat="43.17745" lon="5.84932">
        <ele>280</ele>
        <time>2016-05-15T09:58:44.000Z</time>
      </trkpt>
      <trkpt lat="43.17755" lon="5.8494">
        <ele>279.20001220703</ele>
        <time>2016-05-15T09:58:45.000Z</time>
      </trkpt>
      <trkpt lat="43.17764" lon="5.84946">
        <ele>278.39999389648</ele>
        <time>2016-05-15T09:58:46.000Z</time>
      </trkpt>
      <trkpt lat="43.17774" lon="5.84955">
        <ele>278.20001220703</ele>
        <time>2016-05-15T09:58:47.000Z</time>
      </trkpt>
      <trkpt lat="43.17786" lon="5.84963">
        <ele>277.39999389648</ele>
        <time>2016-05-15T09:58:48.000Z</time>
      </trkpt>
      <trkpt lat="43.17797" lon="5.84967">
        <ele>276.20001220703</ele>
        <time>2016-05-15T09:58:49.000Z</time>
      </trkpt>
      <trkpt lat="43.17806" lon="5.84969">
        <ele>274.79998779297</ele>
        <time>2016-05-15T09:58:50.000Z</time>
      </trkpt>
      <trkpt lat="43.17814" lon="5.84965">
        <ele>272.39999389648</ele>
        <time>2016-05-15T09:58:51.000Z</time>
      </trkpt>
      <trkpt lat="43.17821" lon="5.84959">
        <ele>270</ele>
        <time>2016-05-15T09:58:52.000Z</time>
      </trkpt>
      <trkpt lat="43.17831" lon="5.84948">
        <ele>267.79998779297</ele>
        <time>2016-05-15T09:58:54.000Z</time>
      </trkpt>
      <trkpt lat="43.17833" lon="5.84948">
        <ele>267.79998779297</ele>
        <time>2016-05-15T09:58:55.000Z</time>
      </trkpt>
      <trkpt lat="43.17829" lon="5.84947">
        <ele>267.79998779297</ele>
        <time>2016-05-15T09:58:57.000Z</time>
      </trkpt>
      <trkpt lat="43.17827" lon="5.84944">
        <ele>267.79998779297</ele>
        <time>2016-05-15T09:58:58.000Z</time>
      </trkpt>
      <trkpt lat="43.17814" lon="5.84928">
        <ele>267.79998779297</ele>
        <time>2016-05-15T09:59:01.000Z</time>
      </trkpt>
      <trkpt lat="43.17793" lon="5.84902">
        <ele>267.79998779297</ele>
        <time>2016-05-15T09:59:05.000Z</time>
      </trkpt>
      <trkpt lat="43.17788" lon="5.84895">
        <ele>267.79998779297</ele>
        <time>2016-05-15T09:59:06.000Z</time>
      </trkpt>
      <trkpt lat="43.17762" lon="5.8486">
        <ele>268</ele>
        <time>2016-05-15T09:59:11.000Z</time>
      </trkpt>
      <trkpt lat="43.1774" lon="5.84832">
        <ele>270.79998779297</ele>
        <time>2016-05-15T09:59:15.000Z</time>
      </trkpt>
      <trkpt lat="43.17729" lon="5.84818">
        <ele>272.20001220703</ele>
        <time>2016-05-15T09:59:17.000Z</time>
      </trkpt>
      <trkpt lat="43.17693" lon="5.84765">
        <ele>267.79998779297</ele>
        <time>2016-05-15T09:59:24.000Z</time>
      </trkpt>
      <trkpt lat="43.17688" lon="5.84756">
        <ele>266.39999389648</ele>
        <time>2016-05-15T09:59:25.000Z</time>
      </trkpt>
      <trkpt lat="43.17678" lon="5.84736">
        <ele>263.20001220703</ele>
        <time>2016-05-15T09:59:27.000Z</time>
      </trkpt>
      <trkpt lat="43.17668" lon="5.84714">
        <ele>260.79998779297</ele>
        <time>2016-05-15T09:59:29.000Z</time>
      </trkpt>
      <trkpt lat="43.17659" lon="5.8469">
        <ele>260.39999389648</ele>
        <time>2016-05-15T09:59:31.000Z</time>
      </trkpt>
      <trkpt lat="43.17649" lon="5.84663">
        <ele>260.39999389648</ele>
        <time>2016-05-15T09:59:33.000Z</time>
      </trkpt>
      <trkpt lat="43.17644" lon="5.8465">
        <ele>260.39999389648</ele>
        <time>2016-05-15T09:59:34.000Z</time>
      </trkpt>
      <trkpt lat="43.17638" lon="5.84636">
        <ele>259.60000610352</ele>
        <time>2016-05-15T09:59:35.000Z</time>
      </trkpt>
      <trkpt lat="43.17633" lon="5.84622">
        <ele>256.39999389648</ele>
        <time>2016-05-15T09:59:36.000Z</time>
      </trkpt>
      <trkpt lat="43.17628" lon="5.84607">
        <ele>253.19999694824</ele>
        <time>2016-05-15T09:59:37.000Z</time>
      </trkpt>
      <trkpt lat="43.17624" lon="5.84591">
        <ele>249.60000610352</ele>
        <time>2016-05-15T09:59:38.000Z</time>
      </trkpt>
      <trkpt lat="43.17621" lon="5.84574">
        <ele>248.19999694824</ele>
        <time>2016-05-15T09:59:39.000Z</time>
      </trkpt>
      <trkpt lat="43.17613" lon="5.84542">
        <ele>245.39999389648</ele>
        <time>2016-05-15T09:59:41.000Z</time>
      </trkpt>
      <trkpt lat="43.176" lon="5.84512">
        <ele>239.60000610352</ele>
        <time>2016-05-15T09:59:43.000Z</time>
      </trkpt>
      <trkpt lat="43.17594" lon="5.84498">
        <ele>236.80000305176</ele>
        <time>2016-05-15T09:59:44.000Z</time>
      </trkpt>
      <trkpt lat="43.17587" lon="5.84484">
        <ele>236</ele>
        <time>2016-05-15T09:59:45.000Z</time>
      </trkpt>
      <trkpt lat="43.17573" lon="5.84457">
        <ele>233</ele>
        <time>2016-05-15T09:59:47.000Z</time>
      </trkpt>
      <trkpt lat="43.17564" lon="5.84445">
        <ele>231.39999389648</ele>
        <time>2016-05-15T09:59:48.000Z</time>
      </trkpt>
      <trkpt lat="43.17556" lon="5.84434">
        <ele>229.80000305176</ele>
        <time>2016-05-15T09:59:49.000Z</time>
      </trkpt>
      <trkpt lat="43.17548" lon="5.84422">
        <ele>229</ele>
        <time>2016-05-15T09:59:50.000Z</time>
      </trkpt>
      <trkpt lat="43.1754" lon="5.84411">
        <ele>228.39999389648</ele>
        <time>2016-05-15T09:59:51.000Z</time>
      </trkpt>
      <trkpt lat="43.17533" lon="5.844">
        <ele>227.80000305176</ele>
        <time>2016-05-15T09:59:52.000Z</time>
      </trkpt>
      <trkpt lat="43.17527" lon="5.84387">
        <ele>227</ele>
        <time>2016-05-15T09:59:53.000Z</time>
      </trkpt>
      <trkpt lat="43.17522" lon="5.84373">
        <ele>223.39999389648</ele>
        <time>2016-05-15T09:59:54.000Z</time>
      </trkpt>
      <trkpt lat="43.17518" lon="5.84358">
        <ele>220</ele>
        <time>2016-05-15T09:59:55.000Z</time>
      </trkpt>
      <trkpt lat="43.17513" lon="5.84343">
        <ele>216.60000610352</ele>
        <time>2016-05-15T09:59:56.000Z</time>
      </trkpt>
      <trkpt lat="43.17509" lon="5.84328">
        <ele>214.39999389648</ele>
        <time>2016-05-15T09:59:57.000Z</time>
      </trkpt>
      <trkpt lat="43.17504" lon="5.84312">
        <ele>213.39999389648</ele>
        <time>2016-05-15T09:59:58.000Z</time>
      </trkpt>
      <trkpt lat="43.17499" lon="5.84296">
        <ele>211.19999694824</ele>
        <time>2016-05-15T09:59:59.000Z</time>
      </trkpt>
      <trkpt lat="43.17496" lon="5.84279">
        <ele>210.80000305176</ele>
        <time>2016-05-15T10:00:00.000Z</time>
      </trkpt>
      <trkpt lat="43.17494" lon="5.84262">
        <ele>210.60000610352</ele>
        <time>2016-05-15T10:00:01.000Z</time>
      </trkpt>
      <trkpt lat="43.17492" lon="5.84245">
        <ele>210.19999694824</ele>
        <time>2016-05-15T10:00:02.000Z</time>
      </trkpt>
      <trkpt lat="43.17492" lon="5.84228">
        <ele>209.60000610352</ele>
        <time>2016-05-15T10:00:03.000Z</time>
      </trkpt>
      <trkpt lat="43.17492" lon="5.84211">
        <ele>207.60000610352</ele>
        <time>2016-05-15T10:00:04.000Z</time>
      </trkpt>
      <trkpt lat="43.17491" lon="5.84194">
        <ele>206.80000305176</ele>
        <time>2016-05-15T10:00:05.000Z</time>
      </trkpt>
      <trkpt lat="43.17491" lon="5.84179">
        <ele>208</ele>
        <time>2016-05-15T10:00:06.000Z</time>
      </trkpt>
      <trkpt lat="43.1749" lon="5.84165">
        <ele>208.80000305176</ele>
        <time>2016-05-15T10:00:07.000Z</time>
      </trkpt>
      <trkpt lat="43.17487" lon="5.84151">
        <ele>209.60000610352</ele>
        <time>2016-05-15T10:00:08.000Z</time>
      </trkpt>
      <trkpt lat="43.17482" lon="5.84138">
        <ele>210.19999694824</ele>
        <time>2016-05-15T10:00:09.000Z</time>
      </trkpt>
      <trkpt lat="43.17469" lon="5.84115">
        <ele>206.60000610352</ele>
        <time>2016-05-15T10:00:11.000Z</time>
      </trkpt>
      <trkpt lat="43.17453" lon="5.84093">
        <ele>203</ele>
        <time>2016-05-15T10:00:13.000Z</time>
      </trkpt>
      <trkpt lat="43.17445" lon="5.84082">
        <ele>201.19999694824</ele>
        <time>2016-05-15T10:00:14.000Z</time>
      </trkpt>
      <trkpt lat="43.17438" lon="5.84071">
        <ele>199.39999389648</ele>
        <time>2016-05-15T10:00:15.000Z</time>
      </trkpt>
      <trkpt lat="43.1743" lon="5.84059">
        <ele>197.39999389648</ele>
        <time>2016-05-15T10:00:16.000Z</time>
      </trkpt>
      <trkpt lat="43.17423" lon="5.84046">
        <ele>197.19999694824</ele>
        <time>2016-05-15T10:00:17.000Z</time>
      </trkpt>
      <trkpt lat="43.17411" lon="5.84019">
        <ele>197.39999389648</ele>
        <time>2016-05-15T10:00:19.000Z</time>
      </trkpt>
      <trkpt lat="43.174" lon="5.83991">
        <ele>197.60000610352</ele>
        <time>2016-05-15T10:00:21.000Z</time>
      </trkpt>
      <trkpt lat="43.17395" lon="5.83977">
        <ele>197.60000610352</ele>
        <time>2016-05-15T10:00:22.000Z</time>
      </trkpt>
      <trkpt lat="43.1739" lon="5.83964">
        <ele>195.39999389648</ele>
        <time>2016-05-15T10:00:23.000Z</time>
      </trkpt>
      <trkpt lat="43.17385" lon="5.8395">
        <ele>191.80000305176</ele>
        <time>2016-05-15T10:00:24.000Z</time>
      </trkpt>
      <trkpt lat="43.17382" lon="5.83936">
        <ele>188</ele>
        <time>2016-05-15T10:00:25.000Z</time>
      </trkpt>
      <trkpt lat="43.1738" lon="5.83921">
        <ele>185</ele>
        <time>2016-05-15T10:00:26.000Z</time>
      </trkpt>
      <trkpt lat="43.17379" lon="5.83894">
        <ele>184.19999694824</ele>
        <time>2016-05-15T10:00:28.000Z</time>
      </trkpt>
      <trkpt lat="43.17379" lon="5.83881">
        <ele>183.80000305176</ele>
        <time>2016-05-15T10:00:29.000Z</time>
      </trkpt>
      <trkpt lat="43.17378" lon="5.83868">
        <ele>183.60000610352</ele>
        <time>2016-05-15T10:00:30.000Z</time>
      </trkpt>
      <trkpt lat="43.17377" lon="5.83857">
        <ele>183.19999694824</ele>
        <time>2016-05-15T10:00:31.000Z</time>
      </trkpt>
      <trkpt lat="43.17374" lon="5.83846">
        <ele>182.60000610352</ele>
        <time>2016-05-15T10:00:32.000Z</time>
      </trkpt>
      <trkpt lat="43.17371" lon="5.83837">
        <ele>181.60000610352</ele>
        <time>2016-05-15T10:00:33.000Z</time>
      </trkpt>
      <trkpt lat="43.17355" lon="5.83812">
        <ele>178.19999694824</ele>
        <time>2016-05-15T10:00:36.000Z</time>
      </trkpt>
      <trkpt lat="43.17349" lon="5.83803">
        <ele>177.19999694824</ele>
        <time>2016-05-15T10:00:37.000Z</time>
      </trkpt>
      <trkpt lat="43.17337" lon="5.83785">
        <ele>178</ele>
        <time>2016-05-15T10:00:39.000Z</time>
      </trkpt>
      <trkpt lat="43.17321" lon="5.83755">
        <ele>180.39999389648</ele>
        <time>2016-05-15T10:00:42.000Z</time>
      </trkpt>
      <trkpt lat="43.17315" lon="5.83745">
        <ele>181.19999694824</ele>
        <time>2016-05-15T10:00:43.000Z</time>
      </trkpt>
      <trkpt lat="43.17304" lon="5.83724">
        <ele>183</ele>
        <time>2016-05-15T10:00:45.000Z</time>
      </trkpt>
      <trkpt lat="43.17287" lon="5.83693">
        <ele>178</ele>
        <time>2016-05-15T10:00:48.000Z</time>
      </trkpt>
      <trkpt lat="43.17277" lon="5.8367">
        <ele>174.19999694824</ele>
        <time>2016-05-15T10:00:50.000Z</time>
      </trkpt>
      <trkpt lat="43.17274" lon="5.83657">
        <ele>172.39999389648</ele>
        <time>2016-05-15T10:00:51.000Z</time>
      </trkpt>
      <trkpt lat="43.17273" lon="5.83631">
        <ele>172</ele>
        <time>2016-05-15T10:00:53.000Z</time>
      </trkpt>
      <trkpt lat="43.17274" lon="5.83618">
        <ele>172</ele>
        <time>2016-05-15T10:00:54.000Z</time>
      </trkpt>
      <trkpt lat="43.17274" lon="5.83605">
        <ele>172.19999694824</ele>
        <time>2016-05-15T10:00:55.000Z</time>
      </trkpt>
      <trkpt lat="43.17274" lon="5.8358">
        <ele>172</ele>
        <time>2016-05-15T10:00:57.000Z</time>
      </trkpt>
      <trkpt lat="43.17271" lon="5.83547">
        <ele>170.39999389648</ele>
        <time>2016-05-15T10:01:00.000Z</time>
      </trkpt>
      <trkpt lat="43.17268" lon="5.83537">
        <ele>170.39999389648</ele>
        <time>2016-05-15T10:01:01.000Z</time>
      </trkpt>
      <trkpt lat="43.17259" lon="5.8351">
        <ele>170</ele>
        <time>2016-05-15T10:01:04.000Z</time>
      </trkpt>
      <trkpt lat="43.17255" lon="5.83501">
        <ele>170.19999694824</ele>
        <time>2016-05-15T10:01:05.000Z</time>
      </trkpt>
      <trkpt lat="43.17246" lon="5.83475">
        <ele>170.80000305176</ele>
        <time>2016-05-15T10:01:08.000Z</time>
      </trkpt>
      <trkpt lat="43.17233" lon="5.83428">
        <ele>167.19999694824</ele>
        <time>2016-05-15T10:01:13.000Z</time>
      </trkpt>
      <trkpt lat="43.17231" lon="5.83418">
        <ele>166.39999389648</ele>
        <time>2016-05-15T10:01:14.000Z</time>
      </trkpt>
      <trkpt lat="43.17222" lon="5.83368">
        <ele>163</ele>
        <time>2016-05-15T10:01:19.000Z</time>
      </trkpt>
      <trkpt lat="43.17219" lon="5.83347">
        <ele>162</ele>
        <time>2016-05-15T10:01:21.000Z</time>
      </trkpt>
      <trkpt lat="43.17218" lon="5.83336">
        <ele>161.39999389648</ele>
        <time>2016-05-15T10:01:22.000Z</time>
      </trkpt>
      <trkpt lat="43.17218" lon="5.83305">
        <ele>159.39999389648</ele>
        <time>2016-05-15T10:01:25.000Z</time>
      </trkpt>
      <trkpt lat="43.17219" lon="5.83285">
        <ele>157.80000305176</ele>
        <time>2016-05-15T10:01:27.000Z</time>
      </trkpt>
      <trkpt lat="43.17222" lon="5.83265">
        <ele>156.19999694824</ele>
        <time>2016-05-15T10:01:29.000Z</time>
      </trkpt>
      <trkpt lat="43.17224" lon="5.83247">
        <ele>155.60000610352</ele>
        <time>2016-05-15T10:01:31.000Z</time>
      </trkpt>
      <trkpt lat="43.17227" lon="5.83232">
        <ele>155.19999694824</ele>
        <time>2016-05-15T10:01:33.000Z</time>
      </trkpt>
      <trkpt lat="43.17232" lon="5.83209">
        <ele>154.39999389648</ele>
        <time>2016-05-15T10:01:36.000Z</time>
      </trkpt>
      <trkpt lat="43.17234" lon="5.83194">
        <ele>154</ele>
        <time>2016-05-15T10:01:38.000Z</time>
      </trkpt>
      <trkpt lat="43.17234" lon="5.83186">
        <ele>153.39999389648</ele>
        <time>2016-05-15T10:01:39.000Z</time>
      </trkpt>
      <trkpt lat="43.17233" lon="5.83173">
        <ele>152.39999389648</ele>
        <time>2016-05-15T10:01:41.000Z</time>
      </trkpt>
      <trkpt lat="43.17232" lon="5.83164">
        <ele>151.80000305176</ele>
        <time>2016-05-15T10:01:43.000Z</time>
      </trkpt>
      <trkpt lat="43.17232" lon="5.83159">
        <ele>151.39999389648</ele>
        <time>2016-05-15T10:01:45.000Z</time>
      </trkpt>
      <trkpt lat="43.17232" lon="5.83157">
        <ele>151.39999389648</ele>
        <time>2016-05-15T10:01:46.000Z</time>
      </trkpt>
      <trkpt lat="43.17231" lon="5.83154">
        <ele>151</ele>
        <time>2016-05-15T10:01:48.000Z</time>
      </trkpt>
      <trkpt lat="43.17231" lon="5.83153">
        <ele>151</ele>
        <time>2016-05-15T10:01:49.000Z</time>
      </trkpt>
      <trkpt lat="43.1723" lon="5.83145">
        <ele>150.39999389648</ele>
        <time>2016-05-15T10:02:38.000Z</time>
      </trkpt>
      <trkpt lat="43.17231" lon="5.83137">
        <ele>150</ele>
        <time>2016-05-15T10:02:40.000Z</time>
      </trkpt>
      <trkpt lat="43.1723" lon="5.83132">
        <ele>149.80000305176</ele>
        <time>2016-05-15T10:02:41.000Z</time>
      </trkpt>
      <trkpt lat="43.17228" lon="5.83113">
        <ele>149</ele>
        <time>2016-05-15T10:02:44.000Z</time>
      </trkpt>
      <trkpt lat="43.17226" lon="5.83099">
        <ele>148.60000610352</ele>
        <time>2016-05-15T10:02:46.000Z</time>
      </trkpt>
      <trkpt lat="43.17222" lon="5.83062">
        <ele>147.19999694824</ele>
        <time>2016-05-15T10:02:52.000Z</time>
      </trkpt>
      <trkpt lat="43.17222" lon="5.83055">
        <ele>147</ele>
        <time>2016-05-15T10:02:53.000Z</time>
      </trkpt>
      <trkpt lat="43.17219" lon="5.83033">
        <ele>147.19999694824</ele>
        <time>2016-05-15T10:02:56.000Z</time>
      </trkpt>
      <trkpt lat="43.17217" lon="5.83019">
        <ele>147.39999389648</ele>
        <time>2016-05-15T10:02:58.000Z</time>
      </trkpt>
      <trkpt lat="43.17224" lon="5.83001">
        <ele>147.80000305176</ele>
        <time>2016-05-15T10:03:01.000Z</time>
      </trkpt>
      <trkpt lat="43.1723" lon="5.82994">
        <ele>148.19999694824</ele>
        <time>2016-05-15T10:03:03.000Z</time>
      </trkpt>
      <trkpt lat="43.17244" lon="5.82981">
        <ele>148.60000610352</ele>
        <time>2016-05-15T10:03:07.000Z</time>
      </trkpt>
      <trkpt lat="43.17275" lon="5.82962">
        <ele>148.80000305176</ele>
        <time>2016-05-15T10:03:15.000Z</time>
      </trkpt>
      <trkpt lat="43.17279" lon="5.8296">
        <ele>148.80000305176</ele>
        <time>2016-05-15T10:03:16.000Z</time>
      </trkpt>
      <trkpt lat="43.17307" lon="5.82942">
        <ele>148.39999389648</ele>
        <time>2016-05-15T10:03:22.000Z</time>
      </trkpt>
      <trkpt lat="43.17328" lon="5.8293">
        <ele>149.39999389648</ele>
        <time>2016-05-15T10:03:26.000Z</time>
      </trkpt>
      <trkpt lat="43.17348" lon="5.82919">
        <ele>150.60000610352</ele>
        <time>2016-05-15T10:03:30.000Z</time>
      </trkpt>
      <trkpt lat="43.17358" lon="5.82912">
        <ele>151</ele>
        <time>2016-05-15T10:03:32.000Z</time>
      </trkpt>
      <trkpt lat="43.17378" lon="5.82898">
        <ele>151.60000610352</ele>
        <time>2016-05-15T10:03:36.000Z</time>
      </trkpt>
      <trkpt lat="43.17388" lon="5.8289">
        <ele>152</ele>
        <time>2016-05-15T10:03:38.000Z</time>
      </trkpt>
      <trkpt lat="43.17408" lon="5.82877">
        <ele>152.19999694824</ele>
        <time>2016-05-15T10:03:42.000Z</time>
      </trkpt>
      <trkpt lat="43.17423" lon="5.82865">
        <ele>152.60000610352</ele>
        <time>2016-05-15T10:03:45.000Z</time>
      </trkpt>
      <trkpt lat="43.17428" lon="5.82862">
        <ele>152.60000610352</ele>
        <time>2016-05-15T10:03:46.000Z</time>
      </trkpt>
      <trkpt lat="43.17464" lon="5.82836">
        <ele>153.19999694824</ele>
        <time>2016-05-15T10:03:53.000Z</time>
      </trkpt>
      <trkpt lat="43.17495" lon="5.82814">
        <ele>153.80000305176</ele>
        <time>2016-05-15T10:03:59.000Z</time>
      </trkpt>
      <trkpt lat="43.17516" lon="5.82799">
        <ele>154</ele>
        <time>2016-05-15T10:04:03.000Z</time>
      </trkpt>
      <trkpt lat="43.17537" lon="5.82779">
        <ele>153.80000305176</ele>
        <time>2016-05-15T10:04:08.000Z</time>
      </trkpt>
      <trkpt lat="43.17541" lon="5.82779">
        <ele>153.60000610352</ele>
        <time>2016-05-15T10:04:09.000Z</time>
      </trkpt>
      <trkpt lat="43.17552" lon="5.82791">
        <ele>153.19999694824</ele>
        <time>2016-05-15T10:04:12.000Z</time>
      </trkpt>
      <trkpt lat="43.17554" lon="5.82809">
        <ele>153</ele>
        <time>2016-05-15T10:04:14.000Z</time>
      </trkpt>
      <trkpt lat="43.17555" lon="5.82819">
        <ele>153.19999694824</ele>
        <time>2016-05-15T10:04:15.000Z</time>
      </trkpt>
      <trkpt lat="43.1756" lon="5.82846">
        <ele>153.80000305176</ele>
        <time>2016-05-15T10:04:18.000Z</time>
      </trkpt>
      <trkpt lat="43.17559" lon="5.82854">
        <ele>154</ele>
        <time>2016-05-15T10:04:19.000Z</time>
      </trkpt>
      <trkpt lat="43.17564" lon="5.8287">
        <ele>153.80000305176</ele>
        <time>2016-05-15T10:04:22.000Z</time>
      </trkpt>
      <trkpt lat="43.17571" lon="5.8287">
        <ele>153.80000305176</ele>
        <time>2016-05-15T10:04:24.000Z</time>
      </trkpt>
      <trkpt lat="43.17575" lon="5.82869">
        <ele>154</ele>
        <time>2016-05-15T10:04:25.000Z</time>
      </trkpt>
      <trkpt lat="43.17601" lon="5.82863">
        <ele>153.19999694824</ele>
        <time>2016-05-15T10:04:30.000Z</time>
      </trkpt>
      <trkpt lat="43.17647" lon="5.82857">
        <ele>151.39999389648</ele>
        <time>2016-05-15T10:04:38.000Z</time>
      </trkpt>
      <trkpt lat="43.17687" lon="5.82852">
        <ele>151.19999694824</ele>
        <time>2016-05-15T10:04:45.000Z</time>
      </trkpt>
      <trkpt lat="43.17718" lon="5.82841">
        <ele>152</ele>
        <time>2016-05-15T10:04:51.000Z</time>
      </trkpt>
      <trkpt lat="43.17723" lon="5.82839">
        <ele>152.39999389648</ele>
        <time>2016-05-15T10:04:52.000Z</time>
      </trkpt>
      <trkpt lat="43.17728" lon="5.82836">
        <ele>152.60000610352</ele>
        <time>2016-05-15T10:04:53.000Z</time>
      </trkpt>
      <trkpt lat="43.17754" lon="5.8282">
        <ele>154.19999694824</ele>
        <time>2016-05-15T10:04:58.000Z</time>
      </trkpt>
      <trkpt lat="43.17758" lon="5.82817">
        <ele>154.60000610352</ele>
        <time>2016-05-15T10:04:59.000Z</time>
      </trkpt>
      <trkpt lat="43.17792" lon="5.82795">
        <ele>155</ele>
        <time>2016-05-15T10:05:06.000Z</time>
      </trkpt>
      <trkpt lat="43.17836" lon="5.82766">
        <ele>155</ele>
        <time>2016-05-15T10:05:15.000Z</time>
      </trkpt>
      <trkpt lat="43.17868" lon="5.82751">
        <ele>155.60000610352</ele>
        <time>2016-05-15T10:05:21.000Z</time>
      </trkpt>
      <trkpt lat="43.17883" lon="5.82742">
        <ele>155.39999389648</ele>
        <time>2016-05-15T10:05:24.000Z</time>
      </trkpt>
      <trkpt lat="43.17888" lon="5.82738">
        <ele>155.39999389648</ele>
        <time>2016-05-15T10:05:25.000Z</time>
      </trkpt>
      <trkpt lat="43.17901" lon="5.82725">
        <ele>155</ele>
        <time>2016-05-15T10:05:28.000Z</time>
      </trkpt>
      <trkpt lat="43.17906" lon="5.82722">
        <ele>155</ele>
        <time>2016-05-15T10:05:29.000Z</time>
      </trkpt>
      <trkpt lat="43.1791" lon="5.82718">
        <ele>155</ele>
        <time>2016-05-15T10:05:30.000Z</time>
      </trkpt>
      <trkpt lat="43.17934" lon="5.82698">
        <ele>155.60000610352</ele>
        <time>2016-05-15T10:05:35.000Z</time>
      </trkpt>
      <trkpt lat="43.17943" lon="5.8269">
        <ele>156</ele>
        <time>2016-05-15T10:05:37.000Z</time>
      </trkpt>
      <trkpt lat="43.17952" lon="5.82682">
        <ele>156.19999694824</ele>
        <time>2016-05-15T10:05:39.000Z</time>
      </trkpt>
      <trkpt lat="43.17976" lon="5.82662">
        <ele>157.39999389648</ele>
        <time>2016-05-15T10:05:44.000Z</time>
      </trkpt>
      <trkpt lat="43.1799" lon="5.82651">
        <ele>158</ele>
        <time>2016-05-15T10:05:47.000Z</time>
      </trkpt>
      <trkpt lat="43.17995" lon="5.82647">
        <ele>158.39999389648</ele>
        <time>2016-05-15T10:05:48.000Z</time>
      </trkpt>
      <trkpt lat="43.18015" lon="5.82635">
        <ele>159</ele>
        <time>2016-05-15T10:05:52.000Z</time>
      </trkpt>
      <trkpt lat="43.1803" lon="5.82626">
        <ele>159.39999389648</ele>
        <time>2016-05-15T10:05:55.000Z</time>
      </trkpt>
      <trkpt lat="43.18051" lon="5.82614">
        <ele>159.60000610352</ele>
        <time>2016-05-15T10:05:59.000Z</time>
      </trkpt>
      <trkpt lat="43.1808" lon="5.82596">
        <ele>160.39999389648</ele>
        <time>2016-05-15T10:06:05.000Z</time>
      </trkpt>
      <trkpt lat="43.18112" lon="5.82565">
        <ele>162</ele>
        <time>2016-05-15T10:06:12.000Z</time>
      </trkpt>
      <trkpt lat="43.18116" lon="5.82561">
        <ele>162</ele>
        <time>2016-05-15T10:06:13.000Z</time>
      </trkpt>
      <trkpt lat="43.18151" lon="5.8252">
        <ele>162</ele>
        <time>2016-05-15T10:06:21.000Z</time>
      </trkpt>
      <trkpt lat="43.18187" lon="5.82469">
        <ele>162.19999694824</ele>
        <time>2016-05-15T10:06:30.000Z</time>
      </trkpt>
      <trkpt lat="43.18195" lon="5.82459">
        <ele>162.80000305176</ele>
        <time>2016-05-15T10:06:32.000Z</time>
      </trkpt>
      <trkpt lat="43.18224" lon="5.82434">
        <ele>164.39999389648</ele>
        <time>2016-05-15T10:06:38.000Z</time>
      </trkpt>
      <trkpt lat="43.18229" lon="5.8243">
        <ele>164.19999694824</ele>
        <time>2016-05-15T10:06:39.000Z</time>
      </trkpt>
      <trkpt lat="43.18273" lon="5.82393">
        <ele>164.39999389648</ele>
        <time>2016-05-15T10:06:48.000Z</time>
      </trkpt>
      <trkpt lat="43.18319" lon="5.82347">
        <ele>167.60000610352</ele>
        <time>2016-05-15T10:06:58.000Z</time>
      </trkpt>
      <trkpt lat="43.18361" lon="5.82306">
        <ele>168.60000610352</ele>
        <time>2016-05-15T10:07:07.000Z</time>
      </trkpt>
      <trkpt lat="43.18371" lon="5.82297">
        <ele>168.39999389648</ele>
        <time>2016-05-15T10:07:09.000Z</time>
      </trkpt>
      <trkpt lat="43.18403" lon="5.82275">
        <ele>168</ele>
        <time>2016-05-15T10:07:15.000Z</time>
      </trkpt>
      <trkpt lat="43.18423" lon="5.82258">
        <ele>167.60000610352</ele>
        <time>2016-05-15T10:07:19.000Z</time>
      </trkpt>
      <trkpt lat="43.18437" lon="5.82243">
        <ele>168</ele>
        <time>2016-05-15T10:07:22.000Z</time>
      </trkpt>
      <trkpt lat="43.18461" lon="5.82221">
        <ele>169.19999694824</ele>
        <time>2016-05-15T10:07:27.000Z</time>
      </trkpt>
      <trkpt lat="43.18471" lon="5.82214">
        <ele>170</ele>
        <time>2016-05-15T10:07:29.000Z</time>
      </trkpt>
      <trkpt lat="43.18504" lon="5.82196">
        <ele>171.39999389648</ele>
        <time>2016-05-15T10:07:35.000Z</time>
      </trkpt>
      <trkpt lat="43.1853" lon="5.82181">
        <ele>171.19999694824</ele>
        <time>2016-05-15T10:07:40.000Z</time>
      </trkpt>
      <trkpt lat="43.1855" lon="5.82166">
        <ele>171.39999389648</ele>
        <time>2016-05-15T10:07:44.000Z</time>
      </trkpt>
      <trkpt lat="43.1856" lon="5.82157">
        <ele>171.60000610352</ele>
        <time>2016-05-15T10:07:46.000Z</time>
      </trkpt>
      <trkpt lat="43.18594" lon="5.82128">
        <ele>172.39999389648</ele>
        <time>2016-05-15T10:07:53.000Z</time>
      </trkpt>
      <trkpt lat="43.18623" lon="5.821">
        <ele>173</ele>
        <time>2016-05-15T10:08:00.000Z</time>
      </trkpt>
      <trkpt lat="43.18635" lon="5.82093">
        <ele>173.19999694824</ele>
        <time>2016-05-15T10:08:04.000Z</time>
      </trkpt>
      <trkpt lat="43.18642" lon="5.82086">
        <ele>173.19999694824</ele>
        <time>2016-05-15T10:08:06.000Z</time>
      </trkpt>
      <trkpt lat="43.18649" lon="5.82077">
        <ele>173.19999694824</ele>
        <time>2016-05-15T10:08:08.000Z</time>
      </trkpt>
      <trkpt lat="43.18683" lon="5.82039">
        <ele>173.39999389648</ele>
        <time>2016-05-15T10:08:16.000Z</time>
      </trkpt>
      <trkpt lat="43.18718" lon="5.82005">
        <ele>172.80000305176</ele>
        <time>2016-05-15T10:08:24.000Z</time>
      </trkpt>
      <trkpt lat="43.1874" lon="5.81985">
        <ele>172</ele>
        <time>2016-05-15T10:08:30.000Z</time>
      </trkpt>
      <trkpt lat="43.18747" lon="5.81985">
        <ele>171.60000610352</ele>
        <time>2016-05-15T10:08:34.000Z</time>
      </trkpt>
      <trkpt lat="43.18753" lon="5.81992">
        <ele>171</ele>
        <time>2016-05-15T10:08:36.000Z</time>
      </trkpt>
      <trkpt lat="43.18757" lon="5.81997">
        <ele>170.60000610352</ele>
        <time>2016-05-15T10:08:37.000Z</time>
      </trkpt>
      <trkpt lat="43.18786" lon="5.8203">
        <ele>169</ele>
        <time>2016-05-15T10:08:43.000Z</time>
      </trkpt>
      <trkpt lat="43.18812" lon="5.8206">
        <ele>167.80000305176</ele>
        <time>2016-05-15T10:08:48.000Z</time>
      </trkpt>
      <trkpt lat="43.18829" lon="5.82078">
        <ele>167.19999694824</ele>
        <time>2016-05-15T10:08:51.000Z</time>
      </trkpt>
      <trkpt lat="43.18847" lon="5.82092">
        <ele>166.60000610352</ele>
        <time>2016-05-15T10:08:54.000Z</time>
      </trkpt>
      <trkpt lat="43.1886" lon="5.82096">
        <ele>166.60000610352</ele>
        <time>2016-05-15T10:08:56.000Z</time>
      </trkpt>
      <trkpt lat="43.18873" lon="5.82101">
        <ele>166.80000305176</ele>
        <time>2016-05-15T10:08:58.000Z</time>
      </trkpt>
      <trkpt lat="43.18911" lon="5.82111">
        <ele>167</ele>
        <time>2016-05-15T10:09:04.000Z</time>
      </trkpt>
      <trkpt lat="43.18941" lon="5.82115">
        <ele>166.80000305176</ele>
        <time>2016-05-15T10:09:09.000Z</time>
      </trkpt>
      <trkpt lat="43.18959" lon="5.82118">
        <ele>166.60000610352</ele>
        <time>2016-05-15T10:09:12.000Z</time>
      </trkpt>
      <trkpt lat="43.19001" lon="5.82115">
        <ele>166.39999389648</ele>
        <time>2016-05-15T10:09:19.000Z</time>
      </trkpt>
      <trkpt lat="43.19043" lon="5.82104">
        <ele>166.80000305176</ele>
        <time>2016-05-15T10:09:26.000Z</time>
      </trkpt>
      <trkpt lat="43.19048" lon="5.82101">
        <ele>167</ele>
        <time>2016-05-15T10:09:27.000Z</time>
      </trkpt>
      <trkpt lat="43.19075" lon="5.82083">
        <ele>165.60000610352</ele>
        <time>2016-05-15T10:09:32.000Z</time>
      </trkpt>
      <trkpt lat="43.19125" lon="5.82057">
        <ele>164</ele>
        <time>2016-05-15T10:09:41.000Z</time>
      </trkpt>
      <trkpt lat="43.19136" lon="5.82055">
        <ele>164</ele>
        <time>2016-05-15T10:09:43.000Z</time>
      </trkpt>
      <trkpt lat="43.19147" lon="5.82054">
        <ele>164</ele>
        <time>2016-05-15T10:09:45.000Z</time>
      </trkpt>
      <trkpt lat="43.19153" lon="5.82052">
        <ele>164</ele>
        <time>2016-05-15T10:09:46.000Z</time>
      </trkpt>
      <trkpt lat="43.19166" lon="5.82037">
        <ele>164.19999694824</ele>
        <time>2016-05-15T10:09:49.000Z</time>
      </trkpt>
      <trkpt lat="43.192" lon="5.82008">
        <ele>164</ele>
        <time>2016-05-15T10:09:56.000Z</time>
      </trkpt>
      <trkpt lat="43.19254" lon="5.81975">
        <ele>164.80000305176</ele>
        <time>2016-05-15T10:10:06.000Z</time>
      </trkpt>
      <trkpt lat="43.19259" lon="5.8197">
        <ele>165</ele>
        <time>2016-05-15T10:10:07.000Z</time>
      </trkpt>
      <trkpt lat="43.19285" lon="5.81937">
        <ele>165</ele>
        <time>2016-05-15T10:10:13.000Z</time>
      </trkpt>
      <trkpt lat="43.19307" lon="5.8189">
        <ele>164.39999389648</ele>
        <time>2016-05-15T10:10:20.000Z</time>
      </trkpt>
      <trkpt lat="43.19324" lon="5.81839">
        <ele>162.39999389648</ele>
        <time>2016-05-15T10:10:27.000Z</time>
      </trkpt>
      <trkpt lat="43.1933" lon="5.81815">
        <ele>161.60000610352</ele>
        <time>2016-05-15T10:10:30.000Z</time>
      </trkpt>
      <trkpt lat="43.19348" lon="5.81755">
        <ele>161.80000305176</ele>
        <time>2016-05-15T10:10:38.000Z</time>
      </trkpt>
      <trkpt lat="43.19351" lon="5.81748">
        <ele>162</ele>
        <time>2016-05-15T10:10:39.000Z</time>
      </trkpt>
      <trkpt lat="43.19364" lon="5.81709">
        <ele>161.80000305176</ele>
        <time>2016-05-15T10:10:45.000Z</time>
      </trkpt>
      <trkpt lat="43.19375" lon="5.81701">
        <ele>161.80000305176</ele>
        <time>2016-05-15T10:10:48.000Z</time>
      </trkpt>
      <trkpt lat="43.1938" lon="5.81698">
        <ele>161.80000305176</ele>
        <time>2016-05-15T10:10:49.000Z</time>
      </trkpt>
      <trkpt lat="43.19395" lon="5.81688">
        <ele>161.60000610352</ele>
        <time>2016-05-15T10:10:52.000Z</time>
      </trkpt>
      <trkpt lat="43.19399" lon="5.81681">
        <ele>161.19999694824</ele>
        <time>2016-05-15T10:10:53.000Z</time>
      </trkpt>
      <trkpt lat="43.19416" lon="5.81648">
        <ele>159.60000610352</ele>
        <time>2016-05-15T10:10:58.000Z</time>
      </trkpt>
      <trkpt lat="43.19454" lon="5.81594">
        <ele>158.80000305176</ele>
        <time>2016-05-15T10:11:07.000Z</time>
      </trkpt>
      <trkpt lat="43.19459" lon="5.81589">
        <ele>158.80000305176</ele>
        <time>2016-05-15T10:11:08.000Z</time>
      </trkpt>
      <trkpt lat="43.19475" lon="5.81565">
        <ele>159.19999694824</ele>
        <time>2016-05-15T10:11:12.000Z</time>
      </trkpt>
      <trkpt lat="43.19479" lon="5.8155">
        <ele>159.39999389648</ele>
        <time>2016-05-15T10:11:14.000Z</time>
      </trkpt>
      <trkpt lat="43.19481" lon="5.81526">
        <ele>160.39999389648</ele>
        <time>2016-05-15T10:11:17.000Z</time>
      </trkpt>
      <trkpt lat="43.19481" lon="5.81518">
        <ele>160.39999389648</ele>
        <time>2016-05-15T10:11:18.000Z</time>
      </trkpt>
      <trkpt lat="43.19481" lon="5.8151">
        <ele>160.39999389648</ele>
        <time>2016-05-15T10:11:19.000Z</time>
      </trkpt>
      <trkpt lat="43.19484" lon="5.81476">
        <ele>160.39999389648</ele>
        <time>2016-05-15T10:11:23.000Z</time>
      </trkpt>
      <trkpt lat="43.19488" lon="5.81444">
        <ele>160.39999389648</ele>
        <time>2016-05-15T10:11:27.000Z</time>
      </trkpt>
      <trkpt lat="43.1949" lon="5.81437">
        <ele>160.39999389648</ele>
        <time>2016-05-15T10:11:28.000Z</time>
      </trkpt>
      <trkpt lat="43.19505" lon="5.8141">
        <ele>160.80000305176</ele>
        <time>2016-05-15T10:11:32.000Z</time>
      </trkpt>
      <trkpt lat="43.19515" lon="5.81399">
        <ele>160.80000305176</ele>
        <time>2016-05-15T10:11:34.000Z</time>
      </trkpt>
      <trkpt lat="43.1952" lon="5.81396">
        <ele>160.80000305176</ele>
        <time>2016-05-15T10:11:35.000Z</time>
      </trkpt>
      <trkpt lat="43.19527" lon="5.81394">
        <ele>160.60000610352</ele>
        <time>2016-05-15T10:11:36.000Z</time>
      </trkpt>
      <trkpt lat="43.19545" lon="5.81386">
        <ele>160.19999694824</ele>
        <time>2016-05-15T10:11:39.000Z</time>
      </trkpt>
      <trkpt lat="43.19562" lon="5.81374">
        <ele>159.80000305176</ele>
        <time>2016-05-15T10:11:42.000Z</time>
      </trkpt>
      <trkpt lat="43.19601" lon="5.81347">
        <ele>159</ele>
        <time>2016-05-15T10:11:49.000Z</time>
      </trkpt>
      <trkpt lat="43.19617" lon="5.81334">
        <ele>158.80000305176</ele>
        <time>2016-05-15T10:11:52.000Z</time>
      </trkpt>
      <trkpt lat="43.19627" lon="5.81324">
        <ele>158.39999389648</ele>
        <time>2016-05-15T10:11:54.000Z</time>
      </trkpt>
      <trkpt lat="43.19658" lon="5.81302">
        <ele>157.60000610352</ele>
        <time>2016-05-15T10:12:00.000Z</time>
      </trkpt>
      <trkpt lat="43.19676" lon="5.81299">
        <ele>157.19999694824</ele>
        <time>2016-05-15T10:12:04.000Z</time>
      </trkpt>
      <trkpt lat="43.19685" lon="5.81285">
        <ele>157</ele>
        <time>2016-05-15T10:12:07.000Z</time>
      </trkpt>
      <trkpt lat="43.19688" lon="5.81279">
        <ele>157.19999694824</ele>
        <time>2016-05-15T10:12:08.000Z</time>
      </trkpt>
      <trkpt lat="43.1971" lon="5.81234">
        <ele>157.19999694824</ele>
        <time>2016-05-15T10:12:15.000Z</time>
      </trkpt>
      <trkpt lat="43.19717" lon="5.81221">
        <ele>157</ele>
        <time>2016-05-15T10:12:17.000Z</time>
      </trkpt>
      <trkpt lat="43.19735" lon="5.81191">
        <ele>157.19999694824</ele>
        <time>2016-05-15T10:12:22.000Z</time>
      </trkpt>
      <trkpt lat="43.19744" lon="5.81182">
        <ele>157</ele>
        <time>2016-05-15T10:12:24.000Z</time>
      </trkpt>
      <trkpt lat="43.19776" lon="5.81146">
        <ele>156.19999694824</ele>
        <time>2016-05-15T10:12:31.000Z</time>
      </trkpt>
      <trkpt lat="43.19805" lon="5.81098">
        <ele>155.60000610352</ele>
        <time>2016-05-15T10:12:39.000Z</time>
      </trkpt>
      <trkpt lat="43.19809" lon="5.81092">
        <ele>155.39999389648</ele>
        <time>2016-05-15T10:12:40.000Z</time>
      </trkpt>
      <trkpt lat="43.19831" lon="5.81046">
        <ele>155.19999694824</ele>
        <time>2016-05-15T10:12:47.000Z</time>
      </trkpt>
      <trkpt lat="43.19838" lon="5.81033">
        <ele>155.39999389648</ele>
        <time>2016-05-15T10:12:49.000Z</time>
      </trkpt>
      <trkpt lat="43.19851" lon="5.81016">
        <ele>155.60000610352</ele>
        <time>2016-05-15T10:12:52.000Z</time>
      </trkpt>
      <trkpt lat="43.19865" lon="5.80999">
        <ele>156.19999694824</ele>
        <time>2016-05-15T10:12:55.000Z</time>
      </trkpt>
      <trkpt lat="43.19876" lon="5.80979">
        <ele>155.60000610352</ele>
        <time>2016-05-15T10:12:58.000Z</time>
      </trkpt>
      <trkpt lat="43.19899" lon="5.80924">
        <ele>154.80000305176</ele>
        <time>2016-05-15T10:13:06.000Z</time>
      </trkpt>
      <trkpt lat="43.19903" lon="5.80919">
        <ele>154.60000610352</ele>
        <time>2016-05-15T10:13:07.000Z</time>
      </trkpt>
      <trkpt lat="43.19914" lon="5.80916">
        <ele>154.39999389648</ele>
        <time>2016-05-15T10:13:09.000Z</time>
      </trkpt>
      <trkpt lat="43.19925" lon="5.80919">
        <ele>154</ele>
        <time>2016-05-15T10:13:11.000Z</time>
      </trkpt>
      <trkpt lat="43.19931" lon="5.80919">
        <ele>154</ele>
        <time>2016-05-15T10:13:12.000Z</time>
      </trkpt>
      <trkpt lat="43.19936" lon="5.80918">
        <ele>154.19999694824</ele>
        <time>2016-05-15T10:13:13.000Z</time>
      </trkpt>
      <trkpt lat="43.19951" lon="5.80906">
        <ele>154.60000610352</ele>
        <time>2016-05-15T10:13:16.000Z</time>
      </trkpt>
      <trkpt lat="43.19955" lon="5.80901">
        <ele>154.60000610352</ele>
        <time>2016-05-15T10:13:17.000Z</time>
      </trkpt>
      <trkpt lat="43.19963" lon="5.80889">
        <ele>154.39999389648</ele>
        <time>2016-05-15T10:13:20.000Z</time>
      </trkpt>
      <trkpt lat="43.19965" lon="5.80884">
        <ele>154.60000610352</ele>
        <time>2016-05-15T10:13:21.000Z</time>
      </trkpt>
      <trkpt lat="43.19961" lon="5.80865">
        <ele>155</ele>
        <time>2016-05-15T10:13:24.000Z</time>
      </trkpt>
      <trkpt lat="43.19952" lon="5.80848">
        <ele>155.19999694824</ele>
        <time>2016-05-15T10:13:27.000Z</time>
      </trkpt>
      <trkpt lat="43.19948" lon="5.80843">
        <ele>155.39999389648</ele>
        <time>2016-05-15T10:13:28.000Z</time>
      </trkpt>
      <trkpt lat="43.19934" lon="5.8082">
        <ele>155.80000305176</ele>
        <time>2016-05-15T10:13:32.000Z</time>
      </trkpt>
      <trkpt lat="43.19929" lon="5.80807">
        <ele>156</ele>
        <time>2016-05-15T10:13:34.000Z</time>
      </trkpt>
      <trkpt lat="43.19926" lon="5.80793">
        <ele>156.39999389648</ele>
        <time>2016-05-15T10:13:36.000Z</time>
      </trkpt>
      <trkpt lat="43.19917" lon="5.80768">
        <ele>157.19999694824</ele>
        <time>2016-05-15T10:13:40.000Z</time>
      </trkpt>
      <trkpt lat="43.19914" lon="5.80763">
        <ele>157.39999389648</ele>
        <time>2016-05-15T10:13:41.000Z</time>
      </trkpt>
      <trkpt lat="43.19896" lon="5.80745">
        <ele>157.80000305176</ele>
        <time>2016-05-15T10:13:45.000Z</time>
      </trkpt>
      <trkpt lat="43.1987" lon="5.80724">
        <ele>158.19999694824</ele>
        <time>2016-05-15T10:13:51.000Z</time>
      </trkpt>
      <trkpt lat="43.19843" lon="5.807">
        <ele>158.60000610352</ele>
        <time>2016-05-15T10:13:58.000Z</time>
      </trkpt>
      <trkpt lat="43.19841" lon="5.80697">
        <ele>158.80000305176</ele>
        <time>2016-05-15T10:13:59.000Z</time>
      </trkpt>
      <trkpt lat="43.1984" lon="5.80692">
        <ele>159</ele>
        <time>2016-05-15T10:14:01.000Z</time>
      </trkpt>
      <trkpt lat="43.19841" lon="5.8069">
        <ele>159</ele>
        <time>2016-05-15T10:14:02.000Z</time>
      </trkpt>
      <trkpt lat="43.19843" lon="5.80685">
        <ele>159</ele>
        <time>2016-05-15T10:14:23.000Z</time>
      </trkpt>
      <trkpt lat="43.19837" lon="5.8067">
        <ele>159.60000610352</ele>
        <time>2016-05-15T10:14:26.000Z</time>
      </trkpt>
      <trkpt lat="43.19824" lon="5.8066">
        <ele>160.60000610352</ele>
        <time>2016-05-15T10:14:29.000Z</time>
      </trkpt>
      <trkpt lat="43.19806" lon="5.80649">
        <ele>161.60000610352</ele>
        <time>2016-05-15T10:14:33.000Z</time>
      </trkpt>
      <trkpt lat="43.19801" lon="5.80643">
        <ele>162</ele>
        <time>2016-05-15T10:14:35.000Z</time>
      </trkpt>
      <trkpt lat="43.198" lon="5.80638">
        <ele>162.19999694824</ele>
        <time>2016-05-15T10:14:36.000Z</time>
      </trkpt>
      <trkpt lat="43.19801" lon="5.80626">
        <ele>162.19999694824</ele>
        <time>2016-05-15T10:14:38.000Z</time>
      </trkpt>
      <trkpt lat="43.19805" lon="5.80608">
        <ele>162.19999694824</ele>
        <time>2016-05-15T10:14:41.000Z</time>
      </trkpt>
      <trkpt lat="43.19807" lon="5.80603">
        <ele>162.19999694824</ele>
        <time>2016-05-15T10:14:42.000Z</time>
      </trkpt>
      <trkpt lat="43.1981" lon="5.80585">
        <ele>162.60000610352</ele>
        <time>2016-05-15T10:14:45.000Z</time>
      </trkpt>
      <trkpt lat="43.19817" lon="5.80557">
        <ele>163</ele>
        <time>2016-05-15T10:14:50.000Z</time>
      </trkpt>
      <trkpt lat="43.19821" lon="5.80536">
        <ele>163.39999389648</ele>
        <time>2016-05-15T10:14:54.000Z</time>
      </trkpt>
      <trkpt lat="43.19823" lon="5.80526">
        <ele>163.80000305176</ele>
        <time>2016-05-15T10:14:56.000Z</time>
      </trkpt>
      <trkpt lat="43.19826" lon="5.8051">
        <ele>164.80000305176</ele>
        <time>2016-05-15T10:14:59.000Z</time>
      </trkpt>
      <trkpt lat="43.19829" lon="5.80495">
        <ele>165.60000610352</ele>
        <time>2016-05-15T10:15:02.000Z</time>
      </trkpt>
      <trkpt lat="43.19831" lon="5.80485">
        <ele>166.19999694824</ele>
        <time>2016-05-15T10:15:04.000Z</time>
      </trkpt>
      <trkpt lat="43.19837" lon="5.80473">
        <ele>167</ele>
        <time>2016-05-15T10:15:08.000Z</time>
      </trkpt>
      <trkpt lat="43.19838" lon="5.80473">
        <ele>167</ele>
        <time>2016-05-15T10:15:09.000Z</time>
      </trkpt>
      <trkpt lat="43.19837" lon="5.80465">
        <ele>167.60000610352</ele>
        <time>2016-05-15T10:15:12.000Z</time>
      </trkpt>
      <trkpt lat="43.19827" lon="5.80454">
        <ele>168.60000610352</ele>
        <time>2016-05-15T10:15:15.000Z</time>
      </trkpt>
      <trkpt lat="43.19823" lon="5.80449">
        <ele>169</ele>
        <time>2016-05-15T10:15:16.000Z</time>
      </trkpt>
      <trkpt lat="43.19815" lon="5.80439">
        <ele>169.80000305176</ele>
        <time>2016-05-15T10:15:18.000Z</time>
      </trkpt>
      <trkpt lat="43.19798" lon="5.80421">
        <ele>171.39999389648</ele>
        <time>2016-05-15T10:15:22.000Z</time>
      </trkpt>
      <trkpt lat="43.19795" lon="5.80416">
        <ele>171.80000305176</ele>
        <time>2016-05-15T10:15:23.000Z</time>
      </trkpt>
      <trkpt lat="43.19788" lon="5.80409">
        <ele>172.60000610352</ele>
        <time>2016-05-15T10:15:25.000Z</time>
      </trkpt>
      <trkpt lat="43.19783" lon="5.80401">
        <ele>173.19999694824</ele>
        <time>2016-05-15T10:15:27.000Z</time>
      </trkpt>
      <trkpt lat="43.19781" lon="5.80398">
        <ele>173.60000610352</ele>
        <time>2016-05-15T10:15:28.000Z</time>
      </trkpt>
      <trkpt lat="43.19779" lon="5.80398">
        <ele>173.60000610352</ele>
        <time>2016-05-15T10:15:29.000Z</time>
      </trkpt>
      <trkpt lat="43.19778" lon="5.80396">
        <ele>173.60000610352</ele>
        <time>2016-05-15T10:15:30.000Z</time>
      </trkpt>
      <trkpt lat="43.19778" lon="5.80393">
        <ele>174</ele>
        <time>2016-05-15T10:15:31.000Z</time>
      </trkpt>
      <trkpt lat="43.19778" lon="5.80382">
        <ele>174.80000305176</ele>
        <time>2016-05-15T10:15:34.000Z</time>
      </trkpt>
      <trkpt lat="43.1978" lon="5.80376">
        <ele>175</ele>
        <time>2016-05-15T10:15:36.000Z</time>
      </trkpt>
      <trkpt lat="43.1979" lon="5.80355">
        <ele>176.19999694824</ele>
        <time>2016-05-15T10:15:41.000Z</time>
      </trkpt>
      <trkpt lat="43.19801" lon="5.80313">
        <ele>179.60000610352</ele>
        <time>2016-05-15T10:15:47.000Z</time>
      </trkpt>
      <trkpt lat="43.19816" lon="5.80249">
        <ele>181.60000610352</ele>
        <time>2016-05-15T10:15:57.000Z</time>
      </trkpt>
      <trkpt lat="43.19829" lon="5.80213">
        <ele>182.60000610352</ele>
        <time>2016-05-15T10:16:04.000Z</time>
      </trkpt>
      <trkpt lat="43.19833" lon="5.8021">
        <ele>183</ele>
        <time>2016-05-15T10:16:05.000Z</time>
      </trkpt>
      <trkpt lat="43.19836" lon="5.80206">
        <ele>183.39999389648</ele>
        <time>2016-05-15T10:16:06.000Z</time>
      </trkpt>
      <trkpt lat="43.1985" lon="5.80187">
        <ele>184.80000305176</ele>
        <time>2016-05-15T10:16:11.000Z</time>
      </trkpt>
      <trkpt lat="43.19859" lon="5.80176">
        <ele>185.60000610352</ele>
        <time>2016-05-15T10:16:14.000Z</time>
      </trkpt>
      <trkpt lat="43.19875" lon="5.80159">
        <ele>186.80000305176</ele>
        <time>2016-05-15T10:16:19.000Z</time>
      </trkpt>
      <trkpt lat="43.19886" lon="5.80148">
        <ele>187</ele>
        <time>2016-05-15T10:16:22.000Z</time>
      </trkpt>
      <trkpt lat="43.19893" lon="5.80141">
        <ele>187.39999389648</ele>
        <time>2016-05-15T10:16:24.000Z</time>
      </trkpt>
      <trkpt lat="43.19915" lon="5.80122">
        <ele>188.19999694824</ele>
        <time>2016-05-15T10:16:30.000Z</time>
      </trkpt>
      <trkpt lat="43.19921" lon="5.80114">
        <ele>188.80000305176</ele>
        <time>2016-05-15T10:16:32.000Z</time>
      </trkpt>
      <trkpt lat="43.19924" lon="5.80094">
        <ele>189.19999694824</ele>
        <time>2016-05-15T10:16:35.000Z</time>
      </trkpt>
      <trkpt lat="43.19924" lon="5.80086">
        <ele>189.39999389648</ele>
        <time>2016-05-15T10:16:36.000Z</time>
      </trkpt>
      <trkpt lat="43.19928" lon="5.80048">
        <ele>189.60000610352</ele>
        <time>2016-05-15T10:16:42.000Z</time>
      </trkpt>
      <trkpt lat="43.19928" lon="5.80042">
        <ele>189.39999389648</ele>
        <time>2016-05-15T10:16:44.000Z</time>
      </trkpt>
      <trkpt lat="43.19925" lon="5.80039">
        <ele>189</ele>
        <time>2016-05-15T10:16:46.000Z</time>
      </trkpt>
      <trkpt lat="43.19921" lon="5.80039">
        <ele>188.60000610352</ele>
        <time>2016-05-15T10:16:49.000Z</time>
      </trkpt>
      <trkpt lat="43.19919" lon="5.8004">
        <ele>188.60000610352</ele>
        <time>2016-05-15T10:16:50.000Z</time>
      </trkpt>
      <trkpt lat="43.19905" lon="5.80056">
        <ele>188.19999694824</ele>
        <time>2016-05-15T10:16:54.000Z</time>
      </trkpt>
      <trkpt lat="43.19887" lon="5.80079">
        <ele>186.80000305176</ele>
        <time>2016-05-15T10:16:58.000Z</time>
      </trkpt>
      <trkpt lat="43.19875" lon="5.80095">
        <ele>186</ele>
        <time>2016-05-15T10:17:01.000Z</time>
      </trkpt>
      <trkpt lat="43.19866" lon="5.80102">
        <ele>185.60000610352</ele>
        <time>2016-05-15T10:17:04.000Z</time>
      </trkpt>
      <trkpt lat="43.19862" lon="5.80102">
        <ele>185.39999389648</ele>
        <time>2016-05-15T10:17:05.000Z</time>
      </trkpt>
      <trkpt lat="43.19839" lon="5.8009">
        <ele>184</ele>
        <time>2016-05-15T10:17:10.000Z</time>
      </trkpt>
      <trkpt lat="43.19823" lon="5.80077">
        <ele>183</ele>
        <time>2016-05-15T10:17:15.000Z</time>
      </trkpt>
      <trkpt lat="43.19818" lon="5.80071">
        <ele>182.60000610352</ele>
        <time>2016-05-15T10:17:17.000Z</time>
      </trkpt>
      <trkpt lat="43.19793" lon="5.80052">
        <ele>180.80000305176</ele>
        <time>2016-05-15T10:17:24.000Z</time>
      </trkpt>
      <trkpt lat="43.19756" lon="5.8002">
        <ele>178.80000305176</ele>
        <time>2016-05-15T10:17:33.000Z</time>
      </trkpt>
      <trkpt lat="43.19753" lon="5.80016">
        <ele>178.80000305176</ele>
        <time>2016-05-15T10:17:34.000Z</time>
      </trkpt>
      <trkpt lat="43.19741" lon="5.79999">
        <ele>178.80000305176</ele>
        <time>2016-05-15T10:17:38.000Z</time>
      </trkpt>
      <trkpt lat="43.19736" lon="5.79985">
        <ele>178.80000305176</ele>
        <time>2016-05-15T10:17:41.000Z</time>
      </trkpt>
      <trkpt lat="43.19719" lon="5.79947">
        <ele>179.39999389648</ele>
        <time>2016-05-15T10:17:49.000Z</time>
      </trkpt>
      <trkpt lat="43.19714" lon="5.79938">
        <ele>179.60000610352</ele>
        <time>2016-05-15T10:17:51.000Z</time>
      </trkpt>
      <trkpt lat="43.19692" lon="5.79893">
        <ele>180.60000610352</ele>
        <time>2016-05-15T10:18:00.000Z</time>
      </trkpt>
      <trkpt lat="43.1967" lon="5.79851">
        <ele>181.80000305176</ele>
        <time>2016-05-15T10:18:09.000Z</time>
      </trkpt>
      <trkpt lat="43.19665" lon="5.79842">
        <ele>182</ele>
        <time>2016-05-15T10:18:11.000Z</time>
      </trkpt>
      <trkpt lat="43.1965" lon="5.79812">
        <ele>183</ele>
        <time>2016-05-15T10:18:18.000Z</time>
      </trkpt>
      <trkpt lat="43.19649" lon="5.79791">
        <ele>183</ele>
        <time>2016-05-15T10:18:23.000Z</time>
      </trkpt>
      <trkpt lat="43.19644" lon="5.79764">
        <ele>183.39999389648</ele>
        <time>2016-05-15T10:18:29.000Z</time>
      </trkpt>
      <trkpt lat="43.1964" lon="5.7976">
        <ele>183.39999389648</ele>
        <time>2016-05-15T10:18:30.000Z</time>
      </trkpt>
      <trkpt lat="43.19627" lon="5.79751">
        <ele>183.80000305176</ele>
        <time>2016-05-15T10:18:33.000Z</time>
      </trkpt>
      <trkpt lat="43.19618" lon="5.79743">
        <ele>184.19999694824</ele>
        <time>2016-05-15T10:18:35.000Z</time>
      </trkpt>
      <trkpt lat="43.19613" lon="5.79732">
        <ele>184.39999389648</ele>
        <time>2016-05-15T10:18:37.000Z</time>
      </trkpt>
      <trkpt lat="43.19609" lon="5.79719">
        <ele>184.80000305176</ele>
        <time>2016-05-15T10:18:39.000Z</time>
      </trkpt>
      <trkpt lat="43.19599" lon="5.79692">
        <ele>186</ele>
        <time>2016-05-15T10:18:43.000Z</time>
      </trkpt>
      <trkpt lat="43.19592" lon="5.79673">
        <ele>187</ele>
        <time>2016-05-15T10:18:46.000Z</time>
      </trkpt>
      <trkpt lat="43.19574" lon="5.79629">
        <ele>189</ele>
        <time>2016-05-15T10:18:53.000Z</time>
      </trkpt>
      <trkpt lat="43.19571" lon="5.79616">
        <ele>188.60000610352</ele>
        <time>2016-05-15T10:18:55.000Z</time>
      </trkpt>
      <trkpt lat="43.19569" lon="5.79596">
        <ele>188.39999389648</ele>
        <time>2016-05-15T10:18:58.000Z</time>
      </trkpt>
      <trkpt lat="43.19569" lon="5.7959">
        <ele>188.39999389648</ele>
        <time>2016-05-15T10:18:59.000Z</time>
      </trkpt>
      <trkpt lat="43.1957" lon="5.79583">
        <ele>188.19999694824</ele>
        <time>2016-05-15T10:19:00.000Z</time>
      </trkpt>
      <trkpt lat="43.19577" lon="5.79565">
        <ele>187.80000305176</ele>
        <time>2016-05-15T10:19:03.000Z</time>
      </trkpt>
      <trkpt lat="43.19595" lon="5.79519">
        <ele>186.60000610352</ele>
        <time>2016-05-15T10:19:10.000Z</time>
      </trkpt>
      <trkpt lat="43.19618" lon="5.79459">
        <ele>186.80000305176</ele>
        <time>2016-05-15T10:19:19.000Z</time>
      </trkpt>
      <trkpt lat="43.19623" lon="5.79446">
        <ele>187.19999694824</ele>
        <time>2016-05-15T10:19:21.000Z</time>
      </trkpt>
      <trkpt lat="43.1964" lon="5.79408">
        <ele>189</ele>
        <time>2016-05-15T10:19:27.000Z</time>
      </trkpt>
      <trkpt lat="43.19648" lon="5.79388">
        <ele>190</ele>
        <time>2016-05-15T10:19:30.000Z</time>
      </trkpt>
      <trkpt lat="43.19658" lon="5.79347">
        <ele>190.80000305176</ele>
        <time>2016-05-15T10:19:36.000Z</time>
      </trkpt>
      <trkpt lat="43.19659" lon="5.79339">
        <ele>190.80000305176</ele>
        <time>2016-05-15T10:19:37.000Z</time>
      </trkpt>
      <trkpt lat="43.19659" lon="5.79332">
        <ele>191</ele>
        <time>2016-05-15T10:19:38.000Z</time>
      </trkpt>
      <trkpt lat="43.19658" lon="5.79317">
        <ele>191.19999694824</ele>
        <time>2016-05-15T10:19:40.000Z</time>
      </trkpt>
      <trkpt lat="43.19657" lon="5.7931">
        <ele>191.19999694824</ele>
        <time>2016-05-15T10:19:41.000Z</time>
      </trkpt>
      <trkpt lat="43.19655" lon="5.79287">
        <ele>191.80000305176</ele>
        <time>2016-05-15T10:19:44.000Z</time>
      </trkpt>
      <trkpt lat="43.19654" lon="5.7928">
        <ele>192</ele>
        <time>2016-05-15T10:19:45.000Z</time>
      </trkpt>
      <trkpt lat="43.19649" lon="5.79227">
        <ele>194.39999389648</ele>
        <time>2016-05-15T10:19:52.000Z</time>
      </trkpt>
      <trkpt lat="43.19647" lon="5.79205">
        <ele>195</ele>
        <time>2016-05-15T10:19:55.000Z</time>
      </trkpt>
      <trkpt lat="43.19642" lon="5.79171">
        <ele>197</ele>
        <time>2016-05-15T10:20:00.000Z</time>
      </trkpt>
      <trkpt lat="43.1964" lon="5.79158">
        <ele>198</ele>
        <time>2016-05-15T10:20:02.000Z</time>
      </trkpt>
      <trkpt lat="43.19633" lon="5.7914">
        <ele>199</ele>
        <time>2016-05-15T10:20:05.000Z</time>
      </trkpt>
      <trkpt lat="43.19626" lon="5.79131">
        <ele>199</ele>
        <time>2016-05-15T10:20:07.000Z</time>
      </trkpt>
      <trkpt lat="43.19622" lon="5.79126">
        <ele>199</ele>
        <time>2016-05-15T10:20:08.000Z</time>
      </trkpt>
      <trkpt lat="43.19611" lon="5.79112">
        <ele>199</ele>
        <time>2016-05-15T10:20:11.000Z</time>
      </trkpt>
      <trkpt lat="43.19601" lon="5.79098">
        <ele>199</ele>
        <time>2016-05-15T10:20:14.000Z</time>
      </trkpt>
      <trkpt lat="43.1959" lon="5.79084">
        <ele>199.19999694824</ele>
        <time>2016-05-15T10:20:17.000Z</time>
      </trkpt>
      <trkpt lat="43.19565" lon="5.7905">
        <ele>199.39999389648</ele>
        <time>2016-05-15T10:20:24.000Z</time>
      </trkpt>
      <trkpt lat="43.19549" lon="5.79022">
        <ele>199.19999694824</ele>
        <time>2016-05-15T10:20:29.000Z</time>
      </trkpt>
      <trkpt lat="43.19547" lon="5.79015">
        <ele>199.39999389648</ele>
        <time>2016-05-15T10:20:30.000Z</time>
      </trkpt>
      <trkpt lat="43.19546" lon="5.79008">
        <ele>199.39999389648</ele>
        <time>2016-05-15T10:20:31.000Z</time>
      </trkpt>
      <trkpt lat="43.19542" lon="5.78994">
        <ele>200.19999694824</ele>
        <time>2016-05-15T10:20:33.000Z</time>
      </trkpt>
      <trkpt lat="43.1954" lon="5.7898">
        <ele>201.60000610352</ele>
        <time>2016-05-15T10:20:35.000Z</time>
      </trkpt>
      <trkpt lat="43.19538" lon="5.78958">
        <ele>202.39999389648</ele>
        <time>2016-05-15T10:20:38.000Z</time>
      </trkpt>
      <trkpt lat="43.19538" lon="5.78936">
        <ele>202.80000305176</ele>
        <time>2016-05-15T10:20:41.000Z</time>
      </trkpt>
      <trkpt lat="43.1954" lon="5.78922">
        <ele>203.60000610352</ele>
        <time>2016-05-15T10:20:43.000Z</time>
      </trkpt>
      <trkpt lat="43.19544" lon="5.7891">
        <ele>205.19999694824</ele>
        <time>2016-05-15T10:20:45.000Z</time>
      </trkpt>
      <trkpt lat="43.19549" lon="5.78897">
        <ele>207</ele>
        <time>2016-05-15T10:20:47.000Z</time>
      </trkpt>
      <trkpt lat="43.19554" lon="5.78886">
        <ele>208.60000610352</ele>
        <time>2016-05-15T10:20:49.000Z</time>
      </trkpt>
      <trkpt lat="43.19566" lon="5.78855">
        <ele>211</ele>
        <time>2016-05-15T10:20:54.000Z</time>
      </trkpt>
      <trkpt lat="43.19572" lon="5.78838">
        <ele>212.80000305176</ele>
        <time>2016-05-15T10:20:57.000Z</time>
      </trkpt>
      <trkpt lat="43.19577" lon="5.78827">
        <ele>213.80000305176</ele>
        <time>2016-05-15T10:20:59.000Z</time>
      </trkpt>
      <trkpt lat="43.19587" lon="5.78798">
        <ele>216.19999694824</ele>
        <time>2016-05-15T10:21:04.000Z</time>
      </trkpt>
      <trkpt lat="43.19592" lon="5.78787">
        <ele>216.80000305176</ele>
        <time>2016-05-15T10:21:06.000Z</time>
      </trkpt>
      <trkpt lat="43.19596" lon="5.78775">
        <ele>217.19999694824</ele>
        <time>2016-05-15T10:21:08.000Z</time>
      </trkpt>
      <trkpt lat="43.19605" lon="5.78753">
        <ele>218.60000610352</ele>
        <time>2016-05-15T10:21:12.000Z</time>
      </trkpt>
      <trkpt lat="43.19607" lon="5.78747">
        <ele>219</ele>
        <time>2016-05-15T10:21:13.000Z</time>
      </trkpt>
      <trkpt lat="43.19614" lon="5.78725">
        <ele>220.39999389648</ele>
        <time>2016-05-15T10:21:17.000Z</time>
      </trkpt>
      <trkpt lat="43.19616" lon="5.78712">
        <ele>220.80000305176</ele>
        <time>2016-05-15T10:21:19.000Z</time>
      </trkpt>
      <trkpt lat="43.19616" lon="5.78705">
        <ele>220.80000305176</ele>
        <time>2016-05-15T10:21:20.000Z</time>
      </trkpt>
      <trkpt lat="43.19618" lon="5.78678">
        <ele>221.19999694824</ele>
        <time>2016-05-15T10:21:24.000Z</time>
      </trkpt>
      <trkpt lat="43.19618" lon="5.78658">
        <ele>221.39999389648</ele>
        <time>2016-05-15T10:21:27.000Z</time>
      </trkpt>
      <trkpt lat="43.19619" lon="5.78651">
        <ele>221.39999389648</ele>
        <time>2016-05-15T10:21:28.000Z</time>
      </trkpt>
      <trkpt lat="43.19621" lon="5.7861">
        <ele>222.19999694824</ele>
        <time>2016-05-15T10:21:34.000Z</time>
      </trkpt>
      <trkpt lat="43.19623" lon="5.7859">
        <ele>222.80000305176</ele>
        <time>2016-05-15T10:21:37.000Z</time>
      </trkpt>
      <trkpt lat="43.19624" lon="5.78577">
        <ele>223</ele>
        <time>2016-05-15T10:21:39.000Z</time>
      </trkpt>
      <trkpt lat="43.19626" lon="5.78529">
        <ele>222.19999694824</ele>
        <time>2016-05-15T10:21:46.000Z</time>
      </trkpt>
      <trkpt lat="43.19626" lon="5.78508">
        <ele>222.39999389648</ele>
        <time>2016-05-15T10:21:49.000Z</time>
      </trkpt>
      <trkpt lat="43.19629" lon="5.78472">
        <ele>223</ele>
        <time>2016-05-15T10:21:54.000Z</time>
      </trkpt>
      <trkpt lat="43.19642" lon="5.78432">
        <ele>224.19999694824</ele>
        <time>2016-05-15T10:22:00.000Z</time>
      </trkpt>
      <trkpt lat="43.19662" lon="5.7841">
        <ele>227.39999389648</ele>
        <time>2016-05-15T10:22:05.000Z</time>
      </trkpt>
      <trkpt lat="43.19688" lon="5.78389">
        <ele>231.60000610352</ele>
        <time>2016-05-15T10:22:11.000Z</time>
      </trkpt>
      <trkpt lat="43.19697" lon="5.78381">
        <ele>232</ele>
        <time>2016-05-15T10:22:13.000Z</time>
      </trkpt>
      <trkpt lat="43.19705" lon="5.78374">
        <ele>232.60000610352</ele>
        <time>2016-05-15T10:22:15.000Z</time>
      </trkpt>
      <trkpt lat="43.19723" lon="5.7836">
        <ele>233.60000610352</ele>
        <time>2016-05-15T10:22:19.000Z</time>
      </trkpt>
      <trkpt lat="43.19732" lon="5.7835">
        <ele>234</ele>
        <time>2016-05-15T10:22:21.000Z</time>
      </trkpt>
      <trkpt lat="43.19755" lon="5.78314">
        <ele>233.80000305176</ele>
        <time>2016-05-15T10:22:27.000Z</time>
      </trkpt>
      <trkpt lat="43.19772" lon="5.78284">
        <ele>234.19999694824</ele>
        <time>2016-05-15T10:22:32.000Z</time>
      </trkpt>
      <trkpt lat="43.19782" lon="5.78267">
        <ele>234.39999389648</ele>
        <time>2016-05-15T10:22:35.000Z</time>
      </trkpt>
      <trkpt lat="43.19785" lon="5.78262">
        <ele>234.60000610352</ele>
        <time>2016-05-15T10:22:36.000Z</time>
      </trkpt>
      <trkpt lat="43.19813" lon="5.78233">
        <ele>236.19999694824</ele>
        <time>2016-05-15T10:22:42.000Z</time>
      </trkpt>
      <trkpt lat="43.19819" lon="5.78229">
        <ele>236.80000305176</ele>
        <time>2016-05-15T10:22:43.000Z</time>
      </trkpt>
      <trkpt lat="43.19838" lon="5.78222">
        <ele>239</ele>
        <time>2016-05-15T10:22:46.000Z</time>
      </trkpt>
      <trkpt lat="43.19857" lon="5.78214">
        <ele>238.19999694824</ele>
        <time>2016-05-15T10:22:49.000Z</time>
      </trkpt>
      <trkpt lat="43.19878" lon="5.78202">
        <ele>235.39999389648</ele>
        <time>2016-05-15T10:22:53.000Z</time>
      </trkpt>
      <trkpt lat="43.19883" lon="5.782">
        <ele>234.60000610352</ele>
        <time>2016-05-15T10:22:54.000Z</time>
      </trkpt>
      <trkpt lat="43.19916" lon="5.78194">
        <ele>233.19999694824</ele>
        <time>2016-05-15T10:23:00.000Z</time>
      </trkpt>
      <trkpt lat="43.19968" lon="5.7819">
        <ele>234.39999389648</ele>
        <time>2016-05-15T10:23:10.000Z</time>
      </trkpt>
      <trkpt lat="43.19977" lon="5.78189">
        <ele>234.60000610352</ele>
        <time>2016-05-15T10:23:12.000Z</time>
      </trkpt>
      <trkpt lat="43.19997" lon="5.78187">
        <ele>236</ele>
        <time>2016-05-15T10:23:16.000Z</time>
      </trkpt>
      <trkpt lat="43.20006" lon="5.78183">
        <ele>236.60000610352</ele>
        <time>2016-05-15T10:23:18.000Z</time>
      </trkpt>
      <trkpt lat="43.20011" lon="5.7818">
        <ele>237</ele>
        <time>2016-05-15T10:23:19.000Z</time>
      </trkpt>
      <trkpt lat="43.2002" lon="5.78174">
        <ele>237.19999694824</ele>
        <time>2016-05-15T10:23:21.000Z</time>
      </trkpt>
      <trkpt lat="43.20028" lon="5.78167">
        <ele>237.39999389648</ele>
        <time>2016-05-15T10:23:23.000Z</time>
      </trkpt>
      <trkpt lat="43.20033" lon="5.78163">
        <ele>237.60000610352</ele>
        <time>2016-05-15T10:23:24.000Z</time>
      </trkpt>
      <trkpt lat="43.20036" lon="5.78159">
        <ele>237.80000305176</ele>
        <time>2016-05-15T10:23:25.000Z</time>
      </trkpt>
      <trkpt lat="43.20046" lon="5.78143">
        <ele>238.60000610352</ele>
        <time>2016-05-15T10:23:28.000Z</time>
      </trkpt>
      <trkpt lat="43.20049" lon="5.78138">
        <ele>238.80000305176</ele>
        <time>2016-05-15T10:23:29.000Z</time>
      </trkpt>
      <trkpt lat="43.20056" lon="5.78119">
        <ele>238.39999389648</ele>
        <time>2016-05-15T10:23:32.000Z</time>
      </trkpt>
      <trkpt lat="43.20057" lon="5.78104">
        <ele>237.60000610352</ele>
        <time>2016-05-15T10:23:34.000Z</time>
      </trkpt>
      <trkpt lat="43.2006" lon="5.7805">
        <ele>233.60000610352</ele>
        <time>2016-05-15T10:23:40.000Z</time>
      </trkpt>
      <trkpt lat="43.20061" lon="5.78033">
        <ele>233.39999389648</ele>
        <time>2016-05-15T10:23:42.000Z</time>
      </trkpt>
      <trkpt lat="43.20064" lon="5.78">
        <ele>233</ele>
        <time>2016-05-15T10:23:46.000Z</time>
      </trkpt>
      <trkpt lat="43.20066" lon="5.77993">
        <ele>233</ele>
        <time>2016-05-15T10:23:47.000Z</time>
      </trkpt>
      <trkpt lat="43.20069" lon="5.77985">
        <ele>233.19999694824</ele>
        <time>2016-05-15T10:23:48.000Z</time>
      </trkpt>
      <trkpt lat="43.20092" lon="5.77939">
        <ele>234.19999694824</ele>
        <time>2016-05-15T10:23:55.000Z</time>
      </trkpt>
      <trkpt lat="43.20096" lon="5.77933">
        <ele>234.19999694824</ele>
        <time>2016-05-15T10:23:56.000Z</time>
      </trkpt>
      <trkpt lat="43.20126" lon="5.779">
        <ele>235.60000610352</ele>
        <time>2016-05-15T10:24:03.000Z</time>
      </trkpt>
      <trkpt lat="43.2015" lon="5.77866">
        <ele>235</ele>
        <time>2016-05-15T10:24:09.000Z</time>
      </trkpt>
      <trkpt lat="43.20155" lon="5.7786">
        <ele>234.60000610352</ele>
        <time>2016-05-15T10:24:10.000Z</time>
      </trkpt>
      <trkpt lat="43.20172" lon="5.77831">
        <ele>232</ele>
        <time>2016-05-15T10:24:14.000Z</time>
      </trkpt>
      <trkpt lat="43.20181" lon="5.77815">
        <ele>230.39999389648</ele>
        <time>2016-05-15T10:24:16.000Z</time>
      </trkpt>
      <trkpt lat="43.20196" lon="5.7779">
        <ele>228.80000305176</ele>
        <time>2016-05-15T10:24:19.000Z</time>
      </trkpt>
      <trkpt lat="43.20204" lon="5.77777">
        <ele>228.19999694824</ele>
        <time>2016-05-15T10:24:21.000Z</time>
      </trkpt>
      <trkpt lat="43.20207" lon="5.77772">
        <ele>228</ele>
        <time>2016-05-15T10:24:22.000Z</time>
      </trkpt>
      <trkpt lat="43.20209" lon="5.77767">
        <ele>227.60000610352</ele>
        <time>2016-05-15T10:24:23.000Z</time>
      </trkpt>
      <trkpt lat="43.20206" lon="5.77759">
        <ele>226.60000610352</ele>
        <time>2016-05-15T10:24:25.000Z</time>
      </trkpt>
      <trkpt lat="43.20203" lon="5.77757">
        <ele>226.19999694824</ele>
        <time>2016-05-15T10:24:26.000Z</time>
      </trkpt>
      <trkpt lat="43.20199" lon="5.77759">
        <ele>226.19999694824</ele>
        <time>2016-05-15T10:24:28.000Z</time>
      </trkpt>
      <trkpt lat="43.20198" lon="5.77759">
        <ele>226</ele>
        <time>2016-05-15T10:24:29.000Z</time>
      </trkpt>
      <trkpt lat="43.20193" lon="5.77761">
        <ele>226</ele>
        <time>2016-05-15T10:24:32.000Z</time>
      </trkpt>
      <trkpt lat="43.20191" lon="5.77762">
        <ele>225.80000305176</ele>
        <time>2016-05-15T10:24:33.000Z</time>
      </trkpt>
      <trkpt lat="43.20188" lon="5.77763">
        <ele>225.60000610352</ele>
        <time>2016-05-15T10:24:34.000Z</time>
      </trkpt>
      <trkpt lat="43.20181" lon="5.77767">
        <ele>225.60000610352</ele>
        <time>2016-05-15T10:24:36.000Z</time>
      </trkpt>
      <trkpt lat="43.2017" lon="5.77776">
        <ele>225.19999694824</ele>
        <time>2016-05-15T10:24:38.000Z</time>
      </trkpt>
      <trkpt lat="43.20165" lon="5.77779">
        <ele>224.60000610352</ele>
        <time>2016-05-15T10:24:39.000Z</time>
      </trkpt>
      <trkpt lat="43.20154" lon="5.77783">
        <ele>223.60000610352</ele>
        <time>2016-05-15T10:24:41.000Z</time>
      </trkpt>
      <trkpt lat="43.20149" lon="5.77781">
        <ele>222.80000305176</ele>
        <time>2016-05-15T10:24:42.000Z</time>
      </trkpt>
      <trkpt lat="43.20144" lon="5.77775">
        <ele>221.60000610352</ele>
        <time>2016-05-15T10:24:43.000Z</time>
      </trkpt>
      <trkpt lat="43.20141" lon="5.77769">
        <ele>220.19999694824</ele>
        <time>2016-05-15T10:24:44.000Z</time>
      </trkpt>
      <trkpt lat="43.20141" lon="5.7776">
        <ele>219.19999694824</ele>
        <time>2016-05-15T10:24:45.000Z</time>
      </trkpt>
      <trkpt lat="43.20143" lon="5.77751">
        <ele>218.80000305176</ele>
        <time>2016-05-15T10:24:46.000Z</time>
      </trkpt>
      <trkpt lat="43.20147" lon="5.77743">
        <ele>218.39999389648</ele>
        <time>2016-05-15T10:24:47.000Z</time>
      </trkpt>
      <trkpt lat="43.20157" lon="5.77728">
        <ele>218.60000610352</ele>
        <time>2016-05-15T10:24:49.000Z</time>
      </trkpt>
      <trkpt lat="43.20168" lon="5.77712">
        <ele>218.39999389648</ele>
        <time>2016-05-15T10:24:51.000Z</time>
      </trkpt>
      <trkpt lat="43.20173" lon="5.77704">
        <ele>218.60000610352</ele>
        <time>2016-05-15T10:24:52.000Z</time>
      </trkpt>
      <trkpt lat="43.20175" lon="5.77694">
        <ele>218.60000610352</ele>
        <time>2016-05-15T10:24:53.000Z</time>
      </trkpt>
      <trkpt lat="43.20175" lon="5.77658">
        <ele>216.39999389648</ele>
        <time>2016-05-15T10:24:56.000Z</time>
      </trkpt>
      <trkpt lat="43.20171" lon="5.77632">
        <ele>213.39999389648</ele>
        <time>2016-05-15T10:24:58.000Z</time>
      </trkpt>
      <trkpt lat="43.20168" lon="5.77607">
        <ele>210.39999389648</ele>
        <time>2016-05-15T10:25:00.000Z</time>
      </trkpt>
      <trkpt lat="43.20167" lon="5.77595">
        <ele>209.39999389648</ele>
        <time>2016-05-15T10:25:01.000Z</time>
      </trkpt>
      <trkpt lat="43.20168" lon="5.77575">
        <ele>208.19999694824</ele>
        <time>2016-05-15T10:25:03.000Z</time>
      </trkpt>
      <trkpt lat="43.20168" lon="5.77567">
        <ele>207.60000610352</ele>
        <time>2016-05-15T10:25:04.000Z</time>
      </trkpt>
      <trkpt lat="43.20168" lon="5.7756">
        <ele>207.19999694824</ele>
        <time>2016-05-15T10:25:05.000Z</time>
      </trkpt>
      <trkpt lat="43.20168" lon="5.7755">
        <ele>206.19999694824</ele>
        <time>2016-05-15T10:25:07.000Z</time>
      </trkpt>
      <trkpt lat="43.20167" lon="5.77547">
        <ele>205.39999389648</ele>
        <time>2016-05-15T10:25:08.000Z</time>
      </trkpt>
      <trkpt lat="43.20165" lon="5.77547">
        <ele>204.80000305176</ele>
        <time>2016-05-15T10:25:09.000Z</time>
      </trkpt>
      <trkpt lat="43.2016" lon="5.7755">
        <ele>203.60000610352</ele>
        <time>2016-05-15T10:25:11.000Z</time>
      </trkpt>
      <trkpt lat="43.20158" lon="5.77554">
        <ele>203.60000610352</ele>
        <time>2016-05-15T10:25:12.000Z</time>
      </trkpt>
      <trkpt lat="43.20156" lon="5.7756">
        <ele>203.19999694824</ele>
        <time>2016-05-15T10:25:13.000Z</time>
      </trkpt>
      <trkpt lat="43.20151" lon="5.77572">
        <ele>202.60000610352</ele>
        <time>2016-05-15T10:25:15.000Z</time>
      </trkpt>
      <trkpt lat="43.20148" lon="5.77579">
        <ele>202.19999694824</ele>
        <time>2016-05-15T10:25:16.000Z</time>
      </trkpt>
      <trkpt lat="43.20136" lon="5.77604">
        <ele>201.19999694824</ele>
        <time>2016-05-15T10:25:20.000Z</time>
      </trkpt>
      <trkpt lat="43.20133" lon="5.7761">
        <ele>201.60000610352</ele>
        <time>2016-05-15T10:25:21.000Z</time>
      </trkpt>
      <trkpt lat="43.20125" lon="5.77624">
        <ele>202.19999694824</ele>
        <time>2016-05-15T10:25:23.000Z</time>
      </trkpt>
      <trkpt lat="43.2012" lon="5.7763">
        <ele>202.19999694824</ele>
        <time>2016-05-15T10:25:24.000Z</time>
      </trkpt>
      <trkpt lat="43.20115" lon="5.77635">
        <ele>202</ele>
        <time>2016-05-15T10:25:25.000Z</time>
      </trkpt>
      <trkpt lat="43.20102" lon="5.77643">
        <ele>199.80000305176</ele>
        <time>2016-05-15T10:25:27.000Z</time>
      </trkpt>
      <trkpt lat="43.20088" lon="5.77648">
        <ele>198.60000610352</ele>
        <time>2016-05-15T10:25:29.000Z</time>
      </trkpt>
      <trkpt lat="43.20055" lon="5.77656">
        <ele>196</ele>
        <time>2016-05-15T10:25:33.000Z</time>
      </trkpt>
      <trkpt lat="43.20038" lon="5.7766">
        <ele>194.80000305176</ele>
        <time>2016-05-15T10:25:35.000Z</time>
      </trkpt>
      <trkpt lat="43.2002" lon="5.77663">
        <ele>193.60000610352</ele>
        <time>2016-05-15T10:25:37.000Z</time>
      </trkpt>
      <trkpt lat="43.19992" lon="5.77671">
        <ele>193.19999694824</ele>
        <time>2016-05-15T10:25:40.000Z</time>
      </trkpt>
      <trkpt lat="43.19974" lon="5.7768">
        <ele>193.80000305176</ele>
        <time>2016-05-15T10:25:42.000Z</time>
      </trkpt>
      <trkpt lat="43.19965" lon="5.77683">
        <ele>193.80000305176</ele>
        <time>2016-05-15T10:25:43.000Z</time>
      </trkpt>
      <trkpt lat="43.19957" lon="5.77684">
        <ele>193.60000610352</ele>
        <time>2016-05-15T10:25:44.000Z</time>
      </trkpt>
      <trkpt lat="43.19941" lon="5.77673">
        <ele>191</ele>
        <time>2016-05-15T10:25:46.000Z</time>
      </trkpt>
      <trkpt lat="43.19927" lon="5.77653">
        <ele>187.39999389648</ele>
        <time>2016-05-15T10:25:48.000Z</time>
      </trkpt>
      <trkpt lat="43.19915" lon="5.77631">
        <ele>184.80000305176</ele>
        <time>2016-05-15T10:25:50.000Z</time>
      </trkpt>
      <trkpt lat="43.19909" lon="5.7762">
        <ele>183.60000610352</ele>
        <time>2016-05-15T10:25:51.000Z</time>
      </trkpt>
      <trkpt lat="43.19903" lon="5.77609">
        <ele>182.39999389648</ele>
        <time>2016-05-15T10:25:52.000Z</time>
      </trkpt>
      <trkpt lat="43.19889" lon="5.77588">
        <ele>180.19999694824</ele>
        <time>2016-05-15T10:25:54.000Z</time>
      </trkpt>
      <trkpt lat="43.19876" lon="5.77567">
        <ele>178.19999694824</ele>
        <time>2016-05-15T10:25:56.000Z</time>
      </trkpt>
      <trkpt lat="43.19864" lon="5.77549">
        <ele>176</ele>
        <time>2016-05-15T10:25:58.000Z</time>
      </trkpt>
      <trkpt lat="43.19858" lon="5.77542">
        <ele>175.19999694824</ele>
        <time>2016-05-15T10:25:59.000Z</time>
      </trkpt>
      <trkpt lat="43.19851" lon="5.77539">
        <ele>175</ele>
        <time>2016-05-15T10:26:00.000Z</time>
      </trkpt>
      <trkpt lat="43.19843" lon="5.77539">
        <ele>175</ele>
        <time>2016-05-15T10:26:01.000Z</time>
      </trkpt>
      <trkpt lat="43.19825" lon="5.77539">
        <ele>173.60000610352</ele>
        <time>2016-05-15T10:26:03.000Z</time>
      </trkpt>
      <trkpt lat="43.19806" lon="5.77541">
        <ele>172.39999389648</ele>
        <time>2016-05-15T10:26:05.000Z</time>
      </trkpt>
      <trkpt lat="43.19787" lon="5.77543">
        <ele>171</ele>
        <time>2016-05-15T10:26:07.000Z</time>
      </trkpt>
      <trkpt lat="43.19776" lon="5.77544">
        <ele>170.19999694824</ele>
        <time>2016-05-15T10:26:08.000Z</time>
      </trkpt>
      <trkpt lat="43.19745" lon="5.77546">
        <ele>166.60000610352</ele>
        <time>2016-05-15T10:26:11.000Z</time>
      </trkpt>
      <trkpt lat="43.19735" lon="5.77546">
        <ele>164.80000305176</ele>
        <time>2016-05-15T10:26:12.000Z</time>
      </trkpt>
      <trkpt lat="43.19726" lon="5.77546">
        <ele>163.19999694824</ele>
        <time>2016-05-15T10:26:13.000Z</time>
      </trkpt>
      <trkpt lat="43.19717" lon="5.77546">
        <ele>161.80000305176</ele>
        <time>2016-05-15T10:26:14.000Z</time>
      </trkpt>
      <trkpt lat="43.19709" lon="5.77548">
        <ele>160.39999389648</ele>
        <time>2016-05-15T10:26:15.000Z</time>
      </trkpt>
      <trkpt lat="43.19701" lon="5.77551">
        <ele>159.60000610352</ele>
        <time>2016-05-15T10:26:16.000Z</time>
      </trkpt>
      <trkpt lat="43.19694" lon="5.77556">
        <ele>159</ele>
        <time>2016-05-15T10:26:17.000Z</time>
      </trkpt>
      <trkpt lat="43.19687" lon="5.77561">
        <ele>158.39999389648</ele>
        <time>2016-05-15T10:26:18.000Z</time>
      </trkpt>
      <trkpt lat="43.19682" lon="5.77565">
        <ele>158.19999694824</ele>
        <time>2016-05-15T10:26:19.000Z</time>
      </trkpt>
      <trkpt lat="43.19678" lon="5.77568">
        <ele>157.80000305176</ele>
        <time>2016-05-15T10:26:20.000Z</time>
      </trkpt>
      <trkpt lat="43.19674" lon="5.77567">
        <ele>156.80000305176</ele>
        <time>2016-05-15T10:26:21.000Z</time>
      </trkpt>
      <trkpt lat="43.19672" lon="5.77562">
        <ele>155.80000305176</ele>
        <time>2016-05-15T10:26:22.000Z</time>
      </trkpt>
      <trkpt lat="43.19673" lon="5.77555">
        <ele>155</ele>
        <time>2016-05-15T10:26:23.000Z</time>
      </trkpt>
      <trkpt lat="43.19676" lon="5.77548">
        <ele>154.60000610352</ele>
        <time>2016-05-15T10:26:24.000Z</time>
      </trkpt>
      <trkpt lat="43.19682" lon="5.77541">
        <ele>154.39999389648</ele>
        <time>2016-05-15T10:26:25.000Z</time>
      </trkpt>
      <trkpt lat="43.19687" lon="5.77534">
        <ele>154.39999389648</ele>
        <time>2016-05-15T10:26:26.000Z</time>
      </trkpt>
      <trkpt lat="43.19693" lon="5.77527">
        <ele>154.19999694824</ele>
        <time>2016-05-15T10:26:27.000Z</time>
      </trkpt>
      <trkpt lat="43.19704" lon="5.77513">
        <ele>154.19999694824</ele>
        <time>2016-05-15T10:26:29.000Z</time>
      </trkpt>
      <trkpt lat="43.19731" lon="5.77486">
        <ele>154</ele>
        <time>2016-05-15T10:26:33.000Z</time>
      </trkpt>
      <trkpt lat="43.19738" lon="5.77479">
        <ele>153.60000610352</ele>
        <time>2016-05-15T10:26:34.000Z</time>
      </trkpt>
      <trkpt lat="43.19748" lon="5.7746">
        <ele>152.60000610352</ele>
        <time>2016-05-15T10:26:36.000Z</time>
      </trkpt>
      <trkpt lat="43.19752" lon="5.77448">
        <ele>152.19999694824</ele>
        <time>2016-05-15T10:26:37.000Z</time>
      </trkpt>
      <trkpt lat="43.19754" lon="5.77437">
        <ele>151.80000305176</ele>
        <time>2016-05-15T10:26:38.000Z</time>
      </trkpt>
      <trkpt lat="43.19763" lon="5.77398">
        <ele>150</ele>
        <time>2016-05-15T10:26:41.000Z</time>
      </trkpt>
      <trkpt lat="43.19769" lon="5.77371">
        <ele>149.19999694824</ele>
        <time>2016-05-15T10:26:43.000Z</time>
      </trkpt>
      <trkpt lat="43.19771" lon="5.77358">
        <ele>148.60000610352</ele>
        <time>2016-05-15T10:26:44.000Z</time>
      </trkpt>
      <trkpt lat="43.19772" lon="5.77333">
        <ele>147.60000610352</ele>
        <time>2016-05-15T10:26:46.000Z</time>
      </trkpt>
      <trkpt lat="43.19772" lon="5.77321">
        <ele>146.60000610352</ele>
        <time>2016-05-15T10:26:47.000Z</time>
      </trkpt>
      <trkpt lat="43.1977" lon="5.7731">
        <ele>146.19999694824</ele>
        <time>2016-05-15T10:26:48.000Z</time>
      </trkpt>
      <trkpt lat="43.19764" lon="5.77285">
        <ele>144.19999694824</ele>
        <time>2016-05-15T10:26:50.000Z</time>
      </trkpt>
      <trkpt lat="43.19758" lon="5.77258">
        <ele>141.80000305176</ele>
        <time>2016-05-15T10:26:52.000Z</time>
      </trkpt>
      <trkpt lat="43.19756" lon="5.77228">
        <ele>140.60000610352</ele>
        <time>2016-05-15T10:26:54.000Z</time>
      </trkpt>
      <trkpt lat="43.19755" lon="5.77198">
        <ele>139.60000610352</ele>
        <time>2016-05-15T10:26:56.000Z</time>
      </trkpt>
      <trkpt lat="43.19755" lon="5.77184">
        <ele>138.80000305176</ele>
        <time>2016-05-15T10:26:57.000Z</time>
      </trkpt>
      <trkpt lat="43.19752" lon="5.7717">
        <ele>137.80000305176</ele>
        <time>2016-05-15T10:26:58.000Z</time>
      </trkpt>
      <trkpt lat="43.19748" lon="5.77157">
        <ele>136.19999694824</ele>
        <time>2016-05-15T10:26:59.000Z</time>
      </trkpt>
      <trkpt lat="43.19742" lon="5.77144">
        <ele>134</ele>
        <time>2016-05-15T10:27:00.000Z</time>
      </trkpt>
      <trkpt lat="43.19735" lon="5.77131">
        <ele>132.19999694824</ele>
        <time>2016-05-15T10:27:01.000Z</time>
      </trkpt>
      <trkpt lat="43.19729" lon="5.77118">
        <ele>131</ele>
        <time>2016-05-15T10:27:02.000Z</time>
      </trkpt>
      <trkpt lat="43.19715" lon="5.77091">
        <ele>128.39999389648</ele>
        <time>2016-05-15T10:27:04.000Z</time>
      </trkpt>
      <trkpt lat="43.19694" lon="5.77051">
        <ele>124.80000305176</ele>
        <time>2016-05-15T10:27:07.000Z</time>
      </trkpt>
      <trkpt lat="43.19687" lon="5.77039">
        <ele>123.40000152588</ele>
        <time>2016-05-15T10:27:08.000Z</time>
      </trkpt>
      <trkpt lat="43.19679" lon="5.77026">
        <ele>121.59999847412</ele>
        <time>2016-05-15T10:27:09.000Z</time>
      </trkpt>
      <trkpt lat="43.19663" lon="5.77003">
        <ele>119.80000305176</ele>
        <time>2016-05-15T10:27:11.000Z</time>
      </trkpt>
      <trkpt lat="43.19655" lon="5.76991">
        <ele>118.80000305176</ele>
        <time>2016-05-15T10:27:12.000Z</time>
      </trkpt>
      <trkpt lat="43.19647" lon="5.7698">
        <ele>117.59999847412</ele>
        <time>2016-05-15T10:27:13.000Z</time>
      </trkpt>
      <trkpt lat="43.19638" lon="5.76969">
        <ele>116.40000152588</ele>
        <time>2016-05-15T10:27:14.000Z</time>
      </trkpt>
      <trkpt lat="43.1963" lon="5.76957">
        <ele>114.40000152588</ele>
        <time>2016-05-15T10:27:15.000Z</time>
      </trkpt>
      <trkpt lat="43.19622" lon="5.76946">
        <ele>112.40000152588</ele>
        <time>2016-05-15T10:27:16.000Z</time>
      </trkpt>
      <trkpt lat="43.19606" lon="5.76923">
        <ele>108.59999847412</ele>
        <time>2016-05-15T10:27:18.000Z</time>
      </trkpt>
      <trkpt lat="43.1959" lon="5.769">
        <ele>105.40000152588</ele>
        <time>2016-05-15T10:27:20.000Z</time>
      </trkpt>
      <trkpt lat="43.19583" lon="5.76888">
        <ele>104.59999847412</ele>
        <time>2016-05-15T10:27:21.000Z</time>
      </trkpt>
      <trkpt lat="43.19576" lon="5.76877">
        <ele>103.80000305176</ele>
        <time>2016-05-15T10:27:22.000Z</time>
      </trkpt>
      <trkpt lat="43.19569" lon="5.76865">
        <ele>102.80000305176</ele>
        <time>2016-05-15T10:27:23.000Z</time>
      </trkpt>
      <trkpt lat="43.19563" lon="5.76853">
        <ele>102.19999694824</ele>
        <time>2016-05-15T10:27:24.000Z</time>
      </trkpt>
      <trkpt lat="43.19557" lon="5.76839">
        <ele>101.80000305176</ele>
        <time>2016-05-15T10:27:25.000Z</time>
      </trkpt>
      <trkpt lat="43.19553" lon="5.76826">
        <ele>101.40000152588</ele>
        <time>2016-05-15T10:27:26.000Z</time>
      </trkpt>
      <trkpt lat="43.1955" lon="5.76812">
        <ele>101.40000152588</ele>
        <time>2016-05-15T10:27:27.000Z</time>
      </trkpt>
      <trkpt lat="43.19548" lon="5.76799">
        <ele>101.40000152588</ele>
        <time>2016-05-15T10:27:28.000Z</time>
      </trkpt>
      <trkpt lat="43.19546" lon="5.76786">
        <ele>101.40000152588</ele>
        <time>2016-05-15T10:27:29.000Z</time>
      </trkpt>
      <trkpt lat="43.19544" lon="5.76774">
        <ele>101.40000152588</ele>
        <time>2016-05-15T10:27:30.000Z</time>
      </trkpt>
      <trkpt lat="43.19541" lon="5.76749">
        <ele>101.59999847412</ele>
        <time>2016-05-15T10:27:32.000Z</time>
      </trkpt>
      <trkpt lat="43.19539" lon="5.76717">
        <ele>102.59999847412</ele>
        <time>2016-05-15T10:27:35.000Z</time>
      </trkpt>
      <trkpt lat="43.19537" lon="5.76696">
        <ele>102.19999694824</ele>
        <time>2016-05-15T10:27:37.000Z</time>
      </trkpt>
      <trkpt lat="43.19534" lon="5.76667">
        <ele>101.80000305176</ele>
        <time>2016-05-15T10:27:40.000Z</time>
      </trkpt>
      <trkpt lat="43.19532" lon="5.76647">
        <ele>101.80000305176</ele>
        <time>2016-05-15T10:27:42.000Z</time>
      </trkpt>
      <trkpt lat="43.19523" lon="5.76583">
        <ele>99.400001525879</ele>
        <time>2016-05-15T10:27:48.000Z</time>
      </trkpt>
      <trkpt lat="43.19512" lon="5.7654">
        <ele>97</ele>
        <time>2016-05-15T10:27:52.000Z</time>
      </trkpt>
      <trkpt lat="43.19506" lon="5.76518">
        <ele>95.800003051758</ele>
        <time>2016-05-15T10:27:54.000Z</time>
      </trkpt>
      <trkpt lat="43.19498" lon="5.76496">
        <ele>94.800003051758</ele>
        <time>2016-05-15T10:27:56.000Z</time>
      </trkpt>
      <trkpt lat="43.19493" lon="5.76473">
        <ele>93.800003051758</ele>
        <time>2016-05-15T10:27:58.000Z</time>
      </trkpt>
      <trkpt lat="43.19492" lon="5.76461">
        <ele>93.199996948242</ele>
        <time>2016-05-15T10:27:59.000Z</time>
      </trkpt>
      <trkpt lat="43.1949" lon="5.7645">
        <ele>92.599998474121</ele>
        <time>2016-05-15T10:28:00.000Z</time>
      </trkpt>
      <trkpt lat="43.19484" lon="5.76427">
        <ele>91.599998474121</ele>
        <time>2016-05-15T10:28:02.000Z</time>
      </trkpt>
      <trkpt lat="43.19481" lon="5.76416">
        <ele>90.800003051758</ele>
        <time>2016-05-15T10:28:03.000Z</time>
      </trkpt>
      <trkpt lat="43.19477" lon="5.76404">
        <ele>90.199996948242</ele>
        <time>2016-05-15T10:28:04.000Z</time>
      </trkpt>
      <trkpt lat="43.19466" lon="5.76375">
        <ele>87.800003051758</ele>
        <time>2016-05-15T10:28:07.000Z</time>
      </trkpt>
      <trkpt lat="43.19463" lon="5.76365">
        <ele>87</ele>
        <time>2016-05-15T10:28:08.000Z</time>
      </trkpt>
      <trkpt lat="43.19461" lon="5.76356">
        <ele>86.199996948242</ele>
        <time>2016-05-15T10:28:09.000Z</time>
      </trkpt>
      <trkpt lat="43.1946" lon="5.76347">
        <ele>85.599998474121</ele>
        <time>2016-05-15T10:28:10.000Z</time>
      </trkpt>
      <trkpt lat="43.1946" lon="5.76338">
        <ele>85.199996948242</ele>
        <time>2016-05-15T10:28:11.000Z</time>
      </trkpt>
      <trkpt lat="43.1946" lon="5.7633">
        <ele>84.800003051758</ele>
        <time>2016-05-15T10:28:12.000Z</time>
      </trkpt>
      <trkpt lat="43.19459" lon="5.76317">
        <ele>84.400001525879</ele>
        <time>2016-05-15T10:28:14.000Z</time>
      </trkpt>
      <trkpt lat="43.19459" lon="5.76313">
        <ele>84</ele>
        <time>2016-05-15T10:28:15.000Z</time>
      </trkpt>
      <trkpt lat="43.19458" lon="5.76311">
        <ele>83.800003051758</ele>
        <time>2016-05-15T10:28:16.000Z</time>
      </trkpt>
      <trkpt lat="43.19455" lon="5.76308">
        <ele>83.400001525879</ele>
        <time>2016-05-15T10:28:18.000Z</time>
      </trkpt>
      <trkpt lat="43.19452" lon="5.76307">
        <ele>82.800003051758</ele>
        <time>2016-05-15T10:28:19.000Z</time>
      </trkpt>
      <trkpt lat="43.19442" lon="5.76308">
        <ele>81.199996948242</ele>
        <time>2016-05-15T10:28:21.000Z</time>
      </trkpt>
      <trkpt lat="43.19436" lon="5.7631">
        <ele>80.400001525879</ele>
        <time>2016-05-15T10:28:22.000Z</time>
      </trkpt>
      <trkpt lat="43.19429" lon="5.76313">
        <ele>79.599998474121</ele>
        <time>2016-05-15T10:28:23.000Z</time>
      </trkpt>
      <trkpt lat="43.19422" lon="5.76316">
        <ele>79</ele>
        <time>2016-05-15T10:28:24.000Z</time>
      </trkpt>
      <trkpt lat="43.194" lon="5.76327">
        <ele>77.800003051758</ele>
        <time>2016-05-15T10:28:27.000Z</time>
      </trkpt>
      <trkpt lat="43.19392" lon="5.76332">
        <ele>77.199996948242</ele>
        <time>2016-05-15T10:28:28.000Z</time>
      </trkpt>
      <trkpt lat="43.19354" lon="5.76357">
        <ele>75.800003051758</ele>
        <time>2016-05-15T10:28:33.000Z</time>
      </trkpt>
      <trkpt lat="43.19336" lon="5.76377">
        <ele>76.199996948242</ele>
        <time>2016-05-15T10:28:36.000Z</time>
      </trkpt>
      <trkpt lat="43.19331" lon="5.76385">
        <ele>76.400001525879</ele>
        <time>2016-05-15T10:28:37.000Z</time>
      </trkpt>
      <trkpt lat="43.19309" lon="5.76427">
        <ele>78</ele>
        <time>2016-05-15T10:28:42.000Z</time>
      </trkpt>
      <trkpt lat="43.19296" lon="5.76435">
        <ele>77.599998474121</ele>
        <time>2016-05-15T10:28:44.000Z</time>
      </trkpt>
      <trkpt lat="43.1929" lon="5.76435">
        <ele>77.199996948242</ele>
        <time>2016-05-15T10:28:45.000Z</time>
      </trkpt>
      <trkpt lat="43.19274" lon="5.76418">
        <ele>75.599998474121</ele>
        <time>2016-05-15T10:28:48.000Z</time>
      </trkpt>
      <trkpt lat="43.19263" lon="5.76387">
        <ele>74</ele>
        <time>2016-05-15T10:28:52.000Z</time>
      </trkpt>
      <trkpt lat="43.19261" lon="5.76378">
        <ele>73.599998474121</ele>
        <time>2016-05-15T10:28:53.000Z</time>
      </trkpt>
      <trkpt lat="43.19255" lon="5.76332">
        <ele>71.599998474121</ele>
        <time>2016-05-15T10:28:58.000Z</time>
      </trkpt>
      <trkpt lat="43.19244" lon="5.76269">
        <ele>71.800003051758</ele>
        <time>2016-05-15T10:29:05.000Z</time>
      </trkpt>
      <trkpt lat="43.19244" lon="5.76249">
        <ele>71.599998474121</ele>
        <time>2016-05-15T10:29:07.000Z</time>
      </trkpt>
      <trkpt lat="43.19246" lon="5.76229">
        <ele>71.199996948242</ele>
        <time>2016-05-15T10:29:09.000Z</time>
      </trkpt>
      <trkpt lat="43.19248" lon="5.7622">
        <ele>71.199996948242</ele>
        <time>2016-05-15T10:29:10.000Z</time>
      </trkpt>
      <trkpt lat="43.19252" lon="5.76201">
        <ele>72.199996948242</ele>
        <time>2016-05-15T10:29:12.000Z</time>
      </trkpt>
      <trkpt lat="43.19258" lon="5.76177">
        <ele>72.599998474121</ele>
        <time>2016-05-15T10:29:15.000Z</time>
      </trkpt>
      <trkpt lat="43.19261" lon="5.76161">
        <ele>73</ele>
        <time>2016-05-15T10:29:17.000Z</time>
      </trkpt>
      <trkpt lat="43.1926" lon="5.76135">
        <ele>74.400001525879</ele>
        <time>2016-05-15T10:29:20.000Z</time>
      </trkpt>
      <trkpt lat="43.19259" lon="5.76118">
        <ele>75.800003051758</ele>
        <time>2016-05-15T10:29:22.000Z</time>
      </trkpt>
      <trkpt lat="43.19255" lon="5.76084">
        <ele>78.599998474121</ele>
        <time>2016-05-15T10:29:26.000Z</time>
      </trkpt>
      <trkpt lat="43.19252" lon="5.76058">
        <ele>80.800003051758</ele>
        <time>2016-05-15T10:29:29.000Z</time>
      </trkpt>
      <trkpt lat="43.19249" lon="5.76024">
        <ele>82.599998474121</ele>
        <time>2016-05-15T10:29:33.000Z</time>
      </trkpt>
      <trkpt lat="43.19248" lon="5.76006">
        <ele>83.400001525879</ele>
        <time>2016-05-15T10:29:35.000Z</time>
      </trkpt>
      <trkpt lat="43.19248" lon="5.75989">
        <ele>84</ele>
        <time>2016-05-15T10:29:37.000Z</time>
      </trkpt>
      <trkpt lat="43.19248" lon="5.75964">
        <ele>84.599998474121</ele>
        <time>2016-05-15T10:29:40.000Z</time>
      </trkpt>
      <trkpt lat="43.19251" lon="5.75913">
        <ele>86.599998474121</ele>
        <time>2016-05-15T10:29:46.000Z</time>
      </trkpt>
      <trkpt lat="43.19253" lon="5.75888">
        <ele>87.800003051758</ele>
        <time>2016-05-15T10:29:49.000Z</time>
      </trkpt>
      <trkpt lat="43.19254" lon="5.75862">
        <ele>88.199996948242</ele>
        <time>2016-05-15T10:29:52.000Z</time>
      </trkpt>
      <trkpt lat="43.19256" lon="5.75818">
        <ele>90.400001525879</ele>
        <time>2016-05-15T10:29:57.000Z</time>
      </trkpt>
      <trkpt lat="43.19257" lon="5.75792">
        <ele>91.400001525879</ele>
        <time>2016-05-15T10:30:00.000Z</time>
      </trkpt>
      <trkpt lat="43.19259" lon="5.75759">
        <ele>92.599998474121</ele>
        <time>2016-05-15T10:30:04.000Z</time>
      </trkpt>
      <trkpt lat="43.19259" lon="5.75742">
        <ele>93.199996948242</ele>
        <time>2016-05-15T10:30:06.000Z</time>
      </trkpt>
      <trkpt lat="43.19259" lon="5.75733">
        <ele>93.599998474121</ele>
        <time>2016-05-15T10:30:07.000Z</time>
      </trkpt>
      <trkpt lat="43.19258" lon="5.75691">
        <ele>94</ele>
        <time>2016-05-15T10:30:12.000Z</time>
      </trkpt>
      <trkpt lat="43.19257" lon="5.75683">
        <ele>94</ele>
        <time>2016-05-15T10:30:13.000Z</time>
      </trkpt>
      <trkpt lat="43.19257" lon="5.75675">
        <ele>94</ele>
        <time>2016-05-15T10:30:14.000Z</time>
      </trkpt>
      <trkpt lat="43.19256" lon="5.75659">
        <ele>94</ele>
        <time>2016-05-15T10:30:16.000Z</time>
      </trkpt>
      <trkpt lat="43.19255" lon="5.75642">
        <ele>94</ele>
        <time>2016-05-15T10:30:18.000Z</time>
      </trkpt>
      <trkpt lat="43.19253" lon="5.75619">
        <ele>94.199996948242</ele>
        <time>2016-05-15T10:30:21.000Z</time>
      </trkpt>
      <trkpt lat="43.19252" lon="5.75604">
        <ele>94.599998474121</ele>
        <time>2016-05-15T10:30:23.000Z</time>
      </trkpt>
      <trkpt lat="43.19253" lon="5.75596">
        <ele>95</ele>
        <time>2016-05-15T10:30:24.000Z</time>
      </trkpt>
      <trkpt lat="43.1926" lon="5.75581">
        <ele>96</ele>
        <time>2016-05-15T10:30:26.000Z</time>
      </trkpt>
      <trkpt lat="43.1927" lon="5.75574">
        <ele>96.800003051758</ele>
        <time>2016-05-15T10:30:28.000Z</time>
      </trkpt>
      <trkpt lat="43.19276" lon="5.75573">
        <ele>97</ele>
        <time>2016-05-15T10:30:29.000Z</time>
      </trkpt>
      <trkpt lat="43.19295" lon="5.75582">
        <ele>97.800003051758</ele>
        <time>2016-05-15T10:30:32.000Z</time>
      </trkpt>
      <trkpt lat="43.19305" lon="5.75594">
        <ele>97.800003051758</ele>
        <time>2016-05-15T10:30:34.000Z</time>
      </trkpt>
      <trkpt lat="43.19313" lon="5.75607">
        <ele>97.599998474121</ele>
        <time>2016-05-15T10:30:36.000Z</time>
      </trkpt>
      <trkpt lat="43.19322" lon="5.7562">
        <ele>97.599998474121</ele>
        <time>2016-05-15T10:30:38.000Z</time>
      </trkpt>
      <trkpt lat="43.1933" lon="5.75633">
        <ele>97.400001525879</ele>
        <time>2016-05-15T10:30:40.000Z</time>
      </trkpt>
      <trkpt lat="43.19343" lon="5.75651">
        <ele>97.400001525879</ele>
        <time>2016-05-15T10:30:43.000Z</time>
      </trkpt>
      <trkpt lat="43.19347" lon="5.75657">
        <ele>97.800003051758</ele>
        <time>2016-05-15T10:30:44.000Z</time>
      </trkpt>
      <trkpt lat="43.19359" lon="5.75677">
        <ele>99.599998474121</ele>
        <time>2016-05-15T10:30:47.000Z</time>
      </trkpt>
      <trkpt lat="43.19363" lon="5.75684">
        <ele>100</ele>
        <time>2016-05-15T10:30:48.000Z</time>
      </trkpt>
      <trkpt lat="43.19368" lon="5.75698">
        <ele>100.59999847412</ele>
        <time>2016-05-15T10:30:50.000Z</time>
      </trkpt>
      <trkpt lat="43.19377" lon="5.7572">
        <ele>101.59999847412</ele>
        <time>2016-05-15T10:30:53.000Z</time>
      </trkpt>
      <trkpt lat="43.19384" lon="5.75734">
        <ele>102.80000305176</ele>
        <time>2016-05-15T10:30:55.000Z</time>
      </trkpt>
      <trkpt lat="43.19394" lon="5.75743">
        <ele>104.80000305176</ele>
        <time>2016-05-15T10:30:57.000Z</time>
      </trkpt>
      <trkpt lat="43.19405" lon="5.7575">
        <ele>107</ele>
        <time>2016-05-15T10:30:59.000Z</time>
      </trkpt>
      <trkpt lat="43.19411" lon="5.75754">
        <ele>108</ele>
        <time>2016-05-15T10:31:00.000Z</time>
      </trkpt>
      <trkpt lat="43.19416" lon="5.75758">
        <ele>109</ele>
        <time>2016-05-15T10:31:01.000Z</time>
      </trkpt>
      <trkpt lat="43.1942" lon="5.75765">
        <ele>109.80000305176</ele>
        <time>2016-05-15T10:31:02.000Z</time>
      </trkpt>
      <trkpt lat="43.19425" lon="5.7578">
        <ele>110.59999847412</ele>
        <time>2016-05-15T10:31:04.000Z</time>
      </trkpt>
      <trkpt lat="43.19426" lon="5.75788">
        <ele>110.80000305176</ele>
        <time>2016-05-15T10:31:05.000Z</time>
      </trkpt>
      <trkpt lat="43.19427" lon="5.75805">
        <ele>110.59999847412</ele>
        <time>2016-05-15T10:31:07.000Z</time>
      </trkpt>
      <trkpt lat="43.19428" lon="5.75838">
        <ele>108</ele>
        <time>2016-05-15T10:31:11.000Z</time>
      </trkpt>
      <trkpt lat="43.1943" lon="5.75854">
        <ele>107</ele>
        <time>2016-05-15T10:31:13.000Z</time>
      </trkpt>
      <trkpt lat="43.19432" lon="5.75862">
        <ele>106.80000305176</ele>
        <time>2016-05-15T10:31:14.000Z</time>
      </trkpt>
      <trkpt lat="43.19436" lon="5.75869">
        <ele>107</ele>
        <time>2016-05-15T10:31:15.000Z</time>
      </trkpt>
      <trkpt lat="43.19445" lon="5.75879">
        <ele>107.59999847412</ele>
        <time>2016-05-15T10:31:17.000Z</time>
      </trkpt>
      <trkpt lat="43.19449" lon="5.75884">
        <ele>108</ele>
        <time>2016-05-15T10:31:18.000Z</time>
      </trkpt>
      <trkpt lat="43.19459" lon="5.75895">
        <ele>109.40000152588</ele>
        <time>2016-05-15T10:31:20.000Z</time>
      </trkpt>
      <trkpt lat="43.19463" lon="5.759">
        <ele>110.19999694824</ele>
        <time>2016-05-15T10:31:21.000Z</time>
      </trkpt>
      <trkpt lat="43.19473" lon="5.7591">
        <ele>111.80000305176</ele>
        <time>2016-05-15T10:31:23.000Z</time>
      </trkpt>
      <trkpt lat="43.19479" lon="5.75912">
        <ele>112.80000305176</ele>
        <time>2016-05-15T10:31:24.000Z</time>
      </trkpt>
      <trkpt lat="43.19484" lon="5.75912">
        <ele>113.80000305176</ele>
        <time>2016-05-15T10:31:25.000Z</time>
      </trkpt>
      <trkpt lat="43.19496" lon="5.75898">
        <ele>116.19999694824</ele>
        <time>2016-05-15T10:31:28.000Z</time>
      </trkpt>
      <trkpt lat="43.19499" lon="5.75891">
        <ele>116.59999847412</ele>
        <time>2016-05-15T10:31:29.000Z</time>
      </trkpt>
      <trkpt lat="43.19502" lon="5.75885">
        <ele>117.40000152588</ele>
        <time>2016-05-15T10:31:30.000Z</time>
      </trkpt>
      <trkpt lat="43.19507" lon="5.75874">
        <ele>119.19999694824</ele>
        <time>2016-05-15T10:31:32.000Z</time>
      </trkpt>
      <trkpt lat="43.19516" lon="5.7586">
        <ele>121.19999694824</ele>
        <time>2016-05-15T10:31:35.000Z</time>
      </trkpt>
      <trkpt lat="43.19521" lon="5.75851">
        <ele>122.19999694824</ele>
        <time>2016-05-15T10:31:37.000Z</time>
      </trkpt>
      <trkpt lat="43.19524" lon="5.75847">
        <ele>122.80000305176</ele>
        <time>2016-05-15T10:31:38.000Z</time>
      </trkpt>
      <trkpt lat="43.19527" lon="5.75843">
        <ele>123.40000152588</ele>
        <time>2016-05-15T10:31:39.000Z</time>
      </trkpt>
      <trkpt lat="43.1953" lon="5.75841">
        <ele>123.80000305176</ele>
        <time>2016-05-15T10:31:40.000Z</time>
      </trkpt>
      <trkpt lat="43.19535" lon="5.75839">
        <ele>124.40000152588</ele>
        <time>2016-05-15T10:31:42.000Z</time>
      </trkpt>
      <trkpt lat="43.19539" lon="5.75834">
        <ele>125.19999694824</ele>
        <time>2016-05-15T10:31:44.000Z</time>
      </trkpt>
      <trkpt lat="43.19539" lon="5.75824">
        <ele>125.80000305176</ele>
        <time>2016-05-15T10:31:46.000Z</time>
      </trkpt>
      <trkpt lat="43.19538" lon="5.75818">
        <ele>126</ele>
        <time>2016-05-15T10:31:47.000Z</time>
      </trkpt>
      <trkpt lat="43.19537" lon="5.75812">
        <ele>126.40000152588</ele>
        <time>2016-05-15T10:31:48.000Z</time>
      </trkpt>
      <trkpt lat="43.19537" lon="5.758">
        <ele>126.80000305176</ele>
        <time>2016-05-15T10:31:50.000Z</time>
      </trkpt>
      <trkpt lat="43.19539" lon="5.7579">
        <ele>127.19999694824</ele>
        <time>2016-05-15T10:31:52.000Z</time>
      </trkpt>
      <trkpt lat="43.19548" lon="5.75778">
        <ele>128.19999694824</ele>
        <time>2016-05-15T10:31:55.000Z</time>
      </trkpt>
      <trkpt lat="43.19553" lon="5.75772">
        <ele>129</ele>
        <time>2016-05-15T10:31:57.000Z</time>
      </trkpt>
      <trkpt lat="43.19556" lon="5.75768">
        <ele>129.19999694824</ele>
        <time>2016-05-15T10:31:58.000Z</time>
      </trkpt>
      <trkpt lat="43.19558" lon="5.75765">
        <ele>129.80000305176</ele>
        <time>2016-05-15T10:31:59.000Z</time>
      </trkpt>
      <trkpt lat="43.19564" lon="5.75758">
        <ele>131.39999389648</ele>
        <time>2016-05-15T10:32:01.000Z</time>
      </trkpt>
      <trkpt lat="43.1957" lon="5.75753">
        <ele>133</ele>
        <time>2016-05-15T10:32:03.000Z</time>
      </trkpt>
      <trkpt lat="43.19572" lon="5.75751">
        <ele>133.80000305176</ele>
        <time>2016-05-15T10:32:04.000Z</time>
      </trkpt>
      <trkpt lat="43.19578" lon="5.75746">
        <ele>135.39999389648</ele>
        <time>2016-05-15T10:32:07.000Z</time>
      </trkpt>
      <trkpt lat="43.19579" lon="5.75745">
        <ele>135.80000305176</ele>
        <time>2016-05-15T10:32:08.000Z</time>
      </trkpt>
    </trkseg>
  </trk>
</gpx>